<?xml version="1.0" encoding="UTF-8" standalone="no" ?>
<gpx xmlns="http://www.topografix.com/GPX/1/1" xmlns:xsi="http://www.w3.org/2001/XMLSchema-instance" xsi:schemaLocation="http://www.topografix.com/GPX/1/1 http://www.topografix.com/GPX/1/1/gpx.xsd" version="1.1" creator="VisuGPX - https://www.visugpx.com">
  <metadata>
    <name>ttttttttttttttttttttttttttttttttttttt</name>
    <desc><![CDATA[ttttttttttttttttttttttttttttttttttttttttttttttttttttttttttttt]]></desc>
  </metadata>
  <trk>
    <name><![CDATA[2016-12-03-01_BoisDArcy]]></name>
    <trkseg>
      <trkpt lat="48.79565" lon="2.21332">
        <ele>177.8</ele>
        <time>2016-12-03T08:59:20Z</time>
      </trkpt>
      <trkpt lat="48.7956" lon="2.21325">
        <ele>177.9</ele>
        <time>2016-12-03T08:59:33Z</time>
      </trkpt>
      <trkpt lat="48.79566" lon="2.21314">
        <ele>178.1</ele>
        <time>2016-12-03T08:59:58Z</time>
      </trkpt>
      <trkpt lat="48.7957" lon="2.21307">
        <ele>178.3</ele>
        <time>2016-12-03T09:00:08Z</time>
      </trkpt>
      <trkpt lat="48.79577" lon="2.21297">
        <ele>178.4</ele>
        <time>2016-12-03T09:00:21Z</time>
      </trkpt>
      <trkpt lat="48.79586" lon="2.2129">
        <ele>178.7</ele>
        <time>2016-12-03T09:00:25Z</time>
      </trkpt>
      <trkpt lat="48.79595" lon="2.21283">
        <ele>179.3</ele>
        <time>2016-12-03T09:00:29Z</time>
      </trkpt>
      <trkpt lat="48.79602" lon="2.21273">
        <ele>179.9</ele>
        <time>2016-12-03T09:00:34Z</time>
      </trkpt>
      <trkpt lat="48.79611" lon="2.21262">
        <ele>180.5</ele>
        <time>2016-12-03T09:00:38Z</time>
      </trkpt>
      <trkpt lat="48.79619" lon="2.21254">
        <ele>181.1</ele>
        <time>2016-12-03T09:00:41Z</time>
      </trkpt>
      <trkpt lat="48.79627" lon="2.21244">
        <ele>181.2</ele>
        <time>2016-12-03T09:00:45Z</time>
      </trkpt>
      <trkpt lat="48.79621" lon="2.2123">
        <ele>180</ele>
        <time>2016-12-03T09:00:50Z</time>
      </trkpt>
      <trkpt lat="48.79612" lon="2.21219">
        <ele>178.8</ele>
        <time>2016-12-03T09:00:53Z</time>
      </trkpt>
      <trkpt lat="48.79604" lon="2.21212">
        <ele>177.9</ele>
        <time>2016-12-03T09:00:56Z</time>
      </trkpt>
      <trkpt lat="48.79595" lon="2.212">
        <ele>176.7</ele>
        <time>2016-12-03T09:00:59Z</time>
      </trkpt>
      <trkpt lat="48.79586" lon="2.2119">
        <ele>175.5</ele>
        <time>2016-12-03T09:01:02Z</time>
      </trkpt>
      <trkpt lat="48.79575" lon="2.2118">
        <ele>174.8</ele>
        <time>2016-12-03T09:01:05Z</time>
      </trkpt>
      <trkpt lat="48.79565" lon="2.21168">
        <ele>174.3</ele>
        <time>2016-12-03T09:01:08Z</time>
      </trkpt>
      <trkpt lat="48.79555" lon="2.21158">
        <ele>174.4</ele>
        <time>2016-12-03T09:01:11Z</time>
      </trkpt>
      <trkpt lat="48.79547" lon="2.21153">
        <ele>174.6</ele>
        <time>2016-12-03T09:01:15Z</time>
      </trkpt>
      <trkpt lat="48.79538" lon="2.21144">
        <ele>174.8</ele>
        <time>2016-12-03T09:01:18Z</time>
      </trkpt>
      <trkpt lat="48.7953" lon="2.21134">
        <ele>175</ele>
        <time>2016-12-03T09:01:21Z</time>
      </trkpt>
      <trkpt lat="48.79523" lon="2.21123">
        <ele>175.2</ele>
        <time>2016-12-03T09:01:24Z</time>
      </trkpt>
      <trkpt lat="48.79514" lon="2.21113">
        <ele>175.5</ele>
        <time>2016-12-03T09:01:27Z</time>
      </trkpt>
      <trkpt lat="48.79506" lon="2.21106">
        <ele>175.7</ele>
        <time>2016-12-03T09:01:29Z</time>
      </trkpt>
      <trkpt lat="48.79498" lon="2.21093">
        <ele>176</ele>
        <time>2016-12-03T09:01:32Z</time>
      </trkpt>
      <trkpt lat="48.79487" lon="2.21082">
        <ele>176.4</ele>
        <time>2016-12-03T09:01:35Z</time>
      </trkpt>
      <trkpt lat="48.79477" lon="2.2107">
        <ele>176.9</ele>
        <time>2016-12-03T09:01:38Z</time>
      </trkpt>
      <trkpt lat="48.79468" lon="2.21064">
        <ele>177.2</ele>
        <time>2016-12-03T09:01:40Z</time>
      </trkpt>
      <trkpt lat="48.7946" lon="2.21058">
        <ele>177.4</ele>
        <time>2016-12-03T09:01:42Z</time>
      </trkpt>
      <trkpt lat="48.79449" lon="2.21047">
        <ele>177.7</ele>
        <time>2016-12-03T09:01:45Z</time>
      </trkpt>
      <trkpt lat="48.79441" lon="2.21039">
        <ele>177.9</ele>
        <time>2016-12-03T09:01:47Z</time>
      </trkpt>
      <trkpt lat="48.79432" lon="2.21031">
        <ele>178</ele>
        <time>2016-12-03T09:01:49Z</time>
      </trkpt>
      <trkpt lat="48.79424" lon="2.21025">
        <ele>178</ele>
        <time>2016-12-03T09:01:51Z</time>
      </trkpt>
      <trkpt lat="48.79416" lon="2.21017">
        <ele>178</ele>
        <time>2016-12-03T09:01:53Z</time>
      </trkpt>
      <trkpt lat="48.79406" lon="2.21005">
        <ele>177.8</ele>
        <time>2016-12-03T09:01:56Z</time>
      </trkpt>
      <trkpt lat="48.79398" lon="2.20998">
        <ele>177.6</ele>
        <time>2016-12-03T09:01:58Z</time>
      </trkpt>
      <trkpt lat="48.7939" lon="2.2099">
        <ele>177.4</ele>
        <time>2016-12-03T09:02:00Z</time>
      </trkpt>
      <trkpt lat="48.79381" lon="2.20982">
        <ele>177.2</ele>
        <time>2016-12-03T09:02:02Z</time>
      </trkpt>
      <trkpt lat="48.79373" lon="2.20973">
        <ele>176.9</ele>
        <time>2016-12-03T09:02:04Z</time>
      </trkpt>
      <trkpt lat="48.79364" lon="2.20967">
        <ele>176.6</ele>
        <time>2016-12-03T09:02:06Z</time>
      </trkpt>
      <trkpt lat="48.79355" lon="2.20958">
        <ele>176.3</ele>
        <time>2016-12-03T09:02:08Z</time>
      </trkpt>
      <trkpt lat="48.79348" lon="2.20949">
        <ele>175.9</ele>
        <time>2016-12-03T09:02:10Z</time>
      </trkpt>
      <trkpt lat="48.7934" lon="2.20941">
        <ele>175.6</ele>
        <time>2016-12-03T09:02:12Z</time>
      </trkpt>
      <trkpt lat="48.79332" lon="2.20935">
        <ele>175.2</ele>
        <time>2016-12-03T09:02:14Z</time>
      </trkpt>
      <trkpt lat="48.7932" lon="2.20926">
        <ele>174.7</ele>
        <time>2016-12-03T09:02:17Z</time>
      </trkpt>
      <trkpt lat="48.79312" lon="2.20916">
        <ele>174.2</ele>
        <time>2016-12-03T09:02:19Z</time>
      </trkpt>
      <trkpt lat="48.79304" lon="2.20908">
        <ele>173.6</ele>
        <time>2016-12-03T09:02:21Z</time>
      </trkpt>
      <trkpt lat="48.79295" lon="2.20901">
        <ele>173.1</ele>
        <time>2016-12-03T09:02:23Z</time>
      </trkpt>
      <trkpt lat="48.79286" lon="2.20893">
        <ele>172.7</ele>
        <time>2016-12-03T09:02:25Z</time>
      </trkpt>
      <trkpt lat="48.79278" lon="2.20885">
        <ele>172.4</ele>
        <time>2016-12-03T09:02:27Z</time>
      </trkpt>
      <trkpt lat="48.79268" lon="2.20877">
        <ele>172.1</ele>
        <time>2016-12-03T09:02:29Z</time>
      </trkpt>
      <trkpt lat="48.7926" lon="2.20869">
        <ele>172</ele>
        <time>2016-12-03T09:02:31Z</time>
      </trkpt>
      <trkpt lat="48.79251" lon="2.20854">
        <ele>172</ele>
        <time>2016-12-03T09:02:34Z</time>
      </trkpt>
      <trkpt lat="48.79243" lon="2.20839">
        <ele>171.8</ele>
        <time>2016-12-03T09:02:37Z</time>
      </trkpt>
      <trkpt lat="48.79244" lon="2.20824">
        <ele>171</ele>
        <time>2016-12-03T09:02:39Z</time>
      </trkpt>
      <trkpt lat="48.79247" lon="2.20807">
        <ele>169.4</ele>
        <time>2016-12-03T09:02:42Z</time>
      </trkpt>
      <trkpt lat="48.79252" lon="2.20792">
        <ele>167.9</ele>
        <time>2016-12-03T09:02:44Z</time>
      </trkpt>
      <trkpt lat="48.79257" lon="2.20775">
        <ele>166</ele>
        <time>2016-12-03T09:02:47Z</time>
      </trkpt>
      <trkpt lat="48.79259" lon="2.2076">
        <ele>164.4</ele>
        <time>2016-12-03T09:02:50Z</time>
      </trkpt>
      <trkpt lat="48.79265" lon="2.20745">
        <ele>163</ele>
        <time>2016-12-03T09:02:52Z</time>
      </trkpt>
      <trkpt lat="48.79267" lon="2.20729">
        <ele>161.9</ele>
        <time>2016-12-03T09:02:54Z</time>
      </trkpt>
      <trkpt lat="48.79269" lon="2.20712">
        <ele>160.7</ele>
        <time>2016-12-03T09:02:56Z</time>
      </trkpt>
      <trkpt lat="48.79265" lon="2.20696">
        <ele>160</ele>
        <time>2016-12-03T09:02:58Z</time>
      </trkpt>
      <trkpt lat="48.79259" lon="2.2068">
        <ele>159.4</ele>
        <time>2016-12-03T09:03:00Z</time>
      </trkpt>
      <trkpt lat="48.79251" lon="2.20666">
        <ele>158.8</ele>
        <time>2016-12-03T09:03:02Z</time>
      </trkpt>
      <trkpt lat="48.79242" lon="2.20657">
        <ele>158.9</ele>
        <time>2016-12-03T09:03:04Z</time>
      </trkpt>
      <trkpt lat="48.79232" lon="2.20654">
        <ele>159.7</ele>
        <time>2016-12-03T09:03:06Z</time>
      </trkpt>
      <trkpt lat="48.79223" lon="2.20653">
        <ele>160.9</ele>
        <time>2016-12-03T09:03:08Z</time>
      </trkpt>
      <trkpt lat="48.79211" lon="2.20653">
        <ele>162.3</ele>
        <time>2016-12-03T09:03:11Z</time>
      </trkpt>
      <trkpt lat="48.792" lon="2.20651">
        <ele>163.6</ele>
        <time>2016-12-03T09:03:14Z</time>
      </trkpt>
      <trkpt lat="48.79186" lon="2.20652">
        <ele>165.4</ele>
        <time>2016-12-03T09:03:17Z</time>
      </trkpt>
      <trkpt lat="48.79176" lon="2.20654">
        <ele>166.9</ele>
        <time>2016-12-03T09:03:19Z</time>
      </trkpt>
      <trkpt lat="48.79165" lon="2.20656">
        <ele>168.4</ele>
        <time>2016-12-03T09:03:21Z</time>
      </trkpt>
      <trkpt lat="48.79155" lon="2.20657">
        <ele>168</ele>
        <time>2016-12-03T09:03:23Z</time>
      </trkpt>
      <trkpt lat="48.79145" lon="2.20655">
        <ele>167.4</ele>
        <time>2016-12-03T09:03:25Z</time>
      </trkpt>
      <trkpt lat="48.79136" lon="2.20653">
        <ele>166.7</ele>
        <time>2016-12-03T09:03:27Z</time>
      </trkpt>
      <trkpt lat="48.79123" lon="2.20649">
        <ele>165.7</ele>
        <time>2016-12-03T09:03:30Z</time>
      </trkpt>
      <trkpt lat="48.79111" lon="2.20643">
        <ele>164.6</ele>
        <time>2016-12-03T09:03:33Z</time>
      </trkpt>
      <trkpt lat="48.79098" lon="2.20636">
        <ele>163.4</ele>
        <time>2016-12-03T09:03:36Z</time>
      </trkpt>
      <trkpt lat="48.79086" lon="2.20629">
        <ele>162.5</ele>
        <time>2016-12-03T09:03:39Z</time>
      </trkpt>
      <trkpt lat="48.79074" lon="2.20623">
        <ele>162.5</ele>
        <time>2016-12-03T09:03:42Z</time>
      </trkpt>
      <trkpt lat="48.79062" lon="2.20618">
        <ele>163.1</ele>
        <time>2016-12-03T09:03:45Z</time>
      </trkpt>
      <trkpt lat="48.7905" lon="2.20615">
        <ele>163.8</ele>
        <time>2016-12-03T09:03:48Z</time>
      </trkpt>
      <trkpt lat="48.79038" lon="2.20613">
        <ele>164.6</ele>
        <time>2016-12-03T09:03:51Z</time>
      </trkpt>
      <trkpt lat="48.79027" lon="2.20617">
        <ele>165.9</ele>
        <time>2016-12-03T09:03:54Z</time>
      </trkpt>
      <trkpt lat="48.79017" lon="2.20624">
        <ele>167.4</ele>
        <time>2016-12-03T09:03:57Z</time>
      </trkpt>
      <trkpt lat="48.79005" lon="2.20632">
        <ele>169.2</ele>
        <time>2016-12-03T09:04:00Z</time>
      </trkpt>
      <trkpt lat="48.78994" lon="2.20638">
        <ele>170.4</ele>
        <time>2016-12-03T09:04:03Z</time>
      </trkpt>
      <trkpt lat="48.78984" lon="2.20644">
        <ele>171.4</ele>
        <time>2016-12-03T09:04:06Z</time>
      </trkpt>
      <trkpt lat="48.78971" lon="2.20653">
        <ele>172.8</ele>
        <time>2016-12-03T09:04:09Z</time>
      </trkpt>
      <trkpt lat="48.7896" lon="2.2066">
        <ele>174.2</ele>
        <time>2016-12-03T09:04:12Z</time>
      </trkpt>
      <trkpt lat="48.78949" lon="2.20669">
        <ele>175.5</ele>
        <time>2016-12-03T09:04:15Z</time>
      </trkpt>
      <trkpt lat="48.7894" lon="2.20676">
        <ele>176</ele>
        <time>2016-12-03T09:04:17Z</time>
      </trkpt>
      <trkpt lat="48.78931" lon="2.20683">
        <ele>176.5</ele>
        <time>2016-12-03T09:04:20Z</time>
      </trkpt>
      <trkpt lat="48.7892" lon="2.20693">
        <ele>177.2</ele>
        <time>2016-12-03T09:04:24Z</time>
      </trkpt>
      <trkpt lat="48.78911" lon="2.207">
        <ele>177.2</ele>
        <time>2016-12-03T09:04:27Z</time>
      </trkpt>
      <trkpt lat="48.78903" lon="2.20706">
        <ele>177</ele>
        <time>2016-12-03T09:04:30Z</time>
      </trkpt>
      <trkpt lat="48.78894" lon="2.20712">
        <ele>176.9</ele>
        <time>2016-12-03T09:04:33Z</time>
      </trkpt>
      <trkpt lat="48.78885" lon="2.20719">
        <ele>177</ele>
        <time>2016-12-03T09:04:36Z</time>
      </trkpt>
      <trkpt lat="48.78875" lon="2.20728">
        <ele>177.3</ele>
        <time>2016-12-03T09:04:39Z</time>
      </trkpt>
      <trkpt lat="48.78866" lon="2.20735">
        <ele>177.6</ele>
        <time>2016-12-03T09:04:42Z</time>
      </trkpt>
      <trkpt lat="48.78858" lon="2.20743">
        <ele>178.1</ele>
        <time>2016-12-03T09:04:44Z</time>
      </trkpt>
      <trkpt lat="48.78849" lon="2.20754">
        <ele>178.9</ele>
        <time>2016-12-03T09:04:47Z</time>
      </trkpt>
      <trkpt lat="48.78841" lon="2.20765">
        <ele>179.3</ele>
        <time>2016-12-03T09:04:50Z</time>
      </trkpt>
      <trkpt lat="48.78833" lon="2.20777">
        <ele>179.6</ele>
        <time>2016-12-03T09:04:53Z</time>
      </trkpt>
      <trkpt lat="48.78824" lon="2.2079">
        <ele>179.6</ele>
        <time>2016-12-03T09:04:56Z</time>
      </trkpt>
      <trkpt lat="48.78816" lon="2.20801">
        <ele>179.5</ele>
        <time>2016-12-03T09:04:59Z</time>
      </trkpt>
      <trkpt lat="48.78807" lon="2.20813">
        <ele>179.5</ele>
        <time>2016-12-03T09:05:02Z</time>
      </trkpt>
      <trkpt lat="48.78798" lon="2.20826">
        <ele>179.5</ele>
        <time>2016-12-03T09:05:05Z</time>
      </trkpt>
      <trkpt lat="48.78788" lon="2.20837">
        <ele>179.4</ele>
        <time>2016-12-03T09:05:08Z</time>
      </trkpt>
      <trkpt lat="48.78777" lon="2.20844">
        <ele>178.9</ele>
        <time>2016-12-03T09:05:11Z</time>
      </trkpt>
      <trkpt lat="48.78767" lon="2.20841">
        <ele>178.5</ele>
        <time>2016-12-03T09:05:14Z</time>
      </trkpt>
      <trkpt lat="48.78756" lon="2.20836">
        <ele>178.2</ele>
        <time>2016-12-03T09:05:17Z</time>
      </trkpt>
      <trkpt lat="48.78745" lon="2.20828">
        <ele>177.8</ele>
        <time>2016-12-03T09:05:20Z</time>
      </trkpt>
      <trkpt lat="48.78733" lon="2.20819">
        <ele>177.6</ele>
        <time>2016-12-03T09:05:23Z</time>
      </trkpt>
      <trkpt lat="48.78724" lon="2.20813">
        <ele>177.6</ele>
        <time>2016-12-03T09:05:25Z</time>
      </trkpt>
      <trkpt lat="48.78713" lon="2.20803">
        <ele>177.6</ele>
        <time>2016-12-03T09:05:28Z</time>
      </trkpt>
      <trkpt lat="48.78701" lon="2.20793">
        <ele>177.7</ele>
        <time>2016-12-03T09:05:31Z</time>
      </trkpt>
      <trkpt lat="48.78692" lon="2.20787">
        <ele>177.9</ele>
        <time>2016-12-03T09:05:33Z</time>
      </trkpt>
      <trkpt lat="48.78683" lon="2.20781">
        <ele>178.1</ele>
        <time>2016-12-03T09:05:35Z</time>
      </trkpt>
      <trkpt lat="48.78675" lon="2.20775">
        <ele>178.4</ele>
        <time>2016-12-03T09:05:37Z</time>
      </trkpt>
      <trkpt lat="48.78664" lon="2.20766">
        <ele>178.7</ele>
        <time>2016-12-03T09:05:40Z</time>
      </trkpt>
      <trkpt lat="48.78655" lon="2.2076">
        <ele>178.4</ele>
        <time>2016-12-03T09:05:42Z</time>
      </trkpt>
      <trkpt lat="48.78644" lon="2.20752">
        <ele>177.9</ele>
        <time>2016-12-03T09:05:45Z</time>
      </trkpt>
      <trkpt lat="48.78633" lon="2.20746">
        <ele>177.2</ele>
        <time>2016-12-03T09:05:48Z</time>
      </trkpt>
      <trkpt lat="48.78624" lon="2.2074">
        <ele>176.8</ele>
        <time>2016-12-03T09:05:50Z</time>
      </trkpt>
      <trkpt lat="48.78615" lon="2.20732">
        <ele>176.4</ele>
        <time>2016-12-03T09:05:52Z</time>
      </trkpt>
      <trkpt lat="48.78607" lon="2.20725">
        <ele>176.1</ele>
        <time>2016-12-03T09:05:54Z</time>
      </trkpt>
      <trkpt lat="48.78598" lon="2.20718">
        <ele>176</ele>
        <time>2016-12-03T09:05:56Z</time>
      </trkpt>
      <trkpt lat="48.78588" lon="2.2071">
        <ele>176</ele>
        <time>2016-12-03T09:05:58Z</time>
      </trkpt>
      <trkpt lat="48.7858" lon="2.20703">
        <ele>176</ele>
        <time>2016-12-03T09:06:00Z</time>
      </trkpt>
      <trkpt lat="48.78571" lon="2.20696">
        <ele>175.9</ele>
        <time>2016-12-03T09:06:02Z</time>
      </trkpt>
      <trkpt lat="48.78562" lon="2.20689">
        <ele>175.8</ele>
        <time>2016-12-03T09:06:04Z</time>
      </trkpt>
      <trkpt lat="48.78554" lon="2.20681">
        <ele>175.7</ele>
        <time>2016-12-03T09:06:06Z</time>
      </trkpt>
      <trkpt lat="48.78544" lon="2.20673">
        <ele>175.5</ele>
        <time>2016-12-03T09:06:08Z</time>
      </trkpt>
      <trkpt lat="48.78536" lon="2.20667">
        <ele>175.3</ele>
        <time>2016-12-03T09:06:10Z</time>
      </trkpt>
      <trkpt lat="48.78525" lon="2.20659">
        <ele>174.7</ele>
        <time>2016-12-03T09:06:12Z</time>
      </trkpt>
      <trkpt lat="48.78514" lon="2.20652">
        <ele>174.2</ele>
        <time>2016-12-03T09:06:14Z</time>
      </trkpt>
      <trkpt lat="48.78505" lon="2.20646">
        <ele>173.9</ele>
        <time>2016-12-03T09:06:16Z</time>
      </trkpt>
      <trkpt lat="48.78496" lon="2.20636">
        <ele>173.8</ele>
        <time>2016-12-03T09:06:18Z</time>
      </trkpt>
      <trkpt lat="48.78488" lon="2.20623">
        <ele>174</ele>
        <time>2016-12-03T09:06:20Z</time>
      </trkpt>
      <trkpt lat="48.78482" lon="2.20607">
        <ele>174.3</ele>
        <time>2016-12-03T09:06:22Z</time>
      </trkpt>
      <trkpt lat="48.78479" lon="2.20592">
        <ele>174.5</ele>
        <time>2016-12-03T09:06:24Z</time>
      </trkpt>
      <trkpt lat="48.78475" lon="2.20576">
        <ele>174.6</ele>
        <time>2016-12-03T09:06:26Z</time>
      </trkpt>
      <trkpt lat="48.78473" lon="2.20561">
        <ele>174.5</ele>
        <time>2016-12-03T09:06:28Z</time>
      </trkpt>
      <trkpt lat="48.7847" lon="2.20546">
        <ele>174.4</ele>
        <time>2016-12-03T09:06:30Z</time>
      </trkpt>
      <trkpt lat="48.78466" lon="2.20531">
        <ele>174.5</ele>
        <time>2016-12-03T09:06:32Z</time>
      </trkpt>
      <trkpt lat="48.78461" lon="2.20517">
        <ele>174.6</ele>
        <time>2016-12-03T09:06:34Z</time>
      </trkpt>
      <trkpt lat="48.78457" lon="2.20502">
        <ele>174.7</ele>
        <time>2016-12-03T09:06:36Z</time>
      </trkpt>
      <trkpt lat="48.78452" lon="2.20486">
        <ele>174.7</ele>
        <time>2016-12-03T09:06:38Z</time>
      </trkpt>
      <trkpt lat="48.78448" lon="2.20473">
        <ele>174.7</ele>
        <time>2016-12-03T09:06:40Z</time>
      </trkpt>
      <trkpt lat="48.78445" lon="2.2046">
        <ele>174.8</ele>
        <time>2016-12-03T09:06:42Z</time>
      </trkpt>
      <trkpt lat="48.78442" lon="2.20445">
        <ele>174.8</ele>
        <time>2016-12-03T09:06:44Z</time>
      </trkpt>
      <trkpt lat="48.78438" lon="2.20432">
        <ele>174.9</ele>
        <time>2016-12-03T09:06:46Z</time>
      </trkpt>
      <trkpt lat="48.78434" lon="2.20417">
        <ele>175.1</ele>
        <time>2016-12-03T09:06:48Z</time>
      </trkpt>
      <trkpt lat="48.7843" lon="2.20403">
        <ele>176</ele>
        <time>2016-12-03T09:06:50Z</time>
      </trkpt>
      <trkpt lat="48.78425" lon="2.20388">
        <ele>176.9</ele>
        <time>2016-12-03T09:06:52Z</time>
      </trkpt>
      <trkpt lat="48.78421" lon="2.20375">
        <ele>177.5</ele>
        <time>2016-12-03T09:06:54Z</time>
      </trkpt>
      <trkpt lat="48.78417" lon="2.20361">
        <ele>178.3</ele>
        <time>2016-12-03T09:06:56Z</time>
      </trkpt>
      <trkpt lat="48.78413" lon="2.20346">
        <ele>178.9</ele>
        <time>2016-12-03T09:06:58Z</time>
      </trkpt>
      <trkpt lat="48.78408" lon="2.20331">
        <ele>179.4</ele>
        <time>2016-12-03T09:07:00Z</time>
      </trkpt>
      <trkpt lat="48.78402" lon="2.20314">
        <ele>179.9</ele>
        <time>2016-12-03T09:07:03Z</time>
      </trkpt>
      <trkpt lat="48.78398" lon="2.20297">
        <ele>180.2</ele>
        <time>2016-12-03T09:07:06Z</time>
      </trkpt>
      <trkpt lat="48.78394" lon="2.20283">
        <ele>180.5</ele>
        <time>2016-12-03T09:07:08Z</time>
      </trkpt>
      <trkpt lat="48.78392" lon="2.2027">
        <ele>180.7</ele>
        <time>2016-12-03T09:07:10Z</time>
      </trkpt>
      <trkpt lat="48.78387" lon="2.20257">
        <ele>181</ele>
        <time>2016-12-03T09:07:12Z</time>
      </trkpt>
      <trkpt lat="48.78382" lon="2.20239">
        <ele>180.9</ele>
        <time>2016-12-03T09:07:15Z</time>
      </trkpt>
      <trkpt lat="48.78379" lon="2.20225">
        <ele>180.5</ele>
        <time>2016-12-03T09:07:17Z</time>
      </trkpt>
      <trkpt lat="48.78376" lon="2.20211">
        <ele>180</ele>
        <time>2016-12-03T09:07:19Z</time>
      </trkpt>
      <trkpt lat="48.78373" lon="2.20196">
        <ele>179.6</ele>
        <time>2016-12-03T09:07:21Z</time>
      </trkpt>
      <trkpt lat="48.78369" lon="2.20181">
        <ele>179.1</ele>
        <time>2016-12-03T09:07:23Z</time>
      </trkpt>
      <trkpt lat="48.78366" lon="2.20167">
        <ele>178.6</ele>
        <time>2016-12-03T09:07:25Z</time>
      </trkpt>
      <trkpt lat="48.78363" lon="2.20151">
        <ele>177.5</ele>
        <time>2016-12-03T09:07:27Z</time>
      </trkpt>
      <trkpt lat="48.78359" lon="2.20137">
        <ele>176.5</ele>
        <time>2016-12-03T09:07:29Z</time>
      </trkpt>
      <trkpt lat="48.78355" lon="2.20124">
        <ele>175.5</ele>
        <time>2016-12-03T09:07:31Z</time>
      </trkpt>
      <trkpt lat="48.78352" lon="2.20111">
        <ele>174.5</ele>
        <time>2016-12-03T09:07:33Z</time>
      </trkpt>
      <trkpt lat="48.78348" lon="2.20096">
        <ele>173.3</ele>
        <time>2016-12-03T09:07:35Z</time>
      </trkpt>
      <trkpt lat="48.78343" lon="2.20081">
        <ele>172.1</ele>
        <time>2016-12-03T09:07:37Z</time>
      </trkpt>
      <trkpt lat="48.78338" lon="2.20063">
        <ele>170.9</ele>
        <time>2016-12-03T09:07:40Z</time>
      </trkpt>
      <trkpt lat="48.78334" lon="2.20049">
        <ele>169.9</ele>
        <time>2016-12-03T09:07:42Z</time>
      </trkpt>
      <trkpt lat="48.7833" lon="2.20036">
        <ele>169.5</ele>
        <time>2016-12-03T09:07:44Z</time>
      </trkpt>
      <trkpt lat="48.78326" lon="2.20021">
        <ele>169.2</ele>
        <time>2016-12-03T09:07:46Z</time>
      </trkpt>
      <trkpt lat="48.78321" lon="2.20007">
        <ele>168.9</ele>
        <time>2016-12-03T09:07:48Z</time>
      </trkpt>
      <trkpt lat="48.78318" lon="2.19994">
        <ele>169.1</ele>
        <time>2016-12-03T09:07:50Z</time>
      </trkpt>
      <trkpt lat="48.78315" lon="2.1998">
        <ele>169.8</ele>
        <time>2016-12-03T09:07:52Z</time>
      </trkpt>
      <trkpt lat="48.7831" lon="2.19966">
        <ele>170.5</ele>
        <time>2016-12-03T09:07:54Z</time>
      </trkpt>
      <trkpt lat="48.78305" lon="2.19952">
        <ele>171.5</ele>
        <time>2016-12-03T09:07:56Z</time>
      </trkpt>
      <trkpt lat="48.78301" lon="2.19939">
        <ele>172.3</ele>
        <time>2016-12-03T09:07:58Z</time>
      </trkpt>
      <trkpt lat="48.78297" lon="2.19926">
        <ele>173.1</ele>
        <time>2016-12-03T09:08:00Z</time>
      </trkpt>
      <trkpt lat="48.78293" lon="2.19912">
        <ele>173.7</ele>
        <time>2016-12-03T09:08:02Z</time>
      </trkpt>
      <trkpt lat="48.78291" lon="2.19898">
        <ele>173.9</ele>
        <time>2016-12-03T09:08:04Z</time>
      </trkpt>
      <trkpt lat="48.78288" lon="2.19885">
        <ele>174.1</ele>
        <time>2016-12-03T09:08:06Z</time>
      </trkpt>
      <trkpt lat="48.78284" lon="2.1987">
        <ele>174.4</ele>
        <time>2016-12-03T09:08:08Z</time>
      </trkpt>
      <trkpt lat="48.78281" lon="2.19857">
        <ele>174.7</ele>
        <time>2016-12-03T09:08:10Z</time>
      </trkpt>
      <trkpt lat="48.78276" lon="2.19843">
        <ele>175</ele>
        <time>2016-12-03T09:08:12Z</time>
      </trkpt>
      <trkpt lat="48.78273" lon="2.19828">
        <ele>174.9</ele>
        <time>2016-12-03T09:08:14Z</time>
      </trkpt>
      <trkpt lat="48.78268" lon="2.19814">
        <ele>174.7</ele>
        <time>2016-12-03T09:08:16Z</time>
      </trkpt>
      <trkpt lat="48.78265" lon="2.198">
        <ele>174.2</ele>
        <time>2016-12-03T09:08:18Z</time>
      </trkpt>
      <trkpt lat="48.78263" lon="2.19782">
        <ele>173.4</ele>
        <time>2016-12-03T09:08:20Z</time>
      </trkpt>
      <trkpt lat="48.78262" lon="2.19765">
        <ele>172.6</ele>
        <time>2016-12-03T09:08:22Z</time>
      </trkpt>
      <trkpt lat="48.78262" lon="2.19748">
        <ele>171.9</ele>
        <time>2016-12-03T09:08:24Z</time>
      </trkpt>
      <trkpt lat="48.78261" lon="2.19729">
        <ele>173.1</ele>
        <time>2016-12-03T09:08:26Z</time>
      </trkpt>
      <trkpt lat="48.7826" lon="2.19712">
        <ele>174.3</ele>
        <time>2016-12-03T09:08:28Z</time>
      </trkpt>
      <trkpt lat="48.78262" lon="2.19697">
        <ele>175</ele>
        <time>2016-12-03T09:08:30Z</time>
      </trkpt>
      <trkpt lat="48.78265" lon="2.19683">
        <ele>175.5</ele>
        <time>2016-12-03T09:08:32Z</time>
      </trkpt>
      <trkpt lat="48.7827" lon="2.19671">
        <ele>175.8</ele>
        <time>2016-12-03T09:08:34Z</time>
      </trkpt>
      <trkpt lat="48.78276" lon="2.1966">
        <ele>175.6</ele>
        <time>2016-12-03T09:08:36Z</time>
      </trkpt>
      <trkpt lat="48.78283" lon="2.19648">
        <ele>175.1</ele>
        <time>2016-12-03T09:08:38Z</time>
      </trkpt>
      <trkpt lat="48.78289" lon="2.19635">
        <ele>174.6</ele>
        <time>2016-12-03T09:08:40Z</time>
      </trkpt>
      <trkpt lat="48.78296" lon="2.19623">
        <ele>174.1</ele>
        <time>2016-12-03T09:08:42Z</time>
      </trkpt>
      <trkpt lat="48.78302" lon="2.1961">
        <ele>173.7</ele>
        <time>2016-12-03T09:08:44Z</time>
      </trkpt>
      <trkpt lat="48.78308" lon="2.19599">
        <ele>173.3</ele>
        <time>2016-12-03T09:08:46Z</time>
      </trkpt>
      <trkpt lat="48.78317" lon="2.19583">
        <ele>172.6</ele>
        <time>2016-12-03T09:08:49Z</time>
      </trkpt>
      <trkpt lat="48.78323" lon="2.19573">
        <ele>172.3</ele>
        <time>2016-12-03T09:08:51Z</time>
      </trkpt>
      <trkpt lat="48.7833" lon="2.19563">
        <ele>172.1</ele>
        <time>2016-12-03T09:08:53Z</time>
      </trkpt>
      <trkpt lat="48.78336" lon="2.19552">
        <ele>171.9</ele>
        <time>2016-12-03T09:08:55Z</time>
      </trkpt>
      <trkpt lat="48.78345" lon="2.19539">
        <ele>171.5</ele>
        <time>2016-12-03T09:08:58Z</time>
      </trkpt>
      <trkpt lat="48.78352" lon="2.19525">
        <ele>171.2</ele>
        <time>2016-12-03T09:09:01Z</time>
      </trkpt>
      <trkpt lat="48.78358" lon="2.19514">
        <ele>170.9</ele>
        <time>2016-12-03T09:09:03Z</time>
      </trkpt>
      <trkpt lat="48.78364" lon="2.19504">
        <ele>170.5</ele>
        <time>2016-12-03T09:09:05Z</time>
      </trkpt>
      <trkpt lat="48.78373" lon="2.19488">
        <ele>170.8</ele>
        <time>2016-12-03T09:09:08Z</time>
      </trkpt>
      <trkpt lat="48.7838" lon="2.19478">
        <ele>170.9</ele>
        <time>2016-12-03T09:09:10Z</time>
      </trkpt>
      <trkpt lat="48.78386" lon="2.19467">
        <ele>171.2</ele>
        <time>2016-12-03T09:09:12Z</time>
      </trkpt>
      <trkpt lat="48.78394" lon="2.19458">
        <ele>171.3</ele>
        <time>2016-12-03T09:09:14Z</time>
      </trkpt>
      <trkpt lat="48.78403" lon="2.19442">
        <ele>171.9</ele>
        <time>2016-12-03T09:09:17Z</time>
      </trkpt>
      <trkpt lat="48.78409" lon="2.19432">
        <ele>172.2</ele>
        <time>2016-12-03T09:09:19Z</time>
      </trkpt>
      <trkpt lat="48.78416" lon="2.19422">
        <ele>172.6</ele>
        <time>2016-12-03T09:09:21Z</time>
      </trkpt>
      <trkpt lat="48.78422" lon="2.19412">
        <ele>173</ele>
        <time>2016-12-03T09:09:23Z</time>
      </trkpt>
      <trkpt lat="48.7843" lon="2.19401">
        <ele>173.3</ele>
        <time>2016-12-03T09:09:26Z</time>
      </trkpt>
      <trkpt lat="48.78439" lon="2.19387">
        <ele>173.9</ele>
        <time>2016-12-03T09:09:29Z</time>
      </trkpt>
      <trkpt lat="48.78448" lon="2.19371">
        <ele>174.6</ele>
        <time>2016-12-03T09:09:32Z</time>
      </trkpt>
      <trkpt lat="48.78454" lon="2.19361">
        <ele>175.3</ele>
        <time>2016-12-03T09:09:34Z</time>
      </trkpt>
      <trkpt lat="48.78461" lon="2.19351">
        <ele>175.9</ele>
        <time>2016-12-03T09:09:36Z</time>
      </trkpt>
      <trkpt lat="48.78468" lon="2.19341">
        <ele>176.5</ele>
        <time>2016-12-03T09:09:38Z</time>
      </trkpt>
      <trkpt lat="48.78475" lon="2.19331">
        <ele>177.1</ele>
        <time>2016-12-03T09:09:40Z</time>
      </trkpt>
      <trkpt lat="48.78484" lon="2.19316">
        <ele>177.7</ele>
        <time>2016-12-03T09:09:43Z</time>
      </trkpt>
      <trkpt lat="48.78493" lon="2.19301">
        <ele>178.4</ele>
        <time>2016-12-03T09:09:46Z</time>
      </trkpt>
      <trkpt lat="48.78502" lon="2.19287">
        <ele>179.4</ele>
        <time>2016-12-03T09:09:49Z</time>
      </trkpt>
      <trkpt lat="48.78506" lon="2.19275">
        <ele>180.3</ele>
        <time>2016-12-03T09:09:51Z</time>
      </trkpt>
      <trkpt lat="48.78515" lon="2.19259">
        <ele>181.4</ele>
        <time>2016-12-03T09:09:54Z</time>
      </trkpt>
      <trkpt lat="48.78521" lon="2.1925">
        <ele>182</ele>
        <time>2016-12-03T09:09:56Z</time>
      </trkpt>
      <trkpt lat="48.7853" lon="2.19236">
        <ele>182.1</ele>
        <time>2016-12-03T09:09:59Z</time>
      </trkpt>
      <trkpt lat="48.78537" lon="2.19226">
        <ele>182.1</ele>
        <time>2016-12-03T09:10:01Z</time>
      </trkpt>
      <trkpt lat="48.78544" lon="2.19215">
        <ele>182.2</ele>
        <time>2016-12-03T09:10:03Z</time>
      </trkpt>
      <trkpt lat="48.78551" lon="2.19204">
        <ele>182.3</ele>
        <time>2016-12-03T09:10:05Z</time>
      </trkpt>
      <trkpt lat="48.78559" lon="2.19189">
        <ele>182.5</ele>
        <time>2016-12-03T09:10:08Z</time>
      </trkpt>
      <trkpt lat="48.78568" lon="2.19175">
        <ele>182.7</ele>
        <time>2016-12-03T09:10:11Z</time>
      </trkpt>
      <trkpt lat="48.78574" lon="2.19164">
        <ele>183</ele>
        <time>2016-12-03T09:10:13Z</time>
      </trkpt>
      <trkpt lat="48.78581" lon="2.19147">
        <ele>183.4</ele>
        <time>2016-12-03T09:10:16Z</time>
      </trkpt>
      <trkpt lat="48.78587" lon="2.19136">
        <ele>183.7</ele>
        <time>2016-12-03T09:10:18Z</time>
      </trkpt>
      <trkpt lat="48.78593" lon="2.19126">
        <ele>183.9</ele>
        <time>2016-12-03T09:10:20Z</time>
      </trkpt>
      <trkpt lat="48.78601" lon="2.19115">
        <ele>184</ele>
        <time>2016-12-03T09:10:22Z</time>
      </trkpt>
      <trkpt lat="48.78608" lon="2.19102">
        <ele>184.1</ele>
        <time>2016-12-03T09:10:24Z</time>
      </trkpt>
      <trkpt lat="48.78615" lon="2.1909">
        <ele>184.1</ele>
        <time>2016-12-03T09:10:26Z</time>
      </trkpt>
      <trkpt lat="48.78621" lon="2.1908">
        <ele>184</ele>
        <time>2016-12-03T09:10:28Z</time>
      </trkpt>
      <trkpt lat="48.78628" lon="2.19069">
        <ele>183.6</ele>
        <time>2016-12-03T09:10:30Z</time>
      </trkpt>
      <trkpt lat="48.78634" lon="2.19058">
        <ele>183.2</ele>
        <time>2016-12-03T09:10:32Z</time>
      </trkpt>
      <trkpt lat="48.78643" lon="2.19043">
        <ele>182.8</ele>
        <time>2016-12-03T09:10:35Z</time>
      </trkpt>
      <trkpt lat="48.78651" lon="2.19031">
        <ele>182.5</ele>
        <time>2016-12-03T09:10:37Z</time>
      </trkpt>
      <trkpt lat="48.78656" lon="2.19018">
        <ele>182.3</ele>
        <time>2016-12-03T09:10:39Z</time>
      </trkpt>
      <trkpt lat="48.78659" lon="2.19003">
        <ele>182</ele>
        <time>2016-12-03T09:10:41Z</time>
      </trkpt>
      <trkpt lat="48.78662" lon="2.18989">
        <ele>182.3</ele>
        <time>2016-12-03T09:10:43Z</time>
      </trkpt>
      <trkpt lat="48.78665" lon="2.18975">
        <ele>182.6</ele>
        <time>2016-12-03T09:10:45Z</time>
      </trkpt>
      <trkpt lat="48.78667" lon="2.1896">
        <ele>183</ele>
        <time>2016-12-03T09:10:47Z</time>
      </trkpt>
      <trkpt lat="48.78669" lon="2.18941">
        <ele>183.5</ele>
        <time>2016-12-03T09:10:50Z</time>
      </trkpt>
      <trkpt lat="48.78672" lon="2.18921">
        <ele>183.9</ele>
        <time>2016-12-03T09:10:53Z</time>
      </trkpt>
      <trkpt lat="48.78675" lon="2.18907">
        <ele>184.1</ele>
        <time>2016-12-03T09:10:55Z</time>
      </trkpt>
      <trkpt lat="48.78678" lon="2.18891">
        <ele>184.3</ele>
        <time>2016-12-03T09:10:57Z</time>
      </trkpt>
      <trkpt lat="48.78681" lon="2.18875">
        <ele>184.4</ele>
        <time>2016-12-03T09:10:59Z</time>
      </trkpt>
      <trkpt lat="48.78683" lon="2.1886">
        <ele>184.5</ele>
        <time>2016-12-03T09:11:01Z</time>
      </trkpt>
      <trkpt lat="48.78685" lon="2.18847">
        <ele>184.7</ele>
        <time>2016-12-03T09:11:03Z</time>
      </trkpt>
      <trkpt lat="48.78688" lon="2.18827">
        <ele>184.6</ele>
        <time>2016-12-03T09:11:06Z</time>
      </trkpt>
      <trkpt lat="48.7869" lon="2.18814">
        <ele>184.4</ele>
        <time>2016-12-03T09:11:08Z</time>
      </trkpt>
      <trkpt lat="48.78694" lon="2.18796">
        <ele>184.1</ele>
        <time>2016-12-03T09:11:11Z</time>
      </trkpt>
      <trkpt lat="48.78696" lon="2.18781">
        <ele>183.8</ele>
        <time>2016-12-03T09:11:13Z</time>
      </trkpt>
      <trkpt lat="48.78699" lon="2.18766">
        <ele>183.6</ele>
        <time>2016-12-03T09:11:15Z</time>
      </trkpt>
      <trkpt lat="48.787" lon="2.18752">
        <ele>183.4</ele>
        <time>2016-12-03T09:11:17Z</time>
      </trkpt>
      <trkpt lat="48.78702" lon="2.18732">
        <ele>183.9</ele>
        <time>2016-12-03T09:11:20Z</time>
      </trkpt>
      <trkpt lat="48.78704" lon="2.18715">
        <ele>184.4</ele>
        <time>2016-12-03T09:11:23Z</time>
      </trkpt>
      <trkpt lat="48.78708" lon="2.18702">
        <ele>184.7</ele>
        <time>2016-12-03T09:11:25Z</time>
      </trkpt>
      <trkpt lat="48.7871" lon="2.18688">
        <ele>185</ele>
        <time>2016-12-03T09:11:27Z</time>
      </trkpt>
      <trkpt lat="48.78713" lon="2.18674">
        <ele>185.3</ele>
        <time>2016-12-03T09:11:29Z</time>
      </trkpt>
      <trkpt lat="48.78714" lon="2.18659">
        <ele>185.3</ele>
        <time>2016-12-03T09:11:31Z</time>
      </trkpt>
      <trkpt lat="48.78717" lon="2.18646">
        <ele>185.1</ele>
        <time>2016-12-03T09:11:33Z</time>
      </trkpt>
      <trkpt lat="48.78721" lon="2.18632">
        <ele>184.8</ele>
        <time>2016-12-03T09:11:35Z</time>
      </trkpt>
      <trkpt lat="48.78723" lon="2.18617">
        <ele>184.5</ele>
        <time>2016-12-03T09:11:37Z</time>
      </trkpt>
      <trkpt lat="48.78724" lon="2.18601">
        <ele>184.2</ele>
        <time>2016-12-03T09:11:39Z</time>
      </trkpt>
      <trkpt lat="48.78726" lon="2.18585">
        <ele>183.9</ele>
        <time>2016-12-03T09:11:41Z</time>
      </trkpt>
      <trkpt lat="48.78728" lon="2.18571">
        <ele>183.7</ele>
        <time>2016-12-03T09:11:43Z</time>
      </trkpt>
      <trkpt lat="48.78731" lon="2.18555">
        <ele>183.6</ele>
        <time>2016-12-03T09:11:45Z</time>
      </trkpt>
      <trkpt lat="48.78733" lon="2.18541">
        <ele>183.6</ele>
        <time>2016-12-03T09:11:47Z</time>
      </trkpt>
      <trkpt lat="48.78734" lon="2.18526">
        <ele>183.6</ele>
        <time>2016-12-03T09:11:49Z</time>
      </trkpt>
      <trkpt lat="48.78736" lon="2.18511">
        <ele>183.7</ele>
        <time>2016-12-03T09:11:51Z</time>
      </trkpt>
      <trkpt lat="48.78739" lon="2.18496">
        <ele>183.8</ele>
        <time>2016-12-03T09:11:53Z</time>
      </trkpt>
      <trkpt lat="48.78742" lon="2.1848">
        <ele>184</ele>
        <time>2016-12-03T09:11:55Z</time>
      </trkpt>
      <trkpt lat="48.78744" lon="2.18466">
        <ele>184.3</ele>
        <time>2016-12-03T09:11:57Z</time>
      </trkpt>
      <trkpt lat="48.78746" lon="2.18451">
        <ele>184.5</ele>
        <time>2016-12-03T09:11:59Z</time>
      </trkpt>
      <trkpt lat="48.78748" lon="2.18436">
        <ele>184.7</ele>
        <time>2016-12-03T09:12:01Z</time>
      </trkpt>
      <trkpt lat="48.78751" lon="2.1842">
        <ele>184.9</ele>
        <time>2016-12-03T09:12:03Z</time>
      </trkpt>
      <trkpt lat="48.78753" lon="2.18406">
        <ele>184.7</ele>
        <time>2016-12-03T09:12:05Z</time>
      </trkpt>
      <trkpt lat="48.78756" lon="2.18391">
        <ele>184.4</ele>
        <time>2016-12-03T09:12:07Z</time>
      </trkpt>
      <trkpt lat="48.78758" lon="2.18374">
        <ele>184.2</ele>
        <time>2016-12-03T09:12:09Z</time>
      </trkpt>
      <trkpt lat="48.78761" lon="2.18358">
        <ele>183.9</ele>
        <time>2016-12-03T09:12:11Z</time>
      </trkpt>
      <trkpt lat="48.78763" lon="2.18342">
        <ele>183.7</ele>
        <time>2016-12-03T09:12:13Z</time>
      </trkpt>
      <trkpt lat="48.78766" lon="2.18326">
        <ele>183.6</ele>
        <time>2016-12-03T09:12:15Z</time>
      </trkpt>
      <trkpt lat="48.78769" lon="2.18309">
        <ele>183.4</ele>
        <time>2016-12-03T09:12:17Z</time>
      </trkpt>
      <trkpt lat="48.78771" lon="2.18293">
        <ele>183.3</ele>
        <time>2016-12-03T09:12:19Z</time>
      </trkpt>
      <trkpt lat="48.78773" lon="2.18277">
        <ele>183.1</ele>
        <time>2016-12-03T09:12:21Z</time>
      </trkpt>
      <trkpt lat="48.78775" lon="2.18262">
        <ele>183.1</ele>
        <time>2016-12-03T09:12:23Z</time>
      </trkpt>
      <trkpt lat="48.78777" lon="2.18246">
        <ele>182.9</ele>
        <time>2016-12-03T09:12:25Z</time>
      </trkpt>
      <trkpt lat="48.78779" lon="2.1823">
        <ele>182.7</ele>
        <time>2016-12-03T09:12:27Z</time>
      </trkpt>
      <trkpt lat="48.78781" lon="2.18214">
        <ele>182.4</ele>
        <time>2016-12-03T09:12:29Z</time>
      </trkpt>
      <trkpt lat="48.78785" lon="2.18197">
        <ele>182.1</ele>
        <time>2016-12-03T09:12:31Z</time>
      </trkpt>
      <trkpt lat="48.78788" lon="2.18181">
        <ele>181.8</ele>
        <time>2016-12-03T09:12:33Z</time>
      </trkpt>
      <trkpt lat="48.7879" lon="2.18165">
        <ele>181.5</ele>
        <time>2016-12-03T09:12:35Z</time>
      </trkpt>
      <trkpt lat="48.78792" lon="2.18149">
        <ele>180.8</ele>
        <time>2016-12-03T09:12:37Z</time>
      </trkpt>
      <trkpt lat="48.78794" lon="2.18133">
        <ele>180.2</ele>
        <time>2016-12-03T09:12:39Z</time>
      </trkpt>
      <trkpt lat="48.78797" lon="2.18116">
        <ele>179.6</ele>
        <time>2016-12-03T09:12:41Z</time>
      </trkpt>
      <trkpt lat="48.788" lon="2.18099">
        <ele>179</ele>
        <time>2016-12-03T09:12:43Z</time>
      </trkpt>
      <trkpt lat="48.78802" lon="2.18083">
        <ele>178.3</ele>
        <time>2016-12-03T09:12:45Z</time>
      </trkpt>
      <trkpt lat="48.78805" lon="2.18067">
        <ele>177.7</ele>
        <time>2016-12-03T09:12:47Z</time>
      </trkpt>
      <trkpt lat="48.78808" lon="2.18051">
        <ele>177</ele>
        <time>2016-12-03T09:12:49Z</time>
      </trkpt>
      <trkpt lat="48.78811" lon="2.18035">
        <ele>176.4</ele>
        <time>2016-12-03T09:12:51Z</time>
      </trkpt>
      <trkpt lat="48.78816" lon="2.1802">
        <ele>175.7</ele>
        <time>2016-12-03T09:12:53Z</time>
      </trkpt>
      <trkpt lat="48.78821" lon="2.18004">
        <ele>175.1</ele>
        <time>2016-12-03T09:12:55Z</time>
      </trkpt>
      <trkpt lat="48.78828" lon="2.17989">
        <ele>174.9</ele>
        <time>2016-12-03T09:12:57Z</time>
      </trkpt>
      <trkpt lat="48.78834" lon="2.17976">
        <ele>174.7</ele>
        <time>2016-12-03T09:12:59Z</time>
      </trkpt>
      <trkpt lat="48.78838" lon="2.17959">
        <ele>174.3</ele>
        <time>2016-12-03T09:13:02Z</time>
      </trkpt>
      <trkpt lat="48.78841" lon="2.17939">
        <ele>174</ele>
        <time>2016-12-03T09:13:05Z</time>
      </trkpt>
      <trkpt lat="48.78844" lon="2.17925">
        <ele>173.9</ele>
        <time>2016-12-03T09:13:08Z</time>
      </trkpt>
      <trkpt lat="48.78845" lon="2.1791">
        <ele>174.2</ele>
        <time>2016-12-03T09:13:12Z</time>
      </trkpt>
      <trkpt lat="48.78845" lon="2.17895">
        <ele>174.9</ele>
        <time>2016-12-03T09:13:16Z</time>
      </trkpt>
      <trkpt lat="48.78844" lon="2.1788">
        <ele>175.6</ele>
        <time>2016-12-03T09:13:21Z</time>
      </trkpt>
      <trkpt lat="48.78845" lon="2.17871">
        <ele>176.1</ele>
        <time>2016-12-03T09:13:31Z</time>
      </trkpt>
      <trkpt lat="48.7885" lon="2.17859">
        <ele>176.6</ele>
        <time>2016-12-03T09:13:38Z</time>
      </trkpt>
      <trkpt lat="48.78856" lon="2.17846">
        <ele>177.1</ele>
        <time>2016-12-03T09:13:44Z</time>
      </trkpt>
      <trkpt lat="48.78862" lon="2.17834">
        <ele>177.7</ele>
        <time>2016-12-03T09:13:50Z</time>
      </trkpt>
      <trkpt lat="48.78868" lon="2.17819">
        <ele>177.5</ele>
        <time>2016-12-03T09:13:55Z</time>
      </trkpt>
      <trkpt lat="48.78873" lon="2.17806">
        <ele>177.3</ele>
        <time>2016-12-03T09:13:59Z</time>
      </trkpt>
      <trkpt lat="48.78877" lon="2.17789">
        <ele>177.2</ele>
        <time>2016-12-03T09:14:04Z</time>
      </trkpt>
      <trkpt lat="48.78881" lon="2.17776">
        <ele>177.1</ele>
        <time>2016-12-03T09:14:07Z</time>
      </trkpt>
      <trkpt lat="48.78885" lon="2.17762">
        <ele>177.1</ele>
        <time>2016-12-03T09:14:10Z</time>
      </trkpt>
      <trkpt lat="48.78891" lon="2.17749">
        <ele>177</ele>
        <time>2016-12-03T09:14:14Z</time>
      </trkpt>
      <trkpt lat="48.78895" lon="2.17734">
        <ele>176.9</ele>
        <time>2016-12-03T09:14:18Z</time>
      </trkpt>
      <trkpt lat="48.789" lon="2.17721">
        <ele>176.9</ele>
        <time>2016-12-03T09:14:21Z</time>
      </trkpt>
      <trkpt lat="48.78905" lon="2.17708">
        <ele>176.9</ele>
        <time>2016-12-03T09:14:25Z</time>
      </trkpt>
      <trkpt lat="48.7891" lon="2.17692">
        <ele>176.9</ele>
        <time>2016-12-03T09:14:29Z</time>
      </trkpt>
      <trkpt lat="48.78915" lon="2.17679">
        <ele>177</ele>
        <time>2016-12-03T09:14:32Z</time>
      </trkpt>
      <trkpt lat="48.78918" lon="2.17661">
        <ele>177.2</ele>
        <time>2016-12-03T09:14:35Z</time>
      </trkpt>
      <trkpt lat="48.78924" lon="2.17641">
        <ele>177.7</ele>
        <time>2016-12-03T09:14:39Z</time>
      </trkpt>
      <trkpt lat="48.78931" lon="2.17629">
        <ele>178.1</ele>
        <time>2016-12-03T09:14:41Z</time>
      </trkpt>
      <trkpt lat="48.78935" lon="2.17614">
        <ele>178.5</ele>
        <time>2016-12-03T09:14:44Z</time>
      </trkpt>
      <trkpt lat="48.7894" lon="2.176">
        <ele>178.9</ele>
        <time>2016-12-03T09:14:47Z</time>
      </trkpt>
      <trkpt lat="48.78943" lon="2.17583">
        <ele>179.3</ele>
        <time>2016-12-03T09:14:51Z</time>
      </trkpt>
      <trkpt lat="48.78948" lon="2.1757">
        <ele>179.7</ele>
        <time>2016-12-03T09:14:54Z</time>
      </trkpt>
      <trkpt lat="48.78953" lon="2.17555">
        <ele>180</ele>
        <time>2016-12-03T09:14:57Z</time>
      </trkpt>
      <trkpt lat="48.78953" lon="2.17538">
        <ele>180.3</ele>
        <time>2016-12-03T09:15:01Z</time>
      </trkpt>
      <trkpt lat="48.78946" lon="2.17526">
        <ele>180.5</ele>
        <time>2016-12-03T09:15:06Z</time>
      </trkpt>
      <trkpt lat="48.78937" lon="2.17515">
        <ele>180.7</ele>
        <time>2016-12-03T09:15:09Z</time>
      </trkpt>
      <trkpt lat="48.78928" lon="2.17507">
        <ele>180.8</ele>
        <time>2016-12-03T09:15:12Z</time>
      </trkpt>
      <trkpt lat="48.78918" lon="2.17501">
        <ele>181</ele>
        <time>2016-12-03T09:15:15Z</time>
      </trkpt>
      <trkpt lat="48.78914" lon="2.17498">
        <ele>181</ele>
        <time>2016-12-03T09:15:22Z</time>
      </trkpt>
      <trkpt lat="48.78904" lon="2.17493">
        <ele>181</ele>
        <time>2016-12-03T09:15:49Z</time>
      </trkpt>
      <trkpt lat="48.78893" lon="2.17484">
        <ele>181.1</ele>
        <time>2016-12-03T09:15:53Z</time>
      </trkpt>
      <trkpt lat="48.78883" lon="2.17479">
        <ele>181.2</ele>
        <time>2016-12-03T09:15:56Z</time>
      </trkpt>
      <trkpt lat="48.78873" lon="2.17474">
        <ele>181.3</ele>
        <time>2016-12-03T09:15:59Z</time>
      </trkpt>
      <trkpt lat="48.78862" lon="2.17465">
        <ele>181.6</ele>
        <time>2016-12-03T09:16:02Z</time>
      </trkpt>
      <trkpt lat="48.78851" lon="2.17456">
        <ele>182</ele>
        <time>2016-12-03T09:16:05Z</time>
      </trkpt>
      <trkpt lat="48.78842" lon="2.17451">
        <ele>182.3</ele>
        <time>2016-12-03T09:16:07Z</time>
      </trkpt>
      <trkpt lat="48.78834" lon="2.17444">
        <ele>182.7</ele>
        <time>2016-12-03T09:16:09Z</time>
      </trkpt>
      <trkpt lat="48.78824" lon="2.17437">
        <ele>182.8</ele>
        <time>2016-12-03T09:16:11Z</time>
      </trkpt>
      <trkpt lat="48.78813" lon="2.17425">
        <ele>182.9</ele>
        <time>2016-12-03T09:16:14Z</time>
      </trkpt>
      <trkpt lat="48.78803" lon="2.17419">
        <ele>182.8</ele>
        <time>2016-12-03T09:16:16Z</time>
      </trkpt>
      <trkpt lat="48.78792" lon="2.17412">
        <ele>182.7</ele>
        <time>2016-12-03T09:16:18Z</time>
      </trkpt>
      <trkpt lat="48.78783" lon="2.17406">
        <ele>182.5</ele>
        <time>2016-12-03T09:16:20Z</time>
      </trkpt>
      <trkpt lat="48.78774" lon="2.174">
        <ele>182.4</ele>
        <time>2016-12-03T09:16:22Z</time>
      </trkpt>
      <trkpt lat="48.78766" lon="2.17394">
        <ele>182.4</ele>
        <time>2016-12-03T09:16:24Z</time>
      </trkpt>
      <trkpt lat="48.78756" lon="2.1739">
        <ele>182.2</ele>
        <time>2016-12-03T09:16:27Z</time>
      </trkpt>
      <trkpt lat="48.78747" lon="2.17385">
        <ele>182.1</ele>
        <time>2016-12-03T09:16:30Z</time>
      </trkpt>
      <trkpt lat="48.78738" lon="2.17377">
        <ele>182.3</ele>
        <time>2016-12-03T09:16:33Z</time>
      </trkpt>
      <trkpt lat="48.78727" lon="2.17369">
        <ele>182.5</ele>
        <time>2016-12-03T09:16:36Z</time>
      </trkpt>
      <trkpt lat="48.78718" lon="2.17364">
        <ele>182.6</ele>
        <time>2016-12-03T09:16:38Z</time>
      </trkpt>
      <trkpt lat="48.78709" lon="2.17358">
        <ele>182.8</ele>
        <time>2016-12-03T09:16:40Z</time>
      </trkpt>
      <trkpt lat="48.78699" lon="2.17352">
        <ele>183.1</ele>
        <time>2016-12-03T09:16:43Z</time>
      </trkpt>
      <trkpt lat="48.78689" lon="2.17345">
        <ele>183.4</ele>
        <time>2016-12-03T09:16:46Z</time>
      </trkpt>
      <trkpt lat="48.78684" lon="2.17333">
        <ele>184</ele>
        <time>2016-12-03T09:16:49Z</time>
      </trkpt>
      <trkpt lat="48.78683" lon="2.17318">
        <ele>184.4</ele>
        <time>2016-12-03T09:16:52Z</time>
      </trkpt>
      <trkpt lat="48.78685" lon="2.17299">
        <ele>184.8</ele>
        <time>2016-12-03T09:16:55Z</time>
      </trkpt>
      <trkpt lat="48.78686" lon="2.1728">
        <ele>185.3</ele>
        <time>2016-12-03T09:16:58Z</time>
      </trkpt>
      <trkpt lat="48.78688" lon="2.17263">
        <ele>185.7</ele>
        <time>2016-12-03T09:17:01Z</time>
      </trkpt>
      <trkpt lat="48.7869" lon="2.17242">
        <ele>186</ele>
        <time>2016-12-03T09:17:04Z</time>
      </trkpt>
      <trkpt lat="48.78692" lon="2.17229">
        <ele>185.9</ele>
        <time>2016-12-03T09:17:06Z</time>
      </trkpt>
      <trkpt lat="48.78694" lon="2.17213">
        <ele>185.9</ele>
        <time>2016-12-03T09:17:08Z</time>
      </trkpt>
      <trkpt lat="48.78695" lon="2.17194">
        <ele>185.8</ele>
        <time>2016-12-03T09:17:11Z</time>
      </trkpt>
      <trkpt lat="48.78698" lon="2.17174">
        <ele>185.7</ele>
        <time>2016-12-03T09:17:14Z</time>
      </trkpt>
      <trkpt lat="48.787" lon="2.17159">
        <ele>185.3</ele>
        <time>2016-12-03T09:17:16Z</time>
      </trkpt>
      <trkpt lat="48.78703" lon="2.17142">
        <ele>184.5</ele>
        <time>2016-12-03T09:17:18Z</time>
      </trkpt>
      <trkpt lat="48.78707" lon="2.17125">
        <ele>183.7</ele>
        <time>2016-12-03T09:17:21Z</time>
      </trkpt>
      <trkpt lat="48.78709" lon="2.17105">
        <ele>182.9</ele>
        <time>2016-12-03T09:17:24Z</time>
      </trkpt>
      <trkpt lat="48.7871" lon="2.1709">
        <ele>182.2</ele>
        <time>2016-12-03T09:17:26Z</time>
      </trkpt>
      <trkpt lat="48.78714" lon="2.17075">
        <ele>181.6</ele>
        <time>2016-12-03T09:17:28Z</time>
      </trkpt>
      <trkpt lat="48.78718" lon="2.17057">
        <ele>180.9</ele>
        <time>2016-12-03T09:17:31Z</time>
      </trkpt>
      <trkpt lat="48.78722" lon="2.1704">
        <ele>180.1</ele>
        <time>2016-12-03T09:17:34Z</time>
      </trkpt>
      <trkpt lat="48.78727" lon="2.17024">
        <ele>179.2</ele>
        <time>2016-12-03T09:17:37Z</time>
      </trkpt>
      <trkpt lat="48.78732" lon="2.17011">
        <ele>178.5</ele>
        <time>2016-12-03T09:17:39Z</time>
      </trkpt>
      <trkpt lat="48.78737" lon="2.16998">
        <ele>177.8</ele>
        <time>2016-12-03T09:17:41Z</time>
      </trkpt>
      <trkpt lat="48.78745" lon="2.16984">
        <ele>177.6</ele>
        <time>2016-12-03T09:17:44Z</time>
      </trkpt>
      <trkpt lat="48.78751" lon="2.16971">
        <ele>177.7</ele>
        <time>2016-12-03T09:17:47Z</time>
      </trkpt>
      <trkpt lat="48.78756" lon="2.16955">
        <ele>178</ele>
        <time>2016-12-03T09:17:50Z</time>
      </trkpt>
      <trkpt lat="48.78762" lon="2.16945">
        <ele>178.1</ele>
        <time>2016-12-03T09:17:53Z</time>
      </trkpt>
      <trkpt lat="48.7877" lon="2.16932">
        <ele>178.4</ele>
        <time>2016-12-03T09:17:56Z</time>
      </trkpt>
      <trkpt lat="48.78777" lon="2.16918">
        <ele>178.7</ele>
        <time>2016-12-03T09:17:59Z</time>
      </trkpt>
      <trkpt lat="48.78782" lon="2.16906">
        <ele>178.3</ele>
        <time>2016-12-03T09:18:01Z</time>
      </trkpt>
      <trkpt lat="48.78787" lon="2.16894">
        <ele>178</ele>
        <time>2016-12-03T09:18:03Z</time>
      </trkpt>
      <trkpt lat="48.78788" lon="2.1688">
        <ele>177.6</ele>
        <time>2016-12-03T09:18:06Z</time>
      </trkpt>
      <trkpt lat="48.7879" lon="2.16862">
        <ele>177.2</ele>
        <time>2016-12-03T09:18:10Z</time>
      </trkpt>
      <trkpt lat="48.78792" lon="2.16846">
        <ele>176.8</ele>
        <time>2016-12-03T09:18:13Z</time>
      </trkpt>
      <trkpt lat="48.78794" lon="2.16826">
        <ele>175.9</ele>
        <time>2016-12-03T09:18:16Z</time>
      </trkpt>
      <trkpt lat="48.78792" lon="2.16813">
        <ele>174.8</ele>
        <time>2016-12-03T09:18:18Z</time>
      </trkpt>
      <trkpt lat="48.78785" lon="2.16795">
        <ele>173.5</ele>
        <time>2016-12-03T09:18:21Z</time>
      </trkpt>
      <trkpt lat="48.7878" lon="2.16783">
        <ele>172.4</ele>
        <time>2016-12-03T09:18:23Z</time>
      </trkpt>
      <trkpt lat="48.78777" lon="2.16769">
        <ele>171.4</ele>
        <time>2016-12-03T09:18:25Z</time>
      </trkpt>
      <trkpt lat="48.78774" lon="2.16755">
        <ele>170.3</ele>
        <time>2016-12-03T09:18:27Z</time>
      </trkpt>
      <trkpt lat="48.7877" lon="2.16741">
        <ele>169.1</ele>
        <time>2016-12-03T09:18:29Z</time>
      </trkpt>
      <trkpt lat="48.78766" lon="2.16725">
        <ele>167.7</ele>
        <time>2016-12-03T09:18:31Z</time>
      </trkpt>
      <trkpt lat="48.78762" lon="2.16711">
        <ele>166.5</ele>
        <time>2016-12-03T09:18:33Z</time>
      </trkpt>
      <trkpt lat="48.78757" lon="2.16698">
        <ele>165.4</ele>
        <time>2016-12-03T09:18:35Z</time>
      </trkpt>
      <trkpt lat="48.78747" lon="2.16685">
        <ele>164.8</ele>
        <time>2016-12-03T09:18:38Z</time>
      </trkpt>
      <trkpt lat="48.78738" lon="2.16677">
        <ele>165.2</ele>
        <time>2016-12-03T09:18:40Z</time>
      </trkpt>
      <trkpt lat="48.7873" lon="2.16669">
        <ele>165.5</ele>
        <time>2016-12-03T09:18:42Z</time>
      </trkpt>
      <trkpt lat="48.78723" lon="2.16659">
        <ele>165.7</ele>
        <time>2016-12-03T09:18:44Z</time>
      </trkpt>
      <trkpt lat="48.78716" lon="2.16646">
        <ele>165.6</ele>
        <time>2016-12-03T09:18:46Z</time>
      </trkpt>
      <trkpt lat="48.78711" lon="2.16633">
        <ele>165.2</ele>
        <time>2016-12-03T09:18:48Z</time>
      </trkpt>
      <trkpt lat="48.78706" lon="2.16619">
        <ele>164.8</ele>
        <time>2016-12-03T09:18:50Z</time>
      </trkpt>
      <trkpt lat="48.78701" lon="2.16603">
        <ele>164.1</ele>
        <time>2016-12-03T09:18:52Z</time>
      </trkpt>
      <trkpt lat="48.78696" lon="2.16587">
        <ele>163.5</ele>
        <time>2016-12-03T09:18:54Z</time>
      </trkpt>
      <trkpt lat="48.78692" lon="2.16571">
        <ele>162.9</ele>
        <time>2016-12-03T09:18:56Z</time>
      </trkpt>
      <trkpt lat="48.78688" lon="2.16554">
        <ele>162.3</ele>
        <time>2016-12-03T09:18:58Z</time>
      </trkpt>
      <trkpt lat="48.78684" lon="2.16537">
        <ele>161.9</ele>
        <time>2016-12-03T09:19:00Z</time>
      </trkpt>
      <trkpt lat="48.7868" lon="2.16524">
        <ele>161.6</ele>
        <time>2016-12-03T09:19:02Z</time>
      </trkpt>
      <trkpt lat="48.78676" lon="2.1651">
        <ele>161.3</ele>
        <time>2016-12-03T09:19:04Z</time>
      </trkpt>
      <trkpt lat="48.78669" lon="2.16498">
        <ele>161.4</ele>
        <time>2016-12-03T09:19:06Z</time>
      </trkpt>
      <trkpt lat="48.78659" lon="2.16487">
        <ele>161.8</ele>
        <time>2016-12-03T09:19:08Z</time>
      </trkpt>
      <trkpt lat="48.78649" lon="2.16481">
        <ele>162.8</ele>
        <time>2016-12-03T09:19:10Z</time>
      </trkpt>
      <trkpt lat="48.7864" lon="2.16475">
        <ele>163.9</ele>
        <time>2016-12-03T09:19:12Z</time>
      </trkpt>
      <trkpt lat="48.7863" lon="2.16468">
        <ele>165</ele>
        <time>2016-12-03T09:19:14Z</time>
      </trkpt>
      <trkpt lat="48.78621" lon="2.16461">
        <ele>166</ele>
        <time>2016-12-03T09:19:16Z</time>
      </trkpt>
      <trkpt lat="48.78613" lon="2.16455">
        <ele>167.2</ele>
        <time>2016-12-03T09:19:18Z</time>
      </trkpt>
      <trkpt lat="48.78604" lon="2.16441">
        <ele>168</ele>
        <time>2016-12-03T09:19:21Z</time>
      </trkpt>
      <trkpt lat="48.78601" lon="2.16427">
        <ele>167.9</ele>
        <time>2016-12-03T09:19:23Z</time>
      </trkpt>
      <trkpt lat="48.786" lon="2.16412">
        <ele>167.6</ele>
        <time>2016-12-03T09:19:25Z</time>
      </trkpt>
      <trkpt lat="48.78601" lon="2.16398">
        <ele>167</ele>
        <time>2016-12-03T09:19:27Z</time>
      </trkpt>
      <trkpt lat="48.78605" lon="2.16384">
        <ele>165.7</ele>
        <time>2016-12-03T09:19:29Z</time>
      </trkpt>
      <trkpt lat="48.78613" lon="2.16368">
        <ele>163.2</ele>
        <time>2016-12-03T09:19:32Z</time>
      </trkpt>
      <trkpt lat="48.7862" lon="2.16356">
        <ele>161.1</ele>
        <time>2016-12-03T09:19:34Z</time>
      </trkpt>
      <trkpt lat="48.78627" lon="2.16347">
        <ele>158.5</ele>
        <time>2016-12-03T09:19:36Z</time>
      </trkpt>
      <trkpt lat="48.78636" lon="2.16332">
        <ele>155.2</ele>
        <time>2016-12-03T09:19:39Z</time>
      </trkpt>
      <trkpt lat="48.78638" lon="2.16319">
        <ele>155.6</ele>
        <time>2016-12-03T09:19:41Z</time>
      </trkpt>
      <trkpt lat="48.78636" lon="2.16305">
        <ele>157.2</ele>
        <time>2016-12-03T09:19:43Z</time>
      </trkpt>
      <trkpt lat="48.78634" lon="2.16292">
        <ele>158.6</ele>
        <time>2016-12-03T09:19:45Z</time>
      </trkpt>
      <trkpt lat="48.78634" lon="2.16276">
        <ele>159.9</ele>
        <time>2016-12-03T09:19:47Z</time>
      </trkpt>
      <trkpt lat="48.78635" lon="2.16262">
        <ele>160.7</ele>
        <time>2016-12-03T09:19:49Z</time>
      </trkpt>
      <trkpt lat="48.78637" lon="2.16247">
        <ele>161.1</ele>
        <time>2016-12-03T09:19:51Z</time>
      </trkpt>
      <trkpt lat="48.7864" lon="2.16226">
        <ele>160.9</ele>
        <time>2016-12-03T09:19:54Z</time>
      </trkpt>
      <trkpt lat="48.78642" lon="2.1621">
        <ele>160.9</ele>
        <time>2016-12-03T09:19:56Z</time>
      </trkpt>
      <trkpt lat="48.78641" lon="2.16191">
        <ele>161.4</ele>
        <time>2016-12-03T09:19:58Z</time>
      </trkpt>
      <trkpt lat="48.7864" lon="2.16173">
        <ele>161.9</ele>
        <time>2016-12-03T09:20:00Z</time>
      </trkpt>
      <trkpt lat="48.78641" lon="2.16156">
        <ele>160.7</ele>
        <time>2016-12-03T09:20:02Z</time>
      </trkpt>
      <trkpt lat="48.7864" lon="2.1614">
        <ele>159.1</ele>
        <time>2016-12-03T09:20:04Z</time>
      </trkpt>
      <trkpt lat="48.78639" lon="2.16123">
        <ele>157.3</ele>
        <time>2016-12-03T09:20:06Z</time>
      </trkpt>
      <trkpt lat="48.78639" lon="2.1611">
        <ele>155.9</ele>
        <time>2016-12-03T09:20:08Z</time>
      </trkpt>
      <trkpt lat="48.7864" lon="2.16094">
        <ele>154</ele>
        <time>2016-12-03T09:20:10Z</time>
      </trkpt>
      <trkpt lat="48.78635" lon="2.1608">
        <ele>153.8</ele>
        <time>2016-12-03T09:20:13Z</time>
      </trkpt>
      <trkpt lat="48.78625" lon="2.16071">
        <ele>156</ele>
        <time>2016-12-03T09:20:16Z</time>
      </trkpt>
      <trkpt lat="48.78612" lon="2.16063">
        <ele>158.7</ele>
        <time>2016-12-03T09:20:19Z</time>
      </trkpt>
      <trkpt lat="48.78603" lon="2.16059">
        <ele>160.6</ele>
        <time>2016-12-03T09:20:21Z</time>
      </trkpt>
      <trkpt lat="48.78593" lon="2.16053">
        <ele>162.8</ele>
        <time>2016-12-03T09:20:23Z</time>
      </trkpt>
      <trkpt lat="48.78584" lon="2.16044">
        <ele>164.6</ele>
        <time>2016-12-03T09:20:25Z</time>
      </trkpt>
      <trkpt lat="48.78575" lon="2.16036">
        <ele>165.4</ele>
        <time>2016-12-03T09:20:27Z</time>
      </trkpt>
      <trkpt lat="48.78567" lon="2.16027">
        <ele>166.2</ele>
        <time>2016-12-03T09:20:29Z</time>
      </trkpt>
      <trkpt lat="48.78559" lon="2.16012">
        <ele>166.6</ele>
        <time>2016-12-03T09:20:32Z</time>
      </trkpt>
      <trkpt lat="48.78552" lon="2.15995">
        <ele>166.9</ele>
        <time>2016-12-03T09:20:35Z</time>
      </trkpt>
      <trkpt lat="48.78549" lon="2.15982">
        <ele>167.6</ele>
        <time>2016-12-03T09:20:37Z</time>
      </trkpt>
      <trkpt lat="48.78548" lon="2.15961">
        <ele>168</ele>
        <time>2016-12-03T09:20:40Z</time>
      </trkpt>
      <trkpt lat="48.7855" lon="2.15944">
        <ele>167.8</ele>
        <time>2016-12-03T09:20:43Z</time>
      </trkpt>
      <trkpt lat="48.78555" lon="2.15926">
        <ele>167.3</ele>
        <time>2016-12-03T09:20:46Z</time>
      </trkpt>
      <trkpt lat="48.78562" lon="2.15909">
        <ele>167.2</ele>
        <time>2016-12-03T09:20:49Z</time>
      </trkpt>
      <trkpt lat="48.78566" lon="2.15896">
        <ele>167.7</ele>
        <time>2016-12-03T09:20:51Z</time>
      </trkpt>
      <trkpt lat="48.78573" lon="2.15879">
        <ele>168.5</ele>
        <time>2016-12-03T09:20:54Z</time>
      </trkpt>
      <trkpt lat="48.78577" lon="2.15866">
        <ele>169.3</ele>
        <time>2016-12-03T09:20:56Z</time>
      </trkpt>
      <trkpt lat="48.78581" lon="2.15853">
        <ele>170.2</ele>
        <time>2016-12-03T09:20:58Z</time>
      </trkpt>
      <trkpt lat="48.78585" lon="2.1584">
        <ele>171.1</ele>
        <time>2016-12-03T09:21:00Z</time>
      </trkpt>
      <trkpt lat="48.78589" lon="2.15827">
        <ele>171.7</ele>
        <time>2016-12-03T09:21:02Z</time>
      </trkpt>
      <trkpt lat="48.78593" lon="2.15809">
        <ele>172.6</ele>
        <time>2016-12-03T09:21:05Z</time>
      </trkpt>
      <trkpt lat="48.78596" lon="2.15793">
        <ele>173.5</ele>
        <time>2016-12-03T09:21:08Z</time>
      </trkpt>
      <trkpt lat="48.78602" lon="2.15778">
        <ele>174.1</ele>
        <time>2016-12-03T09:21:11Z</time>
      </trkpt>
      <trkpt lat="48.78606" lon="2.15766">
        <ele>174.5</ele>
        <time>2016-12-03T09:21:13Z</time>
      </trkpt>
      <trkpt lat="48.78612" lon="2.1575">
        <ele>175.2</ele>
        <time>2016-12-03T09:21:16Z</time>
      </trkpt>
      <trkpt lat="48.78616" lon="2.15737">
        <ele>174.5</ele>
        <time>2016-12-03T09:21:19Z</time>
      </trkpt>
      <trkpt lat="48.78623" lon="2.1572">
        <ele>173.4</ele>
        <time>2016-12-03T09:21:22Z</time>
      </trkpt>
      <trkpt lat="48.78628" lon="2.15702">
        <ele>172.5</ele>
        <time>2016-12-03T09:21:25Z</time>
      </trkpt>
      <trkpt lat="48.78635" lon="2.1569">
        <ele>171.6</ele>
        <time>2016-12-03T09:21:27Z</time>
      </trkpt>
      <trkpt lat="48.78642" lon="2.15674">
        <ele>170.8</ele>
        <time>2016-12-03T09:21:30Z</time>
      </trkpt>
      <trkpt lat="48.7865" lon="2.15661">
        <ele>169.5</ele>
        <time>2016-12-03T09:21:33Z</time>
      </trkpt>
      <trkpt lat="48.78656" lon="2.15647">
        <ele>168.2</ele>
        <time>2016-12-03T09:21:35Z</time>
      </trkpt>
      <trkpt lat="48.78661" lon="2.15635">
        <ele>167</ele>
        <time>2016-12-03T09:21:37Z</time>
      </trkpt>
      <trkpt lat="48.78668" lon="2.15618">
        <ele>165.3</ele>
        <time>2016-12-03T09:21:40Z</time>
      </trkpt>
      <trkpt lat="48.78673" lon="2.15604">
        <ele>163.7</ele>
        <time>2016-12-03T09:21:42Z</time>
      </trkpt>
      <trkpt lat="48.78679" lon="2.15589">
        <ele>162</ele>
        <time>2016-12-03T09:21:45Z</time>
      </trkpt>
      <trkpt lat="48.78686" lon="2.15574">
        <ele>160.6</ele>
        <time>2016-12-03T09:21:47Z</time>
      </trkpt>
      <trkpt lat="48.78692" lon="2.15563">
        <ele>159.4</ele>
        <time>2016-12-03T09:21:49Z</time>
      </trkpt>
      <trkpt lat="48.78698" lon="2.15551">
        <ele>158.3</ele>
        <time>2016-12-03T09:21:51Z</time>
      </trkpt>
      <trkpt lat="48.78701" lon="2.15537">
        <ele>157.7</ele>
        <time>2016-12-03T09:21:53Z</time>
      </trkpt>
      <trkpt lat="48.78703" lon="2.15519">
        <ele>157.2</ele>
        <time>2016-12-03T09:21:56Z</time>
      </trkpt>
      <trkpt lat="48.78704" lon="2.15498">
        <ele>156.9</ele>
        <time>2016-12-03T09:21:59Z</time>
      </trkpt>
      <trkpt lat="48.78701" lon="2.15484">
        <ele>157.4</ele>
        <time>2016-12-03T09:22:01Z</time>
      </trkpt>
      <trkpt lat="48.78699" lon="2.15468">
        <ele>157.7</ele>
        <time>2016-12-03T09:22:03Z</time>
      </trkpt>
      <trkpt lat="48.78696" lon="2.15454">
        <ele>158.2</ele>
        <time>2016-12-03T09:22:05Z</time>
      </trkpt>
      <trkpt lat="48.78693" lon="2.15433">
        <ele>158.5</ele>
        <time>2016-12-03T09:22:07Z</time>
      </trkpt>
      <trkpt lat="48.78689" lon="2.15414">
        <ele>158.6</ele>
        <time>2016-12-03T09:22:09Z</time>
      </trkpt>
      <trkpt lat="48.78687" lon="2.15395">
        <ele>158.1</ele>
        <time>2016-12-03T09:22:11Z</time>
      </trkpt>
      <trkpt lat="48.78686" lon="2.15376">
        <ele>157.5</ele>
        <time>2016-12-03T09:22:13Z</time>
      </trkpt>
      <trkpt lat="48.78684" lon="2.15359">
        <ele>157.2</ele>
        <time>2016-12-03T09:22:15Z</time>
      </trkpt>
      <trkpt lat="48.78683" lon="2.15346">
        <ele>156.8</ele>
        <time>2016-12-03T09:22:17Z</time>
      </trkpt>
      <trkpt lat="48.78681" lon="2.15331">
        <ele>156.4</ele>
        <time>2016-12-03T09:22:19Z</time>
      </trkpt>
      <trkpt lat="48.78678" lon="2.15313">
        <ele>155.7</ele>
        <time>2016-12-03T09:22:21Z</time>
      </trkpt>
      <trkpt lat="48.78672" lon="2.15292">
        <ele>155.1</ele>
        <time>2016-12-03T09:22:23Z</time>
      </trkpt>
      <trkpt lat="48.7867" lon="2.15272">
        <ele>154.1</ele>
        <time>2016-12-03T09:22:25Z</time>
      </trkpt>
      <trkpt lat="48.78667" lon="2.15257">
        <ele>153.4</ele>
        <time>2016-12-03T09:22:27Z</time>
      </trkpt>
      <trkpt lat="48.78664" lon="2.15242">
        <ele>152</ele>
        <time>2016-12-03T09:22:31Z</time>
      </trkpt>
      <trkpt lat="48.78659" lon="2.15229">
        <ele>150.5</ele>
        <time>2016-12-03T09:22:34Z</time>
      </trkpt>
      <trkpt lat="48.78657" lon="2.15219">
        <ele>149.5</ele>
        <time>2016-12-03T09:22:42Z</time>
      </trkpt>
      <trkpt lat="48.78662" lon="2.15204">
        <ele>148</ele>
        <time>2016-12-03T09:23:20Z</time>
      </trkpt>
      <trkpt lat="48.78668" lon="2.15191">
        <ele>146.4</ele>
        <time>2016-12-03T09:23:23Z</time>
      </trkpt>
      <trkpt lat="48.78675" lon="2.15174">
        <ele>144</ele>
        <time>2016-12-03T09:23:26Z</time>
      </trkpt>
      <trkpt lat="48.78681" lon="2.15163">
        <ele>142.9</ele>
        <time>2016-12-03T09:23:28Z</time>
      </trkpt>
      <trkpt lat="48.78687" lon="2.15151">
        <ele>142.3</ele>
        <time>2016-12-03T09:23:30Z</time>
      </trkpt>
      <trkpt lat="48.78693" lon="2.15139">
        <ele>141.7</ele>
        <time>2016-12-03T09:23:32Z</time>
      </trkpt>
      <trkpt lat="48.78699" lon="2.15126">
        <ele>141.1</ele>
        <time>2016-12-03T09:23:34Z</time>
      </trkpt>
      <trkpt lat="48.78707" lon="2.15113">
        <ele>140.4</ele>
        <time>2016-12-03T09:23:36Z</time>
      </trkpt>
      <trkpt lat="48.78715" lon="2.151">
        <ele>139.8</ele>
        <time>2016-12-03T09:23:38Z</time>
      </trkpt>
      <trkpt lat="48.78726" lon="2.15085">
        <ele>139.2</ele>
        <time>2016-12-03T09:23:40Z</time>
      </trkpt>
      <trkpt lat="48.78737" lon="2.15073">
        <ele>138.7</ele>
        <time>2016-12-03T09:23:42Z</time>
      </trkpt>
      <trkpt lat="48.7875" lon="2.1506">
        <ele>138.3</ele>
        <time>2016-12-03T09:23:44Z</time>
      </trkpt>
      <trkpt lat="48.78763" lon="2.15047">
        <ele>138.1</ele>
        <time>2016-12-03T09:23:46Z</time>
      </trkpt>
      <trkpt lat="48.78777" lon="2.15034">
        <ele>137.8</ele>
        <time>2016-12-03T09:23:48Z</time>
      </trkpt>
      <trkpt lat="48.78791" lon="2.15021">
        <ele>137.4</ele>
        <time>2016-12-03T09:23:50Z</time>
      </trkpt>
      <trkpt lat="48.78804" lon="2.15007">
        <ele>137</ele>
        <time>2016-12-03T09:23:52Z</time>
      </trkpt>
      <trkpt lat="48.78817" lon="2.14994">
        <ele>136.5</ele>
        <time>2016-12-03T09:23:54Z</time>
      </trkpt>
      <trkpt lat="48.7883" lon="2.14981">
        <ele>135.9</ele>
        <time>2016-12-03T09:23:56Z</time>
      </trkpt>
      <trkpt lat="48.78842" lon="2.14969">
        <ele>135.3</ele>
        <time>2016-12-03T09:23:58Z</time>
      </trkpt>
      <trkpt lat="48.78854" lon="2.14957">
        <ele>134.8</ele>
        <time>2016-12-03T09:24:00Z</time>
      </trkpt>
      <trkpt lat="48.78866" lon="2.14945">
        <ele>134.4</ele>
        <time>2016-12-03T09:24:02Z</time>
      </trkpt>
      <trkpt lat="48.78877" lon="2.14933">
        <ele>134.3</ele>
        <time>2016-12-03T09:24:04Z</time>
      </trkpt>
      <trkpt lat="48.78889" lon="2.14922">
        <ele>134.2</ele>
        <time>2016-12-03T09:24:06Z</time>
      </trkpt>
      <trkpt lat="48.78901" lon="2.14911">
        <ele>134.4</ele>
        <time>2016-12-03T09:24:08Z</time>
      </trkpt>
      <trkpt lat="48.78912" lon="2.14898">
        <ele>134.5</ele>
        <time>2016-12-03T09:24:10Z</time>
      </trkpt>
      <trkpt lat="48.78923" lon="2.14885">
        <ele>134.5</ele>
        <time>2016-12-03T09:24:12Z</time>
      </trkpt>
      <trkpt lat="48.78934" lon="2.14874">
        <ele>134.4</ele>
        <time>2016-12-03T09:24:14Z</time>
      </trkpt>
      <trkpt lat="48.78944" lon="2.14862">
        <ele>134.3</ele>
        <time>2016-12-03T09:24:16Z</time>
      </trkpt>
      <trkpt lat="48.78953" lon="2.14851">
        <ele>134.4</ele>
        <time>2016-12-03T09:24:18Z</time>
      </trkpt>
      <trkpt lat="48.78957" lon="2.14837">
        <ele>134.9</ele>
        <time>2016-12-03T09:24:20Z</time>
      </trkpt>
      <trkpt lat="48.78964" lon="2.14826">
        <ele>135.4</ele>
        <time>2016-12-03T09:24:22Z</time>
      </trkpt>
      <trkpt lat="48.78973" lon="2.14816">
        <ele>135.9</ele>
        <time>2016-12-03T09:24:24Z</time>
      </trkpt>
      <trkpt lat="48.78982" lon="2.14809">
        <ele>136.3</ele>
        <time>2016-12-03T09:24:26Z</time>
      </trkpt>
      <trkpt lat="48.7899" lon="2.148">
        <ele>136.9</ele>
        <time>2016-12-03T09:24:28Z</time>
      </trkpt>
      <trkpt lat="48.78999" lon="2.14792">
        <ele>137.6</ele>
        <time>2016-12-03T09:24:30Z</time>
      </trkpt>
      <trkpt lat="48.79009" lon="2.1478">
        <ele>137.9</ele>
        <time>2016-12-03T09:24:33Z</time>
      </trkpt>
      <trkpt lat="48.79019" lon="2.1477">
        <ele>137.9</ele>
        <time>2016-12-03T09:24:36Z</time>
      </trkpt>
      <trkpt lat="48.79026" lon="2.14762">
        <ele>138</ele>
        <time>2016-12-03T09:24:38Z</time>
      </trkpt>
      <trkpt lat="48.79034" lon="2.14754">
        <ele>137.9</ele>
        <time>2016-12-03T09:24:40Z</time>
      </trkpt>
      <trkpt lat="48.79042" lon="2.14746">
        <ele>137.9</ele>
        <time>2016-12-03T09:24:42Z</time>
      </trkpt>
      <trkpt lat="48.79051" lon="2.14735">
        <ele>137.8</ele>
        <time>2016-12-03T09:24:45Z</time>
      </trkpt>
      <trkpt lat="48.79061" lon="2.14725">
        <ele>137.6</ele>
        <time>2016-12-03T09:24:48Z</time>
      </trkpt>
      <trkpt lat="48.79071" lon="2.14715">
        <ele>137.2</ele>
        <time>2016-12-03T09:24:51Z</time>
      </trkpt>
      <trkpt lat="48.7908" lon="2.14709">
        <ele>136.8</ele>
        <time>2016-12-03T09:24:54Z</time>
      </trkpt>
      <trkpt lat="48.79079" lon="2.14694">
        <ele>137.8</ele>
        <time>2016-12-03T09:25:00Z</time>
      </trkpt>
      <trkpt lat="48.79072" lon="2.14684">
        <ele>139.2</ele>
        <time>2016-12-03T09:25:07Z</time>
      </trkpt>
      <trkpt lat="48.79065" lon="2.14672">
        <ele>140.6</ele>
        <time>2016-12-03T09:25:15Z</time>
      </trkpt>
      <trkpt lat="48.79059" lon="2.14659">
        <ele>142.2</ele>
        <time>2016-12-03T09:25:23Z</time>
      </trkpt>
      <trkpt lat="48.79054" lon="2.14647">
        <ele>143.6</ele>
        <time>2016-12-03T09:25:29Z</time>
      </trkpt>
      <trkpt lat="48.7905" lon="2.14635">
        <ele>144.9</ele>
        <time>2016-12-03T09:25:34Z</time>
      </trkpt>
      <trkpt lat="48.79044" lon="2.14623">
        <ele>146.4</ele>
        <time>2016-12-03T09:25:41Z</time>
      </trkpt>
      <trkpt lat="48.79038" lon="2.1461">
        <ele>148</ele>
        <time>2016-12-03T09:25:48Z</time>
      </trkpt>
      <trkpt lat="48.79033" lon="2.14599">
        <ele>149.6</ele>
        <time>2016-12-03T09:25:54Z</time>
      </trkpt>
      <trkpt lat="48.79027" lon="2.14586">
        <ele>151.2</ele>
        <time>2016-12-03T09:26:01Z</time>
      </trkpt>
      <trkpt lat="48.79022" lon="2.14574">
        <ele>152.5</ele>
        <time>2016-12-03T09:26:08Z</time>
      </trkpt>
      <trkpt lat="48.79016" lon="2.14562">
        <ele>153.8</ele>
        <time>2016-12-03T09:26:16Z</time>
      </trkpt>
      <trkpt lat="48.79009" lon="2.14549">
        <ele>155.3</ele>
        <time>2016-12-03T09:26:23Z</time>
      </trkpt>
      <trkpt lat="48.79004" lon="2.14538">
        <ele>156.6</ele>
        <time>2016-12-03T09:26:30Z</time>
      </trkpt>
      <trkpt lat="48.78998" lon="2.14527">
        <ele>157.8</ele>
        <time>2016-12-03T09:26:37Z</time>
      </trkpt>
      <trkpt lat="48.78993" lon="2.14516">
        <ele>158.7</ele>
        <time>2016-12-03T09:26:43Z</time>
      </trkpt>
      <trkpt lat="48.78987" lon="2.14503">
        <ele>159.8</ele>
        <time>2016-12-03T09:26:50Z</time>
      </trkpt>
      <trkpt lat="48.78982" lon="2.14492">
        <ele>160.1</ele>
        <time>2016-12-03T09:26:56Z</time>
      </trkpt>
      <trkpt lat="48.78976" lon="2.1448">
        <ele>160.5</ele>
        <time>2016-12-03T09:27:02Z</time>
      </trkpt>
      <trkpt lat="48.7897" lon="2.14468">
        <ele>161</ele>
        <time>2016-12-03T09:27:09Z</time>
      </trkpt>
      <trkpt lat="48.78965" lon="2.14455">
        <ele>161.5</ele>
        <time>2016-12-03T09:27:17Z</time>
      </trkpt>
      <trkpt lat="48.78959" lon="2.14445">
        <ele>162.3</ele>
        <time>2016-12-03T09:27:22Z</time>
      </trkpt>
      <trkpt lat="48.78955" lon="2.14432">
        <ele>162.9</ele>
        <time>2016-12-03T09:27:28Z</time>
      </trkpt>
      <trkpt lat="48.78949" lon="2.1442">
        <ele>163.9</ele>
        <time>2016-12-03T09:27:34Z</time>
      </trkpt>
      <trkpt lat="48.78943" lon="2.1441">
        <ele>164.5</ele>
        <time>2016-12-03T09:27:40Z</time>
      </trkpt>
      <trkpt lat="48.78936" lon="2.14399">
        <ele>164.9</ele>
        <time>2016-12-03T09:27:48Z</time>
      </trkpt>
      <trkpt lat="48.78935" lon="2.14384">
        <ele>164.2</ele>
        <time>2016-12-03T09:27:55Z</time>
      </trkpt>
      <trkpt lat="48.78928" lon="2.14376">
        <ele>165</ele>
        <time>2016-12-03T09:28:05Z</time>
      </trkpt>
      <trkpt lat="48.7893" lon="2.14385">
        <ele>165.2</ele>
        <time>2016-12-03T09:28:18Z</time>
      </trkpt>
      <trkpt lat="48.78927" lon="2.14389">
        <ele>166</ele>
        <time>2016-12-03T09:28:40Z</time>
      </trkpt>
      <trkpt lat="48.78926" lon="2.14393">
        <ele>166.3</ele>
        <time>2016-12-03T09:28:59Z</time>
      </trkpt>
      <trkpt lat="48.78932" lon="2.14387">
        <ele>165</ele>
        <time>2016-12-03T09:29:25Z</time>
      </trkpt>
      <trkpt lat="48.78936" lon="2.14373">
        <ele>163.4</ele>
        <time>2016-12-03T09:29:48Z</time>
      </trkpt>
      <trkpt lat="48.78937" lon="2.14359">
        <ele>162.6</ele>
        <time>2016-12-03T09:29:52Z</time>
      </trkpt>
      <trkpt lat="48.78935" lon="2.14344">
        <ele>162.1</ele>
        <time>2016-12-03T09:29:56Z</time>
      </trkpt>
      <trkpt lat="48.78935" lon="2.1433">
        <ele>161.4</ele>
        <time>2016-12-03T09:29:59Z</time>
      </trkpt>
      <trkpt lat="48.78933" lon="2.14314">
        <ele>160.9</ele>
        <time>2016-12-03T09:30:03Z</time>
      </trkpt>
      <trkpt lat="48.78933" lon="2.14297">
        <ele>160.1</ele>
        <time>2016-12-03T09:30:07Z</time>
      </trkpt>
      <trkpt lat="48.78933" lon="2.14282">
        <ele>159.5</ele>
        <time>2016-12-03T09:30:10Z</time>
      </trkpt>
      <trkpt lat="48.78933" lon="2.14267">
        <ele>158.8</ele>
        <time>2016-12-03T09:30:13Z</time>
      </trkpt>
      <trkpt lat="48.78933" lon="2.14247">
        <ele>158</ele>
        <time>2016-12-03T09:30:17Z</time>
      </trkpt>
      <trkpt lat="48.78934" lon="2.14232">
        <ele>157.9</ele>
        <time>2016-12-03T09:30:19Z</time>
      </trkpt>
      <trkpt lat="48.78935" lon="2.14216">
        <ele>157.8</ele>
        <time>2016-12-03T09:30:22Z</time>
      </trkpt>
      <trkpt lat="48.78933" lon="2.14202">
        <ele>158</ele>
        <time>2016-12-03T09:30:25Z</time>
      </trkpt>
      <trkpt lat="48.78933" lon="2.14186">
        <ele>158.1</ele>
        <time>2016-12-03T09:30:28Z</time>
      </trkpt>
      <trkpt lat="48.78934" lon="2.14169">
        <ele>157.9</ele>
        <time>2016-12-03T09:30:31Z</time>
      </trkpt>
      <trkpt lat="48.78934" lon="2.14155">
        <ele>158</ele>
        <time>2016-12-03T09:30:33Z</time>
      </trkpt>
      <trkpt lat="48.78931" lon="2.14134">
        <ele>158.4</ele>
        <time>2016-12-03T09:30:36Z</time>
      </trkpt>
      <trkpt lat="48.78928" lon="2.14121">
        <ele>158.8</ele>
        <time>2016-12-03T09:30:38Z</time>
      </trkpt>
      <trkpt lat="48.78921" lon="2.14106">
        <ele>159.6</ele>
        <time>2016-12-03T09:30:41Z</time>
      </trkpt>
      <trkpt lat="48.78915" lon="2.14095">
        <ele>160.2</ele>
        <time>2016-12-03T09:30:43Z</time>
      </trkpt>
      <trkpt lat="48.78909" lon="2.14083">
        <ele>160.9</ele>
        <time>2016-12-03T09:30:45Z</time>
      </trkpt>
      <trkpt lat="48.78902" lon="2.1407">
        <ele>162.5</ele>
        <time>2016-12-03T09:30:47Z</time>
      </trkpt>
      <trkpt lat="48.78897" lon="2.14056">
        <ele>163.8</ele>
        <time>2016-12-03T09:30:49Z</time>
      </trkpt>
      <trkpt lat="48.78892" lon="2.14045">
        <ele>164.9</ele>
        <time>2016-12-03T09:30:51Z</time>
      </trkpt>
      <trkpt lat="48.78886" lon="2.14033">
        <ele>166.1</ele>
        <time>2016-12-03T09:30:53Z</time>
      </trkpt>
      <trkpt lat="48.78882" lon="2.1402">
        <ele>167.1</ele>
        <time>2016-12-03T09:30:55Z</time>
      </trkpt>
      <trkpt lat="48.7888" lon="2.14006">
        <ele>167.9</ele>
        <time>2016-12-03T09:30:57Z</time>
      </trkpt>
      <trkpt lat="48.78879" lon="2.13992">
        <ele>168.4</ele>
        <time>2016-12-03T09:30:59Z</time>
      </trkpt>
      <trkpt lat="48.78881" lon="2.13973">
        <ele>168.7</ele>
        <time>2016-12-03T09:31:02Z</time>
      </trkpt>
      <trkpt lat="48.78883" lon="2.13956">
        <ele>168.9</ele>
        <time>2016-12-03T09:31:05Z</time>
      </trkpt>
      <trkpt lat="48.78887" lon="2.1394">
        <ele>169</ele>
        <time>2016-12-03T09:31:08Z</time>
      </trkpt>
      <trkpt lat="48.78883" lon="2.13926">
        <ele>169.4</ele>
        <time>2016-12-03T09:31:11Z</time>
      </trkpt>
      <trkpt lat="48.78875" lon="2.13918">
        <ele>170</ele>
        <time>2016-12-03T09:31:14Z</time>
      </trkpt>
      <trkpt lat="48.78864" lon="2.13913">
        <ele>170.5</ele>
        <time>2016-12-03T09:31:17Z</time>
      </trkpt>
      <trkpt lat="48.78855" lon="2.13908">
        <ele>171</ele>
        <time>2016-12-03T09:31:20Z</time>
      </trkpt>
      <trkpt lat="48.78856" lon="2.13891">
        <ele>170.9</ele>
        <time>2016-12-03T09:31:23Z</time>
      </trkpt>
      <trkpt lat="48.78863" lon="2.13878">
        <ele>170.6</ele>
        <time>2016-12-03T09:31:26Z</time>
      </trkpt>
      <trkpt lat="48.78867" lon="2.13861">
        <ele>170.4</ele>
        <time>2016-12-03T09:31:29Z</time>
      </trkpt>
      <trkpt lat="48.78864" lon="2.13843">
        <ele>170.5</ele>
        <time>2016-12-03T09:31:32Z</time>
      </trkpt>
      <trkpt lat="48.78858" lon="2.13825">
        <ele>171.1</ele>
        <time>2016-12-03T09:31:35Z</time>
      </trkpt>
      <trkpt lat="48.78856" lon="2.13808">
        <ele>171.9</ele>
        <time>2016-12-03T09:31:38Z</time>
      </trkpt>
      <trkpt lat="48.78856" lon="2.1379">
        <ele>172.6</ele>
        <time>2016-12-03T09:31:41Z</time>
      </trkpt>
      <trkpt lat="48.78861" lon="2.13773">
        <ele>172.9</ele>
        <time>2016-12-03T09:31:44Z</time>
      </trkpt>
      <trkpt lat="48.78866" lon="2.13756">
        <ele>173</ele>
        <time>2016-12-03T09:31:47Z</time>
      </trkpt>
      <trkpt lat="48.78872" lon="2.13738">
        <ele>172.6</ele>
        <time>2016-12-03T09:31:50Z</time>
      </trkpt>
      <trkpt lat="48.78879" lon="2.13722">
        <ele>171.9</ele>
        <time>2016-12-03T09:31:53Z</time>
      </trkpt>
      <trkpt lat="48.78886" lon="2.13707">
        <ele>171.1</ele>
        <time>2016-12-03T09:31:56Z</time>
      </trkpt>
      <trkpt lat="48.78896" lon="2.13691">
        <ele>170.1</ele>
        <time>2016-12-03T09:31:59Z</time>
      </trkpt>
      <trkpt lat="48.78902" lon="2.13682">
        <ele>169.4</ele>
        <time>2016-12-03T09:32:01Z</time>
      </trkpt>
      <trkpt lat="48.78911" lon="2.13672">
        <ele>168.5</ele>
        <time>2016-12-03T09:32:03Z</time>
      </trkpt>
      <trkpt lat="48.78921" lon="2.13662">
        <ele>167.4</ele>
        <time>2016-12-03T09:32:05Z</time>
      </trkpt>
      <trkpt lat="48.7893" lon="2.13653">
        <ele>166.1</ele>
        <time>2016-12-03T09:32:07Z</time>
      </trkpt>
      <trkpt lat="48.78939" lon="2.13641">
        <ele>165</ele>
        <time>2016-12-03T09:32:09Z</time>
      </trkpt>
      <trkpt lat="48.78944" lon="2.13625">
        <ele>164.4</ele>
        <time>2016-12-03T09:32:11Z</time>
      </trkpt>
      <trkpt lat="48.78947" lon="2.13608">
        <ele>164</ele>
        <time>2016-12-03T09:32:13Z</time>
      </trkpt>
      <trkpt lat="48.78944" lon="2.13592">
        <ele>164.1</ele>
        <time>2016-12-03T09:32:15Z</time>
      </trkpt>
      <trkpt lat="48.78937" lon="2.13579">
        <ele>164.8</ele>
        <time>2016-12-03T09:32:17Z</time>
      </trkpt>
      <trkpt lat="48.78929" lon="2.13565">
        <ele>165.8</ele>
        <time>2016-12-03T09:32:19Z</time>
      </trkpt>
      <trkpt lat="48.78921" lon="2.1355">
        <ele>166.7</ele>
        <time>2016-12-03T09:32:21Z</time>
      </trkpt>
      <trkpt lat="48.78912" lon="2.13533">
        <ele>167.3</ele>
        <time>2016-12-03T09:32:23Z</time>
      </trkpt>
      <trkpt lat="48.78902" lon="2.13518">
        <ele>167.5</ele>
        <time>2016-12-03T09:32:25Z</time>
      </trkpt>
      <trkpt lat="48.78893" lon="2.13504">
        <ele>167.7</ele>
        <time>2016-12-03T09:32:27Z</time>
      </trkpt>
      <trkpt lat="48.78886" lon="2.13493">
        <ele>168</ele>
        <time>2016-12-03T09:32:29Z</time>
      </trkpt>
      <trkpt lat="48.78883" lon="2.13478">
        <ele>168.7</ele>
        <time>2016-12-03T09:32:32Z</time>
      </trkpt>
      <trkpt lat="48.78882" lon="2.13463">
        <ele>169.3</ele>
        <time>2016-12-03T09:32:40Z</time>
      </trkpt>
      <trkpt lat="48.78882" lon="2.13461">
        <ele>169.5</ele>
        <time>2016-12-03T09:32:44Z</time>
      </trkpt>
      <trkpt lat="48.7888" lon="2.13446">
        <ele>170.1</ele>
        <time>2016-12-03T09:32:58Z</time>
      </trkpt>
      <trkpt lat="48.78878" lon="2.1343">
        <ele>170.7</ele>
        <time>2016-12-03T09:33:03Z</time>
      </trkpt>
      <trkpt lat="48.78875" lon="2.13415">
        <ele>171.1</ele>
        <time>2016-12-03T09:33:07Z</time>
      </trkpt>
      <trkpt lat="48.78875" lon="2.13404">
        <ele>171.3</ele>
        <time>2016-12-03T09:33:16Z</time>
      </trkpt>
      <trkpt lat="48.78878" lon="2.13388">
        <ele>171.9</ele>
        <time>2016-12-03T09:33:25Z</time>
      </trkpt>
      <trkpt lat="48.78884" lon="2.13377">
        <ele>172.6</ele>
        <time>2016-12-03T09:33:30Z</time>
      </trkpt>
      <trkpt lat="48.78891" lon="2.13367">
        <ele>173.3</ele>
        <time>2016-12-03T09:33:34Z</time>
      </trkpt>
      <trkpt lat="48.78898" lon="2.13355">
        <ele>174.2</ele>
        <time>2016-12-03T09:33:39Z</time>
      </trkpt>
      <trkpt lat="48.78906" lon="2.13347">
        <ele>174.9</ele>
        <time>2016-12-03T09:33:45Z</time>
      </trkpt>
      <trkpt lat="48.78916" lon="2.13344">
        <ele>175.7</ele>
        <time>2016-12-03T09:33:51Z</time>
      </trkpt>
      <trkpt lat="48.78926" lon="2.13342">
        <ele>175.8</ele>
        <time>2016-12-03T09:33:57Z</time>
      </trkpt>
      <trkpt lat="48.78935" lon="2.13337">
        <ele>175.9</ele>
        <time>2016-12-03T09:34:02Z</time>
      </trkpt>
      <trkpt lat="48.78945" lon="2.13332">
        <ele>176</ele>
        <time>2016-12-03T09:34:07Z</time>
      </trkpt>
      <trkpt lat="48.78955" lon="2.1333">
        <ele>176</ele>
        <time>2016-12-03T09:34:14Z</time>
      </trkpt>
      <trkpt lat="48.78964" lon="2.13329">
        <ele>176</ele>
        <time>2016-12-03T09:34:20Z</time>
      </trkpt>
      <trkpt lat="48.78974" lon="2.13329">
        <ele>176</ele>
        <time>2016-12-03T09:34:27Z</time>
      </trkpt>
      <trkpt lat="48.78984" lon="2.13329">
        <ele>175.9</ele>
        <time>2016-12-03T09:34:33Z</time>
      </trkpt>
      <trkpt lat="48.78994" lon="2.13328">
        <ele>175.9</ele>
        <time>2016-12-03T09:34:39Z</time>
      </trkpt>
      <trkpt lat="48.79003" lon="2.13329">
        <ele>176</ele>
        <time>2016-12-03T09:34:44Z</time>
      </trkpt>
      <trkpt lat="48.79013" lon="2.13332">
        <ele>176.1</ele>
        <time>2016-12-03T09:34:49Z</time>
      </trkpt>
      <trkpt lat="48.79022" lon="2.13337">
        <ele>176.3</ele>
        <time>2016-12-03T09:34:59Z</time>
      </trkpt>
      <trkpt lat="48.79034" lon="2.13342">
        <ele>176.4</ele>
        <time>2016-12-03T09:35:03Z</time>
      </trkpt>
      <trkpt lat="48.79045" lon="2.13344">
        <ele>176.5</ele>
        <time>2016-12-03T09:35:06Z</time>
      </trkpt>
      <trkpt lat="48.79054" lon="2.13345">
        <ele>176.7</ele>
        <time>2016-12-03T09:35:09Z</time>
      </trkpt>
      <trkpt lat="48.79065" lon="2.13344">
        <ele>176.8</ele>
        <time>2016-12-03T09:35:12Z</time>
      </trkpt>
      <trkpt lat="48.79076" lon="2.13344">
        <ele>176.9</ele>
        <time>2016-12-03T09:35:16Z</time>
      </trkpt>
      <trkpt lat="48.79086" lon="2.13342">
        <ele>176.9</ele>
        <time>2016-12-03T09:35:19Z</time>
      </trkpt>
      <trkpt lat="48.79098" lon="2.13339">
        <ele>176.4</ele>
        <time>2016-12-03T09:35:22Z</time>
      </trkpt>
      <trkpt lat="48.7911" lon="2.13339">
        <ele>176</ele>
        <time>2016-12-03T09:35:25Z</time>
      </trkpt>
      <trkpt lat="48.79121" lon="2.13338">
        <ele>175.6</ele>
        <time>2016-12-03T09:35:28Z</time>
      </trkpt>
      <trkpt lat="48.79132" lon="2.13336">
        <ele>175.2</ele>
        <time>2016-12-03T09:35:31Z</time>
      </trkpt>
      <trkpt lat="48.79142" lon="2.13335">
        <ele>174.9</ele>
        <time>2016-12-03T09:35:34Z</time>
      </trkpt>
      <trkpt lat="48.79152" lon="2.13336">
        <ele>174.4</ele>
        <time>2016-12-03T09:35:37Z</time>
      </trkpt>
      <trkpt lat="48.79163" lon="2.13335">
        <ele>174</ele>
        <time>2016-12-03T09:35:40Z</time>
      </trkpt>
      <trkpt lat="48.79173" lon="2.13334">
        <ele>173.6</ele>
        <time>2016-12-03T09:35:43Z</time>
      </trkpt>
      <trkpt lat="48.79185" lon="2.13334">
        <ele>172.7</ele>
        <time>2016-12-03T09:35:47Z</time>
      </trkpt>
      <trkpt lat="48.79196" lon="2.13335">
        <ele>171.8</ele>
        <time>2016-12-03T09:35:50Z</time>
      </trkpt>
      <trkpt lat="48.79205" lon="2.13336">
        <ele>171</ele>
        <time>2016-12-03T09:35:53Z</time>
      </trkpt>
      <trkpt lat="48.79218" lon="2.13338">
        <ele>170</ele>
        <time>2016-12-03T09:35:57Z</time>
      </trkpt>
      <trkpt lat="48.79228" lon="2.13338">
        <ele>169.1</ele>
        <time>2016-12-03T09:36:00Z</time>
      </trkpt>
      <trkpt lat="48.79241" lon="2.13335">
        <ele>168.6</ele>
        <time>2016-12-03T09:36:04Z</time>
      </trkpt>
      <trkpt lat="48.79244" lon="2.13318">
        <ele>168.4</ele>
        <time>2016-12-03T09:36:08Z</time>
      </trkpt>
      <trkpt lat="48.79245" lon="2.13303">
        <ele>168.4</ele>
        <time>2016-12-03T09:36:11Z</time>
      </trkpt>
      <trkpt lat="48.79244" lon="2.13287">
        <ele>168.5</ele>
        <time>2016-12-03T09:36:15Z</time>
      </trkpt>
      <trkpt lat="48.79241" lon="2.13271">
        <ele>168.7</ele>
        <time>2016-12-03T09:36:18Z</time>
      </trkpt>
      <trkpt lat="48.79242" lon="2.13254">
        <ele>168.7</ele>
        <time>2016-12-03T09:36:21Z</time>
      </trkpt>
      <trkpt lat="48.79245" lon="2.13238">
        <ele>167.1</ele>
        <time>2016-12-03T09:36:24Z</time>
      </trkpt>
      <trkpt lat="48.79249" lon="2.13221">
        <ele>165</ele>
        <time>2016-12-03T09:36:27Z</time>
      </trkpt>
      <trkpt lat="48.79253" lon="2.13205">
        <ele>162.2</ele>
        <time>2016-12-03T09:36:30Z</time>
      </trkpt>
      <trkpt lat="48.79257" lon="2.13188">
        <ele>159.3</ele>
        <time>2016-12-03T09:36:33Z</time>
      </trkpt>
      <trkpt lat="48.7926" lon="2.13169">
        <ele>156.4</ele>
        <time>2016-12-03T09:36:36Z</time>
      </trkpt>
      <trkpt lat="48.79259" lon="2.13155">
        <ele>154.8</ele>
        <time>2016-12-03T09:36:38Z</time>
      </trkpt>
      <trkpt lat="48.79252" lon="2.13142">
        <ele>154.3</ele>
        <time>2016-12-03T09:36:41Z</time>
      </trkpt>
      <trkpt lat="48.79243" lon="2.13129">
        <ele>154.3</ele>
        <time>2016-12-03T09:36:44Z</time>
      </trkpt>
      <trkpt lat="48.79234" lon="2.13117">
        <ele>154.6</ele>
        <time>2016-12-03T09:36:47Z</time>
      </trkpt>
      <trkpt lat="48.79224" lon="2.13104">
        <ele>155.2</ele>
        <time>2016-12-03T09:36:50Z</time>
      </trkpt>
      <trkpt lat="48.79214" lon="2.13093">
        <ele>156.6</ele>
        <time>2016-12-03T09:36:53Z</time>
      </trkpt>
      <trkpt lat="48.79205" lon="2.13081">
        <ele>157.7</ele>
        <time>2016-12-03T09:36:56Z</time>
      </trkpt>
      <trkpt lat="48.79197" lon="2.13072">
        <ele>158.7</ele>
        <time>2016-12-03T09:36:58Z</time>
      </trkpt>
      <trkpt lat="48.79187" lon="2.13059">
        <ele>159.7</ele>
        <time>2016-12-03T09:37:01Z</time>
      </trkpt>
      <trkpt lat="48.79178" lon="2.13045">
        <ele>160</ele>
        <time>2016-12-03T09:37:04Z</time>
      </trkpt>
      <trkpt lat="48.79172" lon="2.13032">
        <ele>159.7</ele>
        <time>2016-12-03T09:37:07Z</time>
      </trkpt>
      <trkpt lat="48.79167" lon="2.13014">
        <ele>158</ele>
        <time>2016-12-03T09:37:10Z</time>
      </trkpt>
      <trkpt lat="48.79165" lon="2.13">
        <ele>156.3</ele>
        <time>2016-12-03T09:37:12Z</time>
      </trkpt>
      <trkpt lat="48.79161" lon="2.1298">
        <ele>155.7</ele>
        <time>2016-12-03T09:37:15Z</time>
      </trkpt>
      <trkpt lat="48.79159" lon="2.12965">
        <ele>155.1</ele>
        <time>2016-12-03T09:37:17Z</time>
      </trkpt>
      <trkpt lat="48.79158" lon="2.12952">
        <ele>154.5</ele>
        <time>2016-12-03T09:37:19Z</time>
      </trkpt>
      <trkpt lat="48.79159" lon="2.12933">
        <ele>152.9</ele>
        <time>2016-12-03T09:37:22Z</time>
      </trkpt>
      <trkpt lat="48.79162" lon="2.12913">
        <ele>150.9</ele>
        <time>2016-12-03T09:37:25Z</time>
      </trkpt>
      <trkpt lat="48.79162" lon="2.12894">
        <ele>149.4</ele>
        <time>2016-12-03T09:37:28Z</time>
      </trkpt>
      <trkpt lat="48.79159" lon="2.12876">
        <ele>149.2</ele>
        <time>2016-12-03T09:37:31Z</time>
      </trkpt>
      <trkpt lat="48.79155" lon="2.12862">
        <ele>149.3</ele>
        <time>2016-12-03T09:37:33Z</time>
      </trkpt>
      <trkpt lat="48.79155" lon="2.12842">
        <ele>148.1</ele>
        <time>2016-12-03T09:37:36Z</time>
      </trkpt>
      <trkpt lat="48.7916" lon="2.12825">
        <ele>146.1</ele>
        <time>2016-12-03T09:37:39Z</time>
      </trkpt>
      <trkpt lat="48.79164" lon="2.12808">
        <ele>144.4</ele>
        <time>2016-12-03T09:37:42Z</time>
      </trkpt>
      <trkpt lat="48.79166" lon="2.12791">
        <ele>143.8</ele>
        <time>2016-12-03T09:37:45Z</time>
      </trkpt>
      <trkpt lat="48.79162" lon="2.12774">
        <ele>144.8</ele>
        <time>2016-12-03T09:37:48Z</time>
      </trkpt>
      <trkpt lat="48.79158" lon="2.12761">
        <ele>145.8</ele>
        <time>2016-12-03T09:37:50Z</time>
      </trkpt>
      <trkpt lat="48.79155" lon="2.12745">
        <ele>146.7</ele>
        <time>2016-12-03T09:37:53Z</time>
      </trkpt>
      <trkpt lat="48.79156" lon="2.12728">
        <ele>146.8</ele>
        <time>2016-12-03T09:37:56Z</time>
      </trkpt>
      <trkpt lat="48.79158" lon="2.12712">
        <ele>146.3</ele>
        <time>2016-12-03T09:37:59Z</time>
      </trkpt>
      <trkpt lat="48.79157" lon="2.12696">
        <ele>147</ele>
        <time>2016-12-03T09:38:02Z</time>
      </trkpt>
      <trkpt lat="48.79151" lon="2.1268">
        <ele>148.7</ele>
        <time>2016-12-03T09:38:05Z</time>
      </trkpt>
      <trkpt lat="48.79144" lon="2.12666">
        <ele>150.4</ele>
        <time>2016-12-03T09:38:08Z</time>
      </trkpt>
      <trkpt lat="48.79135" lon="2.12651">
        <ele>151.7</ele>
        <time>2016-12-03T09:38:11Z</time>
      </trkpt>
      <trkpt lat="48.79126" lon="2.12638">
        <ele>153.2</ele>
        <time>2016-12-03T09:38:14Z</time>
      </trkpt>
      <trkpt lat="48.79117" lon="2.12627">
        <ele>154.6</ele>
        <time>2016-12-03T09:38:17Z</time>
      </trkpt>
      <trkpt lat="48.7911" lon="2.12614">
        <ele>155.4</ele>
        <time>2016-12-03T09:38:20Z</time>
      </trkpt>
      <trkpt lat="48.79108" lon="2.12599">
        <ele>155</ele>
        <time>2016-12-03T09:38:23Z</time>
      </trkpt>
      <trkpt lat="48.79107" lon="2.12584">
        <ele>154.2</ele>
        <time>2016-12-03T09:38:26Z</time>
      </trkpt>
      <trkpt lat="48.79107" lon="2.12569">
        <ele>153.6</ele>
        <time>2016-12-03T09:38:29Z</time>
      </trkpt>
      <trkpt lat="48.79107" lon="2.12553">
        <ele>153</ele>
        <time>2016-12-03T09:38:32Z</time>
      </trkpt>
      <trkpt lat="48.79107" lon="2.12534">
        <ele>152.3</ele>
        <time>2016-12-03T09:38:35Z</time>
      </trkpt>
      <trkpt lat="48.79106" lon="2.12513">
        <ele>151.7</ele>
        <time>2016-12-03T09:38:38Z</time>
      </trkpt>
      <trkpt lat="48.79106" lon="2.12495">
        <ele>151</ele>
        <time>2016-12-03T09:38:40Z</time>
      </trkpt>
      <trkpt lat="48.79106" lon="2.12476">
        <ele>150.4</ele>
        <time>2016-12-03T09:38:42Z</time>
      </trkpt>
      <trkpt lat="48.79105" lon="2.1246">
        <ele>149.9</ele>
        <time>2016-12-03T09:38:44Z</time>
      </trkpt>
      <trkpt lat="48.79104" lon="2.12445">
        <ele>149.5</ele>
        <time>2016-12-03T09:38:46Z</time>
      </trkpt>
      <trkpt lat="48.79105" lon="2.12429">
        <ele>148.8</ele>
        <time>2016-12-03T09:38:49Z</time>
      </trkpt>
      <trkpt lat="48.79103" lon="2.12414">
        <ele>148.5</ele>
        <time>2016-12-03T09:38:53Z</time>
      </trkpt>
      <trkpt lat="48.791" lon="2.12403">
        <ele>148.8</ele>
        <time>2016-12-03T09:39:02Z</time>
      </trkpt>
      <trkpt lat="48.79103" lon="2.12389">
        <ele>148.2</ele>
        <time>2016-12-03T09:39:13Z</time>
      </trkpt>
      <trkpt lat="48.79104" lon="2.12372">
        <ele>147.8</ele>
        <time>2016-12-03T09:39:17Z</time>
      </trkpt>
      <trkpt lat="48.79105" lon="2.12357">
        <ele>147.5</ele>
        <time>2016-12-03T09:39:21Z</time>
      </trkpt>
      <trkpt lat="48.79104" lon="2.1234">
        <ele>147.3</ele>
        <time>2016-12-03T09:39:24Z</time>
      </trkpt>
      <trkpt lat="48.79104" lon="2.12326">
        <ele>147.3</ele>
        <time>2016-12-03T09:39:26Z</time>
      </trkpt>
      <trkpt lat="48.79105" lon="2.12305">
        <ele>147.5</ele>
        <time>2016-12-03T09:39:29Z</time>
      </trkpt>
      <trkpt lat="48.79106" lon="2.12291">
        <ele>147.4</ele>
        <time>2016-12-03T09:39:31Z</time>
      </trkpt>
      <trkpt lat="48.79114" lon="2.12274">
        <ele>146.4</ele>
        <time>2016-12-03T09:39:34Z</time>
      </trkpt>
      <trkpt lat="48.79123" lon="2.1226">
        <ele>144.9</ele>
        <time>2016-12-03T09:39:36Z</time>
      </trkpt>
      <trkpt lat="48.79132" lon="2.12251">
        <ele>143.3</ele>
        <time>2016-12-03T09:39:38Z</time>
      </trkpt>
      <trkpt lat="48.79142" lon="2.12243">
        <ele>141.5</ele>
        <time>2016-12-03T09:39:40Z</time>
      </trkpt>
      <trkpt lat="48.7915" lon="2.12237">
        <ele>140.1</ele>
        <time>2016-12-03T09:39:42Z</time>
      </trkpt>
      <trkpt lat="48.79158" lon="2.12223">
        <ele>138.8</ele>
        <time>2016-12-03T09:39:45Z</time>
      </trkpt>
      <trkpt lat="48.79163" lon="2.1221">
        <ele>138.2</ele>
        <time>2016-12-03T09:39:47Z</time>
      </trkpt>
      <trkpt lat="48.79172" lon="2.12199">
        <ele>137.6</ele>
        <time>2016-12-03T09:39:50Z</time>
      </trkpt>
      <trkpt lat="48.79182" lon="2.12195">
        <ele>137.7</ele>
        <time>2016-12-03T09:39:53Z</time>
      </trkpt>
      <trkpt lat="48.79189" lon="2.1218">
        <ele>138</ele>
        <time>2016-12-03T09:39:56Z</time>
      </trkpt>
      <trkpt lat="48.79192" lon="2.12167">
        <ele>138.3</ele>
        <time>2016-12-03T09:39:58Z</time>
      </trkpt>
      <trkpt lat="48.79196" lon="2.12151">
        <ele>138.7</ele>
        <time>2016-12-03T09:40:01Z</time>
      </trkpt>
      <trkpt lat="48.79201" lon="2.12135">
        <ele>139.2</ele>
        <time>2016-12-03T09:40:03Z</time>
      </trkpt>
      <trkpt lat="48.79205" lon="2.12118">
        <ele>139.6</ele>
        <time>2016-12-03T09:40:06Z</time>
      </trkpt>
      <trkpt lat="48.79207" lon="2.12099">
        <ele>140.1</ele>
        <time>2016-12-03T09:40:10Z</time>
      </trkpt>
      <trkpt lat="48.7921" lon="2.12086">
        <ele>140.5</ele>
        <time>2016-12-03T09:40:13Z</time>
      </trkpt>
      <trkpt lat="48.79212" lon="2.12073">
        <ele>140.9</ele>
        <time>2016-12-03T09:40:16Z</time>
      </trkpt>
      <trkpt lat="48.79213" lon="2.12055">
        <ele>141.6</ele>
        <time>2016-12-03T09:40:20Z</time>
      </trkpt>
      <trkpt lat="48.79215" lon="2.12041">
        <ele>142</ele>
        <time>2016-12-03T09:40:23Z</time>
      </trkpt>
      <trkpt lat="48.79217" lon="2.12027">
        <ele>142.5</ele>
        <time>2016-12-03T09:40:26Z</time>
      </trkpt>
      <trkpt lat="48.79218" lon="2.1201">
        <ele>143.1</ele>
        <time>2016-12-03T09:40:30Z</time>
      </trkpt>
      <trkpt lat="48.79218" lon="2.11994">
        <ele>143.6</ele>
        <time>2016-12-03T09:40:34Z</time>
      </trkpt>
      <trkpt lat="48.79219" lon="2.11976">
        <ele>144.1</ele>
        <time>2016-12-03T09:40:38Z</time>
      </trkpt>
      <trkpt lat="48.79221" lon="2.11959">
        <ele>144.5</ele>
        <time>2016-12-03T09:40:42Z</time>
      </trkpt>
      <trkpt lat="48.79221" lon="2.11944">
        <ele>144.9</ele>
        <time>2016-12-03T09:40:46Z</time>
      </trkpt>
      <trkpt lat="48.79222" lon="2.11929">
        <ele>145.3</ele>
        <time>2016-12-03T09:40:53Z</time>
      </trkpt>
      <trkpt lat="48.79222" lon="2.11913">
        <ele>145.6</ele>
        <time>2016-12-03T09:40:58Z</time>
      </trkpt>
      <trkpt lat="48.79224" lon="2.11894">
        <ele>145.3</ele>
        <time>2016-12-03T09:41:01Z</time>
      </trkpt>
      <trkpt lat="48.79224" lon="2.11876">
        <ele>145.1</ele>
        <time>2016-12-03T09:41:04Z</time>
      </trkpt>
      <trkpt lat="48.79224" lon="2.11862">
        <ele>144.9</ele>
        <time>2016-12-03T09:41:06Z</time>
      </trkpt>
      <trkpt lat="48.79226" lon="2.11847">
        <ele>144.6</ele>
        <time>2016-12-03T09:41:10Z</time>
      </trkpt>
      <trkpt lat="48.79228" lon="2.11832">
        <ele>144.3</ele>
        <time>2016-12-03T09:41:16Z</time>
      </trkpt>
      <trkpt lat="48.79231" lon="2.11817">
        <ele>143.8</ele>
        <time>2016-12-03T09:41:19Z</time>
      </trkpt>
      <trkpt lat="48.79234" lon="2.11798">
        <ele>143.3</ele>
        <time>2016-12-03T09:41:22Z</time>
      </trkpt>
      <trkpt lat="48.79235" lon="2.11781">
        <ele>143</ele>
        <time>2016-12-03T09:41:25Z</time>
      </trkpt>
      <trkpt lat="48.79239" lon="2.11768">
        <ele>142.4</ele>
        <time>2016-12-03T09:41:34Z</time>
      </trkpt>
      <trkpt lat="48.79245" lon="2.1176">
        <ele>141.7</ele>
        <time>2016-12-03T09:41:41Z</time>
      </trkpt>
      <trkpt lat="48.79245" lon="2.11754">
        <ele>141.6</ele>
        <time>2016-12-03T09:43:13Z</time>
      </trkpt>
      <trkpt lat="48.79246" lon="2.11739">
        <ele>141.6</ele>
        <time>2016-12-03T09:43:19Z</time>
      </trkpt>
      <trkpt lat="48.79247" lon="2.11724">
        <ele>141.9</ele>
        <time>2016-12-03T09:43:23Z</time>
      </trkpt>
      <trkpt lat="48.79249" lon="2.11707">
        <ele>142.1</ele>
        <time>2016-12-03T09:43:27Z</time>
      </trkpt>
      <trkpt lat="48.79251" lon="2.11691">
        <ele>142.3</ele>
        <time>2016-12-03T09:43:30Z</time>
      </trkpt>
      <trkpt lat="48.79253" lon="2.1167">
        <ele>142.7</ele>
        <time>2016-12-03T09:43:33Z</time>
      </trkpt>
      <trkpt lat="48.79253" lon="2.11654">
        <ele>142.6</ele>
        <time>2016-12-03T09:43:35Z</time>
      </trkpt>
      <trkpt lat="48.79252" lon="2.11635">
        <ele>142.4</ele>
        <time>2016-12-03T09:43:37Z</time>
      </trkpt>
      <trkpt lat="48.79252" lon="2.11611">
        <ele>142.1</ele>
        <time>2016-12-03T09:43:39Z</time>
      </trkpt>
      <trkpt lat="48.79253" lon="2.11582">
        <ele>141.7</ele>
        <time>2016-12-03T09:43:41Z</time>
      </trkpt>
      <trkpt lat="48.79253" lon="2.11568">
        <ele>141.5</ele>
        <time>2016-12-03T09:43:42Z</time>
      </trkpt>
      <trkpt lat="48.79253" lon="2.11551">
        <ele>141.3</ele>
        <time>2016-12-03T09:43:43Z</time>
      </trkpt>
      <trkpt lat="48.79253" lon="2.11535">
        <ele>141.1</ele>
        <time>2016-12-03T09:43:44Z</time>
      </trkpt>
      <trkpt lat="48.79252" lon="2.1152">
        <ele>140.9</ele>
        <time>2016-12-03T09:43:45Z</time>
      </trkpt>
      <trkpt lat="48.79252" lon="2.11504">
        <ele>140.8</ele>
        <time>2016-12-03T09:43:46Z</time>
      </trkpt>
      <trkpt lat="48.7925" lon="2.1149">
        <ele>141.4</ele>
        <time>2016-12-03T09:43:47Z</time>
      </trkpt>
      <trkpt lat="48.79248" lon="2.11476">
        <ele>141.9</ele>
        <time>2016-12-03T09:43:48Z</time>
      </trkpt>
      <trkpt lat="48.79247" lon="2.11453">
        <ele>142.7</ele>
        <time>2016-12-03T09:43:50Z</time>
      </trkpt>
      <trkpt lat="48.79249" lon="2.11435">
        <ele>143.3</ele>
        <time>2016-12-03T09:43:52Z</time>
      </trkpt>
      <trkpt lat="48.7925" lon="2.1142">
        <ele>143.9</ele>
        <time>2016-12-03T09:43:55Z</time>
      </trkpt>
      <trkpt lat="48.79251" lon="2.11406">
        <ele>144</ele>
        <time>2016-12-03T09:43:58Z</time>
      </trkpt>
      <trkpt lat="48.79255" lon="2.1139">
        <ele>143.9</ele>
        <time>2016-12-03T09:44:02Z</time>
      </trkpt>
      <trkpt lat="48.79256" lon="2.11372">
        <ele>144</ele>
        <time>2016-12-03T09:44:07Z</time>
      </trkpt>
      <trkpt lat="48.7926" lon="2.11356">
        <ele>143.9</ele>
        <time>2016-12-03T09:44:12Z</time>
      </trkpt>
      <trkpt lat="48.79261" lon="2.11341">
        <ele>144.1</ele>
        <time>2016-12-03T09:44:16Z</time>
      </trkpt>
      <trkpt lat="48.79266" lon="2.11328">
        <ele>144.1</ele>
        <time>2016-12-03T09:44:19Z</time>
      </trkpt>
      <trkpt lat="48.79269" lon="2.11315">
        <ele>144.4</ele>
        <time>2016-12-03T09:44:22Z</time>
      </trkpt>
      <trkpt lat="48.79272" lon="2.113">
        <ele>144.8</ele>
        <time>2016-12-03T09:44:26Z</time>
      </trkpt>
      <trkpt lat="48.79272" lon="2.11284">
        <ele>145.5</ele>
        <time>2016-12-03T09:44:32Z</time>
      </trkpt>
      <trkpt lat="48.79274" lon="2.11271">
        <ele>145.8</ele>
        <time>2016-12-03T09:44:37Z</time>
      </trkpt>
      <trkpt lat="48.79279" lon="2.11257">
        <ele>145.9</ele>
        <time>2016-12-03T09:44:41Z</time>
      </trkpt>
      <trkpt lat="48.79284" lon="2.11244">
        <ele>146.1</ele>
        <time>2016-12-03T09:44:45Z</time>
      </trkpt>
      <trkpt lat="48.79289" lon="2.11231">
        <ele>146.6</ele>
        <time>2016-12-03T09:44:50Z</time>
      </trkpt>
      <trkpt lat="48.79295" lon="2.11216">
        <ele>146.9</ele>
        <time>2016-12-03T09:44:55Z</time>
      </trkpt>
      <trkpt lat="48.793" lon="2.11201">
        <ele>147.1</ele>
        <time>2016-12-03T09:44:59Z</time>
      </trkpt>
      <trkpt lat="48.79304" lon="2.11186">
        <ele>147.5</ele>
        <time>2016-12-03T09:45:04Z</time>
      </trkpt>
      <trkpt lat="48.79304" lon="2.11171">
        <ele>148.3</ele>
        <time>2016-12-03T09:45:10Z</time>
      </trkpt>
      <trkpt lat="48.79305" lon="2.11157">
        <ele>149.3</ele>
        <time>2016-12-03T09:45:15Z</time>
      </trkpt>
      <trkpt lat="48.79305" lon="2.11143">
        <ele>150.7</ele>
        <time>2016-12-03T09:45:20Z</time>
      </trkpt>
      <trkpt lat="48.79308" lon="2.11128">
        <ele>151.7</ele>
        <time>2016-12-03T09:45:26Z</time>
      </trkpt>
      <trkpt lat="48.79313" lon="2.11117">
        <ele>151.8</ele>
        <time>2016-12-03T09:45:31Z</time>
      </trkpt>
      <trkpt lat="48.79318" lon="2.11102">
        <ele>152.3</ele>
        <time>2016-12-03T09:45:38Z</time>
      </trkpt>
      <trkpt lat="48.79326" lon="2.11092">
        <ele>151.7</ele>
        <time>2016-12-03T09:45:44Z</time>
      </trkpt>
      <trkpt lat="48.79333" lon="2.11082">
        <ele>151.1</ele>
        <time>2016-12-03T09:45:49Z</time>
      </trkpt>
      <trkpt lat="48.79341" lon="2.11074">
        <ele>150.6</ele>
        <time>2016-12-03T09:45:54Z</time>
      </trkpt>
      <trkpt lat="48.79347" lon="2.11064">
        <ele>150.3</ele>
        <time>2016-12-03T09:45:59Z</time>
      </trkpt>
      <trkpt lat="48.79353" lon="2.11051">
        <ele>150.3</ele>
        <time>2016-12-03T09:46:05Z</time>
      </trkpt>
      <trkpt lat="48.79355" lon="2.11037">
        <ele>150.8</ele>
        <time>2016-12-03T09:46:11Z</time>
      </trkpt>
      <trkpt lat="48.79354" lon="2.11023">
        <ele>151.8</ele>
        <time>2016-12-03T09:46:16Z</time>
      </trkpt>
      <trkpt lat="48.7935" lon="2.11009">
        <ele>153.3</ele>
        <time>2016-12-03T09:46:21Z</time>
      </trkpt>
      <trkpt lat="48.79345" lon="2.10996">
        <ele>155.2</ele>
        <time>2016-12-03T09:46:27Z</time>
      </trkpt>
      <trkpt lat="48.79339" lon="2.10985">
        <ele>157</ele>
        <time>2016-12-03T09:46:32Z</time>
      </trkpt>
      <trkpt lat="48.79332" lon="2.10975">
        <ele>158.8</ele>
        <time>2016-12-03T09:46:37Z</time>
      </trkpt>
      <trkpt lat="48.79325" lon="2.10964">
        <ele>160.7</ele>
        <time>2016-12-03T09:46:42Z</time>
      </trkpt>
      <trkpt lat="48.7932" lon="2.10954">
        <ele>162.3</ele>
        <time>2016-12-03T09:46:47Z</time>
      </trkpt>
      <trkpt lat="48.79312" lon="2.10944">
        <ele>164.2</ele>
        <time>2016-12-03T09:46:52Z</time>
      </trkpt>
      <trkpt lat="48.79304" lon="2.10933">
        <ele>166.1</ele>
        <time>2016-12-03T09:46:57Z</time>
      </trkpt>
      <trkpt lat="48.79297" lon="2.1092">
        <ele>168</ele>
        <time>2016-12-03T09:47:02Z</time>
      </trkpt>
      <trkpt lat="48.7929" lon="2.1091">
        <ele>169.7</ele>
        <time>2016-12-03T09:47:06Z</time>
      </trkpt>
      <trkpt lat="48.79283" lon="2.10899">
        <ele>171.4</ele>
        <time>2016-12-03T09:47:10Z</time>
      </trkpt>
      <trkpt lat="48.79276" lon="2.10888">
        <ele>172.8</ele>
        <time>2016-12-03T09:47:14Z</time>
      </trkpt>
      <trkpt lat="48.7927" lon="2.10875">
        <ele>174</ele>
        <time>2016-12-03T09:47:18Z</time>
      </trkpt>
      <trkpt lat="48.79263" lon="2.10861">
        <ele>175</ele>
        <time>2016-12-03T09:47:22Z</time>
      </trkpt>
      <trkpt lat="48.79258" lon="2.10844">
        <ele>175.6</ele>
        <time>2016-12-03T09:47:26Z</time>
      </trkpt>
      <trkpt lat="48.79255" lon="2.1083">
        <ele>175.9</ele>
        <time>2016-12-03T09:47:29Z</time>
      </trkpt>
      <trkpt lat="48.79252" lon="2.10817">
        <ele>176.1</ele>
        <time>2016-12-03T09:47:32Z</time>
      </trkpt>
      <trkpt lat="48.79248" lon="2.10804">
        <ele>176.5</ele>
        <time>2016-12-03T09:47:35Z</time>
      </trkpt>
      <trkpt lat="48.79242" lon="2.1079">
        <ele>177</ele>
        <time>2016-12-03T09:47:38Z</time>
      </trkpt>
      <trkpt lat="48.79237" lon="2.10779">
        <ele>177.5</ele>
        <time>2016-12-03T09:47:41Z</time>
      </trkpt>
      <trkpt lat="48.79232" lon="2.10766">
        <ele>177.8</ele>
        <time>2016-12-03T09:47:44Z</time>
      </trkpt>
      <trkpt lat="48.79228" lon="2.10748">
        <ele>178.1</ele>
        <time>2016-12-03T09:47:48Z</time>
      </trkpt>
      <trkpt lat="48.79226" lon="2.1073">
        <ele>178.3</ele>
        <time>2016-12-03T09:47:52Z</time>
      </trkpt>
      <trkpt lat="48.79226" lon="2.10716">
        <ele>178.4</ele>
        <time>2016-12-03T09:47:55Z</time>
      </trkpt>
      <trkpt lat="48.79228" lon="2.10703">
        <ele>178.5</ele>
        <time>2016-12-03T09:47:58Z</time>
      </trkpt>
      <trkpt lat="48.79229" lon="2.10688">
        <ele>178.6</ele>
        <time>2016-12-03T09:48:02Z</time>
      </trkpt>
      <trkpt lat="48.7923" lon="2.10674">
        <ele>178.7</ele>
        <time>2016-12-03T09:48:05Z</time>
      </trkpt>
      <trkpt lat="48.7923" lon="2.1066">
        <ele>178.8</ele>
        <time>2016-12-03T09:48:08Z</time>
      </trkpt>
      <trkpt lat="48.79232" lon="2.10646">
        <ele>178.9</ele>
        <time>2016-12-03T09:48:10Z</time>
      </trkpt>
      <trkpt lat="48.79231" lon="2.10632">
        <ele>179.1</ele>
        <time>2016-12-03T09:48:13Z</time>
      </trkpt>
      <trkpt lat="48.79234" lon="2.10621">
        <ele>179.1</ele>
        <time>2016-12-03T09:48:25Z</time>
      </trkpt>
      <trkpt lat="48.79231" lon="2.10607">
        <ele>179.4</ele>
        <time>2016-12-03T09:49:36Z</time>
      </trkpt>
      <trkpt lat="48.7922" lon="2.10605">
        <ele>179.8</ele>
        <time>2016-12-03T09:49:40Z</time>
      </trkpt>
      <trkpt lat="48.7921" lon="2.10608">
        <ele>180.2</ele>
        <time>2016-12-03T09:49:43Z</time>
      </trkpt>
      <trkpt lat="48.79199" lon="2.10611">
        <ele>180.5</ele>
        <time>2016-12-03T09:49:46Z</time>
      </trkpt>
      <trkpt lat="48.79188" lon="2.10615">
        <ele>180.8</ele>
        <time>2016-12-03T09:49:49Z</time>
      </trkpt>
      <trkpt lat="48.79177" lon="2.10619">
        <ele>181.2</ele>
        <time>2016-12-03T09:49:52Z</time>
      </trkpt>
      <trkpt lat="48.79167" lon="2.10621">
        <ele>181.5</ele>
        <time>2016-12-03T09:49:55Z</time>
      </trkpt>
      <trkpt lat="48.79157" lon="2.1061">
        <ele>181.8</ele>
        <time>2016-12-03T09:49:58Z</time>
      </trkpt>
      <trkpt lat="48.79153" lon="2.10594">
        <ele>181.9</ele>
        <time>2016-12-03T09:50:00Z</time>
      </trkpt>
      <trkpt lat="48.79151" lon="2.10579">
        <ele>181.9</ele>
        <time>2016-12-03T09:50:02Z</time>
      </trkpt>
      <trkpt lat="48.79148" lon="2.10565">
        <ele>181.8</ele>
        <time>2016-12-03T09:50:04Z</time>
      </trkpt>
      <trkpt lat="48.79148" lon="2.1055">
        <ele>181.6</ele>
        <time>2016-12-03T09:50:06Z</time>
      </trkpt>
      <trkpt lat="48.79147" lon="2.10536">
        <ele>181.4</ele>
        <time>2016-12-03T09:50:08Z</time>
      </trkpt>
      <trkpt lat="48.79147" lon="2.10522">
        <ele>181.3</ele>
        <time>2016-12-03T09:50:10Z</time>
      </trkpt>
      <trkpt lat="48.79146" lon="2.10503">
        <ele>181</ele>
        <time>2016-12-03T09:50:13Z</time>
      </trkpt>
      <trkpt lat="48.79148" lon="2.10483">
        <ele>180.5</ele>
        <time>2016-12-03T09:50:16Z</time>
      </trkpt>
      <trkpt lat="48.79147" lon="2.10463">
        <ele>179.9</ele>
        <time>2016-12-03T09:50:19Z</time>
      </trkpt>
      <trkpt lat="48.79148" lon="2.10444">
        <ele>179.3</ele>
        <time>2016-12-03T09:50:22Z</time>
      </trkpt>
      <trkpt lat="48.79148" lon="2.1043">
        <ele>178.8</ele>
        <time>2016-12-03T09:50:24Z</time>
      </trkpt>
      <trkpt lat="48.79148" lon="2.1041">
        <ele>178</ele>
        <time>2016-12-03T09:50:27Z</time>
      </trkpt>
      <trkpt lat="48.7915" lon="2.1039">
        <ele>176.8</ele>
        <time>2016-12-03T09:50:30Z</time>
      </trkpt>
      <trkpt lat="48.79151" lon="2.10375">
        <ele>175.9</ele>
        <time>2016-12-03T09:50:32Z</time>
      </trkpt>
      <trkpt lat="48.79151" lon="2.10361">
        <ele>175.1</ele>
        <time>2016-12-03T09:50:34Z</time>
      </trkpt>
      <trkpt lat="48.79153" lon="2.10346">
        <ele>174.2</ele>
        <time>2016-12-03T09:50:36Z</time>
      </trkpt>
      <trkpt lat="48.79154" lon="2.10331">
        <ele>173.5</ele>
        <time>2016-12-03T09:50:38Z</time>
      </trkpt>
      <trkpt lat="48.79156" lon="2.10315">
        <ele>173.4</ele>
        <time>2016-12-03T09:50:40Z</time>
      </trkpt>
      <trkpt lat="48.79157" lon="2.103">
        <ele>173.3</ele>
        <time>2016-12-03T09:50:42Z</time>
      </trkpt>
      <trkpt lat="48.79158" lon="2.10286">
        <ele>173.3</ele>
        <time>2016-12-03T09:50:44Z</time>
      </trkpt>
      <trkpt lat="48.79159" lon="2.10271">
        <ele>173.2</ele>
        <time>2016-12-03T09:50:46Z</time>
      </trkpt>
      <trkpt lat="48.7916" lon="2.10257">
        <ele>173.2</ele>
        <time>2016-12-03T09:50:48Z</time>
      </trkpt>
      <trkpt lat="48.79161" lon="2.10243">
        <ele>173.4</ele>
        <time>2016-12-03T09:50:50Z</time>
      </trkpt>
      <trkpt lat="48.79163" lon="2.10227">
        <ele>173.9</ele>
        <time>2016-12-03T09:50:52Z</time>
      </trkpt>
      <trkpt lat="48.79165" lon="2.10212">
        <ele>174.4</ele>
        <time>2016-12-03T09:50:54Z</time>
      </trkpt>
      <trkpt lat="48.79167" lon="2.10197">
        <ele>174.9</ele>
        <time>2016-12-03T09:50:56Z</time>
      </trkpt>
      <trkpt lat="48.79168" lon="2.10182">
        <ele>175.4</ele>
        <time>2016-12-03T09:50:58Z</time>
      </trkpt>
      <trkpt lat="48.79169" lon="2.10167">
        <ele>175.9</ele>
        <time>2016-12-03T09:51:00Z</time>
      </trkpt>
      <trkpt lat="48.79171" lon="2.10152">
        <ele>175.8</ele>
        <time>2016-12-03T09:51:02Z</time>
      </trkpt>
      <trkpt lat="48.79172" lon="2.10137">
        <ele>175.8</ele>
        <time>2016-12-03T09:51:04Z</time>
      </trkpt>
      <trkpt lat="48.79172" lon="2.10121">
        <ele>175.9</ele>
        <time>2016-12-03T09:51:06Z</time>
      </trkpt>
      <trkpt lat="48.79171" lon="2.10107">
        <ele>175.9</ele>
        <time>2016-12-03T09:51:08Z</time>
      </trkpt>
      <trkpt lat="48.79169" lon="2.10087">
        <ele>176</ele>
        <time>2016-12-03T09:51:11Z</time>
      </trkpt>
      <trkpt lat="48.7917" lon="2.10073">
        <ele>176.1</ele>
        <time>2016-12-03T09:51:13Z</time>
      </trkpt>
      <trkpt lat="48.79172" lon="2.10059">
        <ele>176.3</ele>
        <time>2016-12-03T09:51:15Z</time>
      </trkpt>
      <trkpt lat="48.79174" lon="2.10045">
        <ele>176.5</ele>
        <time>2016-12-03T09:51:17Z</time>
      </trkpt>
      <trkpt lat="48.79177" lon="2.10031">
        <ele>176.7</ele>
        <time>2016-12-03T09:51:19Z</time>
      </trkpt>
      <trkpt lat="48.79179" lon="2.10017">
        <ele>176.9</ele>
        <time>2016-12-03T09:51:21Z</time>
      </trkpt>
      <trkpt lat="48.79181" lon="2.10003">
        <ele>177.1</ele>
        <time>2016-12-03T09:51:23Z</time>
      </trkpt>
      <trkpt lat="48.79182" lon="2.09989">
        <ele>177.3</ele>
        <time>2016-12-03T09:51:25Z</time>
      </trkpt>
      <trkpt lat="48.79183" lon="2.09969">
        <ele>177.4</ele>
        <time>2016-12-03T09:51:28Z</time>
      </trkpt>
      <trkpt lat="48.79185" lon="2.09956">
        <ele>177.6</ele>
        <time>2016-12-03T09:51:30Z</time>
      </trkpt>
      <trkpt lat="48.79187" lon="2.09935">
        <ele>177.8</ele>
        <time>2016-12-03T09:51:33Z</time>
      </trkpt>
      <trkpt lat="48.79188" lon="2.09921">
        <ele>178</ele>
        <time>2016-12-03T09:51:35Z</time>
      </trkpt>
      <trkpt lat="48.7919" lon="2.09907">
        <ele>178.4</ele>
        <time>2016-12-03T09:51:37Z</time>
      </trkpt>
      <trkpt lat="48.79191" lon="2.09892">
        <ele>178.8</ele>
        <time>2016-12-03T09:51:39Z</time>
      </trkpt>
      <trkpt lat="48.79192" lon="2.09878">
        <ele>179.2</ele>
        <time>2016-12-03T09:51:41Z</time>
      </trkpt>
      <trkpt lat="48.79193" lon="2.09864">
        <ele>179.6</ele>
        <time>2016-12-03T09:51:43Z</time>
      </trkpt>
      <trkpt lat="48.79195" lon="2.09849">
        <ele>180</ele>
        <time>2016-12-03T09:51:45Z</time>
      </trkpt>
      <trkpt lat="48.79196" lon="2.09833">
        <ele>180.4</ele>
        <time>2016-12-03T09:51:47Z</time>
      </trkpt>
      <trkpt lat="48.79197" lon="2.09818">
        <ele>180.9</ele>
        <time>2016-12-03T09:51:49Z</time>
      </trkpt>
      <trkpt lat="48.79198" lon="2.09802">
        <ele>181.3</ele>
        <time>2016-12-03T09:51:51Z</time>
      </trkpt>
      <trkpt lat="48.792" lon="2.09787">
        <ele>181.8</ele>
        <time>2016-12-03T09:51:53Z</time>
      </trkpt>
      <trkpt lat="48.79201" lon="2.09772">
        <ele>182.3</ele>
        <time>2016-12-03T09:51:55Z</time>
      </trkpt>
      <trkpt lat="48.79202" lon="2.09757">
        <ele>182.7</ele>
        <time>2016-12-03T09:51:57Z</time>
      </trkpt>
      <trkpt lat="48.79203" lon="2.09742">
        <ele>182.7</ele>
        <time>2016-12-03T09:51:59Z</time>
      </trkpt>
      <trkpt lat="48.79204" lon="2.09727">
        <ele>182.4</ele>
        <time>2016-12-03T09:52:01Z</time>
      </trkpt>
      <trkpt lat="48.79205" lon="2.09713">
        <ele>182</ele>
        <time>2016-12-03T09:52:03Z</time>
      </trkpt>
      <trkpt lat="48.79206" lon="2.09698">
        <ele>181.7</ele>
        <time>2016-12-03T09:52:05Z</time>
      </trkpt>
      <trkpt lat="48.79209" lon="2.09685">
        <ele>181.4</ele>
        <time>2016-12-03T09:52:07Z</time>
      </trkpt>
      <trkpt lat="48.79216" lon="2.09674">
        <ele>181.2</ele>
        <time>2016-12-03T09:52:09Z</time>
      </trkpt>
      <trkpt lat="48.79228" lon="2.09671">
        <ele>181.1</ele>
        <time>2016-12-03T09:52:12Z</time>
      </trkpt>
      <trkpt lat="48.79238" lon="2.09677">
        <ele>181.3</ele>
        <time>2016-12-03T09:52:15Z</time>
      </trkpt>
      <trkpt lat="48.79251" lon="2.09682">
        <ele>181.5</ele>
        <time>2016-12-03T09:52:18Z</time>
      </trkpt>
      <trkpt lat="48.79263" lon="2.09689">
        <ele>180.8</ele>
        <time>2016-12-03T09:52:21Z</time>
      </trkpt>
      <trkpt lat="48.79275" lon="2.09696">
        <ele>180.2</ele>
        <time>2016-12-03T09:52:24Z</time>
      </trkpt>
      <trkpt lat="48.79285" lon="2.09704">
        <ele>179.9</ele>
        <time>2016-12-03T09:52:27Z</time>
      </trkpt>
      <trkpt lat="48.79296" lon="2.09711">
        <ele>179.6</ele>
        <time>2016-12-03T09:52:30Z</time>
      </trkpt>
      <trkpt lat="48.79307" lon="2.09718">
        <ele>179.3</ele>
        <time>2016-12-03T09:52:32Z</time>
      </trkpt>
      <trkpt lat="48.79316" lon="2.09721">
        <ele>179</ele>
        <time>2016-12-03T09:52:34Z</time>
      </trkpt>
      <trkpt lat="48.79326" lon="2.09723">
        <ele>178.5</ele>
        <time>2016-12-03T09:52:36Z</time>
      </trkpt>
      <trkpt lat="48.79335" lon="2.09722">
        <ele>177.5</ele>
        <time>2016-12-03T09:52:38Z</time>
      </trkpt>
      <trkpt lat="48.79346" lon="2.09721">
        <ele>174.2</ele>
        <time>2016-12-03T09:52:41Z</time>
      </trkpt>
      <trkpt lat="48.7936" lon="2.09716">
        <ele>170.1</ele>
        <time>2016-12-03T09:52:44Z</time>
      </trkpt>
      <trkpt lat="48.79369" lon="2.09714">
        <ele>167.4</ele>
        <time>2016-12-03T09:52:46Z</time>
      </trkpt>
      <trkpt lat="48.79379" lon="2.09716">
        <ele>164.8</ele>
        <time>2016-12-03T09:52:48Z</time>
      </trkpt>
      <trkpt lat="48.79389" lon="2.09708">
        <ele>161.5</ele>
        <time>2016-12-03T09:52:54Z</time>
      </trkpt>
      <trkpt lat="48.79392" lon="2.09708">
        <ele>160.7</ele>
        <time>2016-12-03T09:53:02Z</time>
      </trkpt>
      <trkpt lat="48.79404" lon="2.09701">
        <ele>156.9</ele>
        <time>2016-12-03T09:53:45Z</time>
      </trkpt>
      <trkpt lat="48.79409" lon="2.09688">
        <ele>154.5</ele>
        <time>2016-12-03T09:53:49Z</time>
      </trkpt>
      <trkpt lat="48.79412" lon="2.09672">
        <ele>152.7</ele>
        <time>2016-12-03T09:53:52Z</time>
      </trkpt>
      <trkpt lat="48.79411" lon="2.09655">
        <ele>151.8</ele>
        <time>2016-12-03T09:53:55Z</time>
      </trkpt>
      <trkpt lat="48.79409" lon="2.09642">
        <ele>151.6</ele>
        <time>2016-12-03T09:53:57Z</time>
      </trkpt>
      <trkpt lat="48.79406" lon="2.09625">
        <ele>151.4</ele>
        <time>2016-12-03T09:54:00Z</time>
      </trkpt>
      <trkpt lat="48.79402" lon="2.09608">
        <ele>151.2</ele>
        <time>2016-12-03T09:54:03Z</time>
      </trkpt>
      <trkpt lat="48.79399" lon="2.09589">
        <ele>150.7</ele>
        <time>2016-12-03T09:54:06Z</time>
      </trkpt>
      <trkpt lat="48.79396" lon="2.0957">
        <ele>150.9</ele>
        <time>2016-12-03T09:54:09Z</time>
      </trkpt>
      <trkpt lat="48.79399" lon="2.09551">
        <ele>150.1</ele>
        <time>2016-12-03T09:54:12Z</time>
      </trkpt>
      <trkpt lat="48.79402" lon="2.09535">
        <ele>149.2</ele>
        <time>2016-12-03T09:54:14Z</time>
      </trkpt>
      <trkpt lat="48.79402" lon="2.09519">
        <ele>149</ele>
        <time>2016-12-03T09:54:16Z</time>
      </trkpt>
      <trkpt lat="48.794" lon="2.09501">
        <ele>149.2</ele>
        <time>2016-12-03T09:54:18Z</time>
      </trkpt>
      <trkpt lat="48.79397" lon="2.09487">
        <ele>149.9</ele>
        <time>2016-12-03T09:54:20Z</time>
      </trkpt>
      <trkpt lat="48.79394" lon="2.09472">
        <ele>150.8</ele>
        <time>2016-12-03T09:54:22Z</time>
      </trkpt>
      <trkpt lat="48.7939" lon="2.09458">
        <ele>151.7</ele>
        <time>2016-12-03T09:54:24Z</time>
      </trkpt>
      <trkpt lat="48.79385" lon="2.09447">
        <ele>152.9</ele>
        <time>2016-12-03T09:54:26Z</time>
      </trkpt>
      <trkpt lat="48.79381" lon="2.09428">
        <ele>154.1</ele>
        <time>2016-12-03T09:54:29Z</time>
      </trkpt>
      <trkpt lat="48.79378" lon="2.09414">
        <ele>154.7</ele>
        <time>2016-12-03T09:54:31Z</time>
      </trkpt>
      <trkpt lat="48.79374" lon="2.09398">
        <ele>155.6</ele>
        <time>2016-12-03T09:54:33Z</time>
      </trkpt>
      <trkpt lat="48.79373" lon="2.09383">
        <ele>155.9</ele>
        <time>2016-12-03T09:54:35Z</time>
      </trkpt>
      <trkpt lat="48.79372" lon="2.09369">
        <ele>156.1</ele>
        <time>2016-12-03T09:54:37Z</time>
      </trkpt>
      <trkpt lat="48.79371" lon="2.09354">
        <ele>156.3</ele>
        <time>2016-12-03T09:54:39Z</time>
      </trkpt>
      <trkpt lat="48.7937" lon="2.09333">
        <ele>156.5</ele>
        <time>2016-12-03T09:54:42Z</time>
      </trkpt>
      <trkpt lat="48.79369" lon="2.0932">
        <ele>156.4</ele>
        <time>2016-12-03T09:54:44Z</time>
      </trkpt>
      <trkpt lat="48.79368" lon="2.09299">
        <ele>156.1</ele>
        <time>2016-12-03T09:54:47Z</time>
      </trkpt>
      <trkpt lat="48.79367" lon="2.09284">
        <ele>156.2</ele>
        <time>2016-12-03T09:54:49Z</time>
      </trkpt>
      <trkpt lat="48.79365" lon="2.09264">
        <ele>156.1</ele>
        <time>2016-12-03T09:54:52Z</time>
      </trkpt>
      <trkpt lat="48.79365" lon="2.09244">
        <ele>155.4</ele>
        <time>2016-12-03T09:54:55Z</time>
      </trkpt>
      <trkpt lat="48.79365" lon="2.09229">
        <ele>154.3</ele>
        <time>2016-12-03T09:54:57Z</time>
      </trkpt>
      <trkpt lat="48.79367" lon="2.09213">
        <ele>153</ele>
        <time>2016-12-03T09:54:59Z</time>
      </trkpt>
      <trkpt lat="48.79367" lon="2.09197">
        <ele>151.9</ele>
        <time>2016-12-03T09:55:01Z</time>
      </trkpt>
      <trkpt lat="48.79367" lon="2.0918">
        <ele>150.8</ele>
        <time>2016-12-03T09:55:03Z</time>
      </trkpt>
      <trkpt lat="48.79365" lon="2.0916">
        <ele>150</ele>
        <time>2016-12-03T09:55:05Z</time>
      </trkpt>
      <trkpt lat="48.79362" lon="2.0914">
        <ele>149.8</ele>
        <time>2016-12-03T09:55:07Z</time>
      </trkpt>
      <trkpt lat="48.7936" lon="2.09123">
        <ele>149.5</ele>
        <time>2016-12-03T09:55:09Z</time>
      </trkpt>
      <trkpt lat="48.79361" lon="2.09107">
        <ele>148.8</ele>
        <time>2016-12-03T09:55:11Z</time>
      </trkpt>
      <trkpt lat="48.79363" lon="2.09089">
        <ele>148</ele>
        <time>2016-12-03T09:55:13Z</time>
      </trkpt>
      <trkpt lat="48.79362" lon="2.09067">
        <ele>148.9</ele>
        <time>2016-12-03T09:55:15Z</time>
      </trkpt>
      <trkpt lat="48.79361" lon="2.09046">
        <ele>150.3</ele>
        <time>2016-12-03T09:55:17Z</time>
      </trkpt>
      <trkpt lat="48.79358" lon="2.09028">
        <ele>151.9</ele>
        <time>2016-12-03T09:55:19Z</time>
      </trkpt>
      <trkpt lat="48.79354" lon="2.09013">
        <ele>153.5</ele>
        <time>2016-12-03T09:55:21Z</time>
      </trkpt>
      <trkpt lat="48.7935" lon="2.08997">
        <ele>155.2</ele>
        <time>2016-12-03T09:55:24Z</time>
      </trkpt>
      <trkpt lat="48.79341" lon="2.08985">
        <ele>156.9</ele>
        <time>2016-12-03T09:55:27Z</time>
      </trkpt>
      <trkpt lat="48.79331" lon="2.08977">
        <ele>159</ele>
        <time>2016-12-03T09:55:30Z</time>
      </trkpt>
      <trkpt lat="48.7932" lon="2.08971">
        <ele>160.8</ele>
        <time>2016-12-03T09:55:33Z</time>
      </trkpt>
      <trkpt lat="48.79312" lon="2.08963">
        <ele>162.2</ele>
        <time>2016-12-03T09:55:36Z</time>
      </trkpt>
      <trkpt lat="48.79306" lon="2.08952">
        <ele>163.4</ele>
        <time>2016-12-03T09:55:38Z</time>
      </trkpt>
      <trkpt lat="48.79302" lon="2.08935">
        <ele>164.3</ele>
        <time>2016-12-03T09:55:41Z</time>
      </trkpt>
      <trkpt lat="48.793" lon="2.08913">
        <ele>164.7</ele>
        <time>2016-12-03T09:55:44Z</time>
      </trkpt>
      <trkpt lat="48.79299" lon="2.08894">
        <ele>164.1</ele>
        <time>2016-12-03T09:55:46Z</time>
      </trkpt>
      <trkpt lat="48.79299" lon="2.08876">
        <ele>163.6</ele>
        <time>2016-12-03T09:55:48Z</time>
      </trkpt>
      <trkpt lat="48.793" lon="2.0886">
        <ele>162.9</ele>
        <time>2016-12-03T09:55:50Z</time>
      </trkpt>
      <trkpt lat="48.79301" lon="2.08844">
        <ele>162.2</ele>
        <time>2016-12-03T09:55:52Z</time>
      </trkpt>
      <trkpt lat="48.79304" lon="2.0883">
        <ele>161.7</ele>
        <time>2016-12-03T09:55:54Z</time>
      </trkpt>
      <trkpt lat="48.79308" lon="2.08812">
        <ele>162</ele>
        <time>2016-12-03T09:55:57Z</time>
      </trkpt>
      <trkpt lat="48.79312" lon="2.08797">
        <ele>162.2</ele>
        <time>2016-12-03T09:56:00Z</time>
      </trkpt>
      <trkpt lat="48.79318" lon="2.08782">
        <ele>162.3</ele>
        <time>2016-12-03T09:56:03Z</time>
      </trkpt>
      <trkpt lat="48.79323" lon="2.0877">
        <ele>162.2</ele>
        <time>2016-12-03T09:56:05Z</time>
      </trkpt>
      <trkpt lat="48.79329" lon="2.08757">
        <ele>162.2</ele>
        <time>2016-12-03T09:56:07Z</time>
      </trkpt>
      <trkpt lat="48.79333" lon="2.08745">
        <ele>162.7</ele>
        <time>2016-12-03T09:56:09Z</time>
      </trkpt>
      <trkpt lat="48.79338" lon="2.08733">
        <ele>163.5</ele>
        <time>2016-12-03T09:56:11Z</time>
      </trkpt>
      <trkpt lat="48.79345" lon="2.08723">
        <ele>164</ele>
        <time>2016-12-03T09:56:13Z</time>
      </trkpt>
      <trkpt lat="48.79351" lon="2.08712">
        <ele>164.4</ele>
        <time>2016-12-03T09:56:15Z</time>
      </trkpt>
      <trkpt lat="48.7936" lon="2.08698">
        <ele>165</ele>
        <time>2016-12-03T09:56:18Z</time>
      </trkpt>
      <trkpt lat="48.79366" lon="2.08688">
        <ele>165.4</ele>
        <time>2016-12-03T09:56:20Z</time>
      </trkpt>
      <trkpt lat="48.79373" lon="2.08671">
        <ele>166.2</ele>
        <time>2016-12-03T09:56:23Z</time>
      </trkpt>
      <trkpt lat="48.79378" lon="2.08654">
        <ele>167.2</ele>
        <time>2016-12-03T09:56:26Z</time>
      </trkpt>
      <trkpt lat="48.79385" lon="2.08639">
        <ele>167.9</ele>
        <time>2016-12-03T09:56:29Z</time>
      </trkpt>
      <trkpt lat="48.79394" lon="2.0863">
        <ele>167.8</ele>
        <time>2016-12-03T09:56:32Z</time>
      </trkpt>
      <trkpt lat="48.79403" lon="2.08625">
        <ele>167.4</ele>
        <time>2016-12-03T09:56:34Z</time>
      </trkpt>
      <trkpt lat="48.79415" lon="2.0862">
        <ele>166.8</ele>
        <time>2016-12-03T09:56:37Z</time>
      </trkpt>
      <trkpt lat="48.79426" lon="2.08613">
        <ele>166.9</ele>
        <time>2016-12-03T09:56:40Z</time>
      </trkpt>
      <trkpt lat="48.79435" lon="2.08606">
        <ele>167.2</ele>
        <time>2016-12-03T09:56:43Z</time>
      </trkpt>
      <trkpt lat="48.79445" lon="2.08598">
        <ele>167.3</ele>
        <time>2016-12-03T09:56:46Z</time>
      </trkpt>
      <trkpt lat="48.79456" lon="2.08589">
        <ele>167.3</ele>
        <time>2016-12-03T09:56:49Z</time>
      </trkpt>
      <trkpt lat="48.79464" lon="2.0858">
        <ele>167</ele>
        <time>2016-12-03T09:56:51Z</time>
      </trkpt>
      <trkpt lat="48.79472" lon="2.0857">
        <ele>166.2</ele>
        <time>2016-12-03T09:56:53Z</time>
      </trkpt>
      <trkpt lat="48.79477" lon="2.08559">
        <ele>165.6</ele>
        <time>2016-12-03T09:56:55Z</time>
      </trkpt>
      <trkpt lat="48.79482" lon="2.08547">
        <ele>164.9</ele>
        <time>2016-12-03T09:56:57Z</time>
      </trkpt>
      <trkpt lat="48.79487" lon="2.08532">
        <ele>164.1</ele>
        <time>2016-12-03T09:57:00Z</time>
      </trkpt>
      <trkpt lat="48.79493" lon="2.08516">
        <ele>163.2</ele>
        <time>2016-12-03T09:57:03Z</time>
      </trkpt>
      <trkpt lat="48.79498" lon="2.08502">
        <ele>162.2</ele>
        <time>2016-12-03T09:57:06Z</time>
      </trkpt>
      <trkpt lat="48.79504" lon="2.08487">
        <ele>161.6</ele>
        <time>2016-12-03T09:57:09Z</time>
      </trkpt>
      <trkpt lat="48.79508" lon="2.08474">
        <ele>161.1</ele>
        <time>2016-12-03T09:57:11Z</time>
      </trkpt>
      <trkpt lat="48.79512" lon="2.08458">
        <ele>160.5</ele>
        <time>2016-12-03T09:57:13Z</time>
      </trkpt>
      <trkpt lat="48.79515" lon="2.08445">
        <ele>160</ele>
        <time>2016-12-03T09:57:15Z</time>
      </trkpt>
      <trkpt lat="48.79517" lon="2.08425">
        <ele>159.5</ele>
        <time>2016-12-03T09:57:18Z</time>
      </trkpt>
      <trkpt lat="48.79516" lon="2.08406">
        <ele>159.7</ele>
        <time>2016-12-03T09:57:21Z</time>
      </trkpt>
      <trkpt lat="48.79517" lon="2.08391">
        <ele>159.9</ele>
        <time>2016-12-03T09:57:23Z</time>
      </trkpt>
      <trkpt lat="48.7952" lon="2.0837">
        <ele>160.1</ele>
        <time>2016-12-03T09:57:26Z</time>
      </trkpt>
      <trkpt lat="48.79523" lon="2.08356">
        <ele>160</ele>
        <time>2016-12-03T09:57:28Z</time>
      </trkpt>
      <trkpt lat="48.79524" lon="2.08336">
        <ele>160.2</ele>
        <time>2016-12-03T09:57:31Z</time>
      </trkpt>
      <trkpt lat="48.79526" lon="2.08318">
        <ele>160.8</ele>
        <time>2016-12-03T09:57:34Z</time>
      </trkpt>
      <trkpt lat="48.79529" lon="2.08304">
        <ele>161.2</ele>
        <time>2016-12-03T09:57:36Z</time>
      </trkpt>
      <trkpt lat="48.79532" lon="2.08291">
        <ele>161.5</ele>
        <time>2016-12-03T09:57:38Z</time>
      </trkpt>
      <trkpt lat="48.79538" lon="2.08277">
        <ele>161.3</ele>
        <time>2016-12-03T09:57:40Z</time>
      </trkpt>
      <trkpt lat="48.79546" lon="2.0826">
        <ele>161.3</ele>
        <time>2016-12-03T09:57:43Z</time>
      </trkpt>
      <trkpt lat="48.79554" lon="2.08246">
        <ele>161.2</ele>
        <time>2016-12-03T09:57:46Z</time>
      </trkpt>
      <trkpt lat="48.79561" lon="2.08233">
        <ele>161.5</ele>
        <time>2016-12-03T09:57:49Z</time>
      </trkpt>
      <trkpt lat="48.79568" lon="2.0822">
        <ele>162</ele>
        <time>2016-12-03T09:57:52Z</time>
      </trkpt>
      <trkpt lat="48.79575" lon="2.08205">
        <ele>162.4</ele>
        <time>2016-12-03T09:57:56Z</time>
      </trkpt>
      <trkpt lat="48.79581" lon="2.08192">
        <ele>162.9</ele>
        <time>2016-12-03T09:57:59Z</time>
      </trkpt>
      <trkpt lat="48.79586" lon="2.08178">
        <ele>163.7</ele>
        <time>2016-12-03T09:58:02Z</time>
      </trkpt>
      <trkpt lat="48.7959" lon="2.08161">
        <ele>164.7</ele>
        <time>2016-12-03T09:58:05Z</time>
      </trkpt>
      <trkpt lat="48.79595" lon="2.08148">
        <ele>165.2</ele>
        <time>2016-12-03T09:58:07Z</time>
      </trkpt>
      <trkpt lat="48.79598" lon="2.0813">
        <ele>166.3</ele>
        <time>2016-12-03T09:58:10Z</time>
      </trkpt>
      <trkpt lat="48.79603" lon="2.08112">
        <ele>167.2</ele>
        <time>2016-12-03T09:58:13Z</time>
      </trkpt>
      <trkpt lat="48.79606" lon="2.08094">
        <ele>168.1</ele>
        <time>2016-12-03T09:58:16Z</time>
      </trkpt>
      <trkpt lat="48.7961" lon="2.08076">
        <ele>168.7</ele>
        <time>2016-12-03T09:58:19Z</time>
      </trkpt>
      <trkpt lat="48.79615" lon="2.08058">
        <ele>168.7</ele>
        <time>2016-12-03T09:58:22Z</time>
      </trkpt>
      <trkpt lat="48.79616" lon="2.08041">
        <ele>169.7</ele>
        <time>2016-12-03T09:58:25Z</time>
      </trkpt>
      <trkpt lat="48.79619" lon="2.08028">
        <ele>169.8</ele>
        <time>2016-12-03T09:58:27Z</time>
      </trkpt>
      <trkpt lat="48.79624" lon="2.08014">
        <ele>169.7</ele>
        <time>2016-12-03T09:58:29Z</time>
      </trkpt>
      <trkpt lat="48.79632" lon="2.07997">
        <ele>169.1</ele>
        <time>2016-12-03T09:58:31Z</time>
      </trkpt>
      <trkpt lat="48.79636" lon="2.07983">
        <ele>168.1</ele>
        <time>2016-12-03T09:58:33Z</time>
      </trkpt>
      <trkpt lat="48.7964" lon="2.0797">
        <ele>167.1</ele>
        <time>2016-12-03T09:58:35Z</time>
      </trkpt>
      <trkpt lat="48.79646" lon="2.07955">
        <ele>165.7</ele>
        <time>2016-12-03T09:58:37Z</time>
      </trkpt>
      <trkpt lat="48.79651" lon="2.07939">
        <ele>164.5</ele>
        <time>2016-12-03T09:58:39Z</time>
      </trkpt>
      <trkpt lat="48.79654" lon="2.07925">
        <ele>163.6</ele>
        <time>2016-12-03T09:58:41Z</time>
      </trkpt>
      <trkpt lat="48.79659" lon="2.07908">
        <ele>162.9</ele>
        <time>2016-12-03T09:58:43Z</time>
      </trkpt>
      <trkpt lat="48.79663" lon="2.07894">
        <ele>163.1</ele>
        <time>2016-12-03T09:58:45Z</time>
      </trkpt>
      <trkpt lat="48.79668" lon="2.07877">
        <ele>163.2</ele>
        <time>2016-12-03T09:58:47Z</time>
      </trkpt>
      <trkpt lat="48.79673" lon="2.07862">
        <ele>163.6</ele>
        <time>2016-12-03T09:58:49Z</time>
      </trkpt>
      <trkpt lat="48.79677" lon="2.07848">
        <ele>164.1</ele>
        <time>2016-12-03T09:58:51Z</time>
      </trkpt>
      <trkpt lat="48.79679" lon="2.07834">
        <ele>164.7</ele>
        <time>2016-12-03T09:58:53Z</time>
      </trkpt>
      <trkpt lat="48.79683" lon="2.07816">
        <ele>165.5</ele>
        <time>2016-12-03T09:58:56Z</time>
      </trkpt>
      <trkpt lat="48.79687" lon="2.07802">
        <ele>165.9</ele>
        <time>2016-12-03T09:58:58Z</time>
      </trkpt>
      <trkpt lat="48.79691" lon="2.07783">
        <ele>166.5</ele>
        <time>2016-12-03T09:59:01Z</time>
      </trkpt>
      <trkpt lat="48.79696" lon="2.07764">
        <ele>167</ele>
        <time>2016-12-03T09:59:04Z</time>
      </trkpt>
      <trkpt lat="48.797" lon="2.07751">
        <ele>167.2</ele>
        <time>2016-12-03T09:59:06Z</time>
      </trkpt>
      <trkpt lat="48.79704" lon="2.07738">
        <ele>167.2</ele>
        <time>2016-12-03T09:59:08Z</time>
      </trkpt>
      <trkpt lat="48.79708" lon="2.07721">
        <ele>167.6</ele>
        <time>2016-12-03T09:59:11Z</time>
      </trkpt>
      <trkpt lat="48.79714" lon="2.07703">
        <ele>167.7</ele>
        <time>2016-12-03T09:59:14Z</time>
      </trkpt>
      <trkpt lat="48.79718" lon="2.07688">
        <ele>168</ele>
        <time>2016-12-03T09:59:17Z</time>
      </trkpt>
      <trkpt lat="48.79722" lon="2.07672">
        <ele>168.4</ele>
        <time>2016-12-03T09:59:20Z</time>
      </trkpt>
      <trkpt lat="48.79727" lon="2.07654">
        <ele>168.7</ele>
        <time>2016-12-03T09:59:23Z</time>
      </trkpt>
      <trkpt lat="48.79729" lon="2.07637">
        <ele>169.4</ele>
        <time>2016-12-03T09:59:26Z</time>
      </trkpt>
      <trkpt lat="48.79733" lon="2.07625">
        <ele>169.6</ele>
        <time>2016-12-03T09:59:28Z</time>
      </trkpt>
      <trkpt lat="48.79734" lon="2.07608">
        <ele>170.4</ele>
        <time>2016-12-03T09:59:31Z</time>
      </trkpt>
      <trkpt lat="48.79737" lon="2.07595">
        <ele>170.7</ele>
        <time>2016-12-03T09:59:33Z</time>
      </trkpt>
      <trkpt lat="48.79743" lon="2.07581">
        <ele>170.9</ele>
        <time>2016-12-03T09:59:35Z</time>
      </trkpt>
      <trkpt lat="48.7974" lon="2.07565">
        <ele>171.4</ele>
        <time>2016-12-03T09:59:38Z</time>
      </trkpt>
      <trkpt lat="48.79731" lon="2.07556">
        <ele>172.4</ele>
        <time>2016-12-03T09:59:41Z</time>
      </trkpt>
      <trkpt lat="48.7972" lon="2.07546">
        <ele>173.6</ele>
        <time>2016-12-03T09:59:44Z</time>
      </trkpt>
      <trkpt lat="48.79711" lon="2.07537">
        <ele>174.5</ele>
        <time>2016-12-03T09:59:47Z</time>
      </trkpt>
      <trkpt lat="48.79701" lon="2.07528">
        <ele>175.5</ele>
        <time>2016-12-03T09:59:50Z</time>
      </trkpt>
      <trkpt lat="48.7969" lon="2.07519">
        <ele>176.4</ele>
        <time>2016-12-03T09:59:53Z</time>
      </trkpt>
      <trkpt lat="48.79679" lon="2.0751">
        <ele>177.2</ele>
        <time>2016-12-03T09:59:56Z</time>
      </trkpt>
      <trkpt lat="48.79668" lon="2.075">
        <ele>177.9</ele>
        <time>2016-12-03T09:59:59Z</time>
      </trkpt>
      <trkpt lat="48.79659" lon="2.07494">
        <ele>177.9</ele>
        <time>2016-12-03T10:00:01Z</time>
      </trkpt>
      <trkpt lat="48.79651" lon="2.07488">
        <ele>177.7</ele>
        <time>2016-12-03T10:00:03Z</time>
      </trkpt>
      <trkpt lat="48.79642" lon="2.07482">
        <ele>177.6</ele>
        <time>2016-12-03T10:00:05Z</time>
      </trkpt>
      <trkpt lat="48.7963" lon="2.07472">
        <ele>177.5</ele>
        <time>2016-12-03T10:00:08Z</time>
      </trkpt>
      <trkpt lat="48.79621" lon="2.07466">
        <ele>177.5</ele>
        <time>2016-12-03T10:00:10Z</time>
      </trkpt>
      <trkpt lat="48.79612" lon="2.07461">
        <ele>177.5</ele>
        <time>2016-12-03T10:00:12Z</time>
      </trkpt>
      <trkpt lat="48.79603" lon="2.07452">
        <ele>177.5</ele>
        <time>2016-12-03T10:00:14Z</time>
      </trkpt>
      <trkpt lat="48.79594" lon="2.07446">
        <ele>177.6</ele>
        <time>2016-12-03T10:00:16Z</time>
      </trkpt>
      <trkpt lat="48.79585" lon="2.0744">
        <ele>177.7</ele>
        <time>2016-12-03T10:00:18Z</time>
      </trkpt>
      <trkpt lat="48.79577" lon="2.07432">
        <ele>177.6</ele>
        <time>2016-12-03T10:00:20Z</time>
      </trkpt>
      <trkpt lat="48.79568" lon="2.07426">
        <ele>177.5</ele>
        <time>2016-12-03T10:00:22Z</time>
      </trkpt>
      <trkpt lat="48.79558" lon="2.0742">
        <ele>177.3</ele>
        <time>2016-12-03T10:00:24Z</time>
      </trkpt>
      <trkpt lat="48.7955" lon="2.07414">
        <ele>177.1</ele>
        <time>2016-12-03T10:00:26Z</time>
      </trkpt>
      <trkpt lat="48.79539" lon="2.07408">
        <ele>176.8</ele>
        <time>2016-12-03T10:00:28Z</time>
      </trkpt>
      <trkpt lat="48.79531" lon="2.07402">
        <ele>176.5</ele>
        <time>2016-12-03T10:00:30Z</time>
      </trkpt>
      <trkpt lat="48.79522" lon="2.07395">
        <ele>176.3</ele>
        <time>2016-12-03T10:00:32Z</time>
      </trkpt>
      <trkpt lat="48.79511" lon="2.07387">
        <ele>176.1</ele>
        <time>2016-12-03T10:00:35Z</time>
      </trkpt>
      <trkpt lat="48.79501" lon="2.0738">
        <ele>176</ele>
        <time>2016-12-03T10:00:37Z</time>
      </trkpt>
      <trkpt lat="48.79492" lon="2.07375">
        <ele>175.8</ele>
        <time>2016-12-03T10:00:39Z</time>
      </trkpt>
      <trkpt lat="48.79484" lon="2.07368">
        <ele>175.5</ele>
        <time>2016-12-03T10:00:41Z</time>
      </trkpt>
      <trkpt lat="48.79474" lon="2.07361">
        <ele>175.2</ele>
        <time>2016-12-03T10:00:43Z</time>
      </trkpt>
      <trkpt lat="48.79465" lon="2.07355">
        <ele>174.9</ele>
        <time>2016-12-03T10:00:45Z</time>
      </trkpt>
      <trkpt lat="48.79457" lon="2.07349">
        <ele>174.5</ele>
        <time>2016-12-03T10:00:47Z</time>
      </trkpt>
      <trkpt lat="48.79447" lon="2.07342">
        <ele>174.2</ele>
        <time>2016-12-03T10:00:49Z</time>
      </trkpt>
      <trkpt lat="48.79438" lon="2.07336">
        <ele>173.8</ele>
        <time>2016-12-03T10:00:51Z</time>
      </trkpt>
      <trkpt lat="48.79428" lon="2.07327">
        <ele>173.2</ele>
        <time>2016-12-03T10:00:54Z</time>
      </trkpt>
      <trkpt lat="48.79421" lon="2.07315">
        <ele>172.5</ele>
        <time>2016-12-03T10:00:57Z</time>
      </trkpt>
      <trkpt lat="48.79418" lon="2.07298">
        <ele>171.8</ele>
        <time>2016-12-03T10:01:00Z</time>
      </trkpt>
      <trkpt lat="48.79419" lon="2.07281">
        <ele>171.2</ele>
        <time>2016-12-03T10:01:03Z</time>
      </trkpt>
      <trkpt lat="48.79419" lon="2.07262">
        <ele>170.5</ele>
        <time>2016-12-03T10:01:06Z</time>
      </trkpt>
      <trkpt lat="48.7942" lon="2.07244">
        <ele>169.9</ele>
        <time>2016-12-03T10:01:09Z</time>
      </trkpt>
      <trkpt lat="48.79422" lon="2.07226">
        <ele>169.3</ele>
        <time>2016-12-03T10:01:12Z</time>
      </trkpt>
      <trkpt lat="48.79425" lon="2.0721">
        <ele>168.8</ele>
        <time>2016-12-03T10:01:15Z</time>
      </trkpt>
      <trkpt lat="48.79426" lon="2.07192">
        <ele>168.2</ele>
        <time>2016-12-03T10:01:18Z</time>
      </trkpt>
      <trkpt lat="48.79418" lon="2.07178">
        <ele>167.5</ele>
        <time>2016-12-03T10:01:21Z</time>
      </trkpt>
      <trkpt lat="48.79407" lon="2.07173">
        <ele>167.1</ele>
        <time>2016-12-03T10:01:24Z</time>
      </trkpt>
      <trkpt lat="48.79394" lon="2.07167">
        <ele>166.7</ele>
        <time>2016-12-03T10:01:27Z</time>
      </trkpt>
      <trkpt lat="48.79381" lon="2.07163">
        <ele>166.5</ele>
        <time>2016-12-03T10:01:30Z</time>
      </trkpt>
      <trkpt lat="48.79372" lon="2.07159">
        <ele>166.3</ele>
        <time>2016-12-03T10:01:32Z</time>
      </trkpt>
      <trkpt lat="48.79363" lon="2.07156">
        <ele>166.2</ele>
        <time>2016-12-03T10:01:34Z</time>
      </trkpt>
      <trkpt lat="48.79354" lon="2.07153">
        <ele>166</ele>
        <time>2016-12-03T10:01:36Z</time>
      </trkpt>
      <trkpt lat="48.79345" lon="2.07149">
        <ele>165.9</ele>
        <time>2016-12-03T10:01:38Z</time>
      </trkpt>
      <trkpt lat="48.79335" lon="2.07145">
        <ele>165.8</ele>
        <time>2016-12-03T10:01:40Z</time>
      </trkpt>
      <trkpt lat="48.79326" lon="2.07141">
        <ele>165.8</ele>
        <time>2016-12-03T10:01:42Z</time>
      </trkpt>
      <trkpt lat="48.79317" lon="2.07139">
        <ele>165.8</ele>
        <time>2016-12-03T10:01:44Z</time>
      </trkpt>
      <trkpt lat="48.79308" lon="2.07135">
        <ele>165.8</ele>
        <time>2016-12-03T10:01:46Z</time>
      </trkpt>
      <trkpt lat="48.79299" lon="2.07132">
        <ele>165.8</ele>
        <time>2016-12-03T10:01:48Z</time>
      </trkpt>
      <trkpt lat="48.7929" lon="2.07128">
        <ele>165.8</ele>
        <time>2016-12-03T10:01:50Z</time>
      </trkpt>
      <trkpt lat="48.79281" lon="2.07125">
        <ele>165.8</ele>
        <time>2016-12-03T10:01:52Z</time>
      </trkpt>
      <trkpt lat="48.79271" lon="2.07123">
        <ele>165.8</ele>
        <time>2016-12-03T10:01:54Z</time>
      </trkpt>
      <trkpt lat="48.79262" lon="2.07119">
        <ele>165.8</ele>
        <time>2016-12-03T10:01:56Z</time>
      </trkpt>
      <trkpt lat="48.79253" lon="2.07116">
        <ele>165.8</ele>
        <time>2016-12-03T10:01:58Z</time>
      </trkpt>
      <trkpt lat="48.79244" lon="2.07112">
        <ele>165.6</ele>
        <time>2016-12-03T10:02:00Z</time>
      </trkpt>
      <trkpt lat="48.79235" lon="2.07108">
        <ele>165.4</ele>
        <time>2016-12-03T10:02:02Z</time>
      </trkpt>
      <trkpt lat="48.79226" lon="2.07104">
        <ele>165.2</ele>
        <time>2016-12-03T10:02:04Z</time>
      </trkpt>
      <trkpt lat="48.79217" lon="2.071">
        <ele>165</ele>
        <time>2016-12-03T10:02:06Z</time>
      </trkpt>
      <trkpt lat="48.79206" lon="2.07096">
        <ele>164.8</ele>
        <time>2016-12-03T10:02:09Z</time>
      </trkpt>
      <trkpt lat="48.79194" lon="2.07092">
        <ele>164.5</ele>
        <time>2016-12-03T10:02:12Z</time>
      </trkpt>
      <trkpt lat="48.79185" lon="2.07089">
        <ele>164.3</ele>
        <time>2016-12-03T10:02:15Z</time>
      </trkpt>
      <trkpt lat="48.79175" lon="2.07087">
        <ele>164.2</ele>
        <time>2016-12-03T10:02:18Z</time>
      </trkpt>
      <trkpt lat="48.79164" lon="2.07083">
        <ele>164.1</ele>
        <time>2016-12-03T10:02:23Z</time>
      </trkpt>
      <trkpt lat="48.79153" lon="2.0708">
        <ele>164.3</ele>
        <time>2016-12-03T10:02:28Z</time>
      </trkpt>
      <trkpt lat="48.79142" lon="2.07083">
        <ele>164.6</ele>
        <time>2016-12-03T10:02:32Z</time>
      </trkpt>
      <trkpt lat="48.79133" lon="2.07075">
        <ele>164.8</ele>
        <time>2016-12-03T10:02:38Z</time>
      </trkpt>
      <trkpt lat="48.79119" lon="2.07076">
        <ele>165.1</ele>
        <time>2016-12-03T10:02:41Z</time>
      </trkpt>
      <trkpt lat="48.79111" lon="2.07071">
        <ele>165.2</ele>
        <time>2016-12-03T10:02:44Z</time>
      </trkpt>
      <trkpt lat="48.79101" lon="2.07064">
        <ele>165.4</ele>
        <time>2016-12-03T10:02:49Z</time>
      </trkpt>
      <trkpt lat="48.79092" lon="2.07058">
        <ele>165.5</ele>
        <time>2016-12-03T10:02:53Z</time>
      </trkpt>
      <trkpt lat="48.79087" lon="2.07045">
        <ele>165.5</ele>
        <time>2016-12-03T10:02:56Z</time>
      </trkpt>
      <trkpt lat="48.79083" lon="2.0704">
        <ele>165.5</ele>
        <time>2016-12-03T10:03:03Z</time>
      </trkpt>
      <trkpt lat="48.7908" lon="2.07027">
        <ele>165.4</ele>
        <time>2016-12-03T10:03:24Z</time>
      </trkpt>
      <trkpt lat="48.79076" lon="2.07013">
        <ele>165.4</ele>
        <time>2016-12-03T10:03:32Z</time>
      </trkpt>
      <trkpt lat="48.79077" lon="2.06998">
        <ele>165.3</ele>
        <time>2016-12-03T10:03:40Z</time>
      </trkpt>
      <trkpt lat="48.79069" lon="2.06989">
        <ele>165.8</ele>
        <time>2016-12-03T10:03:46Z</time>
      </trkpt>
      <trkpt lat="48.79063" lon="2.06977">
        <ele>166.2</ele>
        <time>2016-12-03T10:03:51Z</time>
      </trkpt>
      <trkpt lat="48.7906" lon="2.06959">
        <ele>166.7</ele>
        <time>2016-12-03T10:03:55Z</time>
      </trkpt>
      <trkpt lat="48.7906" lon="2.06942">
        <ele>167.1</ele>
        <time>2016-12-03T10:03:59Z</time>
      </trkpt>
      <trkpt lat="48.7906" lon="2.06923">
        <ele>167.4</ele>
        <time>2016-12-03T10:04:03Z</time>
      </trkpt>
      <trkpt lat="48.79056" lon="2.06908">
        <ele>167.5</ele>
        <time>2016-12-03T10:04:06Z</time>
      </trkpt>
      <trkpt lat="48.79053" lon="2.06891">
        <ele>167.3</ele>
        <time>2016-12-03T10:04:09Z</time>
      </trkpt>
      <trkpt lat="48.79051" lon="2.06872">
        <ele>167</ele>
        <time>2016-12-03T10:04:12Z</time>
      </trkpt>
      <trkpt lat="48.79051" lon="2.06858">
        <ele>166.8</ele>
        <time>2016-12-03T10:04:15Z</time>
      </trkpt>
      <trkpt lat="48.79053" lon="2.06844">
        <ele>166.5</ele>
        <time>2016-12-03T10:04:18Z</time>
      </trkpt>
      <trkpt lat="48.79052" lon="2.06827">
        <ele>166.4</ele>
        <time>2016-12-03T10:04:21Z</time>
      </trkpt>
      <trkpt lat="48.79051" lon="2.0681">
        <ele>166.4</ele>
        <time>2016-12-03T10:04:25Z</time>
      </trkpt>
      <trkpt lat="48.79051" lon="2.06795">
        <ele>166.4</ele>
        <time>2016-12-03T10:04:28Z</time>
      </trkpt>
      <trkpt lat="48.79051" lon="2.06776">
        <ele>166.4</ele>
        <time>2016-12-03T10:04:31Z</time>
      </trkpt>
      <trkpt lat="48.79053" lon="2.06762">
        <ele>166.4</ele>
        <time>2016-12-03T10:04:34Z</time>
      </trkpt>
      <trkpt lat="48.79054" lon="2.06746">
        <ele>166.4</ele>
        <time>2016-12-03T10:04:37Z</time>
      </trkpt>
      <trkpt lat="48.79055" lon="2.06727">
        <ele>166.7</ele>
        <time>2016-12-03T10:04:41Z</time>
      </trkpt>
      <trkpt lat="48.79053" lon="2.06709">
        <ele>167</ele>
        <time>2016-12-03T10:04:44Z</time>
      </trkpt>
      <trkpt lat="48.79057" lon="2.06696">
        <ele>167.2</ele>
        <time>2016-12-03T10:04:47Z</time>
      </trkpt>
      <trkpt lat="48.79058" lon="2.06682">
        <ele>167.4</ele>
        <time>2016-12-03T10:04:50Z</time>
      </trkpt>
      <trkpt lat="48.7906" lon="2.06664">
        <ele>167.6</ele>
        <time>2016-12-03T10:04:53Z</time>
      </trkpt>
      <trkpt lat="48.79063" lon="2.06644">
        <ele>168.1</ele>
        <time>2016-12-03T10:04:56Z</time>
      </trkpt>
      <trkpt lat="48.79064" lon="2.06629">
        <ele>168.5</ele>
        <time>2016-12-03T10:04:58Z</time>
      </trkpt>
      <trkpt lat="48.79066" lon="2.06613">
        <ele>169</ele>
        <time>2016-12-03T10:05:01Z</time>
      </trkpt>
      <trkpt lat="48.79069" lon="2.06596">
        <ele>169.5</ele>
        <time>2016-12-03T10:05:04Z</time>
      </trkpt>
      <trkpt lat="48.79076" lon="2.0658">
        <ele>170</ele>
        <time>2016-12-03T10:05:07Z</time>
      </trkpt>
      <trkpt lat="48.79082" lon="2.06566">
        <ele>170.6</ele>
        <time>2016-12-03T10:05:11Z</time>
      </trkpt>
      <trkpt lat="48.79088" lon="2.0655">
        <ele>171</ele>
        <time>2016-12-03T10:05:14Z</time>
      </trkpt>
      <trkpt lat="48.79094" lon="2.06539">
        <ele>171.1</ele>
        <time>2016-12-03T10:05:16Z</time>
      </trkpt>
      <trkpt lat="48.791" lon="2.06529">
        <ele>171.1</ele>
        <time>2016-12-03T10:05:18Z</time>
      </trkpt>
      <trkpt lat="48.79108" lon="2.06516">
        <ele>171.1</ele>
        <time>2016-12-03T10:05:21Z</time>
      </trkpt>
      <trkpt lat="48.79116" lon="2.06501">
        <ele>171</ele>
        <time>2016-12-03T10:05:24Z</time>
      </trkpt>
      <trkpt lat="48.79122" lon="2.06487">
        <ele>170.7</ele>
        <time>2016-12-03T10:05:27Z</time>
      </trkpt>
      <trkpt lat="48.7913" lon="2.06472">
        <ele>170.2</ele>
        <time>2016-12-03T10:05:30Z</time>
      </trkpt>
      <trkpt lat="48.7914" lon="2.0646">
        <ele>169.6</ele>
        <time>2016-12-03T10:05:33Z</time>
      </trkpt>
      <trkpt lat="48.79144" lon="2.06456">
        <ele>169.4</ele>
        <time>2016-12-03T10:05:36Z</time>
      </trkpt>
      <trkpt lat="48.7915" lon="2.06457">
        <ele>169</ele>
        <time>2016-12-03T10:05:39Z</time>
      </trkpt>
      <trkpt lat="48.79158" lon="2.06462">
        <ele>168.5</ele>
        <time>2016-12-03T10:05:42Z</time>
      </trkpt>
      <trkpt lat="48.79167" lon="2.06465">
        <ele>168</ele>
        <time>2016-12-03T10:05:45Z</time>
      </trkpt>
      <trkpt lat="48.79177" lon="2.0647">
        <ele>167.5</ele>
        <time>2016-12-03T10:05:48Z</time>
      </trkpt>
      <trkpt lat="48.79188" lon="2.06478">
        <ele>167</ele>
        <time>2016-12-03T10:05:53Z</time>
      </trkpt>
      <trkpt lat="48.79192" lon="2.0648">
        <ele>166.8</ele>
        <time>2016-12-03T10:05:58Z</time>
      </trkpt>
      <trkpt lat="48.79208" lon="2.06467">
        <ele>166</ele>
        <time>2016-12-03T10:06:02Z</time>
      </trkpt>
      <trkpt lat="48.79218" lon="2.0646">
        <ele>165.5</ele>
        <time>2016-12-03T10:06:11Z</time>
      </trkpt>
      <trkpt lat="48.79228" lon="2.0645">
        <ele>165.1</ele>
        <time>2016-12-03T10:06:20Z</time>
      </trkpt>
      <trkpt lat="48.79236" lon="2.06444">
        <ele>164.7</ele>
        <time>2016-12-03T10:06:30Z</time>
      </trkpt>
      <trkpt lat="48.79244" lon="2.06438">
        <ele>164.3</ele>
        <time>2016-12-03T10:06:38Z</time>
      </trkpt>
      <trkpt lat="48.79254" lon="2.06433">
        <ele>163.9</ele>
        <time>2016-12-03T10:06:49Z</time>
      </trkpt>
      <trkpt lat="48.79264" lon="2.0643">
        <ele>163.6</ele>
        <time>2016-12-03T10:06:59Z</time>
      </trkpt>
      <trkpt lat="48.79273" lon="2.06434">
        <ele>163.4</ele>
        <time>2016-12-03T10:07:13Z</time>
      </trkpt>
      <trkpt lat="48.79283" lon="2.06428">
        <ele>163.2</ele>
        <time>2016-12-03T10:07:43Z</time>
      </trkpt>
      <trkpt lat="48.79291" lon="2.0643">
        <ele>162.9</ele>
        <time>2016-12-03T10:07:55Z</time>
      </trkpt>
      <trkpt lat="48.79303" lon="2.06434">
        <ele>162.6</ele>
        <time>2016-12-03T10:08:08Z</time>
      </trkpt>
      <trkpt lat="48.79311" lon="2.06437">
        <ele>162.4</ele>
        <time>2016-12-03T10:09:45Z</time>
      </trkpt>
      <trkpt lat="48.79321" lon="2.0644">
        <ele>162.1</ele>
        <time>2016-12-03T10:09:50Z</time>
      </trkpt>
      <trkpt lat="48.79331" lon="2.06443">
        <ele>161.7</ele>
        <time>2016-12-03T10:10:03Z</time>
      </trkpt>
      <trkpt lat="48.79341" lon="2.06446">
        <ele>161.9</ele>
        <time>2016-12-03T10:10:32Z</time>
      </trkpt>
      <trkpt lat="48.7935" lon="2.06449">
        <ele>162.1</ele>
        <time>2016-12-03T10:10:36Z</time>
      </trkpt>
      <trkpt lat="48.79361" lon="2.06453">
        <ele>162.4</ele>
        <time>2016-12-03T10:10:39Z</time>
      </trkpt>
      <trkpt lat="48.79369" lon="2.06455">
        <ele>162.6</ele>
        <time>2016-12-03T10:10:42Z</time>
      </trkpt>
      <trkpt lat="48.79377" lon="2.06457">
        <ele>162.8</ele>
        <time>2016-12-03T10:10:45Z</time>
      </trkpt>
      <trkpt lat="48.79385" lon="2.0646">
        <ele>163</ele>
        <time>2016-12-03T10:10:52Z</time>
      </trkpt>
      <trkpt lat="48.79392" lon="2.06462">
        <ele>163.3</ele>
        <time>2016-12-03T10:11:04Z</time>
      </trkpt>
      <trkpt lat="48.79401" lon="2.06465">
        <ele>163.5</ele>
        <time>2016-12-03T10:11:07Z</time>
      </trkpt>
      <trkpt lat="48.79408" lon="2.06468">
        <ele>163.7</ele>
        <time>2016-12-03T10:11:10Z</time>
      </trkpt>
      <trkpt lat="48.79416" lon="2.06471">
        <ele>164</ele>
        <time>2016-12-03T10:11:13Z</time>
      </trkpt>
      <trkpt lat="48.79426" lon="2.06473">
        <ele>164.1</ele>
        <time>2016-12-03T10:11:16Z</time>
      </trkpt>
      <trkpt lat="48.79435" lon="2.06477">
        <ele>164.2</ele>
        <time>2016-12-03T10:11:19Z</time>
      </trkpt>
      <trkpt lat="48.79443" lon="2.06478">
        <ele>164.3</ele>
        <time>2016-12-03T10:11:22Z</time>
      </trkpt>
      <trkpt lat="48.79453" lon="2.06482">
        <ele>164.4</ele>
        <time>2016-12-03T10:11:25Z</time>
      </trkpt>
      <trkpt lat="48.79468" lon="2.06488">
        <ele>164.6</ele>
        <time>2016-12-03T10:11:28Z</time>
      </trkpt>
      <trkpt lat="48.79486" lon="2.06495">
        <ele>164.8</ele>
        <time>2016-12-03T10:11:31Z</time>
      </trkpt>
      <trkpt lat="48.79498" lon="2.06499">
        <ele>165</ele>
        <time>2016-12-03T10:11:34Z</time>
      </trkpt>
      <trkpt lat="48.79509" lon="2.06503">
        <ele>165.1</ele>
        <time>2016-12-03T10:11:37Z</time>
      </trkpt>
      <trkpt lat="48.79517" lon="2.06491">
        <ele>165.1</ele>
        <time>2016-12-03T10:11:40Z</time>
      </trkpt>
      <trkpt lat="48.79523" lon="2.06477">
        <ele>165</ele>
        <time>2016-12-03T10:11:43Z</time>
      </trkpt>
      <trkpt lat="48.79525" lon="2.06463">
        <ele>164.9</ele>
        <time>2016-12-03T10:11:46Z</time>
      </trkpt>
      <trkpt lat="48.79526" lon="2.06449">
        <ele>164.7</ele>
        <time>2016-12-03T10:11:49Z</time>
      </trkpt>
      <trkpt lat="48.79528" lon="2.06435">
        <ele>164.5</ele>
        <time>2016-12-03T10:11:53Z</time>
      </trkpt>
      <trkpt lat="48.7953" lon="2.06421">
        <ele>164.3</ele>
        <time>2016-12-03T10:11:57Z</time>
      </trkpt>
      <trkpt lat="48.7953" lon="2.06406">
        <ele>164.1</ele>
        <time>2016-12-03T10:12:00Z</time>
      </trkpt>
      <trkpt lat="48.79534" lon="2.06386">
        <ele>163.8</ele>
        <time>2016-12-03T10:12:04Z</time>
      </trkpt>
      <trkpt lat="48.79538" lon="2.0637">
        <ele>163.5</ele>
        <time>2016-12-03T10:12:07Z</time>
      </trkpt>
      <trkpt lat="48.7954" lon="2.06354">
        <ele>163.3</ele>
        <time>2016-12-03T10:12:10Z</time>
      </trkpt>
      <trkpt lat="48.79543" lon="2.06336">
        <ele>163</ele>
        <time>2016-12-03T10:12:13Z</time>
      </trkpt>
      <trkpt lat="48.79545" lon="2.06321">
        <ele>163.2</ele>
        <time>2016-12-03T10:12:16Z</time>
      </trkpt>
      <trkpt lat="48.79548" lon="2.06305">
        <ele>163.5</ele>
        <time>2016-12-03T10:12:19Z</time>
      </trkpt>
      <trkpt lat="48.7955" lon="2.06291">
        <ele>163.7</ele>
        <time>2016-12-03T10:12:22Z</time>
      </trkpt>
      <trkpt lat="48.79552" lon="2.06276">
        <ele>164.1</ele>
        <time>2016-12-03T10:12:25Z</time>
      </trkpt>
      <trkpt lat="48.79554" lon="2.0626">
        <ele>164.4</ele>
        <time>2016-12-03T10:12:28Z</time>
      </trkpt>
      <trkpt lat="48.79557" lon="2.06241">
        <ele>164.8</ele>
        <time>2016-12-03T10:12:31Z</time>
      </trkpt>
      <trkpt lat="48.79561" lon="2.06221">
        <ele>165</ele>
        <time>2016-12-03T10:12:34Z</time>
      </trkpt>
      <trkpt lat="48.79563" lon="2.06202">
        <ele>165.2</ele>
        <time>2016-12-03T10:12:37Z</time>
      </trkpt>
      <trkpt lat="48.79566" lon="2.06187">
        <ele>165.4</ele>
        <time>2016-12-03T10:12:40Z</time>
      </trkpt>
      <trkpt lat="48.79568" lon="2.06172">
        <ele>165.6</ele>
        <time>2016-12-03T10:12:44Z</time>
      </trkpt>
      <trkpt lat="48.79569" lon="2.06159">
        <ele>165.7</ele>
        <time>2016-12-03T10:12:48Z</time>
      </trkpt>
      <trkpt lat="48.79572" lon="2.06141">
        <ele>165.8</ele>
        <time>2016-12-03T10:12:52Z</time>
      </trkpt>
      <trkpt lat="48.79574" lon="2.06122">
        <ele>165.8</ele>
        <time>2016-12-03T10:12:55Z</time>
      </trkpt>
      <trkpt lat="48.79577" lon="2.06103">
        <ele>165.9</ele>
        <time>2016-12-03T10:12:58Z</time>
      </trkpt>
      <trkpt lat="48.79578" lon="2.06085">
        <ele>165.9</ele>
        <time>2016-12-03T10:13:01Z</time>
      </trkpt>
      <trkpt lat="48.79579" lon="2.06071">
        <ele>165.8</ele>
        <time>2016-12-03T10:13:04Z</time>
      </trkpt>
      <trkpt lat="48.7958" lon="2.06056">
        <ele>165.7</ele>
        <time>2016-12-03T10:13:07Z</time>
      </trkpt>
      <trkpt lat="48.7958" lon="2.06038">
        <ele>165.5</ele>
        <time>2016-12-03T10:13:10Z</time>
      </trkpt>
      <trkpt lat="48.7958" lon="2.06026">
        <ele>165.3</ele>
        <time>2016-12-03T10:13:18Z</time>
      </trkpt>
      <trkpt lat="48.79583" lon="2.06016">
        <ele>165.2</ele>
        <time>2016-12-03T10:13:44Z</time>
      </trkpt>
      <trkpt lat="48.79585" lon="2.05998">
        <ele>165</ele>
        <time>2016-12-03T10:13:55Z</time>
      </trkpt>
      <trkpt lat="48.79586" lon="2.05986">
        <ele>165</ele>
        <time>2016-12-03T10:14:00Z</time>
      </trkpt>
      <trkpt lat="48.79587" lon="2.05974">
        <ele>165.1</ele>
        <time>2016-12-03T10:14:03Z</time>
      </trkpt>
      <trkpt lat="48.79588" lon="2.0596">
        <ele>165.1</ele>
        <time>2016-12-03T10:14:06Z</time>
      </trkpt>
      <trkpt lat="48.79591" lon="2.05945">
        <ele>165.1</ele>
        <time>2016-12-03T10:14:08Z</time>
      </trkpt>
      <trkpt lat="48.79594" lon="2.05927">
        <ele>165.1</ele>
        <time>2016-12-03T10:14:10Z</time>
      </trkpt>
      <trkpt lat="48.79599" lon="2.05914">
        <ele>165.2</ele>
        <time>2016-12-03T10:14:13Z</time>
      </trkpt>
      <trkpt lat="48.79605" lon="2.05902">
        <ele>165.3</ele>
        <time>2016-12-03T10:14:16Z</time>
      </trkpt>
      <trkpt lat="48.79607" lon="2.05889">
        <ele>165.3</ele>
        <time>2016-12-03T10:14:18Z</time>
      </trkpt>
      <trkpt lat="48.79609" lon="2.05874">
        <ele>165.3</ele>
        <time>2016-12-03T10:14:20Z</time>
      </trkpt>
      <trkpt lat="48.79611" lon="2.05859">
        <ele>165.3</ele>
        <time>2016-12-03T10:14:22Z</time>
      </trkpt>
      <trkpt lat="48.79613" lon="2.05843">
        <ele>165.4</ele>
        <time>2016-12-03T10:14:24Z</time>
      </trkpt>
      <trkpt lat="48.79615" lon="2.05826">
        <ele>165.4</ele>
        <time>2016-12-03T10:14:26Z</time>
      </trkpt>
      <trkpt lat="48.79617" lon="2.05809">
        <ele>165.5</ele>
        <time>2016-12-03T10:14:28Z</time>
      </trkpt>
      <trkpt lat="48.79619" lon="2.05794">
        <ele>165.6</ele>
        <time>2016-12-03T10:14:30Z</time>
      </trkpt>
      <trkpt lat="48.79624" lon="2.05782">
        <ele>165.8</ele>
        <time>2016-12-03T10:14:32Z</time>
      </trkpt>
      <trkpt lat="48.79634" lon="2.05779">
        <ele>166</ele>
        <time>2016-12-03T10:14:34Z</time>
      </trkpt>
      <trkpt lat="48.79644" lon="2.05779">
        <ele>166.2</ele>
        <time>2016-12-03T10:14:36Z</time>
      </trkpt>
      <trkpt lat="48.79654" lon="2.0578">
        <ele>166.4</ele>
        <time>2016-12-03T10:14:38Z</time>
      </trkpt>
      <trkpt lat="48.79664" lon="2.0578">
        <ele>166.6</ele>
        <time>2016-12-03T10:14:40Z</time>
      </trkpt>
      <trkpt lat="48.79674" lon="2.0578">
        <ele>166.6</ele>
        <time>2016-12-03T10:14:42Z</time>
      </trkpt>
      <trkpt lat="48.79683" lon="2.0578">
        <ele>166.5</ele>
        <time>2016-12-03T10:14:44Z</time>
      </trkpt>
      <trkpt lat="48.79692" lon="2.0578">
        <ele>166.4</ele>
        <time>2016-12-03T10:14:46Z</time>
      </trkpt>
      <trkpt lat="48.79705" lon="2.05781">
        <ele>166.3</ele>
        <time>2016-12-03T10:14:49Z</time>
      </trkpt>
      <trkpt lat="48.79714" lon="2.0578">
        <ele>166.3</ele>
        <time>2016-12-03T10:14:52Z</time>
      </trkpt>
      <trkpt lat="48.79724" lon="2.05776">
        <ele>166.2</ele>
        <time>2016-12-03T10:14:58Z</time>
      </trkpt>
      <trkpt lat="48.79728" lon="2.05762">
        <ele>166.2</ele>
        <time>2016-12-03T10:15:03Z</time>
      </trkpt>
      <trkpt lat="48.79724" lon="2.05746">
        <ele>166.3</ele>
        <time>2016-12-03T10:15:07Z</time>
      </trkpt>
      <trkpt lat="48.79721" lon="2.05733">
        <ele>166.4</ele>
        <time>2016-12-03T10:15:10Z</time>
      </trkpt>
      <trkpt lat="48.79719" lon="2.05719">
        <ele>166.4</ele>
        <time>2016-12-03T10:15:13Z</time>
      </trkpt>
      <trkpt lat="48.79727" lon="2.05709">
        <ele>166.2</ele>
        <time>2016-12-03T10:15:17Z</time>
      </trkpt>
      <trkpt lat="48.7973" lon="2.05709">
        <ele>166.1</ele>
        <time>2016-12-03T10:15:23Z</time>
      </trkpt>
      <trkpt lat="48.7974" lon="2.05704">
        <ele>165.8</ele>
        <time>2016-12-03T10:15:32Z</time>
      </trkpt>
      <trkpt lat="48.79749" lon="2.05697">
        <ele>165.4</ele>
        <time>2016-12-03T10:15:36Z</time>
      </trkpt>
      <trkpt lat="48.79761" lon="2.05692">
        <ele>165.3</ele>
        <time>2016-12-03T10:15:40Z</time>
      </trkpt>
      <trkpt lat="48.79772" lon="2.05686">
        <ele>165.3</ele>
        <time>2016-12-03T10:15:43Z</time>
      </trkpt>
      <trkpt lat="48.79783" lon="2.0568">
        <ele>165.2</ele>
        <time>2016-12-03T10:15:46Z</time>
      </trkpt>
      <trkpt lat="48.79795" lon="2.05675">
        <ele>165.1</ele>
        <time>2016-12-03T10:15:49Z</time>
      </trkpt>
      <trkpt lat="48.79808" lon="2.05668">
        <ele>165</ele>
        <time>2016-12-03T10:15:52Z</time>
      </trkpt>
      <trkpt lat="48.79817" lon="2.0566">
        <ele>165.3</ele>
        <time>2016-12-03T10:15:55Z</time>
      </trkpt>
      <trkpt lat="48.79828" lon="2.05652">
        <ele>165.6</ele>
        <time>2016-12-03T10:15:58Z</time>
      </trkpt>
      <trkpt lat="48.79838" lon="2.05641">
        <ele>165.3</ele>
        <time>2016-12-03T10:16:01Z</time>
      </trkpt>
      <trkpt lat="48.7985" lon="2.05632">
        <ele>164.3</ele>
        <time>2016-12-03T10:16:04Z</time>
      </trkpt>
      <trkpt lat="48.79859" lon="2.05621">
        <ele>163.8</ele>
        <time>2016-12-03T10:16:07Z</time>
      </trkpt>
      <trkpt lat="48.79867" lon="2.0561">
        <ele>163.6</ele>
        <time>2016-12-03T10:16:10Z</time>
      </trkpt>
      <trkpt lat="48.79878" lon="2.056">
        <ele>163.2</ele>
        <time>2016-12-03T10:16:13Z</time>
      </trkpt>
      <trkpt lat="48.79889" lon="2.05588">
        <ele>163</ele>
        <time>2016-12-03T10:16:16Z</time>
      </trkpt>
      <trkpt lat="48.79897" lon="2.05581">
        <ele>162.8</ele>
        <time>2016-12-03T10:16:18Z</time>
      </trkpt>
      <trkpt lat="48.79907" lon="2.05569">
        <ele>162</ele>
        <time>2016-12-03T10:16:21Z</time>
      </trkpt>
      <trkpt lat="48.79915" lon="2.05559">
        <ele>161.2</ele>
        <time>2016-12-03T10:16:24Z</time>
      </trkpt>
      <trkpt lat="48.79921" lon="2.05546">
        <ele>160.1</ele>
        <time>2016-12-03T10:16:28Z</time>
      </trkpt>
      <trkpt lat="48.79924" lon="2.05531">
        <ele>159.5</ele>
        <time>2016-12-03T10:16:31Z</time>
      </trkpt>
      <trkpt lat="48.79925" lon="2.05517">
        <ele>159.4</ele>
        <time>2016-12-03T10:16:34Z</time>
      </trkpt>
      <trkpt lat="48.79926" lon="2.05503">
        <ele>159.4</ele>
        <time>2016-12-03T10:16:38Z</time>
      </trkpt>
      <trkpt lat="48.79927" lon="2.05487">
        <ele>159.9</ele>
        <time>2016-12-03T10:16:43Z</time>
      </trkpt>
      <trkpt lat="48.79929" lon="2.05472">
        <ele>160.4</ele>
        <time>2016-12-03T10:16:47Z</time>
      </trkpt>
      <trkpt lat="48.79929" lon="2.05457">
        <ele>161.3</ele>
        <time>2016-12-03T10:16:50Z</time>
      </trkpt>
      <trkpt lat="48.79928" lon="2.05442">
        <ele>162.3</ele>
        <time>2016-12-03T10:16:53Z</time>
      </trkpt>
      <trkpt lat="48.79928" lon="2.05426">
        <ele>163.3</ele>
        <time>2016-12-03T10:16:56Z</time>
      </trkpt>
      <trkpt lat="48.7993" lon="2.05409">
        <ele>164.1</ele>
        <time>2016-12-03T10:16:59Z</time>
      </trkpt>
      <trkpt lat="48.79933" lon="2.0539">
        <ele>165.2</ele>
        <time>2016-12-03T10:17:02Z</time>
      </trkpt>
      <trkpt lat="48.79937" lon="2.05371">
        <ele>166.2</ele>
        <time>2016-12-03T10:17:05Z</time>
      </trkpt>
      <trkpt lat="48.79943" lon="2.05352">
        <ele>167.1</ele>
        <time>2016-12-03T10:17:08Z</time>
      </trkpt>
      <trkpt lat="48.79949" lon="2.05337">
        <ele>167.7</ele>
        <time>2016-12-03T10:17:10Z</time>
      </trkpt>
      <trkpt lat="48.79955" lon="2.05325">
        <ele>167.8</ele>
        <time>2016-12-03T10:17:12Z</time>
      </trkpt>
      <trkpt lat="48.79963" lon="2.05311">
        <ele>167.8</ele>
        <time>2016-12-03T10:17:15Z</time>
      </trkpt>
      <trkpt lat="48.79972" lon="2.05298">
        <ele>168</ele>
        <time>2016-12-03T10:17:18Z</time>
      </trkpt>
      <trkpt lat="48.79982" lon="2.05287">
        <ele>168</ele>
        <time>2016-12-03T10:17:21Z</time>
      </trkpt>
      <trkpt lat="48.79993" lon="2.05276">
        <ele>168.3</ele>
        <time>2016-12-03T10:17:24Z</time>
      </trkpt>
      <trkpt lat="48.80003" lon="2.05265">
        <ele>168.5</ele>
        <time>2016-12-03T10:17:27Z</time>
      </trkpt>
      <trkpt lat="48.80011" lon="2.05256">
        <ele>168.6</ele>
        <time>2016-12-03T10:17:29Z</time>
      </trkpt>
      <trkpt lat="48.80022" lon="2.05247">
        <ele>168.3</ele>
        <time>2016-12-03T10:17:32Z</time>
      </trkpt>
      <trkpt lat="48.8003" lon="2.05234">
        <ele>168.2</ele>
        <time>2016-12-03T10:17:34Z</time>
      </trkpt>
      <trkpt lat="48.80033" lon="2.05221">
        <ele>168.5</ele>
        <time>2016-12-03T10:17:36Z</time>
      </trkpt>
      <trkpt lat="48.80034" lon="2.05207">
        <ele>169</ele>
        <time>2016-12-03T10:17:38Z</time>
      </trkpt>
      <trkpt lat="48.80033" lon="2.05194">
        <ele>169.6</ele>
        <time>2016-12-03T10:17:40Z</time>
      </trkpt>
      <trkpt lat="48.80031" lon="2.05176">
        <ele>170.5</ele>
        <time>2016-12-03T10:17:43Z</time>
      </trkpt>
      <trkpt lat="48.8003" lon="2.0516">
        <ele>171.2</ele>
        <time>2016-12-03T10:17:46Z</time>
      </trkpt>
      <trkpt lat="48.80035" lon="2.05148">
        <ele>171.6</ele>
        <time>2016-12-03T10:17:49Z</time>
      </trkpt>
      <trkpt lat="48.80045" lon="2.05153">
        <ele>171.1</ele>
        <time>2016-12-03T10:17:53Z</time>
      </trkpt>
      <trkpt lat="48.80053" lon="2.05164">
        <ele>170.2</ele>
        <time>2016-12-03T10:17:57Z</time>
      </trkpt>
      <trkpt lat="48.80059" lon="2.0518">
        <ele>169.1</ele>
        <time>2016-12-03T10:18:01Z</time>
      </trkpt>
      <trkpt lat="48.80064" lon="2.05193">
        <ele>168.1</ele>
        <time>2016-12-03T10:18:04Z</time>
      </trkpt>
      <trkpt lat="48.8007" lon="2.05207">
        <ele>166.9</ele>
        <time>2016-12-03T10:18:07Z</time>
      </trkpt>
      <trkpt lat="48.80076" lon="2.05219">
        <ele>165.7</ele>
        <time>2016-12-03T10:18:10Z</time>
      </trkpt>
      <trkpt lat="48.80084" lon="2.05228">
        <ele>164.4</ele>
        <time>2016-12-03T10:18:13Z</time>
      </trkpt>
      <trkpt lat="48.80094" lon="2.05227">
        <ele>163.2</ele>
        <time>2016-12-03T10:18:16Z</time>
      </trkpt>
      <trkpt lat="48.80104" lon="2.05217">
        <ele>162.7</ele>
        <time>2016-12-03T10:18:19Z</time>
      </trkpt>
      <trkpt lat="48.80112" lon="2.05203">
        <ele>162.7</ele>
        <time>2016-12-03T10:18:22Z</time>
      </trkpt>
      <trkpt lat="48.80119" lon="2.05187">
        <ele>162.8</ele>
        <time>2016-12-03T10:18:25Z</time>
      </trkpt>
      <trkpt lat="48.80124" lon="2.05175">
        <ele>163.1</ele>
        <time>2016-12-03T10:18:27Z</time>
      </trkpt>
      <trkpt lat="48.80129" lon="2.05162">
        <ele>163.2</ele>
        <time>2016-12-03T10:18:29Z</time>
      </trkpt>
      <trkpt lat="48.80134" lon="2.05149">
        <ele>163.1</ele>
        <time>2016-12-03T10:18:31Z</time>
      </trkpt>
      <trkpt lat="48.80138" lon="2.05136">
        <ele>163</ele>
        <time>2016-12-03T10:18:33Z</time>
      </trkpt>
      <trkpt lat="48.80143" lon="2.05122">
        <ele>162.8</ele>
        <time>2016-12-03T10:18:35Z</time>
      </trkpt>
      <trkpt lat="48.80148" lon="2.05109">
        <ele>162.4</ele>
        <time>2016-12-03T10:18:37Z</time>
      </trkpt>
      <trkpt lat="48.80154" lon="2.05098">
        <ele>161.8</ele>
        <time>2016-12-03T10:18:39Z</time>
      </trkpt>
      <trkpt lat="48.80161" lon="2.05087">
        <ele>161</ele>
        <time>2016-12-03T10:18:41Z</time>
      </trkpt>
      <trkpt lat="48.80168" lon="2.05076">
        <ele>160.4</ele>
        <time>2016-12-03T10:18:43Z</time>
      </trkpt>
      <trkpt lat="48.80175" lon="2.05066">
        <ele>160.4</ele>
        <time>2016-12-03T10:18:45Z</time>
      </trkpt>
      <trkpt lat="48.80182" lon="2.05056">
        <ele>160.4</ele>
        <time>2016-12-03T10:18:47Z</time>
      </trkpt>
      <trkpt lat="48.80188" lon="2.05045">
        <ele>160.3</ele>
        <time>2016-12-03T10:18:49Z</time>
      </trkpt>
      <trkpt lat="48.80195" lon="2.05035">
        <ele>160.2</ele>
        <time>2016-12-03T10:18:51Z</time>
      </trkpt>
      <trkpt lat="48.80202" lon="2.05024">
        <ele>159.9</ele>
        <time>2016-12-03T10:18:53Z</time>
      </trkpt>
      <trkpt lat="48.80209" lon="2.05014">
        <ele>159.7</ele>
        <time>2016-12-03T10:18:55Z</time>
      </trkpt>
      <trkpt lat="48.80218" lon="2.04998">
        <ele>159.5</ele>
        <time>2016-12-03T10:18:58Z</time>
      </trkpt>
      <trkpt lat="48.80226" lon="2.04986">
        <ele>159.3</ele>
        <time>2016-12-03T10:19:01Z</time>
      </trkpt>
      <trkpt lat="48.80228" lon="2.04982">
        <ele>159.3</ele>
        <time>2016-12-03T10:19:09Z</time>
      </trkpt>
      <trkpt lat="48.80238" lon="2.04979">
        <ele>158.2</ele>
        <time>2016-12-03T10:19:18Z</time>
      </trkpt>
      <trkpt lat="48.80248" lon="2.04969">
        <ele>157.5</ele>
        <time>2016-12-03T10:19:22Z</time>
      </trkpt>
      <trkpt lat="48.80257" lon="2.04962">
        <ele>157.7</ele>
        <time>2016-12-03T10:19:25Z</time>
      </trkpt>
      <trkpt lat="48.80267" lon="2.04952">
        <ele>158.4</ele>
        <time>2016-12-03T10:19:28Z</time>
      </trkpt>
      <trkpt lat="48.80274" lon="2.04942">
        <ele>159.2</ele>
        <time>2016-12-03T10:19:31Z</time>
      </trkpt>
      <trkpt lat="48.80283" lon="2.04939">
        <ele>159.5</ele>
        <time>2016-12-03T10:19:34Z</time>
      </trkpt>
      <trkpt lat="48.80293" lon="2.04947">
        <ele>158.8</ele>
        <time>2016-12-03T10:19:36Z</time>
      </trkpt>
      <trkpt lat="48.80306" lon="2.04955">
        <ele>158.1</ele>
        <time>2016-12-03T10:19:38Z</time>
      </trkpt>
      <trkpt lat="48.80319" lon="2.04958">
        <ele>157.6</ele>
        <time>2016-12-03T10:19:40Z</time>
      </trkpt>
      <trkpt lat="48.8033" lon="2.04959">
        <ele>157.4</ele>
        <time>2016-12-03T10:19:42Z</time>
      </trkpt>
      <trkpt lat="48.80341" lon="2.04964">
        <ele>156.7</ele>
        <time>2016-12-03T10:19:44Z</time>
      </trkpt>
      <trkpt lat="48.80351" lon="2.04967">
        <ele>156</ele>
        <time>2016-12-03T10:19:46Z</time>
      </trkpt>
      <trkpt lat="48.80364" lon="2.04972">
        <ele>155.1</ele>
        <time>2016-12-03T10:19:48Z</time>
      </trkpt>
      <trkpt lat="48.8038" lon="2.04979">
        <ele>153.9</ele>
        <time>2016-12-03T10:19:50Z</time>
      </trkpt>
      <trkpt lat="48.80392" lon="2.04982">
        <ele>153</ele>
        <time>2016-12-03T10:19:52Z</time>
      </trkpt>
      <trkpt lat="48.80402" lon="2.04983">
        <ele>152.6</ele>
        <time>2016-12-03T10:19:55Z</time>
      </trkpt>
      <trkpt lat="48.8041" lon="2.04976">
        <ele>153.1</ele>
        <time>2016-12-03T10:19:59Z</time>
      </trkpt>
      <trkpt lat="48.80412" lon="2.04973">
        <ele>153.5</ele>
        <time>2016-12-03T10:20:04Z</time>
      </trkpt>
      <trkpt lat="48.80422" lon="2.04972">
        <ele>153.1</ele>
        <time>2016-12-03T10:20:24Z</time>
      </trkpt>
      <trkpt lat="48.80429" lon="2.04963">
        <ele>153.5</ele>
        <time>2016-12-03T10:20:30Z</time>
      </trkpt>
      <trkpt lat="48.80432" lon="2.04955">
        <ele>154</ele>
        <time>2016-12-03T10:20:39Z</time>
      </trkpt>
      <trkpt lat="48.80441" lon="2.04946">
        <ele>154.2</ele>
        <time>2016-12-03T10:22:17Z</time>
      </trkpt>
      <trkpt lat="48.80449" lon="2.04936">
        <ele>154.5</ele>
        <time>2016-12-03T10:22:22Z</time>
      </trkpt>
      <trkpt lat="48.80453" lon="2.04922">
        <ele>155.6</ele>
        <time>2016-12-03T10:22:27Z</time>
      </trkpt>
      <trkpt lat="48.80455" lon="2.04906">
        <ele>156.9</ele>
        <time>2016-12-03T10:22:32Z</time>
      </trkpt>
      <trkpt lat="48.80458" lon="2.04891">
        <ele>158.1</ele>
        <time>2016-12-03T10:22:38Z</time>
      </trkpt>
      <trkpt lat="48.80464" lon="2.04878">
        <ele>158.6</ele>
        <time>2016-12-03T10:22:44Z</time>
      </trkpt>
      <trkpt lat="48.80471" lon="2.04867">
        <ele>158.8</ele>
        <time>2016-12-03T10:22:50Z</time>
      </trkpt>
      <trkpt lat="48.80476" lon="2.04855">
        <ele>159.2</ele>
        <time>2016-12-03T10:22:55Z</time>
      </trkpt>
      <trkpt lat="48.80478" lon="2.04841">
        <ele>160.2</ele>
        <time>2016-12-03T10:23:01Z</time>
      </trkpt>
      <trkpt lat="48.80479" lon="2.04826">
        <ele>161.4</ele>
        <time>2016-12-03T10:23:08Z</time>
      </trkpt>
      <trkpt lat="48.80479" lon="2.04812">
        <ele>162.7</ele>
        <time>2016-12-03T10:23:15Z</time>
      </trkpt>
      <trkpt lat="48.80481" lon="2.04797">
        <ele>163.8</ele>
        <time>2016-12-03T10:23:22Z</time>
      </trkpt>
      <trkpt lat="48.80483" lon="2.04783">
        <ele>164.9</ele>
        <time>2016-12-03T10:23:29Z</time>
      </trkpt>
      <trkpt lat="48.80483" lon="2.04781">
        <ele>165</ele>
        <time>2016-12-03T10:23:34Z</time>
      </trkpt>
      <trkpt lat="48.8049" lon="2.04769">
        <ele>165.3</ele>
        <time>2016-12-03T10:23:42Z</time>
      </trkpt>
      <trkpt lat="48.80495" lon="2.04756">
        <ele>166.1</ele>
        <time>2016-12-03T10:23:46Z</time>
      </trkpt>
      <trkpt lat="48.80502" lon="2.04747">
        <ele>165.8</ele>
        <time>2016-12-03T10:23:51Z</time>
      </trkpt>
      <trkpt lat="48.8051" lon="2.04738">
        <ele>164.6</ele>
        <time>2016-12-03T10:23:57Z</time>
      </trkpt>
      <trkpt lat="48.80517" lon="2.04726">
        <ele>163.9</ele>
        <time>2016-12-03T10:24:03Z</time>
      </trkpt>
      <trkpt lat="48.80525" lon="2.04715">
        <ele>163</ele>
        <time>2016-12-03T10:24:09Z</time>
      </trkpt>
      <trkpt lat="48.80529" lon="2.04702">
        <ele>162.9</ele>
        <time>2016-12-03T10:24:13Z</time>
      </trkpt>
      <trkpt lat="48.80534" lon="2.04689">
        <ele>162.9</ele>
        <time>2016-12-03T10:24:16Z</time>
      </trkpt>
      <trkpt lat="48.80539" lon="2.04676">
        <ele>162.8</ele>
        <time>2016-12-03T10:24:19Z</time>
      </trkpt>
      <trkpt lat="48.80543" lon="2.04663">
        <ele>163</ele>
        <time>2016-12-03T10:24:22Z</time>
      </trkpt>
      <trkpt lat="48.80547" lon="2.04649">
        <ele>163</ele>
        <time>2016-12-03T10:24:26Z</time>
      </trkpt>
      <trkpt lat="48.80552" lon="2.04637">
        <ele>162.9</ele>
        <time>2016-12-03T10:24:29Z</time>
      </trkpt>
      <trkpt lat="48.80556" lon="2.04625">
        <ele>162.7</ele>
        <time>2016-12-03T10:24:32Z</time>
      </trkpt>
      <trkpt lat="48.80561" lon="2.04607">
        <ele>162.8</ele>
        <time>2016-12-03T10:24:35Z</time>
      </trkpt>
      <trkpt lat="48.80564" lon="2.04594">
        <ele>162.9</ele>
        <time>2016-12-03T10:24:37Z</time>
      </trkpt>
      <trkpt lat="48.80569" lon="2.04576">
        <ele>162.3</ele>
        <time>2016-12-03T10:24:40Z</time>
      </trkpt>
      <trkpt lat="48.80574" lon="2.04558">
        <ele>160.9</ele>
        <time>2016-12-03T10:24:43Z</time>
      </trkpt>
      <trkpt lat="48.80578" lon="2.04541">
        <ele>159.5</ele>
        <time>2016-12-03T10:24:46Z</time>
      </trkpt>
      <trkpt lat="48.80581" lon="2.04521">
        <ele>158.3</ele>
        <time>2016-12-03T10:24:49Z</time>
      </trkpt>
      <trkpt lat="48.80584" lon="2.04505">
        <ele>157.1</ele>
        <time>2016-12-03T10:24:51Z</time>
      </trkpt>
      <trkpt lat="48.80585" lon="2.0449">
        <ele>157</ele>
        <time>2016-12-03T10:24:53Z</time>
      </trkpt>
      <trkpt lat="48.80586" lon="2.0447">
        <ele>157.3</ele>
        <time>2016-12-03T10:24:56Z</time>
      </trkpt>
      <trkpt lat="48.80589" lon="2.04453">
        <ele>157.3</ele>
        <time>2016-12-03T10:24:59Z</time>
      </trkpt>
      <trkpt lat="48.80591" lon="2.04433">
        <ele>157.4</ele>
        <time>2016-12-03T10:25:02Z</time>
      </trkpt>
      <trkpt lat="48.80594" lon="2.04415">
        <ele>157.4</ele>
        <time>2016-12-03T10:25:05Z</time>
      </trkpt>
      <trkpt lat="48.80597" lon="2.04399">
        <ele>157.5</ele>
        <time>2016-12-03T10:25:08Z</time>
      </trkpt>
      <trkpt lat="48.806" lon="2.04385">
        <ele>157.7</ele>
        <time>2016-12-03T10:25:10Z</time>
      </trkpt>
      <trkpt lat="48.80603" lon="2.0437">
        <ele>157.9</ele>
        <time>2016-12-03T10:25:12Z</time>
      </trkpt>
      <trkpt lat="48.80609" lon="2.04351">
        <ele>157.9</ele>
        <time>2016-12-03T10:25:15Z</time>
      </trkpt>
      <trkpt lat="48.80612" lon="2.04338">
        <ele>158.1</ele>
        <time>2016-12-03T10:25:17Z</time>
      </trkpt>
      <trkpt lat="48.80616" lon="2.04318">
        <ele>158.3</ele>
        <time>2016-12-03T10:25:20Z</time>
      </trkpt>
      <trkpt lat="48.80621" lon="2.04306">
        <ele>158.2</ele>
        <time>2016-12-03T10:25:22Z</time>
      </trkpt>
      <trkpt lat="48.80626" lon="2.04287">
        <ele>158.3</ele>
        <time>2016-12-03T10:25:25Z</time>
      </trkpt>
      <trkpt lat="48.8063" lon="2.04269">
        <ele>158.5</ele>
        <time>2016-12-03T10:25:28Z</time>
      </trkpt>
      <trkpt lat="48.80629" lon="2.04252">
        <ele>159.7</ele>
        <time>2016-12-03T10:25:31Z</time>
      </trkpt>
      <trkpt lat="48.80622" lon="2.04241">
        <ele>161.4</ele>
        <time>2016-12-03T10:25:35Z</time>
      </trkpt>
      <trkpt lat="48.80614" lon="2.0423">
        <ele>163.5</ele>
        <time>2016-12-03T10:25:40Z</time>
      </trkpt>
      <trkpt lat="48.80618" lon="2.04216">
        <ele>163</ele>
        <time>2016-12-03T10:25:45Z</time>
      </trkpt>
      <trkpt lat="48.80627" lon="2.04207">
        <ele>161.4</ele>
        <time>2016-12-03T10:25:50Z</time>
      </trkpt>
      <trkpt lat="48.80633" lon="2.04193">
        <ele>160.4</ele>
        <time>2016-12-03T10:25:59Z</time>
      </trkpt>
      <trkpt lat="48.80643" lon="2.04189">
        <ele>158.3</ele>
        <time>2016-12-03T10:26:04Z</time>
      </trkpt>
      <trkpt lat="48.80653" lon="2.04189">
        <ele>156</ele>
        <time>2016-12-03T10:26:07Z</time>
      </trkpt>
      <trkpt lat="48.80661" lon="2.04179">
        <ele>154.2</ele>
        <time>2016-12-03T10:26:11Z</time>
      </trkpt>
      <trkpt lat="48.80665" lon="2.04162">
        <ele>153.5</ele>
        <time>2016-12-03T10:26:14Z</time>
      </trkpt>
      <trkpt lat="48.80666" lon="2.04147">
        <ele>153.6</ele>
        <time>2016-12-03T10:26:17Z</time>
      </trkpt>
      <trkpt lat="48.80669" lon="2.04133">
        <ele>153.6</ele>
        <time>2016-12-03T10:26:20Z</time>
      </trkpt>
      <trkpt lat="48.8067" lon="2.04116">
        <ele>153.8</ele>
        <time>2016-12-03T10:26:24Z</time>
      </trkpt>
      <trkpt lat="48.80673" lon="2.04102">
        <ele>153.8</ele>
        <time>2016-12-03T10:26:28Z</time>
      </trkpt>
      <trkpt lat="48.80673" lon="2.04086">
        <ele>154.1</ele>
        <time>2016-12-03T10:26:32Z</time>
      </trkpt>
      <trkpt lat="48.80669" lon="2.04071">
        <ele>155.2</ele>
        <time>2016-12-03T10:26:37Z</time>
      </trkpt>
      <trkpt lat="48.80671" lon="2.04058">
        <ele>155.4</ele>
        <time>2016-12-03T10:26:40Z</time>
      </trkpt>
      <trkpt lat="48.80669" lon="2.04043">
        <ele>156.1</ele>
        <time>2016-12-03T10:26:44Z</time>
      </trkpt>
      <trkpt lat="48.80668" lon="2.04029">
        <ele>156.8</ele>
        <time>2016-12-03T10:26:47Z</time>
      </trkpt>
      <trkpt lat="48.80671" lon="2.04016">
        <ele>156.8</ele>
        <time>2016-12-03T10:26:51Z</time>
      </trkpt>
      <trkpt lat="48.80672" lon="2.04002">
        <ele>157.2</ele>
        <time>2016-12-03T10:26:54Z</time>
      </trkpt>
      <trkpt lat="48.80673" lon="2.03987">
        <ele>157.5</ele>
        <time>2016-12-03T10:26:58Z</time>
      </trkpt>
      <trkpt lat="48.80671" lon="2.0397">
        <ele>158.1</ele>
        <time>2016-12-03T10:27:03Z</time>
      </trkpt>
      <trkpt lat="48.80669" lon="2.03956">
        <ele>158.8</ele>
        <time>2016-12-03T10:27:06Z</time>
      </trkpt>
      <trkpt lat="48.80668" lon="2.0394">
        <ele>159.3</ele>
        <time>2016-12-03T10:27:09Z</time>
      </trkpt>
      <trkpt lat="48.80666" lon="2.03923">
        <ele>160</ele>
        <time>2016-12-03T10:27:12Z</time>
      </trkpt>
      <trkpt lat="48.80663" lon="2.03908">
        <ele>161.2</ele>
        <time>2016-12-03T10:27:16Z</time>
      </trkpt>
      <trkpt lat="48.80654" lon="2.039">
        <ele>163.4</ele>
        <time>2016-12-03T10:27:20Z</time>
      </trkpt>
      <trkpt lat="48.80644" lon="2.0389">
        <ele>165.7</ele>
        <time>2016-12-03T10:27:24Z</time>
      </trkpt>
      <trkpt lat="48.8064" lon="2.03877">
        <ele>167</ele>
        <time>2016-12-03T10:27:27Z</time>
      </trkpt>
      <trkpt lat="48.80632" lon="2.03865">
        <ele>168.8</ele>
        <time>2016-12-03T10:27:30Z</time>
      </trkpt>
      <trkpt lat="48.80625" lon="2.03855">
        <ele>170.4</ele>
        <time>2016-12-03T10:27:33Z</time>
      </trkpt>
      <trkpt lat="48.8062" lon="2.03841">
        <ele>171.7</ele>
        <time>2016-12-03T10:27:36Z</time>
      </trkpt>
      <trkpt lat="48.80616" lon="2.03825">
        <ele>172.8</ele>
        <time>2016-12-03T10:27:39Z</time>
      </trkpt>
      <trkpt lat="48.80613" lon="2.03809">
        <ele>173.7</ele>
        <time>2016-12-03T10:27:42Z</time>
      </trkpt>
      <trkpt lat="48.80612" lon="2.03793">
        <ele>174.4</ele>
        <time>2016-12-03T10:27:45Z</time>
      </trkpt>
      <trkpt lat="48.80608" lon="2.03775">
        <ele>175.4</ele>
        <time>2016-12-03T10:27:48Z</time>
      </trkpt>
      <trkpt lat="48.80607" lon="2.03758">
        <ele>176.1</ele>
        <time>2016-12-03T10:27:51Z</time>
      </trkpt>
      <trkpt lat="48.8061" lon="2.03745">
        <ele>175.8</ele>
        <time>2016-12-03T10:27:55Z</time>
      </trkpt>
      <trkpt lat="48.8061" lon="2.03733">
        <ele>175.3</ele>
        <time>2016-12-03T10:28:05Z</time>
      </trkpt>
      <trkpt lat="48.8062" lon="2.03729">
        <ele>173.7</ele>
        <time>2016-12-03T10:28:25Z</time>
      </trkpt>
      <trkpt lat="48.80629" lon="2.03728">
        <ele>172.1</ele>
        <time>2016-12-03T10:28:31Z</time>
      </trkpt>
      <trkpt lat="48.80638" lon="2.03737">
        <ele>171</ele>
        <time>2016-12-03T10:28:36Z</time>
      </trkpt>
      <trkpt lat="48.80646" lon="2.03751">
        <ele>170.2</ele>
        <time>2016-12-03T10:28:40Z</time>
      </trkpt>
      <trkpt lat="48.80653" lon="2.03761">
        <ele>168.8</ele>
        <time>2016-12-03T10:28:43Z</time>
      </trkpt>
      <trkpt lat="48.8066" lon="2.0377">
        <ele>167.3</ele>
        <time>2016-12-03T10:28:46Z</time>
      </trkpt>
      <trkpt lat="48.80668" lon="2.03778">
        <ele>165.7</ele>
        <time>2016-12-03T10:28:50Z</time>
      </trkpt>
      <trkpt lat="48.80675" lon="2.03788">
        <ele>164.1</ele>
        <time>2016-12-03T10:28:56Z</time>
      </trkpt>
      <trkpt lat="48.80684" lon="2.03799">
        <ele>162.1</ele>
        <time>2016-12-03T10:29:01Z</time>
      </trkpt>
      <trkpt lat="48.80693" lon="2.03807">
        <ele>160.5</ele>
        <time>2016-12-03T10:29:04Z</time>
      </trkpt>
      <trkpt lat="48.80702" lon="2.03795">
        <ele>159.1</ele>
        <time>2016-12-03T10:29:09Z</time>
      </trkpt>
      <trkpt lat="48.80706" lon="2.03781">
        <ele>158.5</ele>
        <time>2016-12-03T10:29:12Z</time>
      </trkpt>
      <trkpt lat="48.80713" lon="2.03768">
        <ele>157.5</ele>
        <time>2016-12-03T10:29:15Z</time>
      </trkpt>
      <trkpt lat="48.80721" lon="2.03759">
        <ele>155.8</ele>
        <time>2016-12-03T10:29:18Z</time>
      </trkpt>
      <trkpt lat="48.80727" lon="2.03746">
        <ele>154.5</ele>
        <time>2016-12-03T10:29:22Z</time>
      </trkpt>
      <trkpt lat="48.80731" lon="2.03733">
        <ele>153.3</ele>
        <time>2016-12-03T10:29:26Z</time>
      </trkpt>
      <trkpt lat="48.80734" lon="2.0372">
        <ele>152.1</ele>
        <time>2016-12-03T10:29:37Z</time>
      </trkpt>
      <trkpt lat="48.80734" lon="2.0372">
        <ele>152.1</ele>
        <time>2016-12-03T10:29:37Z</time>
      </trkpt>
      <trkpt lat="48.80734" lon="2.0372">
        <ele>152.1</ele>
        <time>2016-12-03T10:29:37Z</time>
      </trkpt>
      <trkpt lat="48.80738" lon="2.03703">
        <ele>150.8</ele>
        <time>2016-12-03T10:29:42Z</time>
      </trkpt>
      <trkpt lat="48.80743" lon="2.03691">
        <ele>149.3</ele>
        <time>2016-12-03T10:29:45Z</time>
      </trkpt>
      <trkpt lat="48.80747" lon="2.03669">
        <ele>147.8</ele>
        <time>2016-12-03T10:29:47Z</time>
      </trkpt>
      <trkpt lat="48.8075" lon="2.03649">
        <ele>148.3</ele>
        <time>2016-12-03T10:29:49Z</time>
      </trkpt>
      <trkpt lat="48.8075" lon="2.03633">
        <ele>149.4</ele>
        <time>2016-12-03T10:29:51Z</time>
      </trkpt>
      <trkpt lat="48.80751" lon="2.03619">
        <ele>150.4</ele>
        <time>2016-12-03T10:29:54Z</time>
      </trkpt>
      <trkpt lat="48.80752" lon="2.03602">
        <ele>151.6</ele>
        <time>2016-12-03T10:29:58Z</time>
      </trkpt>
      <trkpt lat="48.80755" lon="2.03588">
        <ele>152.5</ele>
        <time>2016-12-03T10:30:03Z</time>
      </trkpt>
      <trkpt lat="48.80761" lon="2.03578">
        <ele>153</ele>
        <time>2016-12-03T10:30:12Z</time>
      </trkpt>
      <trkpt lat="48.80766" lon="2.03565">
        <ele>153.6</ele>
        <time>2016-12-03T10:30:20Z</time>
      </trkpt>
      <trkpt lat="48.80767" lon="2.03552">
        <ele>154.3</ele>
        <time>2016-12-03T10:30:34Z</time>
      </trkpt>
      <trkpt lat="48.8078" lon="2.03539">
        <ele>154.4</ele>
        <time>2016-12-03T10:32:00Z</time>
      </trkpt>
      <trkpt lat="48.80785" lon="2.03527">
        <ele>154.7</ele>
        <time>2016-12-03T10:32:07Z</time>
      </trkpt>
      <trkpt lat="48.80794" lon="2.03521">
        <ele>154.3</ele>
        <time>2016-12-03T10:32:12Z</time>
      </trkpt>
      <trkpt lat="48.80797" lon="2.03507">
        <ele>154.8</ele>
        <time>2016-12-03T10:32:16Z</time>
      </trkpt>
      <trkpt lat="48.808" lon="2.03492">
        <ele>155</ele>
        <time>2016-12-03T10:32:20Z</time>
      </trkpt>
      <trkpt lat="48.80802" lon="2.03477">
        <ele>155.2</ele>
        <time>2016-12-03T10:32:25Z</time>
      </trkpt>
      <trkpt lat="48.80802" lon="2.03462">
        <ele>155.6</ele>
        <time>2016-12-03T10:32:30Z</time>
      </trkpt>
      <trkpt lat="48.80803" lon="2.03448">
        <ele>155.8</ele>
        <time>2016-12-03T10:32:36Z</time>
      </trkpt>
      <trkpt lat="48.80806" lon="2.03432">
        <ele>155.9</ele>
        <time>2016-12-03T10:32:42Z</time>
      </trkpt>
      <trkpt lat="48.80809" lon="2.03416">
        <ele>156.1</ele>
        <time>2016-12-03T10:32:47Z</time>
      </trkpt>
      <trkpt lat="48.80812" lon="2.03402">
        <ele>155.9</ele>
        <time>2016-12-03T10:32:52Z</time>
      </trkpt>
      <trkpt lat="48.80816" lon="2.03388">
        <ele>155.5</ele>
        <time>2016-12-03T10:32:58Z</time>
      </trkpt>
      <trkpt lat="48.80816" lon="2.03373">
        <ele>155.5</ele>
        <time>2016-12-03T10:33:03Z</time>
      </trkpt>
      <trkpt lat="48.80818" lon="2.03359">
        <ele>155.4</ele>
        <time>2016-12-03T10:33:08Z</time>
      </trkpt>
      <trkpt lat="48.8082" lon="2.03345">
        <ele>155.1</ele>
        <time>2016-12-03T10:33:20Z</time>
      </trkpt>
      <trkpt lat="48.80821" lon="2.03341">
        <ele>154.9</ele>
        <time>2016-12-03T10:33:29Z</time>
      </trkpt>
      <trkpt lat="48.80827" lon="2.03317">
        <ele>154.1</ele>
        <time>2016-12-03T10:34:30Z</time>
      </trkpt>
      <trkpt lat="48.80835" lon="2.03301">
        <ele>152.8</ele>
        <time>2016-12-03T10:34:33Z</time>
      </trkpt>
      <trkpt lat="48.80839" lon="2.03287">
        <ele>152.4</ele>
        <time>2016-12-03T10:34:35Z</time>
      </trkpt>
      <trkpt lat="48.80841" lon="2.03267">
        <ele>152</ele>
        <time>2016-12-03T10:34:38Z</time>
      </trkpt>
      <trkpt lat="48.80846" lon="2.0325">
        <ele>151.2</ele>
        <time>2016-12-03T10:34:41Z</time>
      </trkpt>
      <trkpt lat="48.80851" lon="2.03237">
        <ele>150.2</ele>
        <time>2016-12-03T10:34:44Z</time>
      </trkpt>
      <trkpt lat="48.80856" lon="2.03224">
        <ele>149.2</ele>
        <time>2016-12-03T10:34:47Z</time>
      </trkpt>
      <trkpt lat="48.80863" lon="2.03215">
        <ele>148</ele>
        <time>2016-12-03T10:34:49Z</time>
      </trkpt>
      <trkpt lat="48.80868" lon="2.03199">
        <ele>147</ele>
        <time>2016-12-03T10:34:53Z</time>
      </trkpt>
      <trkpt lat="48.80873" lon="2.03187">
        <ele>146.1</ele>
        <time>2016-12-03T10:34:57Z</time>
      </trkpt>
      <trkpt lat="48.80876" lon="2.03173">
        <ele>145.4</ele>
        <time>2016-12-03T10:35:00Z</time>
      </trkpt>
      <trkpt lat="48.8088" lon="2.03157">
        <ele>145.3</ele>
        <time>2016-12-03T10:35:03Z</time>
      </trkpt>
      <trkpt lat="48.80884" lon="2.03141">
        <ele>145.4</ele>
        <time>2016-12-03T10:35:06Z</time>
      </trkpt>
      <trkpt lat="48.80892" lon="2.03124">
        <ele>145</ele>
        <time>2016-12-03T10:35:09Z</time>
      </trkpt>
      <trkpt lat="48.80894" lon="2.03107">
        <ele>145.3</ele>
        <time>2016-12-03T10:35:12Z</time>
      </trkpt>
      <trkpt lat="48.80898" lon="2.03089">
        <ele>145.5</ele>
        <time>2016-12-03T10:35:15Z</time>
      </trkpt>
      <trkpt lat="48.80902" lon="2.03072">
        <ele>145.6</ele>
        <time>2016-12-03T10:35:18Z</time>
      </trkpt>
      <trkpt lat="48.80907" lon="2.03052">
        <ele>145.7</ele>
        <time>2016-12-03T10:35:21Z</time>
      </trkpt>
      <trkpt lat="48.8091" lon="2.03037">
        <ele>145.8</ele>
        <time>2016-12-03T10:35:23Z</time>
      </trkpt>
      <trkpt lat="48.80914" lon="2.03023">
        <ele>145.7</ele>
        <time>2016-12-03T10:35:25Z</time>
      </trkpt>
      <trkpt lat="48.80916" lon="2.03009">
        <ele>145.8</ele>
        <time>2016-12-03T10:35:27Z</time>
      </trkpt>
      <trkpt lat="48.80924" lon="2.02997">
        <ele>145.8</ele>
        <time>2016-12-03T10:35:31Z</time>
      </trkpt>
      <trkpt lat="48.80931" lon="2.02988">
        <ele>145.9</ele>
        <time>2016-12-03T10:35:43Z</time>
      </trkpt>
      <trkpt lat="48.80933" lon="2.02974">
        <ele>146.5</ele>
        <time>2016-12-03T10:35:51Z</time>
      </trkpt>
      <trkpt lat="48.80931" lon="2.02958">
        <ele>147.3</ele>
        <time>2016-12-03T10:35:58Z</time>
      </trkpt>
      <trkpt lat="48.80935" lon="2.02943">
        <ele>147.7</ele>
        <time>2016-12-03T10:36:03Z</time>
      </trkpt>
      <trkpt lat="48.80939" lon="2.02928">
        <ele>148.2</ele>
        <time>2016-12-03T10:36:07Z</time>
      </trkpt>
      <trkpt lat="48.80941" lon="2.02913">
        <ele>148.7</ele>
        <time>2016-12-03T10:36:10Z</time>
      </trkpt>
      <trkpt lat="48.80943" lon="2.02899">
        <ele>149.1</ele>
        <time>2016-12-03T10:36:13Z</time>
      </trkpt>
      <trkpt lat="48.80947" lon="2.02886">
        <ele>149.4</ele>
        <time>2016-12-03T10:36:16Z</time>
      </trkpt>
      <trkpt lat="48.80949" lon="2.02871">
        <ele>149.9</ele>
        <time>2016-12-03T10:36:19Z</time>
      </trkpt>
      <trkpt lat="48.80952" lon="2.02852">
        <ele>150.4</ele>
        <time>2016-12-03T10:36:22Z</time>
      </trkpt>
      <trkpt lat="48.80953" lon="2.02838">
        <ele>150.8</ele>
        <time>2016-12-03T10:36:25Z</time>
      </trkpt>
      <trkpt lat="48.80958" lon="2.02824">
        <ele>151.1</ele>
        <time>2016-12-03T10:36:29Z</time>
      </trkpt>
      <trkpt lat="48.80961" lon="2.02811">
        <ele>151.6</ele>
        <time>2016-12-03T10:36:32Z</time>
      </trkpt>
      <trkpt lat="48.80966" lon="2.02797">
        <ele>151.7</ele>
        <time>2016-12-03T10:36:36Z</time>
      </trkpt>
      <trkpt lat="48.80971" lon="2.02785">
        <ele>151.7</ele>
        <time>2016-12-03T10:36:40Z</time>
      </trkpt>
      <trkpt lat="48.80978" lon="2.02772">
        <ele>151.2</ele>
        <time>2016-12-03T10:36:46Z</time>
      </trkpt>
      <trkpt lat="48.80982" lon="2.0276">
        <ele>151</ele>
        <time>2016-12-03T10:36:49Z</time>
      </trkpt>
      <trkpt lat="48.80988" lon="2.02749">
        <ele>150.2</ele>
        <time>2016-12-03T10:36:53Z</time>
      </trkpt>
      <trkpt lat="48.80996" lon="2.0274">
        <ele>149.3</ele>
        <time>2016-12-03T10:36:57Z</time>
      </trkpt>
      <trkpt lat="48.81001" lon="2.02726">
        <ele>149.1</ele>
        <time>2016-12-03T10:37:01Z</time>
      </trkpt>
      <trkpt lat="48.81008" lon="2.02717">
        <ele>148.8</ele>
        <time>2016-12-03T10:37:09Z</time>
      </trkpt>
      <trkpt lat="48.81015" lon="2.02705">
        <ele>148.7</ele>
        <time>2016-12-03T10:37:16Z</time>
      </trkpt>
      <trkpt lat="48.81019" lon="2.02692">
        <ele>148.8</ele>
        <time>2016-12-03T10:37:19Z</time>
      </trkpt>
      <trkpt lat="48.81023" lon="2.0268">
        <ele>148.9</ele>
        <time>2016-12-03T10:37:22Z</time>
      </trkpt>
      <trkpt lat="48.81029" lon="2.02666">
        <ele>148.7</ele>
        <time>2016-12-03T10:37:25Z</time>
      </trkpt>
      <trkpt lat="48.81035" lon="2.02653">
        <ele>148.7</ele>
        <time>2016-12-03T10:37:28Z</time>
      </trkpt>
      <trkpt lat="48.81047" lon="2.02642">
        <ele>147.7</ele>
        <time>2016-12-03T10:37:31Z</time>
      </trkpt>
      <trkpt lat="48.81056" lon="2.02628">
        <ele>146.9</ele>
        <time>2016-12-03T10:37:34Z</time>
      </trkpt>
      <trkpt lat="48.81062" lon="2.02616">
        <ele>146.1</ele>
        <time>2016-12-03T10:37:37Z</time>
      </trkpt>
      <trkpt lat="48.81071" lon="2.02606">
        <ele>144.6</ele>
        <time>2016-12-03T10:37:41Z</time>
      </trkpt>
      <trkpt lat="48.81075" lon="2.02592">
        <ele>143.8</ele>
        <time>2016-12-03T10:37:45Z</time>
      </trkpt>
      <trkpt lat="48.81082" lon="2.0257">
        <ele>142.7</ele>
        <time>2016-12-03T10:37:51Z</time>
      </trkpt>
      <trkpt lat="48.81086" lon="2.02556">
        <ele>142.6</ele>
        <time>2016-12-03T10:37:56Z</time>
      </trkpt>
      <trkpt lat="48.81089" lon="2.02554">
        <ele>142.7</ele>
        <time>2016-12-03T10:38:04Z</time>
      </trkpt>
      <trkpt lat="48.81098" lon="2.02552">
        <ele>142.6</ele>
        <time>2016-12-03T10:38:15Z</time>
      </trkpt>
      <trkpt lat="48.81098" lon="2.02552">
        <ele>142.6</ele>
        <time>2016-12-03T10:38:18Z</time>
      </trkpt>
      <trkpt lat="48.81112" lon="2.02543">
        <ele>142.6</ele>
        <time>2016-12-03T10:39:37Z</time>
      </trkpt>
      <trkpt lat="48.81117" lon="2.0253">
        <ele>142.9</ele>
        <time>2016-12-03T10:39:41Z</time>
      </trkpt>
      <trkpt lat="48.81121" lon="2.02511">
        <ele>143.3</ele>
        <time>2016-12-03T10:39:45Z</time>
      </trkpt>
      <trkpt lat="48.8112" lon="2.02491">
        <ele>143.8</ele>
        <time>2016-12-03T10:39:49Z</time>
      </trkpt>
      <trkpt lat="48.81118" lon="2.02472">
        <ele>144.3</ele>
        <time>2016-12-03T10:39:52Z</time>
      </trkpt>
      <trkpt lat="48.81114" lon="2.02454">
        <ele>144.9</ele>
        <time>2016-12-03T10:39:55Z</time>
      </trkpt>
      <trkpt lat="48.81111" lon="2.02437">
        <ele>145.5</ele>
        <time>2016-12-03T10:39:58Z</time>
      </trkpt>
      <trkpt lat="48.81112" lon="2.0242">
        <ele>145.9</ele>
        <time>2016-12-03T10:40:02Z</time>
      </trkpt>
      <trkpt lat="48.81116" lon="2.02406">
        <ele>146</ele>
        <time>2016-12-03T10:40:07Z</time>
      </trkpt>
      <trkpt lat="48.81127" lon="2.02406">
        <ele>145.5</ele>
        <time>2016-12-03T10:40:14Z</time>
      </trkpt>
      <trkpt lat="48.81134" lon="2.02413">
        <ele>145.1</ele>
        <time>2016-12-03T10:40:17Z</time>
      </trkpt>
      <trkpt lat="48.81142" lon="2.02423">
        <ele>144.8</ele>
        <time>2016-12-03T10:40:20Z</time>
      </trkpt>
      <trkpt lat="48.81151" lon="2.02429">
        <ele>144.4</ele>
        <time>2016-12-03T10:40:23Z</time>
      </trkpt>
      <trkpt lat="48.81159" lon="2.02436">
        <ele>144</ele>
        <time>2016-12-03T10:40:32Z</time>
      </trkpt>
      <trkpt lat="48.8116" lon="2.02436">
        <ele>144</ele>
        <time>2016-12-03T10:40:36Z</time>
      </trkpt>
      <trkpt lat="48.81168" lon="2.02444">
        <ele>143.6</ele>
        <time>2016-12-03T10:40:50Z</time>
      </trkpt>
      <trkpt lat="48.81176" lon="2.02452">
        <ele>143.2</ele>
        <time>2016-12-03T10:41:02Z</time>
      </trkpt>
      <trkpt lat="48.81176" lon="2.02457">
        <ele>143.1</ele>
        <time>2016-12-03T10:41:11Z</time>
      </trkpt>
      <trkpt lat="48.81185" lon="2.02467">
        <ele>142.5</ele>
        <time>2016-12-03T10:42:33Z</time>
      </trkpt>
      <trkpt lat="48.81192" lon="2.02479">
        <ele>141.9</ele>
        <time>2016-12-03T10:42:37Z</time>
      </trkpt>
      <trkpt lat="48.812" lon="2.02496">
        <ele>141.1</ele>
        <time>2016-12-03T10:42:40Z</time>
      </trkpt>
      <trkpt lat="48.81206" lon="2.02509">
        <ele>140.4</ele>
        <time>2016-12-03T10:42:42Z</time>
      </trkpt>
      <trkpt lat="48.81215" lon="2.02519">
        <ele>139.6</ele>
        <time>2016-12-03T10:42:44Z</time>
      </trkpt>
      <trkpt lat="48.81223" lon="2.02527">
        <ele>138.8</ele>
        <time>2016-12-03T10:42:46Z</time>
      </trkpt>
      <trkpt lat="48.81233" lon="2.02536">
        <ele>137.8</ele>
        <time>2016-12-03T10:42:49Z</time>
      </trkpt>
      <trkpt lat="48.81243" lon="2.02547">
        <ele>136.8</ele>
        <time>2016-12-03T10:42:52Z</time>
      </trkpt>
      <trkpt lat="48.81254" lon="2.02559">
        <ele>135.8</ele>
        <time>2016-12-03T10:42:55Z</time>
      </trkpt>
      <trkpt lat="48.81263" lon="2.02571">
        <ele>135.3</ele>
        <time>2016-12-03T10:42:58Z</time>
      </trkpt>
      <trkpt lat="48.8127" lon="2.02581">
        <ele>134.8</ele>
        <time>2016-12-03T10:43:00Z</time>
      </trkpt>
      <trkpt lat="48.81279" lon="2.02594">
        <ele>134.9</ele>
        <time>2016-12-03T10:43:03Z</time>
      </trkpt>
      <trkpt lat="48.81287" lon="2.02606">
        <ele>135.2</ele>
        <time>2016-12-03T10:43:06Z</time>
      </trkpt>
      <trkpt lat="48.8129" lon="2.02619">
        <ele>135.6</ele>
        <time>2016-12-03T10:43:09Z</time>
      </trkpt>
      <trkpt lat="48.81288" lon="2.02637">
        <ele>136.1</ele>
        <time>2016-12-03T10:43:12Z</time>
      </trkpt>
      <trkpt lat="48.81287" lon="2.02652">
        <ele>136.6</ele>
        <time>2016-12-03T10:43:14Z</time>
      </trkpt>
      <trkpt lat="48.81285" lon="2.02668">
        <ele>137</ele>
        <time>2016-12-03T10:43:16Z</time>
      </trkpt>
      <trkpt lat="48.81284" lon="2.02684">
        <ele>137.4</ele>
        <time>2016-12-03T10:43:18Z</time>
      </trkpt>
      <trkpt lat="48.81283" lon="2.027">
        <ele>137.8</ele>
        <time>2016-12-03T10:43:20Z</time>
      </trkpt>
      <trkpt lat="48.81282" lon="2.02717">
        <ele>138.2</ele>
        <time>2016-12-03T10:43:22Z</time>
      </trkpt>
      <trkpt lat="48.81281" lon="2.02735">
        <ele>138.6</ele>
        <time>2016-12-03T10:43:24Z</time>
      </trkpt>
      <trkpt lat="48.81281" lon="2.02751">
        <ele>139</ele>
        <time>2016-12-03T10:43:26Z</time>
      </trkpt>
      <trkpt lat="48.81279" lon="2.02767">
        <ele>139.2</ele>
        <time>2016-12-03T10:43:28Z</time>
      </trkpt>
      <trkpt lat="48.81278" lon="2.02783">
        <ele>139.4</ele>
        <time>2016-12-03T10:43:30Z</time>
      </trkpt>
      <trkpt lat="48.81276" lon="2.028">
        <ele>139.6</ele>
        <time>2016-12-03T10:43:32Z</time>
      </trkpt>
      <trkpt lat="48.81275" lon="2.02817">
        <ele>139.8</ele>
        <time>2016-12-03T10:43:34Z</time>
      </trkpt>
      <trkpt lat="48.81273" lon="2.02834">
        <ele>140</ele>
        <time>2016-12-03T10:43:36Z</time>
      </trkpt>
      <trkpt lat="48.81272" lon="2.0285">
        <ele>139.6</ele>
        <time>2016-12-03T10:43:38Z</time>
      </trkpt>
      <trkpt lat="48.81271" lon="2.02867">
        <ele>139.2</ele>
        <time>2016-12-03T10:43:40Z</time>
      </trkpt>
      <trkpt lat="48.81269" lon="2.02884">
        <ele>138.8</ele>
        <time>2016-12-03T10:43:42Z</time>
      </trkpt>
      <trkpt lat="48.81268" lon="2.02901">
        <ele>138.4</ele>
        <time>2016-12-03T10:43:44Z</time>
      </trkpt>
      <trkpt lat="48.81267" lon="2.02918">
        <ele>138</ele>
        <time>2016-12-03T10:43:46Z</time>
      </trkpt>
      <trkpt lat="48.81265" lon="2.02934">
        <ele>137.9</ele>
        <time>2016-12-03T10:43:48Z</time>
      </trkpt>
      <trkpt lat="48.81264" lon="2.0295">
        <ele>137.8</ele>
        <time>2016-12-03T10:43:50Z</time>
      </trkpt>
      <trkpt lat="48.81262" lon="2.02965">
        <ele>137.7</ele>
        <time>2016-12-03T10:43:52Z</time>
      </trkpt>
      <trkpt lat="48.8126" lon="2.02981">
        <ele>137.7</ele>
        <time>2016-12-03T10:43:54Z</time>
      </trkpt>
      <trkpt lat="48.81258" lon="2.02998">
        <ele>137.7</ele>
        <time>2016-12-03T10:43:56Z</time>
      </trkpt>
      <trkpt lat="48.81256" lon="2.03016">
        <ele>137</ele>
        <time>2016-12-03T10:43:58Z</time>
      </trkpt>
      <trkpt lat="48.81254" lon="2.03034">
        <ele>136.2</ele>
        <time>2016-12-03T10:44:00Z</time>
      </trkpt>
      <trkpt lat="48.81251" lon="2.03052">
        <ele>135.4</ele>
        <time>2016-12-03T10:44:02Z</time>
      </trkpt>
      <trkpt lat="48.81249" lon="2.03071">
        <ele>134.6</ele>
        <time>2016-12-03T10:44:04Z</time>
      </trkpt>
      <trkpt lat="48.81247" lon="2.03089">
        <ele>133.8</ele>
        <time>2016-12-03T10:44:06Z</time>
      </trkpt>
      <trkpt lat="48.81244" lon="2.03107">
        <ele>133</ele>
        <time>2016-12-03T10:44:08Z</time>
      </trkpt>
      <trkpt lat="48.81243" lon="2.03121">
        <ele>132.4</ele>
        <time>2016-12-03T10:44:10Z</time>
      </trkpt>
      <trkpt lat="48.81249" lon="2.03134">
        <ele>131.6</ele>
        <time>2016-12-03T10:44:14Z</time>
      </trkpt>
      <trkpt lat="48.81259" lon="2.03127">
        <ele>131.6</ele>
        <time>2016-12-03T10:44:18Z</time>
      </trkpt>
      <trkpt lat="48.81269" lon="2.03119">
        <ele>131.5</ele>
        <time>2016-12-03T10:44:21Z</time>
      </trkpt>
      <trkpt lat="48.81279" lon="2.03109">
        <ele>131.4</ele>
        <time>2016-12-03T10:44:24Z</time>
      </trkpt>
      <trkpt lat="48.81291" lon="2.03103">
        <ele>131</ele>
        <time>2016-12-03T10:44:27Z</time>
      </trkpt>
      <trkpt lat="48.81303" lon="2.03094">
        <ele>130.6</ele>
        <time>2016-12-03T10:44:30Z</time>
      </trkpt>
      <trkpt lat="48.81312" lon="2.0309">
        <ele>130.1</ele>
        <time>2016-12-03T10:44:32Z</time>
      </trkpt>
      <trkpt lat="48.81325" lon="2.03086">
        <ele>129.5</ele>
        <time>2016-12-03T10:44:35Z</time>
      </trkpt>
      <trkpt lat="48.81334" lon="2.03082">
        <ele>129.1</ele>
        <time>2016-12-03T10:44:37Z</time>
      </trkpt>
      <trkpt lat="48.81347" lon="2.0308">
        <ele>128.5</ele>
        <time>2016-12-03T10:44:40Z</time>
      </trkpt>
      <trkpt lat="48.81356" lon="2.0308">
        <ele>127.9</ele>
        <time>2016-12-03T10:44:42Z</time>
      </trkpt>
      <trkpt lat="48.81368" lon="2.03074">
        <ele>127.7</ele>
        <time>2016-12-03T10:44:45Z</time>
      </trkpt>
      <trkpt lat="48.81381" lon="2.03071">
        <ele>127.1</ele>
        <time>2016-12-03T10:44:48Z</time>
      </trkpt>
      <trkpt lat="48.8139" lon="2.03065">
        <ele>127</ele>
        <time>2016-12-03T10:44:50Z</time>
      </trkpt>
      <trkpt lat="48.814" lon="2.03059">
        <ele>126.8</ele>
        <time>2016-12-03T10:44:52Z</time>
      </trkpt>
      <trkpt lat="48.8141" lon="2.03053">
        <ele>126.6</ele>
        <time>2016-12-03T10:44:54Z</time>
      </trkpt>
      <trkpt lat="48.81421" lon="2.03048">
        <ele>126.3</ele>
        <time>2016-12-03T10:44:56Z</time>
      </trkpt>
      <trkpt lat="48.81432" lon="2.03041">
        <ele>126.2</ele>
        <time>2016-12-03T10:44:58Z</time>
      </trkpt>
      <trkpt lat="48.81441" lon="2.03032">
        <ele>126.1</ele>
        <time>2016-12-03T10:45:00Z</time>
      </trkpt>
      <trkpt lat="48.81451" lon="2.03021">
        <ele>126</ele>
        <time>2016-12-03T10:45:02Z</time>
      </trkpt>
      <trkpt lat="48.8146" lon="2.0301">
        <ele>125.9</ele>
        <time>2016-12-03T10:45:04Z</time>
      </trkpt>
      <trkpt lat="48.81467" lon="2.02998">
        <ele>125.8</ele>
        <time>2016-12-03T10:45:06Z</time>
      </trkpt>
      <trkpt lat="48.81474" lon="2.02987">
        <ele>125.5</ele>
        <time>2016-12-03T10:45:08Z</time>
      </trkpt>
      <trkpt lat="48.81481" lon="2.02974">
        <ele>125.3</ele>
        <time>2016-12-03T10:45:10Z</time>
      </trkpt>
      <trkpt lat="48.81488" lon="2.02963">
        <ele>125</ele>
        <time>2016-12-03T10:45:12Z</time>
      </trkpt>
      <trkpt lat="48.81495" lon="2.02952">
        <ele>124.6</ele>
        <time>2016-12-03T10:45:14Z</time>
      </trkpt>
      <trkpt lat="48.81502" lon="2.02939">
        <ele>124.4</ele>
        <time>2016-12-03T10:45:16Z</time>
      </trkpt>
      <trkpt lat="48.81509" lon="2.02926">
        <ele>124.7</ele>
        <time>2016-12-03T10:45:18Z</time>
      </trkpt>
      <trkpt lat="48.81515" lon="2.02914">
        <ele>124.9</ele>
        <time>2016-12-03T10:45:20Z</time>
      </trkpt>
      <trkpt lat="48.8152" lon="2.02901">
        <ele>125.2</ele>
        <time>2016-12-03T10:45:22Z</time>
      </trkpt>
      <trkpt lat="48.81526" lon="2.02889">
        <ele>125.5</ele>
        <time>2016-12-03T10:45:24Z</time>
      </trkpt>
      <trkpt lat="48.81532" lon="2.02879">
        <ele>125.6</ele>
        <time>2016-12-03T10:45:26Z</time>
      </trkpt>
      <trkpt lat="48.81537" lon="2.02867">
        <ele>125.8</ele>
        <time>2016-12-03T10:45:28Z</time>
      </trkpt>
      <trkpt lat="48.81543" lon="2.02856">
        <ele>125.9</ele>
        <time>2016-12-03T10:45:30Z</time>
      </trkpt>
      <trkpt lat="48.81549" lon="2.02845">
        <ele>126</ele>
        <time>2016-12-03T10:45:32Z</time>
      </trkpt>
      <trkpt lat="48.81556" lon="2.02835">
        <ele>126</ele>
        <time>2016-12-03T10:45:34Z</time>
      </trkpt>
      <trkpt lat="48.81563" lon="2.02824">
        <ele>125.8</ele>
        <time>2016-12-03T10:45:36Z</time>
      </trkpt>
      <trkpt lat="48.8157" lon="2.02814">
        <ele>125.5</ele>
        <time>2016-12-03T10:45:38Z</time>
      </trkpt>
      <trkpt lat="48.81578" lon="2.02806">
        <ele>125.2</ele>
        <time>2016-12-03T10:45:40Z</time>
      </trkpt>
      <trkpt lat="48.81589" lon="2.02801">
        <ele>124.9</ele>
        <time>2016-12-03T10:45:43Z</time>
      </trkpt>
      <trkpt lat="48.81595" lon="2.02791">
        <ele>124.8</ele>
        <time>2016-12-03T10:45:54Z</time>
      </trkpt>
      <trkpt lat="48.81605" lon="2.02786">
        <ele>124.6</ele>
        <time>2016-12-03T10:46:05Z</time>
      </trkpt>
      <trkpt lat="48.81614" lon="2.02788">
        <ele>124.5</ele>
        <time>2016-12-03T10:46:09Z</time>
      </trkpt>
      <trkpt lat="48.8162" lon="2.02775">
        <ele>124.4</ele>
        <time>2016-12-03T10:46:17Z</time>
      </trkpt>
      <trkpt lat="48.81626" lon="2.02764">
        <ele>124.4</ele>
        <time>2016-12-03T10:46:20Z</time>
      </trkpt>
      <trkpt lat="48.81635" lon="2.02764">
        <ele>124.3</ele>
        <time>2016-12-03T10:46:24Z</time>
      </trkpt>
      <trkpt lat="48.81642" lon="2.02768">
        <ele>124.2</ele>
        <time>2016-12-03T10:46:31Z</time>
      </trkpt>
      <trkpt lat="48.81653" lon="2.02774">
        <ele>123.9</ele>
        <time>2016-12-03T10:47:46Z</time>
      </trkpt>
      <trkpt lat="48.81662" lon="2.02783">
        <ele>123.7</ele>
        <time>2016-12-03T10:47:50Z</time>
      </trkpt>
      <trkpt lat="48.81671" lon="2.02797">
        <ele>123.4</ele>
        <time>2016-12-03T10:47:54Z</time>
      </trkpt>
      <trkpt lat="48.81678" lon="2.02807">
        <ele>123.2</ele>
        <time>2016-12-03T10:47:57Z</time>
      </trkpt>
      <trkpt lat="48.81686" lon="2.02819">
        <ele>122.9</ele>
        <time>2016-12-03T10:48:00Z</time>
      </trkpt>
      <trkpt lat="48.81693" lon="2.02827">
        <ele>122.8</ele>
        <time>2016-12-03T10:48:02Z</time>
      </trkpt>
      <trkpt lat="48.81701" lon="2.02836">
        <ele>122.6</ele>
        <time>2016-12-03T10:48:04Z</time>
      </trkpt>
      <trkpt lat="48.81708" lon="2.02844">
        <ele>122.6</ele>
        <time>2016-12-03T10:48:06Z</time>
      </trkpt>
      <trkpt lat="48.81719" lon="2.02853">
        <ele>122.5</ele>
        <time>2016-12-03T10:48:09Z</time>
      </trkpt>
      <trkpt lat="48.81729" lon="2.02861">
        <ele>122.3</ele>
        <time>2016-12-03T10:48:12Z</time>
      </trkpt>
      <trkpt lat="48.81741" lon="2.02868">
        <ele>122.1</ele>
        <time>2016-12-03T10:48:15Z</time>
      </trkpt>
      <trkpt lat="48.8175" lon="2.02873">
        <ele>122</ele>
        <time>2016-12-03T10:48:17Z</time>
      </trkpt>
      <trkpt lat="48.81762" lon="2.02881">
        <ele>121.7</ele>
        <time>2016-12-03T10:48:20Z</time>
      </trkpt>
      <trkpt lat="48.81774" lon="2.02888">
        <ele>121.4</ele>
        <time>2016-12-03T10:48:23Z</time>
      </trkpt>
      <trkpt lat="48.81786" lon="2.02895">
        <ele>121.1</ele>
        <time>2016-12-03T10:48:26Z</time>
      </trkpt>
      <trkpt lat="48.81798" lon="2.02904">
        <ele>120.8</ele>
        <time>2016-12-03T10:48:29Z</time>
      </trkpt>
      <trkpt lat="48.81811" lon="2.02911">
        <ele>120.5</ele>
        <time>2016-12-03T10:48:32Z</time>
      </trkpt>
      <trkpt lat="48.81823" lon="2.02919">
        <ele>120.2</ele>
        <time>2016-12-03T10:48:35Z</time>
      </trkpt>
      <trkpt lat="48.81832" lon="2.02925">
        <ele>120</ele>
        <time>2016-12-03T10:48:37Z</time>
      </trkpt>
      <trkpt lat="48.8184" lon="2.0293">
        <ele>120</ele>
        <time>2016-12-03T10:48:39Z</time>
      </trkpt>
      <trkpt lat="48.81848" lon="2.02936">
        <ele>120</ele>
        <time>2016-12-03T10:48:41Z</time>
      </trkpt>
      <trkpt lat="48.81861" lon="2.02944">
        <ele>119.9</ele>
        <time>2016-12-03T10:48:44Z</time>
      </trkpt>
      <trkpt lat="48.81869" lon="2.02949">
        <ele>119.8</ele>
        <time>2016-12-03T10:48:46Z</time>
      </trkpt>
      <trkpt lat="48.81878" lon="2.02954">
        <ele>119.8</ele>
        <time>2016-12-03T10:48:48Z</time>
      </trkpt>
      <trkpt lat="48.81886" lon="2.0296">
        <ele>119.7</ele>
        <time>2016-12-03T10:48:50Z</time>
      </trkpt>
      <trkpt lat="48.81895" lon="2.02965">
        <ele>119.6</ele>
        <time>2016-12-03T10:48:52Z</time>
      </trkpt>
      <trkpt lat="48.81903" lon="2.02971">
        <ele>119.5</ele>
        <time>2016-12-03T10:48:54Z</time>
      </trkpt>
      <trkpt lat="48.81912" lon="2.02977">
        <ele>119.3</ele>
        <time>2016-12-03T10:48:56Z</time>
      </trkpt>
      <trkpt lat="48.81921" lon="2.02983">
        <ele>119.1</ele>
        <time>2016-12-03T10:48:58Z</time>
      </trkpt>
      <trkpt lat="48.8193" lon="2.02989">
        <ele>118.8</ele>
        <time>2016-12-03T10:49:00Z</time>
      </trkpt>
      <trkpt lat="48.81939" lon="2.02994">
        <ele>118.5</ele>
        <time>2016-12-03T10:49:02Z</time>
      </trkpt>
      <trkpt lat="48.81948" lon="2.03">
        <ele>118.3</ele>
        <time>2016-12-03T10:49:04Z</time>
      </trkpt>
      <trkpt lat="48.81956" lon="2.03006">
        <ele>117.9</ele>
        <time>2016-12-03T10:49:06Z</time>
      </trkpt>
      <trkpt lat="48.81965" lon="2.03012">
        <ele>117.5</ele>
        <time>2016-12-03T10:49:08Z</time>
      </trkpt>
      <trkpt lat="48.81973" lon="2.03017">
        <ele>117.2</ele>
        <time>2016-12-03T10:49:10Z</time>
      </trkpt>
      <trkpt lat="48.81982" lon="2.03023">
        <ele>116.8</ele>
        <time>2016-12-03T10:49:12Z</time>
      </trkpt>
      <trkpt lat="48.8199" lon="2.03028">
        <ele>116.5</ele>
        <time>2016-12-03T10:49:14Z</time>
      </trkpt>
      <trkpt lat="48.81999" lon="2.03034">
        <ele>116.2</ele>
        <time>2016-12-03T10:49:16Z</time>
      </trkpt>
      <trkpt lat="48.82007" lon="2.0304">
        <ele>116</ele>
        <time>2016-12-03T10:49:18Z</time>
      </trkpt>
      <trkpt lat="48.82015" lon="2.03046">
        <ele>115.7</ele>
        <time>2016-12-03T10:49:20Z</time>
      </trkpt>
      <trkpt lat="48.82024" lon="2.03052">
        <ele>115.5</ele>
        <time>2016-12-03T10:49:22Z</time>
      </trkpt>
      <trkpt lat="48.82032" lon="2.03057">
        <ele>115.3</ele>
        <time>2016-12-03T10:49:24Z</time>
      </trkpt>
      <trkpt lat="48.82041" lon="2.03063">
        <ele>115</ele>
        <time>2016-12-03T10:49:26Z</time>
      </trkpt>
      <trkpt lat="48.82049" lon="2.03069">
        <ele>114.8</ele>
        <time>2016-12-03T10:49:28Z</time>
      </trkpt>
      <trkpt lat="48.82057" lon="2.03074">
        <ele>114.5</ele>
        <time>2016-12-03T10:49:30Z</time>
      </trkpt>
      <trkpt lat="48.82066" lon="2.0308">
        <ele>114.3</ele>
        <time>2016-12-03T10:49:32Z</time>
      </trkpt>
      <trkpt lat="48.82074" lon="2.03085">
        <ele>114.1</ele>
        <time>2016-12-03T10:49:34Z</time>
      </trkpt>
      <trkpt lat="48.82087" lon="2.03093">
        <ele>113.8</ele>
        <time>2016-12-03T10:49:37Z</time>
      </trkpt>
      <trkpt lat="48.82098" lon="2.031">
        <ele>113.5</ele>
        <time>2016-12-03T10:49:40Z</time>
      </trkpt>
      <trkpt lat="48.82109" lon="2.03108">
        <ele>113.1</ele>
        <time>2016-12-03T10:49:43Z</time>
      </trkpt>
      <trkpt lat="48.82121" lon="2.03115">
        <ele>112.7</ele>
        <time>2016-12-03T10:49:46Z</time>
      </trkpt>
      <trkpt lat="48.82129" lon="2.0312">
        <ele>112.5</ele>
        <time>2016-12-03T10:49:48Z</time>
      </trkpt>
      <trkpt lat="48.82139" lon="2.03126">
        <ele>112.2</ele>
        <time>2016-12-03T10:49:50Z</time>
      </trkpt>
      <trkpt lat="48.82148" lon="2.03131">
        <ele>111.9</ele>
        <time>2016-12-03T10:49:52Z</time>
      </trkpt>
      <trkpt lat="48.82156" lon="2.03137">
        <ele>111.6</ele>
        <time>2016-12-03T10:49:54Z</time>
      </trkpt>
      <trkpt lat="48.82165" lon="2.03142">
        <ele>111.3</ele>
        <time>2016-12-03T10:49:56Z</time>
      </trkpt>
      <trkpt lat="48.82174" lon="2.03148">
        <ele>111.2</ele>
        <time>2016-12-03T10:49:58Z</time>
      </trkpt>
      <trkpt lat="48.82182" lon="2.03153">
        <ele>111.2</ele>
        <time>2016-12-03T10:50:00Z</time>
      </trkpt>
      <trkpt lat="48.8219" lon="2.03158">
        <ele>111.1</ele>
        <time>2016-12-03T10:50:02Z</time>
      </trkpt>
      <trkpt lat="48.82202" lon="2.03167">
        <ele>111</ele>
        <time>2016-12-03T10:50:05Z</time>
      </trkpt>
      <trkpt lat="48.82214" lon="2.03175">
        <ele>110.9</ele>
        <time>2016-12-03T10:50:08Z</time>
      </trkpt>
      <trkpt lat="48.82225" lon="2.03183">
        <ele>110.9</ele>
        <time>2016-12-03T10:50:11Z</time>
      </trkpt>
      <trkpt lat="48.82236" lon="2.03191">
        <ele>110.8</ele>
        <time>2016-12-03T10:50:14Z</time>
      </trkpt>
      <trkpt lat="48.82248" lon="2.032">
        <ele>110.6</ele>
        <time>2016-12-03T10:50:17Z</time>
      </trkpt>
      <trkpt lat="48.82259" lon="2.03209">
        <ele>110.4</ele>
        <time>2016-12-03T10:50:20Z</time>
      </trkpt>
      <trkpt lat="48.82267" lon="2.03217">
        <ele>110.3</ele>
        <time>2016-12-03T10:50:22Z</time>
      </trkpt>
      <trkpt lat="48.82275" lon="2.03225">
        <ele>110.2</ele>
        <time>2016-12-03T10:50:24Z</time>
      </trkpt>
      <trkpt lat="48.82286" lon="2.03235">
        <ele>110.1</ele>
        <time>2016-12-03T10:50:27Z</time>
      </trkpt>
      <trkpt lat="48.82295" lon="2.03246">
        <ele>110</ele>
        <time>2016-12-03T10:50:30Z</time>
      </trkpt>
      <trkpt lat="48.82302" lon="2.03254">
        <ele>110</ele>
        <time>2016-12-03T10:50:33Z</time>
      </trkpt>
      <trkpt lat="48.82309" lon="2.03265">
        <ele>109.9</ele>
        <time>2016-12-03T10:50:37Z</time>
      </trkpt>
      <trkpt lat="48.82313" lon="2.03278">
        <ele>109.7</ele>
        <time>2016-12-03T10:50:44Z</time>
      </trkpt>
      <trkpt lat="48.82321" lon="2.0329">
        <ele>109.6</ele>
        <time>2016-12-03T10:50:50Z</time>
      </trkpt>
      <trkpt lat="48.8233" lon="2.03296">
        <ele>109.5</ele>
        <time>2016-12-03T10:50:53Z</time>
      </trkpt>
      <trkpt lat="48.82341" lon="2.03302">
        <ele>109.3</ele>
        <time>2016-12-03T10:50:56Z</time>
      </trkpt>
      <trkpt lat="48.82352" lon="2.03309">
        <ele>109.1</ele>
        <time>2016-12-03T10:50:59Z</time>
      </trkpt>
      <trkpt lat="48.82364" lon="2.03316">
        <ele>108.9</ele>
        <time>2016-12-03T10:51:02Z</time>
      </trkpt>
      <trkpt lat="48.82376" lon="2.03323">
        <ele>108.7</ele>
        <time>2016-12-03T10:51:05Z</time>
      </trkpt>
      <trkpt lat="48.82388" lon="2.0333">
        <ele>108.4</ele>
        <time>2016-12-03T10:51:08Z</time>
      </trkpt>
      <trkpt lat="48.824" lon="2.03337">
        <ele>108.2</ele>
        <time>2016-12-03T10:51:11Z</time>
      </trkpt>
      <trkpt lat="48.82408" lon="2.03342">
        <ele>108</ele>
        <time>2016-12-03T10:51:13Z</time>
      </trkpt>
      <trkpt lat="48.82417" lon="2.03347">
        <ele>107.8</ele>
        <time>2016-12-03T10:51:15Z</time>
      </trkpt>
      <trkpt lat="48.82426" lon="2.03352">
        <ele>107.8</ele>
        <time>2016-12-03T10:51:17Z</time>
      </trkpt>
      <trkpt lat="48.82435" lon="2.03358">
        <ele>107.7</ele>
        <time>2016-12-03T10:51:19Z</time>
      </trkpt>
      <trkpt lat="48.82444" lon="2.03363">
        <ele>107.5</ele>
        <time>2016-12-03T10:51:21Z</time>
      </trkpt>
      <trkpt lat="48.82452" lon="2.03369">
        <ele>107.4</ele>
        <time>2016-12-03T10:51:23Z</time>
      </trkpt>
      <trkpt lat="48.82461" lon="2.03374">
        <ele>107.3</ele>
        <time>2016-12-03T10:51:25Z</time>
      </trkpt>
      <trkpt lat="48.8247" lon="2.0338">
        <ele>107.1</ele>
        <time>2016-12-03T10:51:27Z</time>
      </trkpt>
      <trkpt lat="48.82479" lon="2.03385">
        <ele>106.9</ele>
        <time>2016-12-03T10:51:29Z</time>
      </trkpt>
      <trkpt lat="48.82492" lon="2.03391">
        <ele>106.7</ele>
        <time>2016-12-03T10:51:32Z</time>
      </trkpt>
      <trkpt lat="48.825" lon="2.03397">
        <ele>106.5</ele>
        <time>2016-12-03T10:51:34Z</time>
      </trkpt>
      <trkpt lat="48.82512" lon="2.03406">
        <ele>106.2</ele>
        <time>2016-12-03T10:51:37Z</time>
      </trkpt>
      <trkpt lat="48.82521" lon="2.03418">
        <ele>106</ele>
        <time>2016-12-03T10:51:40Z</time>
      </trkpt>
      <trkpt lat="48.82531" lon="2.0343">
        <ele>106.1</ele>
        <time>2016-12-03T10:51:43Z</time>
      </trkpt>
      <trkpt lat="48.82542" lon="2.03442">
        <ele>106.1</ele>
        <time>2016-12-03T10:51:46Z</time>
      </trkpt>
      <trkpt lat="48.82553" lon="2.03453">
        <ele>106.3</ele>
        <time>2016-12-03T10:51:49Z</time>
      </trkpt>
      <trkpt lat="48.82564" lon="2.03464">
        <ele>106.4</ele>
        <time>2016-12-03T10:51:52Z</time>
      </trkpt>
      <trkpt lat="48.82571" lon="2.03472">
        <ele>106.6</ele>
        <time>2016-12-03T10:51:54Z</time>
      </trkpt>
      <trkpt lat="48.82579" lon="2.03481">
        <ele>106.7</ele>
        <time>2016-12-03T10:51:56Z</time>
      </trkpt>
      <trkpt lat="48.82586" lon="2.03489">
        <ele>107</ele>
        <time>2016-12-03T10:51:58Z</time>
      </trkpt>
      <trkpt lat="48.82595" lon="2.03501">
        <ele>107.5</ele>
        <time>2016-12-03T10:52:01Z</time>
      </trkpt>
      <trkpt lat="48.82604" lon="2.03515">
        <ele>108.1</ele>
        <time>2016-12-03T10:52:04Z</time>
      </trkpt>
      <trkpt lat="48.82614" lon="2.03529">
        <ele>108.7</ele>
        <time>2016-12-03T10:52:07Z</time>
      </trkpt>
      <trkpt lat="48.82622" lon="2.03542">
        <ele>109.2</ele>
        <time>2016-12-03T10:52:10Z</time>
      </trkpt>
      <trkpt lat="48.82629" lon="2.03554">
        <ele>109.5</ele>
        <time>2016-12-03T10:52:13Z</time>
      </trkpt>
      <trkpt lat="48.82636" lon="2.03564">
        <ele>109.7</ele>
        <time>2016-12-03T10:52:16Z</time>
      </trkpt>
      <trkpt lat="48.82642" lon="2.03574">
        <ele>109.9</ele>
        <time>2016-12-03T10:52:19Z</time>
      </trkpt>
      <trkpt lat="48.8265" lon="2.03587">
        <ele>110</ele>
        <time>2016-12-03T10:52:23Z</time>
      </trkpt>
      <trkpt lat="48.82658" lon="2.03598">
        <ele>110.2</ele>
        <time>2016-12-03T10:52:27Z</time>
      </trkpt>
      <trkpt lat="48.82666" lon="2.03609">
        <ele>110.3</ele>
        <time>2016-12-03T10:52:32Z</time>
      </trkpt>
      <trkpt lat="48.82665" lon="2.03625">
        <ele>110.5</ele>
        <time>2016-12-03T10:52:38Z</time>
      </trkpt>
      <trkpt lat="48.82661" lon="2.03639">
        <ele>110.6</ele>
        <time>2016-12-03T10:52:43Z</time>
      </trkpt>
      <trkpt lat="48.82658" lon="2.03654">
        <ele>110.8</ele>
        <time>2016-12-03T10:52:47Z</time>
      </trkpt>
      <trkpt lat="48.82654" lon="2.03667">
        <ele>110.9</ele>
        <time>2016-12-03T10:52:51Z</time>
      </trkpt>
      <trkpt lat="48.82651" lon="2.03681">
        <ele>110.8</ele>
        <time>2016-12-03T10:52:55Z</time>
      </trkpt>
      <trkpt lat="48.82647" lon="2.03696">
        <ele>110.8</ele>
        <time>2016-12-03T10:52:59Z</time>
      </trkpt>
      <trkpt lat="48.82646" lon="2.03699">
        <ele>110.8</ele>
        <time>2016-12-03T10:53:05Z</time>
      </trkpt>
      <trkpt lat="48.82642" lon="2.03712">
        <ele>110.9</ele>
        <time>2016-12-03T10:53:21Z</time>
      </trkpt>
      <trkpt lat="48.82639" lon="2.03727">
        <ele>110.9</ele>
        <time>2016-12-03T10:53:26Z</time>
      </trkpt>
      <trkpt lat="48.82635" lon="2.0374">
        <ele>111</ele>
        <time>2016-12-03T10:53:31Z</time>
      </trkpt>
      <trkpt lat="48.82631" lon="2.03756">
        <ele>111.1</ele>
        <time>2016-12-03T10:53:36Z</time>
      </trkpt>
      <trkpt lat="48.82627" lon="2.0377">
        <ele>111.3</ele>
        <time>2016-12-03T10:53:41Z</time>
      </trkpt>
      <trkpt lat="48.82624" lon="2.03785">
        <ele>111.4</ele>
        <time>2016-12-03T10:53:46Z</time>
      </trkpt>
      <trkpt lat="48.8262" lon="2.03798">
        <ele>111.5</ele>
        <time>2016-12-03T10:53:50Z</time>
      </trkpt>
      <trkpt lat="48.82617" lon="2.03812">
        <ele>111.6</ele>
        <time>2016-12-03T10:53:55Z</time>
      </trkpt>
      <trkpt lat="48.82612" lon="2.03828">
        <ele>111.6</ele>
        <time>2016-12-03T10:54:00Z</time>
      </trkpt>
      <trkpt lat="48.82608" lon="2.03844">
        <ele>111.7</ele>
        <time>2016-12-03T10:54:05Z</time>
      </trkpt>
      <trkpt lat="48.82605" lon="2.03857">
        <ele>111.7</ele>
        <time>2016-12-03T10:54:09Z</time>
      </trkpt>
      <trkpt lat="48.82601" lon="2.0387">
        <ele>111.8</ele>
        <time>2016-12-03T10:54:14Z</time>
      </trkpt>
      <trkpt lat="48.82597" lon="2.03886">
        <ele>111.9</ele>
        <time>2016-12-03T10:54:18Z</time>
      </trkpt>
      <trkpt lat="48.82593" lon="2.03899">
        <ele>111.9</ele>
        <time>2016-12-03T10:54:21Z</time>
      </trkpt>
      <trkpt lat="48.82591" lon="2.03912">
        <ele>112</ele>
        <time>2016-12-03T10:54:24Z</time>
      </trkpt>
      <trkpt lat="48.82587" lon="2.03927">
        <ele>112.1</ele>
        <time>2016-12-03T10:54:27Z</time>
      </trkpt>
      <trkpt lat="48.82583" lon="2.03942">
        <ele>112</ele>
        <time>2016-12-03T10:54:30Z</time>
      </trkpt>
      <trkpt lat="48.82579" lon="2.03957">
        <ele>111.9</ele>
        <time>2016-12-03T10:54:33Z</time>
      </trkpt>
      <trkpt lat="48.82575" lon="2.03973">
        <ele>111.8</ele>
        <time>2016-12-03T10:54:36Z</time>
      </trkpt>
      <trkpt lat="48.82571" lon="2.03987">
        <ele>111.7</ele>
        <time>2016-12-03T10:54:39Z</time>
      </trkpt>
      <trkpt lat="48.8257" lon="2.04001">
        <ele>111.7</ele>
        <time>2016-12-03T10:54:42Z</time>
      </trkpt>
      <trkpt lat="48.82578" lon="2.04011">
        <ele>111.9</ele>
        <time>2016-12-03T10:54:45Z</time>
      </trkpt>
      <trkpt lat="48.82588" lon="2.04019">
        <ele>112.1</ele>
        <time>2016-12-03T10:54:48Z</time>
      </trkpt>
      <trkpt lat="48.82597" lon="2.04027">
        <ele>112.3</ele>
        <time>2016-12-03T10:54:51Z</time>
      </trkpt>
      <trkpt lat="48.82608" lon="2.04033">
        <ele>112.6</ele>
        <time>2016-12-03T10:54:54Z</time>
      </trkpt>
      <trkpt lat="48.82618" lon="2.0404">
        <ele>112.8</ele>
        <time>2016-12-03T10:54:57Z</time>
      </trkpt>
      <trkpt lat="48.82628" lon="2.04046">
        <ele>113.1</ele>
        <time>2016-12-03T10:55:00Z</time>
      </trkpt>
      <trkpt lat="48.82639" lon="2.04053">
        <ele>113.3</ele>
        <time>2016-12-03T10:55:03Z</time>
      </trkpt>
      <trkpt lat="48.8265" lon="2.04059">
        <ele>113.6</ele>
        <time>2016-12-03T10:55:06Z</time>
      </trkpt>
      <trkpt lat="48.82661" lon="2.04066">
        <ele>113.9</ele>
        <time>2016-12-03T10:55:09Z</time>
      </trkpt>
      <trkpt lat="48.82672" lon="2.04073">
        <ele>114</ele>
        <time>2016-12-03T10:55:12Z</time>
      </trkpt>
      <trkpt lat="48.82683" lon="2.0408">
        <ele>114</ele>
        <time>2016-12-03T10:55:15Z</time>
      </trkpt>
      <trkpt lat="48.82694" lon="2.04086">
        <ele>113.9</ele>
        <time>2016-12-03T10:55:18Z</time>
      </trkpt>
      <trkpt lat="48.82704" lon="2.04093">
        <ele>113.8</ele>
        <time>2016-12-03T10:55:21Z</time>
      </trkpt>
      <trkpt lat="48.82715" lon="2.041">
        <ele>113.7</ele>
        <time>2016-12-03T10:55:24Z</time>
      </trkpt>
      <trkpt lat="48.82726" lon="2.04106">
        <ele>113.7</ele>
        <time>2016-12-03T10:55:27Z</time>
      </trkpt>
      <trkpt lat="48.82736" lon="2.04113">
        <ele>113.6</ele>
        <time>2016-12-03T10:55:30Z</time>
      </trkpt>
      <trkpt lat="48.82747" lon="2.04119">
        <ele>113.6</ele>
        <time>2016-12-03T10:55:33Z</time>
      </trkpt>
      <trkpt lat="48.82757" lon="2.04126">
        <ele>113.6</ele>
        <time>2016-12-03T10:55:36Z</time>
      </trkpt>
      <trkpt lat="48.82767" lon="2.04132">
        <ele>113.8</ele>
        <time>2016-12-03T10:55:39Z</time>
      </trkpt>
      <trkpt lat="48.82778" lon="2.04138">
        <ele>113.9</ele>
        <time>2016-12-03T10:55:42Z</time>
      </trkpt>
      <trkpt lat="48.82788" lon="2.04144">
        <ele>114.1</ele>
        <time>2016-12-03T10:55:45Z</time>
      </trkpt>
      <trkpt lat="48.82799" lon="2.04151">
        <ele>114.3</ele>
        <time>2016-12-03T10:55:48Z</time>
      </trkpt>
      <trkpt lat="48.82809" lon="2.04157">
        <ele>114.5</ele>
        <time>2016-12-03T10:55:51Z</time>
      </trkpt>
      <trkpt lat="48.8282" lon="2.04164">
        <ele>114.7</ele>
        <time>2016-12-03T10:55:54Z</time>
      </trkpt>
      <trkpt lat="48.8283" lon="2.0417">
        <ele>114.9</ele>
        <time>2016-12-03T10:55:57Z</time>
      </trkpt>
      <trkpt lat="48.82841" lon="2.04177">
        <ele>115</ele>
        <time>2016-12-03T10:56:00Z</time>
      </trkpt>
      <trkpt lat="48.82851" lon="2.04183">
        <ele>115</ele>
        <time>2016-12-03T10:56:03Z</time>
      </trkpt>
      <trkpt lat="48.82861" lon="2.04189">
        <ele>115.1</ele>
        <time>2016-12-03T10:56:06Z</time>
      </trkpt>
      <trkpt lat="48.82872" lon="2.04195">
        <ele>115.1</ele>
        <time>2016-12-03T10:56:09Z</time>
      </trkpt>
      <trkpt lat="48.82883" lon="2.04199">
        <ele>115.2</ele>
        <time>2016-12-03T10:56:12Z</time>
      </trkpt>
      <trkpt lat="48.82894" lon="2.04198">
        <ele>115.4</ele>
        <time>2016-12-03T10:56:15Z</time>
      </trkpt>
      <trkpt lat="48.82904" lon="2.04194">
        <ele>115.5</ele>
        <time>2016-12-03T10:56:18Z</time>
      </trkpt>
      <trkpt lat="48.82914" lon="2.04192">
        <ele>115.7</ele>
        <time>2016-12-03T10:56:21Z</time>
      </trkpt>
      <trkpt lat="48.82923" lon="2.04196">
        <ele>115.5</ele>
        <time>2016-12-03T10:56:24Z</time>
      </trkpt>
      <trkpt lat="48.82933" lon="2.04205">
        <ele>115.2</ele>
        <time>2016-12-03T10:56:27Z</time>
      </trkpt>
      <trkpt lat="48.82942" lon="2.04213">
        <ele>114.8</ele>
        <time>2016-12-03T10:56:30Z</time>
      </trkpt>
      <trkpt lat="48.82952" lon="2.04221">
        <ele>114.5</ele>
        <time>2016-12-03T10:56:33Z</time>
      </trkpt>
      <trkpt lat="48.82962" lon="2.04228">
        <ele>114.2</ele>
        <time>2016-12-03T10:56:36Z</time>
      </trkpt>
      <trkpt lat="48.82972" lon="2.04235">
        <ele>113.9</ele>
        <time>2016-12-03T10:56:39Z</time>
      </trkpt>
      <trkpt lat="48.82981" lon="2.04239">
        <ele>113.6</ele>
        <time>2016-12-03T10:56:42Z</time>
      </trkpt>
      <trkpt lat="48.82991" lon="2.04247">
        <ele>113.3</ele>
        <time>2016-12-03T10:56:46Z</time>
      </trkpt>
      <trkpt lat="48.83002" lon="2.04251">
        <ele>112.9</ele>
        <time>2016-12-03T10:56:49Z</time>
      </trkpt>
      <trkpt lat="48.83012" lon="2.04256">
        <ele>112.5</ele>
        <time>2016-12-03T10:56:52Z</time>
      </trkpt>
      <trkpt lat="48.83023" lon="2.0426">
        <ele>112</ele>
        <time>2016-12-03T10:56:55Z</time>
      </trkpt>
      <trkpt lat="48.83035" lon="2.04264">
        <ele>111.5</ele>
        <time>2016-12-03T10:56:58Z</time>
      </trkpt>
      <trkpt lat="48.83044" lon="2.04268">
        <ele>111.1</ele>
        <time>2016-12-03T10:57:00Z</time>
      </trkpt>
      <trkpt lat="48.83054" lon="2.04271">
        <ele>110.7</ele>
        <time>2016-12-03T10:57:02Z</time>
      </trkpt>
      <trkpt lat="48.83064" lon="2.04274">
        <ele>110.2</ele>
        <time>2016-12-03T10:57:04Z</time>
      </trkpt>
      <trkpt lat="48.83075" lon="2.04278">
        <ele>109.7</ele>
        <time>2016-12-03T10:57:06Z</time>
      </trkpt>
      <trkpt lat="48.83086" lon="2.04281">
        <ele>109</ele>
        <time>2016-12-03T10:57:08Z</time>
      </trkpt>
      <trkpt lat="48.83097" lon="2.04284">
        <ele>108.1</ele>
        <time>2016-12-03T10:57:10Z</time>
      </trkpt>
      <trkpt lat="48.83109" lon="2.04288">
        <ele>107.1</ele>
        <time>2016-12-03T10:57:12Z</time>
      </trkpt>
      <trkpt lat="48.83121" lon="2.04291">
        <ele>106.1</ele>
        <time>2016-12-03T10:57:14Z</time>
      </trkpt>
      <trkpt lat="48.83133" lon="2.04293">
        <ele>105.1</ele>
        <time>2016-12-03T10:57:16Z</time>
      </trkpt>
      <trkpt lat="48.83146" lon="2.04296">
        <ele>104</ele>
        <time>2016-12-03T10:57:18Z</time>
      </trkpt>
      <trkpt lat="48.83159" lon="2.04299">
        <ele>102.9</ele>
        <time>2016-12-03T10:57:20Z</time>
      </trkpt>
      <trkpt lat="48.83172" lon="2.043">
        <ele>101.7</ele>
        <time>2016-12-03T10:57:22Z</time>
      </trkpt>
      <trkpt lat="48.83187" lon="2.04299">
        <ele>100.5</ele>
        <time>2016-12-03T10:57:24Z</time>
      </trkpt>
      <trkpt lat="48.83203" lon="2.04293">
        <ele>99.2</ele>
        <time>2016-12-03T10:57:26Z</time>
      </trkpt>
      <trkpt lat="48.83219" lon="2.04286">
        <ele>97.8</ele>
        <time>2016-12-03T10:57:28Z</time>
      </trkpt>
      <trkpt lat="48.83227" lon="2.04282">
        <ele>97</ele>
        <time>2016-12-03T10:57:29Z</time>
      </trkpt>
      <trkpt lat="48.83244" lon="2.04276">
        <ele>95.2</ele>
        <time>2016-12-03T10:57:31Z</time>
      </trkpt>
      <trkpt lat="48.83262" lon="2.04275">
        <ele>94.7</ele>
        <time>2016-12-03T10:57:33Z</time>
      </trkpt>
      <trkpt lat="48.83279" lon="2.04279">
        <ele>95</ele>
        <time>2016-12-03T10:57:35Z</time>
      </trkpt>
      <trkpt lat="48.83295" lon="2.04284">
        <ele>95.5</ele>
        <time>2016-12-03T10:57:37Z</time>
      </trkpt>
      <trkpt lat="48.83309" lon="2.04291">
        <ele>96</ele>
        <time>2016-12-03T10:57:39Z</time>
      </trkpt>
      <trkpt lat="48.83319" lon="2.043">
        <ele>96.6</ele>
        <time>2016-12-03T10:57:41Z</time>
      </trkpt>
      <trkpt lat="48.83328" lon="2.04309">
        <ele>97.4</ele>
        <time>2016-12-03T10:57:44Z</time>
      </trkpt>
      <trkpt lat="48.8333" lon="2.04314">
        <ele>97.7</ele>
        <time>2016-12-03T10:57:51Z</time>
      </trkpt>
      <trkpt lat="48.83332" lon="2.04314">
        <ele>97.8</ele>
        <time>2016-12-03T10:57:56Z</time>
      </trkpt>
      <trkpt lat="48.8334" lon="2.0432">
        <ele>98.9</ele>
        <time>2016-12-03T10:59:29Z</time>
      </trkpt>
      <trkpt lat="48.83348" lon="2.04328">
        <ele>100.3</ele>
        <time>2016-12-03T10:59:33Z</time>
      </trkpt>
      <trkpt lat="48.83355" lon="2.0434">
        <ele>101.5</ele>
        <time>2016-12-03T10:59:37Z</time>
      </trkpt>
      <trkpt lat="48.83359" lon="2.04354">
        <ele>102.3</ele>
        <time>2016-12-03T10:59:42Z</time>
      </trkpt>
      <trkpt lat="48.83359" lon="2.04365">
        <ele>102.5</ele>
        <time>2016-12-03T10:59:53Z</time>
      </trkpt>
      <trkpt lat="48.83361" lon="2.04367">
        <ele>102.7</ele>
        <time>2016-12-03T10:59:55Z</time>
      </trkpt>
      <trkpt lat="48.83363" lon="2.04352">
        <ele>102.6</ele>
        <time>2016-12-03T11:00:02Z</time>
      </trkpt>
      <trkpt lat="48.83368" lon="2.0435">
        <ele>103.2</ele>
        <time>2016-12-03T11:00:06Z</time>
      </trkpt>
      <trkpt lat="48.83375" lon="2.04354">
        <ele>104</ele>
        <time>2016-12-03T11:00:11Z</time>
      </trkpt>
      <trkpt lat="48.83385" lon="2.04358">
        <ele>105.2</ele>
        <time>2016-12-03T11:00:18Z</time>
      </trkpt>
      <trkpt lat="48.8339" lon="2.04361">
        <ele>105.8</ele>
        <time>2016-12-03T11:00:22Z</time>
      </trkpt>
      <trkpt lat="48.83396" lon="2.04365">
        <ele>106.5</ele>
        <time>2016-12-03T11:00:26Z</time>
      </trkpt>
      <trkpt lat="48.83402" lon="2.04369">
        <ele>107.2</ele>
        <time>2016-12-03T11:00:31Z</time>
      </trkpt>
      <trkpt lat="48.83408" lon="2.04373">
        <ele>108</ele>
        <time>2016-12-03T11:00:36Z</time>
      </trkpt>
      <trkpt lat="48.83413" lon="2.04378">
        <ele>108.7</ele>
        <time>2016-12-03T11:00:40Z</time>
      </trkpt>
      <trkpt lat="48.83423" lon="2.04382">
        <ele>109.6</ele>
        <time>2016-12-03T11:00:47Z</time>
      </trkpt>
      <trkpt lat="48.83428" lon="2.04387">
        <ele>110</ele>
        <time>2016-12-03T11:00:51Z</time>
      </trkpt>
      <trkpt lat="48.83432" lon="2.0439">
        <ele>110.3</ele>
        <time>2016-12-03T11:00:55Z</time>
      </trkpt>
      <trkpt lat="48.83437" lon="2.04392">
        <ele>110.7</ele>
        <time>2016-12-03T11:00:58Z</time>
      </trkpt>
      <trkpt lat="48.83441" lon="2.04394">
        <ele>111</ele>
        <time>2016-12-03T11:01:01Z</time>
      </trkpt>
      <trkpt lat="48.83441" lon="2.04404">
        <ele>111.2</ele>
        <time>2016-12-03T11:01:06Z</time>
      </trkpt>
      <trkpt lat="48.83441" lon="2.04417">
        <ele>111.4</ele>
        <time>2016-12-03T11:01:12Z</time>
      </trkpt>
      <trkpt lat="48.83443" lon="2.04432">
        <ele>111.5</ele>
        <time>2016-12-03T11:01:20Z</time>
      </trkpt>
      <trkpt lat="48.83446" lon="2.04447">
        <ele>111.6</ele>
        <time>2016-12-03T11:01:27Z</time>
      </trkpt>
      <trkpt lat="48.83452" lon="2.04458">
        <ele>111.9</ele>
        <time>2016-12-03T11:01:33Z</time>
      </trkpt>
      <trkpt lat="48.83457" lon="2.04471">
        <ele>112.1</ele>
        <time>2016-12-03T11:01:40Z</time>
      </trkpt>
      <trkpt lat="48.83461" lon="2.04484">
        <ele>112.2</ele>
        <time>2016-12-03T11:01:47Z</time>
      </trkpt>
      <trkpt lat="48.83465" lon="2.04501">
        <ele>112.3</ele>
        <time>2016-12-03T11:01:55Z</time>
      </trkpt>
      <trkpt lat="48.83469" lon="2.04515">
        <ele>112.5</ele>
        <time>2016-12-03T11:02:03Z</time>
      </trkpt>
      <trkpt lat="48.83472" lon="2.04528">
        <ele>112.6</ele>
        <time>2016-12-03T11:02:09Z</time>
      </trkpt>
      <trkpt lat="48.83475" lon="2.04541">
        <ele>112.8</ele>
        <time>2016-12-03T11:02:15Z</time>
      </trkpt>
      <trkpt lat="48.83478" lon="2.04552">
        <ele>113</ele>
        <time>2016-12-03T11:02:21Z</time>
      </trkpt>
      <trkpt lat="48.83479" lon="2.04545">
        <ele>113</ele>
        <time>2016-12-03T11:02:24Z</time>
      </trkpt>
      <trkpt lat="48.8348" lon="2.04535">
        <ele>113</ele>
        <time>2016-12-03T11:02:29Z</time>
      </trkpt>
      <trkpt lat="48.83479" lon="2.04518">
        <ele>113</ele>
        <time>2016-12-03T11:02:37Z</time>
      </trkpt>
      <trkpt lat="48.83479" lon="2.04501">
        <ele>113</ele>
        <time>2016-12-03T11:02:45Z</time>
      </trkpt>
      <trkpt lat="48.83482" lon="2.04485">
        <ele>113.3</ele>
        <time>2016-12-03T11:02:52Z</time>
      </trkpt>
      <trkpt lat="48.83484" lon="2.04469">
        <ele>113.5</ele>
        <time>2016-12-03T11:03:00Z</time>
      </trkpt>
      <trkpt lat="48.83487" lon="2.04453">
        <ele>113.9</ele>
        <time>2016-12-03T11:03:08Z</time>
      </trkpt>
      <trkpt lat="48.83492" lon="2.04438">
        <ele>114.3</ele>
        <time>2016-12-03T11:03:15Z</time>
      </trkpt>
      <trkpt lat="48.83498" lon="2.04424">
        <ele>114.8</ele>
        <time>2016-12-03T11:03:23Z</time>
      </trkpt>
      <trkpt lat="48.83505" lon="2.04411">
        <ele>115</ele>
        <time>2016-12-03T11:03:31Z</time>
      </trkpt>
      <trkpt lat="48.83512" lon="2.04398">
        <ele>115</ele>
        <time>2016-12-03T11:03:39Z</time>
      </trkpt>
      <trkpt lat="48.83518" lon="2.04386">
        <ele>115.1</ele>
        <time>2016-12-03T11:03:46Z</time>
      </trkpt>
      <trkpt lat="48.83525" lon="2.04378">
        <ele>115.1</ele>
        <time>2016-12-03T11:03:52Z</time>
      </trkpt>
      <trkpt lat="48.83532" lon="2.04372">
        <ele>115.2</ele>
        <time>2016-12-03T11:03:58Z</time>
      </trkpt>
      <trkpt lat="48.83536" lon="2.0437">
        <ele>115.3</ele>
        <time>2016-12-03T11:04:01Z</time>
      </trkpt>
      <trkpt lat="48.83545" lon="2.04367">
        <ele>115.5</ele>
        <time>2016-12-03T11:04:07Z</time>
      </trkpt>
      <trkpt lat="48.83557" lon="2.04364">
        <ele>115.7</ele>
        <time>2016-12-03T11:04:16Z</time>
      </trkpt>
      <trkpt lat="48.83568" lon="2.04361">
        <ele>116</ele>
        <time>2016-12-03T11:04:24Z</time>
      </trkpt>
      <trkpt lat="48.83578" lon="2.04359">
        <ele>116.2</ele>
        <time>2016-12-03T11:04:31Z</time>
      </trkpt>
      <trkpt lat="48.83588" lon="2.04357">
        <ele>116.4</ele>
        <time>2016-12-03T11:04:38Z</time>
      </trkpt>
      <trkpt lat="48.83598" lon="2.04355">
        <ele>116.5</ele>
        <time>2016-12-03T11:04:45Z</time>
      </trkpt>
      <trkpt lat="48.83605" lon="2.04354">
        <ele>116.6</ele>
        <time>2016-12-03T11:04:50Z</time>
      </trkpt>
      <trkpt lat="48.83614" lon="2.04355">
        <ele>116.8</ele>
        <time>2016-12-03T11:04:57Z</time>
      </trkpt>
      <trkpt lat="48.83627" lon="2.04357">
        <ele>117</ele>
        <time>2016-12-03T11:05:06Z</time>
      </trkpt>
      <trkpt lat="48.83638" lon="2.04359">
        <ele>117.2</ele>
        <time>2016-12-03T11:05:14Z</time>
      </trkpt>
      <trkpt lat="48.83648" lon="2.04361">
        <ele>117.4</ele>
        <time>2016-12-03T11:05:21Z</time>
      </trkpt>
      <trkpt lat="48.83658" lon="2.0436">
        <ele>117.5</ele>
        <time>2016-12-03T11:05:28Z</time>
      </trkpt>
      <trkpt lat="48.83668" lon="2.0436">
        <ele>117.7</ele>
        <time>2016-12-03T11:05:35Z</time>
      </trkpt>
      <trkpt lat="48.83679" lon="2.0436">
        <ele>117.8</ele>
        <time>2016-12-03T11:05:42Z</time>
      </trkpt>
      <trkpt lat="48.83687" lon="2.04361">
        <ele>117.8</ele>
        <time>2016-12-03T11:05:48Z</time>
      </trkpt>
      <trkpt lat="48.83695" lon="2.04364">
        <ele>117.9</ele>
        <time>2016-12-03T11:05:54Z</time>
      </trkpt>
      <trkpt lat="48.83703" lon="2.04367">
        <ele>118</ele>
        <time>2016-12-03T11:06:00Z</time>
      </trkpt>
      <trkpt lat="48.83711" lon="2.0437">
        <ele>118</ele>
        <time>2016-12-03T11:06:06Z</time>
      </trkpt>
      <trkpt lat="48.83718" lon="2.04373">
        <ele>118.1</ele>
        <time>2016-12-03T11:06:11Z</time>
      </trkpt>
      <trkpt lat="48.83726" lon="2.04383">
        <ele>118.2</ele>
        <time>2016-12-03T11:06:18Z</time>
      </trkpt>
      <trkpt lat="48.83735" lon="2.04395">
        <ele>118.5</ele>
        <time>2016-12-03T11:06:27Z</time>
      </trkpt>
      <trkpt lat="48.83748" lon="2.04408">
        <ele>118.9</ele>
        <time>2016-12-03T11:06:38Z</time>
      </trkpt>
      <trkpt lat="48.83761" lon="2.04421">
        <ele>119.3</ele>
        <time>2016-12-03T11:06:49Z</time>
      </trkpt>
      <trkpt lat="48.83773" lon="2.04435">
        <ele>119.8</ele>
        <time>2016-12-03T11:07:00Z</time>
      </trkpt>
      <trkpt lat="48.83786" lon="2.04448">
        <ele>120.2</ele>
        <time>2016-12-03T11:07:10Z</time>
      </trkpt>
      <trkpt lat="48.83798" lon="2.04462">
        <ele>120.7</ele>
        <time>2016-12-03T11:07:21Z</time>
      </trkpt>
      <trkpt lat="48.83811" lon="2.04475">
        <ele>121.1</ele>
        <time>2016-12-03T11:07:32Z</time>
      </trkpt>
      <trkpt lat="48.83823" lon="2.04489">
        <ele>121.6</ele>
        <time>2016-12-03T11:07:43Z</time>
      </trkpt>
      <trkpt lat="48.83836" lon="2.04502">
        <ele>122</ele>
        <time>2016-12-03T11:07:54Z</time>
      </trkpt>
      <trkpt lat="48.83849" lon="2.04516">
        <ele>122</ele>
        <time>2016-12-03T11:08:05Z</time>
      </trkpt>
      <trkpt lat="48.83862" lon="2.04528">
        <ele>122</ele>
        <time>2016-12-03T11:08:16Z</time>
      </trkpt>
      <trkpt lat="48.83874" lon="2.0454">
        <ele>122</ele>
        <time>2016-12-03T11:08:26Z</time>
      </trkpt>
      <trkpt lat="48.83885" lon="2.04552">
        <ele>122</ele>
        <time>2016-12-03T11:08:36Z</time>
      </trkpt>
      <trkpt lat="48.83894" lon="2.04561">
        <ele>122</ele>
        <time>2016-12-03T11:08:43Z</time>
      </trkpt>
      <trkpt lat="48.839" lon="2.04566">
        <ele>122</ele>
        <time>2016-12-03T11:08:48Z</time>
      </trkpt>
      <trkpt lat="48.83909" lon="2.04563">
        <ele>121.8</ele>
        <time>2016-12-03T11:08:55Z</time>
      </trkpt>
      <trkpt lat="48.83917" lon="2.0455">
        <ele>121.6</ele>
        <time>2016-12-03T11:09:03Z</time>
      </trkpt>
      <trkpt lat="48.83926" lon="2.04535">
        <ele>121.5</ele>
        <time>2016-12-03T11:09:12Z</time>
      </trkpt>
      <trkpt lat="48.83934" lon="2.04522">
        <ele>121.4</ele>
        <time>2016-12-03T11:09:21Z</time>
      </trkpt>
      <trkpt lat="48.83942" lon="2.04509">
        <ele>121.4</ele>
        <time>2016-12-03T11:09:29Z</time>
      </trkpt>
      <trkpt lat="48.83949" lon="2.04497">
        <ele>121.3</ele>
        <time>2016-12-03T11:09:37Z</time>
      </trkpt>
      <trkpt lat="48.83957" lon="2.04484">
        <ele>121.2</ele>
        <time>2016-12-03T11:09:45Z</time>
      </trkpt>
      <trkpt lat="48.83965" lon="2.04471">
        <ele>121</ele>
        <time>2016-12-03T11:09:53Z</time>
      </trkpt>
      <trkpt lat="48.83972" lon="2.04457">
        <ele>120.8</ele>
        <time>2016-12-03T11:10:01Z</time>
      </trkpt>
      <trkpt lat="48.8398" lon="2.04444">
        <ele>120.6</ele>
        <time>2016-12-03T11:10:10Z</time>
      </trkpt>
      <trkpt lat="48.83988" lon="2.0443">
        <ele>120.3</ele>
        <time>2016-12-03T11:10:18Z</time>
      </trkpt>
      <trkpt lat="48.83996" lon="2.04417">
        <ele>120</ele>
        <time>2016-12-03T11:10:27Z</time>
      </trkpt>
      <trkpt lat="48.84004" lon="2.04402">
        <ele>119.8</ele>
        <time>2016-12-03T11:10:35Z</time>
      </trkpt>
      <trkpt lat="48.84012" lon="2.04387">
        <ele>119.6</ele>
        <time>2016-12-03T11:10:44Z</time>
      </trkpt>
      <trkpt lat="48.8402" lon="2.04372">
        <ele>119.5</ele>
        <time>2016-12-03T11:10:53Z</time>
      </trkpt>
      <trkpt lat="48.84029" lon="2.04357">
        <ele>119.3</ele>
        <time>2016-12-03T11:11:03Z</time>
      </trkpt>
      <trkpt lat="48.84038" lon="2.04342">
        <ele>119.1</ele>
        <time>2016-12-03T11:11:12Z</time>
      </trkpt>
      <trkpt lat="48.84047" lon="2.04326">
        <ele>119</ele>
        <time>2016-12-03T11:11:22Z</time>
      </trkpt>
      <trkpt lat="48.84056" lon="2.04309">
        <ele>118.9</ele>
        <time>2016-12-03T11:11:32Z</time>
      </trkpt>
      <trkpt lat="48.84063" lon="2.04295">
        <ele>118.9</ele>
        <time>2016-12-03T11:11:40Z</time>
      </trkpt>
      <trkpt lat="48.8407" lon="2.04282">
        <ele>118.9</ele>
        <time>2016-12-03T11:11:48Z</time>
      </trkpt>
      <trkpt lat="48.84077" lon="2.04268">
        <ele>118.9</ele>
        <time>2016-12-03T11:11:56Z</time>
      </trkpt>
      <trkpt lat="48.84085" lon="2.04255">
        <ele>119</ele>
        <time>2016-12-03T11:12:05Z</time>
      </trkpt>
      <trkpt lat="48.84093" lon="2.04241">
        <ele>118.7</ele>
        <time>2016-12-03T11:12:14Z</time>
      </trkpt>
      <trkpt lat="48.84099" lon="2.04229">
        <ele>118.3</ele>
        <time>2016-12-03T11:12:20Z</time>
      </trkpt>
      <trkpt lat="48.84108" lon="2.04219">
        <ele>117.8</ele>
        <time>2016-12-03T11:12:28Z</time>
      </trkpt>
      <trkpt lat="48.84118" lon="2.04214">
        <ele>117.4</ele>
        <time>2016-12-03T11:12:36Z</time>
      </trkpt>
      <trkpt lat="48.84129" lon="2.04212">
        <ele>117</ele>
        <time>2016-12-03T11:12:43Z</time>
      </trkpt>
      <trkpt lat="48.84137" lon="2.04209">
        <ele>116.7</ele>
        <time>2016-12-03T11:12:49Z</time>
      </trkpt>
      <trkpt lat="48.84146" lon="2.04206">
        <ele>116.3</ele>
        <time>2016-12-03T11:12:56Z</time>
      </trkpt>
      <trkpt lat="48.84157" lon="2.04203">
        <ele>115.9</ele>
        <time>2016-12-03T11:13:04Z</time>
      </trkpt>
      <trkpt lat="48.8417" lon="2.04199">
        <ele>115.2</ele>
        <time>2016-12-03T11:13:13Z</time>
      </trkpt>
      <trkpt lat="48.84182" lon="2.04196">
        <ele>114.6</ele>
        <time>2016-12-03T11:13:22Z</time>
      </trkpt>
      <trkpt lat="48.84192" lon="2.04195">
        <ele>114.2</ele>
        <time>2016-12-03T11:13:29Z</time>
      </trkpt>
      <trkpt lat="48.84202" lon="2.04194">
        <ele>113.8</ele>
        <time>2016-12-03T11:13:36Z</time>
      </trkpt>
      <trkpt lat="48.84213" lon="2.04194">
        <ele>113.4</ele>
        <time>2016-12-03T11:13:44Z</time>
      </trkpt>
      <trkpt lat="48.84225" lon="2.04195">
        <ele>113.2</ele>
        <time>2016-12-03T11:13:52Z</time>
      </trkpt>
      <trkpt lat="48.84238" lon="2.04197">
        <ele>113</ele>
        <time>2016-12-03T11:14:02Z</time>
      </trkpt>
      <trkpt lat="48.84252" lon="2.04199">
        <ele>113.1</ele>
        <time>2016-12-03T11:14:12Z</time>
      </trkpt>
      <trkpt lat="48.84266" lon="2.04202">
        <ele>114.9</ele>
        <time>2016-12-03T11:14:21Z</time>
      </trkpt>
      <trkpt lat="48.84275" lon="2.04204">
        <ele>116.1</ele>
        <time>2016-12-03T11:14:28Z</time>
      </trkpt>
      <trkpt lat="48.84284" lon="2.04205">
        <ele>117.2</ele>
        <time>2016-12-03T11:14:34Z</time>
      </trkpt>
      <trkpt lat="48.84295" lon="2.04207">
        <ele>118.5</ele>
        <time>2016-12-03T11:14:42Z</time>
      </trkpt>
      <trkpt lat="48.84304" lon="2.04205">
        <ele>119.2</ele>
        <time>2016-12-03T11:14:48Z</time>
      </trkpt>
      <trkpt lat="48.84312" lon="2.04202">
        <ele>120</ele>
        <time>2016-12-03T11:14:55Z</time>
      </trkpt>
      <trkpt lat="48.84321" lon="2.04198">
        <ele>120.7</ele>
        <time>2016-12-03T11:15:01Z</time>
      </trkpt>
      <trkpt lat="48.84329" lon="2.04193">
        <ele>121.4</ele>
        <time>2016-12-03T11:15:07Z</time>
      </trkpt>
      <trkpt lat="48.84337" lon="2.04186">
        <ele>121.9</ele>
        <time>2016-12-03T11:15:13Z</time>
      </trkpt>
      <trkpt lat="48.84345" lon="2.0418">
        <ele>122.1</ele>
        <time>2016-12-03T11:15:20Z</time>
      </trkpt>
      <trkpt lat="48.84353" lon="2.04173">
        <ele>122.4</ele>
        <time>2016-12-03T11:15:26Z</time>
      </trkpt>
      <trkpt lat="48.84362" lon="2.04164">
        <ele>122.6</ele>
        <time>2016-12-03T11:15:34Z</time>
      </trkpt>
      <trkpt lat="48.8437" lon="2.04156">
        <ele>123</ele>
        <time>2016-12-03T11:15:41Z</time>
      </trkpt>
      <trkpt lat="48.8438" lon="2.04148">
        <ele>123.5</ele>
        <time>2016-12-03T11:15:49Z</time>
      </trkpt>
      <trkpt lat="48.8439" lon="2.0414">
        <ele>124</ele>
        <time>2016-12-03T11:15:57Z</time>
      </trkpt>
      <trkpt lat="48.84399" lon="2.04133">
        <ele>124.4</ele>
        <time>2016-12-03T11:16:04Z</time>
      </trkpt>
      <trkpt lat="48.84405" lon="2.04124">
        <ele>124.7</ele>
        <time>2016-12-03T11:16:10Z</time>
      </trkpt>
      <trkpt lat="48.84409" lon="2.04114">
        <ele>124.8</ele>
        <time>2016-12-03T11:16:16Z</time>
      </trkpt>
      <trkpt lat="48.84412" lon="2.04106">
        <ele>125</ele>
        <time>2016-12-03T11:16:20Z</time>
      </trkpt>
      <trkpt lat="48.8442" lon="2.04101">
        <ele>125.2</ele>
        <time>2016-12-03T11:16:26Z</time>
      </trkpt>
      <trkpt lat="48.84428" lon="2.04094">
        <ele>125.2</ele>
        <time>2016-12-03T11:16:32Z</time>
      </trkpt>
      <trkpt lat="48.84437" lon="2.04086">
        <ele>125.3</ele>
        <time>2016-12-03T11:16:39Z</time>
      </trkpt>
      <trkpt lat="48.84446" lon="2.04082">
        <ele>125.3</ele>
        <time>2016-12-03T11:16:46Z</time>
      </trkpt>
      <trkpt lat="48.84454" lon="2.04077">
        <ele>125.4</ele>
        <time>2016-12-03T11:16:52Z</time>
      </trkpt>
      <trkpt lat="48.84463" lon="2.04073">
        <ele>125.6</ele>
        <time>2016-12-03T11:16:59Z</time>
      </trkpt>
      <trkpt lat="48.84472" lon="2.04071">
        <ele>125.7</ele>
        <time>2016-12-03T11:17:06Z</time>
      </trkpt>
      <trkpt lat="48.84481" lon="2.04067">
        <ele>125.9</ele>
        <time>2016-12-03T11:17:12Z</time>
      </trkpt>
      <trkpt lat="48.8449" lon="2.04065">
        <ele>126.1</ele>
        <time>2016-12-03T11:17:19Z</time>
      </trkpt>
      <trkpt lat="48.845" lon="2.04063">
        <ele>126.2</ele>
        <time>2016-12-03T11:17:25Z</time>
      </trkpt>
      <trkpt lat="48.84509" lon="2.04062">
        <ele>126.3</ele>
        <time>2016-12-03T11:17:32Z</time>
      </trkpt>
      <trkpt lat="48.84518" lon="2.04061">
        <ele>126.4</ele>
        <time>2016-12-03T11:17:39Z</time>
      </trkpt>
      <trkpt lat="48.84528" lon="2.04062">
        <ele>126.5</ele>
        <time>2016-12-03T11:17:46Z</time>
      </trkpt>
      <trkpt lat="48.8454" lon="2.0406">
        <ele>126.6</ele>
        <time>2016-12-03T11:17:54Z</time>
      </trkpt>
      <trkpt lat="48.84552" lon="2.04062">
        <ele>126.7</ele>
        <time>2016-12-03T11:18:03Z</time>
      </trkpt>
      <trkpt lat="48.84562" lon="2.04056">
        <ele>126.8</ele>
        <time>2016-12-03T11:18:10Z</time>
      </trkpt>
      <trkpt lat="48.84574" lon="2.04052">
        <ele>126.9</ele>
        <time>2016-12-03T11:18:19Z</time>
      </trkpt>
      <trkpt lat="48.84586" lon="2.04049">
        <ele>127</ele>
        <time>2016-12-03T11:18:28Z</time>
      </trkpt>
      <trkpt lat="48.84595" lon="2.04047">
        <ele>127</ele>
        <time>2016-12-03T11:18:34Z</time>
      </trkpt>
      <trkpt lat="48.84603" lon="2.04045">
        <ele>127</ele>
        <time>2016-12-03T11:18:40Z</time>
      </trkpt>
      <trkpt lat="48.84612" lon="2.04043">
        <ele>127</ele>
        <time>2016-12-03T11:18:46Z</time>
      </trkpt>
      <trkpt lat="48.84621" lon="2.04043">
        <ele>127</ele>
        <time>2016-12-03T11:18:53Z</time>
      </trkpt>
      <trkpt lat="48.84632" lon="2.04042">
        <ele>127</ele>
        <time>2016-12-03T11:19:00Z</time>
      </trkpt>
      <trkpt lat="48.84642" lon="2.0404">
        <ele>127</ele>
        <time>2016-12-03T11:19:08Z</time>
      </trkpt>
      <trkpt lat="48.84651" lon="2.04041">
        <ele>127</ele>
        <time>2016-12-03T11:19:14Z</time>
      </trkpt>
      <trkpt lat="48.84662" lon="2.0404">
        <ele>126.9</ele>
        <time>2016-12-03T11:19:21Z</time>
      </trkpt>
      <trkpt lat="48.84672" lon="2.04038">
        <ele>127</ele>
        <time>2016-12-03T11:19:29Z</time>
      </trkpt>
      <trkpt lat="48.84683" lon="2.04038">
        <ele>127.2</ele>
        <time>2016-12-03T11:19:36Z</time>
      </trkpt>
      <trkpt lat="48.84695" lon="2.04036">
        <ele>127.3</ele>
        <time>2016-12-03T11:19:45Z</time>
      </trkpt>
      <trkpt lat="48.84708" lon="2.04035">
        <ele>127.5</ele>
        <time>2016-12-03T11:19:54Z</time>
      </trkpt>
      <trkpt lat="48.84722" lon="2.04033">
        <ele>127.7</ele>
        <time>2016-12-03T11:20:04Z</time>
      </trkpt>
      <trkpt lat="48.84737" lon="2.04032">
        <ele>127.9</ele>
        <time>2016-12-03T11:20:15Z</time>
      </trkpt>
      <trkpt lat="48.84753" lon="2.04031">
        <ele>128.1</ele>
        <time>2016-12-03T11:20:26Z</time>
      </trkpt>
      <trkpt lat="48.84766" lon="2.04031">
        <ele>128.1</ele>
        <time>2016-12-03T11:20:35Z</time>
      </trkpt>
      <trkpt lat="48.84781" lon="2.04028">
        <ele>128</ele>
        <time>2016-12-03T11:20:46Z</time>
      </trkpt>
      <trkpt lat="48.84795" lon="2.04026">
        <ele>127.9</ele>
        <time>2016-12-03T11:20:56Z</time>
      </trkpt>
      <trkpt lat="48.8481" lon="2.04025">
        <ele>127.9</ele>
        <time>2016-12-03T11:21:07Z</time>
      </trkpt>
      <trkpt lat="48.84825" lon="2.04024">
        <ele>127.8</ele>
        <time>2016-12-03T11:21:17Z</time>
      </trkpt>
      <trkpt lat="48.84837" lon="2.0402">
        <ele>127.6</ele>
        <time>2016-12-03T11:21:26Z</time>
      </trkpt>
      <trkpt lat="48.84849" lon="2.04019">
        <ele>127.3</ele>
        <time>2016-12-03T11:21:34Z</time>
      </trkpt>
      <trkpt lat="48.84863" lon="2.04017">
        <ele>126.9</ele>
        <time>2016-12-03T11:21:44Z</time>
      </trkpt>
      <trkpt lat="48.84875" lon="2.04014">
        <ele>126.5</ele>
        <time>2016-12-03T11:21:53Z</time>
      </trkpt>
      <trkpt lat="48.84888" lon="2.04013">
        <ele>126.1</ele>
        <time>2016-12-03T11:22:02Z</time>
      </trkpt>
      <trkpt lat="48.849" lon="2.04013">
        <ele>125.9</ele>
        <time>2016-12-03T11:22:11Z</time>
      </trkpt>
      <trkpt lat="48.84914" lon="2.04012">
        <ele>125.5</ele>
        <time>2016-12-03T11:22:20Z</time>
      </trkpt>
      <trkpt lat="48.84927" lon="2.0401">
        <ele>125.2</ele>
        <time>2016-12-03T11:22:30Z</time>
      </trkpt>
      <trkpt lat="48.8494" lon="2.04007">
        <ele>124.9</ele>
        <time>2016-12-03T11:22:39Z</time>
      </trkpt>
      <trkpt lat="48.84953" lon="2.04006">
        <ele>124.7</ele>
        <time>2016-12-03T11:22:48Z</time>
      </trkpt>
      <trkpt lat="48.84962" lon="2.04005">
        <ele>124.6</ele>
        <time>2016-12-03T11:22:55Z</time>
      </trkpt>
      <trkpt lat="48.84973" lon="2.04001">
        <ele>124.3</ele>
        <time>2016-12-03T11:23:02Z</time>
      </trkpt>
      <trkpt lat="48.84983" lon="2.03998">
        <ele>124.2</ele>
        <time>2016-12-03T11:23:10Z</time>
      </trkpt>
      <trkpt lat="48.84994" lon="2.03995">
        <ele>124</ele>
        <time>2016-12-03T11:23:18Z</time>
      </trkpt>
      <trkpt lat="48.85006" lon="2.03992">
        <ele>123.7</ele>
        <time>2016-12-03T11:23:26Z</time>
      </trkpt>
      <trkpt lat="48.85013" lon="2.03991">
        <ele>123.4</ele>
        <time>2016-12-03T11:23:32Z</time>
      </trkpt>
      <trkpt lat="48.85019" lon="2.03991">
        <ele>123.1</ele>
        <time>2016-12-03T11:23:43Z</time>
      </trkpt>
      <trkpt lat="48.85025" lon="2.03989">
        <ele>122.9</ele>
        <time>2016-12-03T11:24:07Z</time>
      </trkpt>
      <trkpt lat="48.85035" lon="2.03986">
        <ele>122.4</ele>
        <time>2016-12-03T11:24:11Z</time>
      </trkpt>
      <trkpt lat="48.85049" lon="2.03983">
        <ele>121.8</ele>
        <time>2016-12-03T11:24:14Z</time>
      </trkpt>
      <trkpt lat="48.85059" lon="2.03981">
        <ele>121.3</ele>
        <time>2016-12-03T11:24:16Z</time>
      </trkpt>
      <trkpt lat="48.85071" lon="2.03975">
        <ele>120.6</ele>
        <time>2016-12-03T11:24:19Z</time>
      </trkpt>
      <trkpt lat="48.85072" lon="2.03962">
        <ele>120.1</ele>
        <time>2016-12-03T11:24:27Z</time>
      </trkpt>
      <trkpt lat="48.8508" lon="2.03948">
        <ele>119.3</ele>
        <time>2016-12-03T11:24:30Z</time>
      </trkpt>
      <trkpt lat="48.85087" lon="2.03937">
        <ele>118.8</ele>
        <time>2016-12-03T11:24:33Z</time>
      </trkpt>
      <trkpt lat="48.85094" lon="2.0393">
        <ele>118.8</ele>
        <time>2016-12-03T11:24:38Z</time>
      </trkpt>
      <trkpt lat="48.85102" lon="2.03931">
        <ele>119.1</ele>
        <time>2016-12-03T11:24:42Z</time>
      </trkpt>
      <trkpt lat="48.85112" lon="2.03924">
        <ele>119.2</ele>
        <time>2016-12-03T11:24:47Z</time>
      </trkpt>
      <trkpt lat="48.85124" lon="2.0392">
        <ele>119.5</ele>
        <time>2016-12-03T11:24:52Z</time>
      </trkpt>
      <trkpt lat="48.85133" lon="2.03911">
        <ele>119.8</ele>
        <time>2016-12-03T11:24:55Z</time>
      </trkpt>
      <trkpt lat="48.85141" lon="2.03904">
        <ele>120.2</ele>
        <time>2016-12-03T11:24:58Z</time>
      </trkpt>
      <trkpt lat="48.85152" lon="2.03911">
        <ele>120.6</ele>
        <time>2016-12-03T11:25:02Z</time>
      </trkpt>
      <trkpt lat="48.85164" lon="2.03909">
        <ele>121.1</ele>
        <time>2016-12-03T11:25:05Z</time>
      </trkpt>
      <trkpt lat="48.85171" lon="2.039">
        <ele>121.9</ele>
        <time>2016-12-03T11:25:08Z</time>
      </trkpt>
      <trkpt lat="48.85181" lon="2.03887">
        <ele>123</ele>
        <time>2016-12-03T11:25:12Z</time>
      </trkpt>
      <trkpt lat="48.85191" lon="2.03883">
        <ele>123.9</ele>
        <time>2016-12-03T11:25:15Z</time>
      </trkpt>
      <trkpt lat="48.85197" lon="2.03895">
        <ele>124.2</ele>
        <time>2016-12-03T11:25:19Z</time>
      </trkpt>
      <trkpt lat="48.85196" lon="2.03909">
        <ele>124</ele>
        <time>2016-12-03T11:25:22Z</time>
      </trkpt>
      <trkpt lat="48.85197" lon="2.03925">
        <ele>123.9</ele>
        <time>2016-12-03T11:25:25Z</time>
      </trkpt>
      <trkpt lat="48.85199" lon="2.03939">
        <ele>123.9</ele>
        <time>2016-12-03T11:25:28Z</time>
      </trkpt>
      <trkpt lat="48.85202" lon="2.03954">
        <ele>124.1</ele>
        <time>2016-12-03T11:25:32Z</time>
      </trkpt>
      <trkpt lat="48.85206" lon="2.0397">
        <ele>124.2</ele>
        <time>2016-12-03T11:25:37Z</time>
      </trkpt>
      <trkpt lat="48.8521" lon="2.03986">
        <ele>124.3</ele>
        <time>2016-12-03T11:25:42Z</time>
      </trkpt>
      <trkpt lat="48.85213" lon="2.04">
        <ele>124.3</ele>
        <time>2016-12-03T11:25:45Z</time>
      </trkpt>
      <trkpt lat="48.85218" lon="2.04014">
        <ele>124.3</ele>
        <time>2016-12-03T11:25:48Z</time>
      </trkpt>
      <trkpt lat="48.85223" lon="2.04026">
        <ele>124.4</ele>
        <time>2016-12-03T11:25:51Z</time>
      </trkpt>
      <trkpt lat="48.85228" lon="2.04037">
        <ele>124.5</ele>
        <time>2016-12-03T11:25:54Z</time>
      </trkpt>
      <trkpt lat="48.85234" lon="2.04049">
        <ele>124.6</ele>
        <time>2016-12-03T11:25:57Z</time>
      </trkpt>
      <trkpt lat="48.85239" lon="2.04063">
        <ele>124.7</ele>
        <time>2016-12-03T11:26:00Z</time>
      </trkpt>
      <trkpt lat="48.85245" lon="2.04074">
        <ele>124.9</ele>
        <time>2016-12-03T11:26:03Z</time>
      </trkpt>
      <trkpt lat="48.85251" lon="2.04087">
        <ele>125.1</ele>
        <time>2016-12-03T11:26:06Z</time>
      </trkpt>
      <trkpt lat="48.85257" lon="2.041">
        <ele>125.9</ele>
        <time>2016-12-03T11:26:09Z</time>
      </trkpt>
      <trkpt lat="48.85263" lon="2.04111">
        <ele>126.6</ele>
        <time>2016-12-03T11:26:12Z</time>
      </trkpt>
      <trkpt lat="48.8527" lon="2.04125">
        <ele>127.3</ele>
        <time>2016-12-03T11:26:16Z</time>
      </trkpt>
      <trkpt lat="48.85276" lon="2.04138">
        <ele>127.9</ele>
        <time>2016-12-03T11:26:20Z</time>
      </trkpt>
      <trkpt lat="48.85279" lon="2.0415">
        <ele>128</ele>
        <time>2016-12-03T11:26:24Z</time>
      </trkpt>
      <trkpt lat="48.85277" lon="2.04166">
        <ele>127.6</ele>
        <time>2016-12-03T11:26:28Z</time>
      </trkpt>
      <trkpt lat="48.85274" lon="2.04183">
        <ele>126.8</ele>
        <time>2016-12-03T11:26:32Z</time>
      </trkpt>
      <trkpt lat="48.85272" lon="2.042">
        <ele>126.1</ele>
        <time>2016-12-03T11:26:36Z</time>
      </trkpt>
      <trkpt lat="48.85274" lon="2.04215">
        <ele>125.7</ele>
        <time>2016-12-03T11:26:41Z</time>
      </trkpt>
      <trkpt lat="48.85286" lon="2.04222">
        <ele>126.1</ele>
        <time>2016-12-03T11:26:47Z</time>
      </trkpt>
      <trkpt lat="48.85298" lon="2.0422">
        <ele>126.8</ele>
        <time>2016-12-03T11:26:50Z</time>
      </trkpt>
      <trkpt lat="48.85306" lon="2.04207">
        <ele>128</ele>
        <time>2016-12-03T11:26:54Z</time>
      </trkpt>
      <trkpt lat="48.85309" lon="2.04194">
        <ele>129</ele>
        <time>2016-12-03T11:26:57Z</time>
      </trkpt>
      <trkpt lat="48.8531" lon="2.04176">
        <ele>130.2</ele>
        <time>2016-12-03T11:27:00Z</time>
      </trkpt>
      <trkpt lat="48.85304" lon="2.04163">
        <ele>130.3</ele>
        <time>2016-12-03T11:27:04Z</time>
      </trkpt>
      <trkpt lat="48.85314" lon="2.04162">
        <ele>131.3</ele>
        <time>2016-12-03T11:27:09Z</time>
      </trkpt>
      <trkpt lat="48.85324" lon="2.04164">
        <ele>132.2</ele>
        <time>2016-12-03T11:27:12Z</time>
      </trkpt>
      <trkpt lat="48.85336" lon="2.04166">
        <ele>133.3</ele>
        <time>2016-12-03T11:27:15Z</time>
      </trkpt>
      <trkpt lat="48.85348" lon="2.04169">
        <ele>134</ele>
        <time>2016-12-03T11:27:18Z</time>
      </trkpt>
      <trkpt lat="48.85359" lon="2.0417">
        <ele>134.9</ele>
        <time>2016-12-03T11:27:21Z</time>
      </trkpt>
      <trkpt lat="48.8537" lon="2.04171">
        <ele>135.8</ele>
        <time>2016-12-03T11:27:24Z</time>
      </trkpt>
      <trkpt lat="48.85382" lon="2.04172">
        <ele>136.7</ele>
        <time>2016-12-03T11:27:27Z</time>
      </trkpt>
      <trkpt lat="48.85392" lon="2.04173">
        <ele>137.4</ele>
        <time>2016-12-03T11:27:30Z</time>
      </trkpt>
      <trkpt lat="48.85403" lon="2.04175">
        <ele>138.3</ele>
        <time>2016-12-03T11:27:33Z</time>
      </trkpt>
      <trkpt lat="48.85415" lon="2.04177">
        <ele>139</ele>
        <time>2016-12-03T11:27:36Z</time>
      </trkpt>
      <trkpt lat="48.85425" lon="2.04179">
        <ele>139.5</ele>
        <time>2016-12-03T11:27:39Z</time>
      </trkpt>
      <trkpt lat="48.85434" lon="2.0418">
        <ele>139.9</ele>
        <time>2016-12-03T11:27:42Z</time>
      </trkpt>
      <trkpt lat="48.85445" lon="2.04182">
        <ele>140.4</ele>
        <time>2016-12-03T11:27:45Z</time>
      </trkpt>
      <trkpt lat="48.85456" lon="2.04183">
        <ele>141</ele>
        <time>2016-12-03T11:27:49Z</time>
      </trkpt>
      <trkpt lat="48.85467" lon="2.04184">
        <ele>141.6</ele>
        <time>2016-12-03T11:27:52Z</time>
      </trkpt>
      <trkpt lat="48.85476" lon="2.04187">
        <ele>142.1</ele>
        <time>2016-12-03T11:27:54Z</time>
      </trkpt>
      <trkpt lat="48.85487" lon="2.04189">
        <ele>142.6</ele>
        <time>2016-12-03T11:27:57Z</time>
      </trkpt>
      <trkpt lat="48.85497" lon="2.04187">
        <ele>143.3</ele>
        <time>2016-12-03T11:28:00Z</time>
      </trkpt>
      <trkpt lat="48.85508" lon="2.04189">
        <ele>143.6</ele>
        <time>2016-12-03T11:28:03Z</time>
      </trkpt>
      <trkpt lat="48.85518" lon="2.04191">
        <ele>143.7</ele>
        <time>2016-12-03T11:28:07Z</time>
      </trkpt>
      <trkpt lat="48.85523" lon="2.04194">
        <ele>143.7</ele>
        <time>2016-12-03T11:28:14Z</time>
      </trkpt>
      <trkpt lat="48.85526" lon="2.04195">
        <ele>143.8</ele>
        <time>2016-12-03T11:28:22Z</time>
      </trkpt>
      <trkpt lat="48.85529" lon="2.04209">
        <ele>143.4</ele>
        <time>2016-12-03T11:28:34Z</time>
      </trkpt>
      <trkpt lat="48.85535" lon="2.04218">
        <ele>143.1</ele>
        <time>2016-12-03T11:28:40Z</time>
      </trkpt>
      <trkpt lat="48.85543" lon="2.04229">
        <ele>142.8</ele>
        <time>2016-12-03T11:28:46Z</time>
      </trkpt>
      <trkpt lat="48.85548" lon="2.04241">
        <ele>142.3</ele>
        <time>2016-12-03T11:28:50Z</time>
      </trkpt>
      <trkpt lat="48.8555" lon="2.04255">
        <ele>141.9</ele>
        <time>2016-12-03T11:28:55Z</time>
      </trkpt>
      <trkpt lat="48.85551" lon="2.04272">
        <ele>141.7</ele>
        <time>2016-12-03T11:29:00Z</time>
      </trkpt>
      <trkpt lat="48.85554" lon="2.04289">
        <ele>141.4</ele>
        <time>2016-12-03T11:29:05Z</time>
      </trkpt>
      <trkpt lat="48.85558" lon="2.04303">
        <ele>141.2</ele>
        <time>2016-12-03T11:29:09Z</time>
      </trkpt>
      <trkpt lat="48.85564" lon="2.04315">
        <ele>141.1</ele>
        <time>2016-12-03T11:29:14Z</time>
      </trkpt>
      <trkpt lat="48.85572" lon="2.04322">
        <ele>141</ele>
        <time>2016-12-03T11:29:20Z</time>
      </trkpt>
      <trkpt lat="48.85582" lon="2.04328">
        <ele>141.1</ele>
        <time>2016-12-03T11:29:26Z</time>
      </trkpt>
      <trkpt lat="48.85589" lon="2.04338">
        <ele>141.1</ele>
        <time>2016-12-03T11:29:33Z</time>
      </trkpt>
      <trkpt lat="48.85595" lon="2.0435">
        <ele>141.5</ele>
        <time>2016-12-03T11:29:37Z</time>
      </trkpt>
      <trkpt lat="48.856" lon="2.04363">
        <ele>141.9</ele>
        <time>2016-12-03T11:29:42Z</time>
      </trkpt>
      <trkpt lat="48.85604" lon="2.04375">
        <ele>142.2</ele>
        <time>2016-12-03T11:29:47Z</time>
      </trkpt>
      <trkpt lat="48.85607" lon="2.04389">
        <ele>142.6</ele>
        <time>2016-12-03T11:29:53Z</time>
      </trkpt>
      <trkpt lat="48.85611" lon="2.04402">
        <ele>142.9</ele>
        <time>2016-12-03T11:29:59Z</time>
      </trkpt>
      <trkpt lat="48.85616" lon="2.04415">
        <ele>143.1</ele>
        <time>2016-12-03T11:30:05Z</time>
      </trkpt>
      <trkpt lat="48.85619" lon="2.04428">
        <ele>143.6</ele>
        <time>2016-12-03T11:30:11Z</time>
      </trkpt>
      <trkpt lat="48.85623" lon="2.04441">
        <ele>144.1</ele>
        <time>2016-12-03T11:30:17Z</time>
      </trkpt>
      <trkpt lat="48.85626" lon="2.04454">
        <ele>144.5</ele>
        <time>2016-12-03T11:30:23Z</time>
      </trkpt>
      <trkpt lat="48.85629" lon="2.04468">
        <ele>145</ele>
        <time>2016-12-03T11:30:29Z</time>
      </trkpt>
      <trkpt lat="48.85631" lon="2.04482">
        <ele>145.5</ele>
        <time>2016-12-03T11:30:35Z</time>
      </trkpt>
      <trkpt lat="48.85634" lon="2.04495">
        <ele>145.9</ele>
        <time>2016-12-03T11:30:42Z</time>
      </trkpt>
      <trkpt lat="48.85638" lon="2.04509">
        <ele>146.3</ele>
        <time>2016-12-03T11:30:47Z</time>
      </trkpt>
      <trkpt lat="48.85642" lon="2.04522">
        <ele>146.6</ele>
        <time>2016-12-03T11:30:52Z</time>
      </trkpt>
      <trkpt lat="48.85645" lon="2.04536">
        <ele>146.9</ele>
        <time>2016-12-03T11:30:57Z</time>
      </trkpt>
      <trkpt lat="48.85648" lon="2.04549">
        <ele>147.1</ele>
        <time>2016-12-03T11:31:01Z</time>
      </trkpt>
      <trkpt lat="48.85653" lon="2.04562">
        <ele>147.2</ele>
        <time>2016-12-03T11:31:06Z</time>
      </trkpt>
      <trkpt lat="48.85658" lon="2.04576">
        <ele>147.3</ele>
        <time>2016-12-03T11:31:11Z</time>
      </trkpt>
      <trkpt lat="48.85664" lon="2.04587">
        <ele>147.1</ele>
        <time>2016-12-03T11:31:16Z</time>
      </trkpt>
      <trkpt lat="48.85672" lon="2.04597">
        <ele>147.2</ele>
        <time>2016-12-03T11:31:22Z</time>
      </trkpt>
      <trkpt lat="48.85685" lon="2.04606">
        <ele>147.8</ele>
        <time>2016-12-03T11:31:28Z</time>
      </trkpt>
      <trkpt lat="48.85693" lon="2.04613">
        <ele>148.3</ele>
        <time>2016-12-03T11:31:30Z</time>
      </trkpt>
      <trkpt lat="48.85703" lon="2.04618">
        <ele>148.8</ele>
        <time>2016-12-03T11:31:32Z</time>
      </trkpt>
      <trkpt lat="48.85711" lon="2.04626">
        <ele>149.4</ele>
        <time>2016-12-03T11:31:34Z</time>
      </trkpt>
      <trkpt lat="48.85723" lon="2.04638">
        <ele>150.3</ele>
        <time>2016-12-03T11:31:37Z</time>
      </trkpt>
      <trkpt lat="48.85732" lon="2.04644">
        <ele>151.1</ele>
        <time>2016-12-03T11:31:40Z</time>
      </trkpt>
      <trkpt lat="48.85742" lon="2.04655">
        <ele>152</ele>
        <time>2016-12-03T11:31:44Z</time>
      </trkpt>
      <trkpt lat="48.85748" lon="2.04666">
        <ele>152.8</ele>
        <time>2016-12-03T11:31:47Z</time>
      </trkpt>
      <trkpt lat="48.8576" lon="2.04673">
        <ele>154.3</ele>
        <time>2016-12-03T11:31:50Z</time>
      </trkpt>
      <trkpt lat="48.85769" lon="2.04679">
        <ele>155.4</ele>
        <time>2016-12-03T11:31:53Z</time>
      </trkpt>
      <trkpt lat="48.85778" lon="2.04687">
        <ele>156.4</ele>
        <time>2016-12-03T11:31:57Z</time>
      </trkpt>
      <trkpt lat="48.85787" lon="2.04694">
        <ele>157.4</ele>
        <time>2016-12-03T11:32:05Z</time>
      </trkpt>
      <trkpt lat="48.85792" lon="2.047">
        <ele>158.1</ele>
        <time>2016-12-03T11:32:15Z</time>
      </trkpt>
      <trkpt lat="48.85795" lon="2.04708">
        <ele>158.3</ele>
        <time>2016-12-03T11:32:28Z</time>
      </trkpt>
      <trkpt lat="48.85803" lon="2.04714">
        <ele>159.3</ele>
        <time>2016-12-03T11:32:56Z</time>
      </trkpt>
      <trkpt lat="48.85814" lon="2.0472">
        <ele>160.3</ele>
        <time>2016-12-03T11:33:01Z</time>
      </trkpt>
      <trkpt lat="48.85823" lon="2.04726">
        <ele>161.2</ele>
        <time>2016-12-03T11:33:05Z</time>
      </trkpt>
      <trkpt lat="48.85831" lon="2.04732">
        <ele>162</ele>
        <time>2016-12-03T11:33:09Z</time>
      </trkpt>
      <trkpt lat="48.85839" lon="2.0474">
        <ele>162.8</ele>
        <time>2016-12-03T11:33:14Z</time>
      </trkpt>
      <trkpt lat="48.85847" lon="2.04747">
        <ele>163.7</ele>
        <time>2016-12-03T11:33:18Z</time>
      </trkpt>
      <trkpt lat="48.85857" lon="2.04754">
        <ele>164.8</ele>
        <time>2016-12-03T11:33:22Z</time>
      </trkpt>
      <trkpt lat="48.85867" lon="2.04759">
        <ele>165.9</ele>
        <time>2016-12-03T11:33:26Z</time>
      </trkpt>
      <trkpt lat="48.85876" lon="2.04763">
        <ele>167</ele>
        <time>2016-12-03T11:33:29Z</time>
      </trkpt>
      <trkpt lat="48.85883" lon="2.04776">
        <ele>167.7</ele>
        <time>2016-12-03T11:33:35Z</time>
      </trkpt>
      <trkpt lat="48.85889" lon="2.04787">
        <ele>168.4</ele>
        <time>2016-12-03T11:33:39Z</time>
      </trkpt>
      <trkpt lat="48.85898" lon="2.04792">
        <ele>169.5</ele>
        <time>2016-12-03T11:33:49Z</time>
      </trkpt>
      <trkpt lat="48.85898" lon="2.04793">
        <ele>169.5</ele>
        <time>2016-12-03T11:33:50Z</time>
      </trkpt>
      <trkpt lat="48.85907" lon="2.04799">
        <ele>170.7</ele>
        <time>2016-12-03T11:34:01Z</time>
      </trkpt>
      <trkpt lat="48.85914" lon="2.04807">
        <ele>171.7</ele>
        <time>2016-12-03T11:34:10Z</time>
      </trkpt>
      <trkpt lat="48.85919" lon="2.04811">
        <ele>172</ele>
        <time>2016-12-03T11:34:19Z</time>
      </trkpt>
      <trkpt lat="48.85921" lon="2.04821">
        <ele>171.9</ele>
        <time>2016-12-03T11:34:33Z</time>
      </trkpt>
      <trkpt lat="48.85919" lon="2.04836">
        <ele>172</ele>
        <time>2016-12-03T11:34:51Z</time>
      </trkpt>
      <trkpt lat="48.85916" lon="2.0485">
        <ele>172.3</ele>
        <time>2016-12-03T11:35:03Z</time>
      </trkpt>
      <trkpt lat="48.85924" lon="2.04857">
        <ele>172.2</ele>
        <time>2016-12-03T11:35:21Z</time>
      </trkpt>
      <trkpt lat="48.85928" lon="2.04857">
        <ele>172</ele>
        <time>2016-12-03T11:35:28Z</time>
      </trkpt>
      <trkpt lat="48.85937" lon="2.04863">
        <ele>171.6</ele>
        <time>2016-12-03T11:35:47Z</time>
      </trkpt>
      <trkpt lat="48.85937" lon="2.04863">
        <ele>171.6</ele>
        <time>2016-12-03T11:35:47Z</time>
      </trkpt>
      <trkpt lat="48.85937" lon="2.04863">
        <ele>171.6</ele>
        <time>2016-12-03T11:35:47Z</time>
      </trkpt>
      <trkpt lat="48.85946" lon="2.04865">
        <ele>171.1</ele>
        <time>2016-12-03T11:36:03Z</time>
      </trkpt>
      <trkpt lat="48.85946" lon="2.04866">
        <ele>171.1</ele>
        <time>2016-12-03T11:36:05Z</time>
      </trkpt>
      <trkpt lat="48.85948" lon="2.04879">
        <ele>170.9</ele>
        <time>2016-12-03T11:36:18Z</time>
      </trkpt>
      <trkpt lat="48.85948" lon="2.04882">
        <ele>170.9</ele>
        <time>2016-12-03T11:36:24Z</time>
      </trkpt>
      <trkpt lat="48.85946" lon="2.04896">
        <ele>170.9</ele>
        <time>2016-12-03T11:37:58Z</time>
      </trkpt>
      <trkpt lat="48.85943" lon="2.04909">
        <ele>171.1</ele>
        <time>2016-12-03T11:38:04Z</time>
      </trkpt>
      <trkpt lat="48.85937" lon="2.0492">
        <ele>171.7</ele>
        <time>2016-12-03T11:38:07Z</time>
      </trkpt>
      <trkpt lat="48.85932" lon="2.04933">
        <ele>171.9</ele>
        <time>2016-12-03T11:38:11Z</time>
      </trkpt>
      <trkpt lat="48.85927" lon="2.04947">
        <ele>172.3</ele>
        <time>2016-12-03T11:38:16Z</time>
      </trkpt>
      <trkpt lat="48.85921" lon="2.0496">
        <ele>172.9</ele>
        <time>2016-12-03T11:38:21Z</time>
      </trkpt>
      <trkpt lat="48.85913" lon="2.04972">
        <ele>173.2</ele>
        <time>2016-12-03T11:38:25Z</time>
      </trkpt>
      <trkpt lat="48.85908" lon="2.04984">
        <ele>173</ele>
        <time>2016-12-03T11:38:30Z</time>
      </trkpt>
      <trkpt lat="48.85901" lon="2.04998">
        <ele>173</ele>
        <time>2016-12-03T11:38:34Z</time>
      </trkpt>
      <trkpt lat="48.85895" lon="2.05011">
        <ele>172.7</ele>
        <time>2016-12-03T11:38:37Z</time>
      </trkpt>
      <trkpt lat="48.85888" lon="2.05026">
        <ele>172.4</ele>
        <time>2016-12-03T11:38:41Z</time>
      </trkpt>
      <trkpt lat="48.85884" lon="2.05038">
        <ele>172.3</ele>
        <time>2016-12-03T11:38:44Z</time>
      </trkpt>
      <trkpt lat="48.85877" lon="2.05048">
        <ele>172.4</ele>
        <time>2016-12-03T11:38:48Z</time>
      </trkpt>
      <trkpt lat="48.85869" lon="2.05061">
        <ele>172.6</ele>
        <time>2016-12-03T11:38:52Z</time>
      </trkpt>
      <trkpt lat="48.85864" lon="2.05073">
        <ele>172.8</ele>
        <time>2016-12-03T11:38:55Z</time>
      </trkpt>
      <trkpt lat="48.85858" lon="2.05085">
        <ele>173.3</ele>
        <time>2016-12-03T11:38:59Z</time>
      </trkpt>
      <trkpt lat="48.85852" lon="2.051">
        <ele>173.8</ele>
        <time>2016-12-03T11:39:03Z</time>
      </trkpt>
      <trkpt lat="48.85848" lon="2.05113">
        <ele>174.3</ele>
        <time>2016-12-03T11:39:07Z</time>
      </trkpt>
      <trkpt lat="48.85842" lon="2.05125">
        <ele>175</ele>
        <time>2016-12-03T11:39:10Z</time>
      </trkpt>
      <trkpt lat="48.85835" lon="2.05141">
        <ele>176.1</ele>
        <time>2016-12-03T11:39:14Z</time>
      </trkpt>
      <trkpt lat="48.85829" lon="2.05154">
        <ele>176.4</ele>
        <time>2016-12-03T11:39:18Z</time>
      </trkpt>
      <trkpt lat="48.85821" lon="2.05165">
        <ele>176.4</ele>
        <time>2016-12-03T11:39:22Z</time>
      </trkpt>
      <trkpt lat="48.85813" lon="2.05172">
        <ele>176.2</ele>
        <time>2016-12-03T11:39:26Z</time>
      </trkpt>
      <trkpt lat="48.85808" lon="2.05179">
        <ele>176.1</ele>
        <time>2016-12-03T11:39:35Z</time>
      </trkpt>
      <trkpt lat="48.85794" lon="2.05194">
        <ele>176</ele>
        <time>2016-12-03T11:40:50Z</time>
      </trkpt>
      <trkpt lat="48.85785" lon="2.05204">
        <ele>176.1</ele>
        <time>2016-12-03T11:40:55Z</time>
      </trkpt>
      <trkpt lat="48.85782" lon="2.05209">
        <ele>176.3</ele>
        <time>2016-12-03T11:41:01Z</time>
      </trkpt>
      <trkpt lat="48.85772" lon="2.05214">
        <ele>176.3</ele>
        <time>2016-12-03T11:41:08Z</time>
      </trkpt>
      <trkpt lat="48.85768" lon="2.05229">
        <ele>176.9</ele>
        <time>2016-12-03T11:41:12Z</time>
      </trkpt>
      <trkpt lat="48.85767" lon="2.05244">
        <ele>177.7</ele>
        <time>2016-12-03T11:41:17Z</time>
      </trkpt>
      <trkpt lat="48.85764" lon="2.05261">
        <ele>178.2</ele>
        <time>2016-12-03T11:41:22Z</time>
      </trkpt>
      <trkpt lat="48.8576" lon="2.05274">
        <ele>178.6</ele>
        <time>2016-12-03T11:41:25Z</time>
      </trkpt>
      <trkpt lat="48.85754" lon="2.05288">
        <ele>179.2</ele>
        <time>2016-12-03T11:41:28Z</time>
      </trkpt>
      <trkpt lat="48.85749" lon="2.05304">
        <ele>179.9</ele>
        <time>2016-12-03T11:41:32Z</time>
      </trkpt>
      <trkpt lat="48.85743" lon="2.05321">
        <ele>180</ele>
        <time>2016-12-03T11:41:35Z</time>
      </trkpt>
      <trkpt lat="48.85736" lon="2.05336">
        <ele>180</ele>
        <time>2016-12-03T11:41:38Z</time>
      </trkpt>
      <trkpt lat="48.85728" lon="2.05352">
        <ele>179.8</ele>
        <time>2016-12-03T11:41:41Z</time>
      </trkpt>
      <trkpt lat="48.85721" lon="2.05366">
        <ele>179.7</ele>
        <time>2016-12-03T11:41:44Z</time>
      </trkpt>
      <trkpt lat="48.85713" lon="2.05383">
        <ele>179.7</ele>
        <time>2016-12-03T11:41:47Z</time>
      </trkpt>
      <trkpt lat="48.85704" lon="2.05395">
        <ele>179.7</ele>
        <time>2016-12-03T11:41:49Z</time>
      </trkpt>
      <trkpt lat="48.85696" lon="2.05408">
        <ele>179.7</ele>
        <time>2016-12-03T11:41:51Z</time>
      </trkpt>
      <trkpt lat="48.85691" lon="2.0542">
        <ele>180</ele>
        <time>2016-12-03T11:41:53Z</time>
      </trkpt>
      <trkpt lat="48.85686" lon="2.05432">
        <ele>180.4</ele>
        <time>2016-12-03T11:41:55Z</time>
      </trkpt>
      <trkpt lat="48.85679" lon="2.05447">
        <ele>181</ele>
        <time>2016-12-03T11:41:57Z</time>
      </trkpt>
      <trkpt lat="48.85673" lon="2.0546">
        <ele>181.6</ele>
        <time>2016-12-03T11:41:59Z</time>
      </trkpt>
      <trkpt lat="48.85665" lon="2.05477">
        <ele>182.3</ele>
        <time>2016-12-03T11:42:02Z</time>
      </trkpt>
      <trkpt lat="48.85658" lon="2.05489">
        <ele>182.4</ele>
        <time>2016-12-03T11:42:05Z</time>
      </trkpt>
      <trkpt lat="48.85652" lon="2.055">
        <ele>182.4</ele>
        <time>2016-12-03T11:42:07Z</time>
      </trkpt>
      <trkpt lat="48.85643" lon="2.05515">
        <ele>181.9</ele>
        <time>2016-12-03T11:42:09Z</time>
      </trkpt>
      <trkpt lat="48.85638" lon="2.05527">
        <ele>181.7</ele>
        <time>2016-12-03T11:42:11Z</time>
      </trkpt>
      <trkpt lat="48.85629" lon="2.05541">
        <ele>181.5</ele>
        <time>2016-12-03T11:42:14Z</time>
      </trkpt>
      <trkpt lat="48.85622" lon="2.05554">
        <ele>181.5</ele>
        <time>2016-12-03T11:42:17Z</time>
      </trkpt>
      <trkpt lat="48.85613" lon="2.05565">
        <ele>181.5</ele>
        <time>2016-12-03T11:42:21Z</time>
      </trkpt>
      <trkpt lat="48.85607" lon="2.05576">
        <ele>181.7</ele>
        <time>2016-12-03T11:42:23Z</time>
      </trkpt>
      <trkpt lat="48.85601" lon="2.05587">
        <ele>181.9</ele>
        <time>2016-12-03T11:42:26Z</time>
      </trkpt>
      <trkpt lat="48.85594" lon="2.05598">
        <ele>181.9</ele>
        <time>2016-12-03T11:42:29Z</time>
      </trkpt>
      <trkpt lat="48.85586" lon="2.0561">
        <ele>181.8</ele>
        <time>2016-12-03T11:42:32Z</time>
      </trkpt>
      <trkpt lat="48.85579" lon="2.0562">
        <ele>181.5</ele>
        <time>2016-12-03T11:42:35Z</time>
      </trkpt>
      <trkpt lat="48.85572" lon="2.05633">
        <ele>181.1</ele>
        <time>2016-12-03T11:42:38Z</time>
      </trkpt>
      <trkpt lat="48.85566" lon="2.05643">
        <ele>180.8</ele>
        <time>2016-12-03T11:42:41Z</time>
      </trkpt>
      <trkpt lat="48.85557" lon="2.05654">
        <ele>180.4</ele>
        <time>2016-12-03T11:42:44Z</time>
      </trkpt>
      <trkpt lat="48.8555" lon="2.05667">
        <ele>180.2</ele>
        <time>2016-12-03T11:42:47Z</time>
      </trkpt>
      <trkpt lat="48.85542" lon="2.0568">
        <ele>179.8</ele>
        <time>2016-12-03T11:42:51Z</time>
      </trkpt>
      <trkpt lat="48.85534" lon="2.05691">
        <ele>179.5</ele>
        <time>2016-12-03T11:42:54Z</time>
      </trkpt>
      <trkpt lat="48.85528" lon="2.05703">
        <ele>179.4</ele>
        <time>2016-12-03T11:42:56Z</time>
      </trkpt>
      <trkpt lat="48.85522" lon="2.05715">
        <ele>179.3</ele>
        <time>2016-12-03T11:42:59Z</time>
      </trkpt>
      <trkpt lat="48.85514" lon="2.0573">
        <ele>179.2</ele>
        <time>2016-12-03T11:43:02Z</time>
      </trkpt>
      <trkpt lat="48.85506" lon="2.05743">
        <ele>179.1</ele>
        <time>2016-12-03T11:43:05Z</time>
      </trkpt>
      <trkpt lat="48.85498" lon="2.05756">
        <ele>179.2</ele>
        <time>2016-12-03T11:43:08Z</time>
      </trkpt>
      <trkpt lat="48.85491" lon="2.05767">
        <ele>179.5</ele>
        <time>2016-12-03T11:43:11Z</time>
      </trkpt>
      <trkpt lat="48.85484" lon="2.05777">
        <ele>179.8</ele>
        <time>2016-12-03T11:43:14Z</time>
      </trkpt>
      <trkpt lat="48.85478" lon="2.05788">
        <ele>180</ele>
        <time>2016-12-03T11:43:16Z</time>
      </trkpt>
      <trkpt lat="48.8547" lon="2.058">
        <ele>180.2</ele>
        <time>2016-12-03T11:43:19Z</time>
      </trkpt>
      <trkpt lat="48.85461" lon="2.05815">
        <ele>180.5</ele>
        <time>2016-12-03T11:43:22Z</time>
      </trkpt>
      <trkpt lat="48.85454" lon="2.0583">
        <ele>180.7</ele>
        <time>2016-12-03T11:43:25Z</time>
      </trkpt>
      <trkpt lat="48.85447" lon="2.05841">
        <ele>180.6</ele>
        <time>2016-12-03T11:43:28Z</time>
      </trkpt>
      <trkpt lat="48.85439" lon="2.05854">
        <ele>180.6</ele>
        <time>2016-12-03T11:43:31Z</time>
      </trkpt>
      <trkpt lat="48.85431" lon="2.05867">
        <ele>180.5</ele>
        <time>2016-12-03T11:43:34Z</time>
      </trkpt>
      <trkpt lat="48.85423" lon="2.0588">
        <ele>180.4</ele>
        <time>2016-12-03T11:43:37Z</time>
      </trkpt>
      <trkpt lat="48.85414" lon="2.05894">
        <ele>180.4</ele>
        <time>2016-12-03T11:43:40Z</time>
      </trkpt>
      <trkpt lat="48.85406" lon="2.05904">
        <ele>180.5</ele>
        <time>2016-12-03T11:43:43Z</time>
      </trkpt>
      <trkpt lat="48.85399" lon="2.05917">
        <ele>180.8</ele>
        <time>2016-12-03T11:43:46Z</time>
      </trkpt>
      <trkpt lat="48.85393" lon="2.05927">
        <ele>181.1</ele>
        <time>2016-12-03T11:43:49Z</time>
      </trkpt>
      <trkpt lat="48.85386" lon="2.05938">
        <ele>181.4</ele>
        <time>2016-12-03T11:43:52Z</time>
      </trkpt>
      <trkpt lat="48.85379" lon="2.05949">
        <ele>181.6</ele>
        <time>2016-12-03T11:43:55Z</time>
      </trkpt>
      <trkpt lat="48.85373" lon="2.05962">
        <ele>181.8</ele>
        <time>2016-12-03T11:43:57Z</time>
      </trkpt>
      <trkpt lat="48.85367" lon="2.05973">
        <ele>181.9</ele>
        <time>2016-12-03T11:43:59Z</time>
      </trkpt>
      <trkpt lat="48.85357" lon="2.05988">
        <ele>181.9</ele>
        <time>2016-12-03T11:44:02Z</time>
      </trkpt>
      <trkpt lat="48.85351" lon="2.06">
        <ele>181.8</ele>
        <time>2016-12-03T11:44:04Z</time>
      </trkpt>
      <trkpt lat="48.85343" lon="2.06015">
        <ele>181.3</ele>
        <time>2016-12-03T11:44:07Z</time>
      </trkpt>
      <trkpt lat="48.85336" lon="2.06025">
        <ele>180.8</ele>
        <time>2016-12-03T11:44:09Z</time>
      </trkpt>
      <trkpt lat="48.85327" lon="2.06038">
        <ele>180.1</ele>
        <time>2016-12-03T11:44:11Z</time>
      </trkpt>
      <trkpt lat="48.8532" lon="2.06048">
        <ele>179.6</ele>
        <time>2016-12-03T11:44:13Z</time>
      </trkpt>
      <trkpt lat="48.8531" lon="2.06064">
        <ele>178.7</ele>
        <time>2016-12-03T11:44:15Z</time>
      </trkpt>
      <trkpt lat="48.85301" lon="2.06077">
        <ele>178.1</ele>
        <time>2016-12-03T11:44:17Z</time>
      </trkpt>
      <trkpt lat="48.85294" lon="2.06091">
        <ele>177.7</ele>
        <time>2016-12-03T11:44:19Z</time>
      </trkpt>
      <trkpt lat="48.85287" lon="2.06106">
        <ele>177.3</ele>
        <time>2016-12-03T11:44:21Z</time>
      </trkpt>
      <trkpt lat="48.85278" lon="2.06123">
        <ele>176.5</ele>
        <time>2016-12-03T11:44:23Z</time>
      </trkpt>
      <trkpt lat="48.85269" lon="2.06141">
        <ele>175.5</ele>
        <time>2016-12-03T11:44:25Z</time>
      </trkpt>
      <trkpt lat="48.85259" lon="2.06153">
        <ele>174.3</ele>
        <time>2016-12-03T11:44:27Z</time>
      </trkpt>
      <trkpt lat="48.85249" lon="2.06171">
        <ele>173.2</ele>
        <time>2016-12-03T11:44:29Z</time>
      </trkpt>
      <trkpt lat="48.85243" lon="2.06181">
        <ele>173.1</ele>
        <time>2016-12-03T11:44:30Z</time>
      </trkpt>
      <trkpt lat="48.85233" lon="2.06198">
        <ele>173</ele>
        <time>2016-12-03T11:44:32Z</time>
      </trkpt>
      <trkpt lat="48.85223" lon="2.0622">
        <ele>172.9</ele>
        <time>2016-12-03T11:44:34Z</time>
      </trkpt>
      <trkpt lat="48.85214" lon="2.06236">
        <ele>172.6</ele>
        <time>2016-12-03T11:44:36Z</time>
      </trkpt>
      <trkpt lat="48.85206" lon="2.06251">
        <ele>172.2</ele>
        <time>2016-12-03T11:44:38Z</time>
      </trkpt>
      <trkpt lat="48.852" lon="2.06263">
        <ele>172.1</ele>
        <time>2016-12-03T11:44:40Z</time>
      </trkpt>
      <trkpt lat="48.85192" lon="2.06275">
        <ele>171.8</ele>
        <time>2016-12-03T11:44:44Z</time>
      </trkpt>
      <trkpt lat="48.85185" lon="2.06288">
        <ele>171.8</ele>
        <time>2016-12-03T11:44:48Z</time>
      </trkpt>
      <trkpt lat="48.85179" lon="2.063">
        <ele>171.9</ele>
        <time>2016-12-03T11:44:52Z</time>
      </trkpt>
      <trkpt lat="48.85173" lon="2.06311">
        <ele>172</ele>
        <time>2016-12-03T11:45:00Z</time>
      </trkpt>
      <trkpt lat="48.85173" lon="2.06311">
        <ele>172</ele>
        <time>2016-12-03T11:45:01Z</time>
      </trkpt>
      <trkpt lat="48.85167" lon="2.06323">
        <ele>172.2</ele>
        <time>2016-12-03T11:45:11Z</time>
      </trkpt>
      <trkpt lat="48.8516" lon="2.06332">
        <ele>172.4</ele>
        <time>2016-12-03T11:45:22Z</time>
      </trkpt>
      <trkpt lat="48.85154" lon="2.06343">
        <ele>172.8</ele>
        <time>2016-12-03T11:45:29Z</time>
      </trkpt>
      <trkpt lat="48.85148" lon="2.06354">
        <ele>173.1</ele>
        <time>2016-12-03T11:45:34Z</time>
      </trkpt>
      <trkpt lat="48.85142" lon="2.06364">
        <ele>173.5</ele>
        <time>2016-12-03T11:45:41Z</time>
      </trkpt>
      <trkpt lat="48.85135" lon="2.06372">
        <ele>173.7</ele>
        <time>2016-12-03T11:45:48Z</time>
      </trkpt>
      <trkpt lat="48.85126" lon="2.06378">
        <ele>173.7</ele>
        <time>2016-12-03T11:45:55Z</time>
      </trkpt>
      <trkpt lat="48.85117" lon="2.06384">
        <ele>173.9</ele>
        <time>2016-12-03T11:46:00Z</time>
      </trkpt>
      <trkpt lat="48.85111" lon="2.06393">
        <ele>174.4</ele>
        <time>2016-12-03T11:46:09Z</time>
      </trkpt>
      <trkpt lat="48.85119" lon="2.06398">
        <ele>175.2</ele>
        <time>2016-12-03T11:46:16Z</time>
      </trkpt>
      <trkpt lat="48.85131" lon="2.064">
        <ele>175.7</ele>
        <time>2016-12-03T11:46:22Z</time>
      </trkpt>
      <trkpt lat="48.85142" lon="2.06403">
        <ele>176.3</ele>
        <time>2016-12-03T11:46:26Z</time>
      </trkpt>
      <trkpt lat="48.85145" lon="2.06404">
        <ele>176.5</ele>
        <time>2016-12-03T11:46:36Z</time>
      </trkpt>
      <trkpt lat="48.85157" lon="2.06403">
        <ele>176.8</ele>
        <time>2016-12-03T11:47:01Z</time>
      </trkpt>
      <trkpt lat="48.85169" lon="2.06407">
        <ele>177.6</ele>
        <time>2016-12-03T11:47:05Z</time>
      </trkpt>
      <trkpt lat="48.85179" lon="2.0641">
        <ele>178.7</ele>
        <time>2016-12-03T11:47:08Z</time>
      </trkpt>
      <trkpt lat="48.85189" lon="2.06414">
        <ele>179.7</ele>
        <time>2016-12-03T11:47:11Z</time>
      </trkpt>
      <trkpt lat="48.85198" lon="2.06419">
        <ele>180.8</ele>
        <time>2016-12-03T11:47:14Z</time>
      </trkpt>
      <trkpt lat="48.85204" lon="2.0643">
        <ele>182.1</ele>
        <time>2016-12-03T11:47:18Z</time>
      </trkpt>
      <trkpt lat="48.85204" lon="2.0644">
        <ele>182.7</ele>
        <time>2016-12-03T11:47:27Z</time>
      </trkpt>
      <trkpt lat="48.85197" lon="2.0645">
        <ele>183</ele>
        <time>2016-12-03T11:48:23Z</time>
      </trkpt>
      <trkpt lat="48.85192" lon="2.06462">
        <ele>183.6</ele>
        <time>2016-12-03T11:48:29Z</time>
      </trkpt>
      <trkpt lat="48.85187" lon="2.06474">
        <ele>184.3</ele>
        <time>2016-12-03T11:48:34Z</time>
      </trkpt>
      <trkpt lat="48.85182" lon="2.06487">
        <ele>185.2</ele>
        <time>2016-12-03T11:48:39Z</time>
      </trkpt>
      <trkpt lat="48.85177" lon="2.06501">
        <ele>186.3</ele>
        <time>2016-12-03T11:48:44Z</time>
      </trkpt>
      <trkpt lat="48.85172" lon="2.06514">
        <ele>186.6</ele>
        <time>2016-12-03T11:48:48Z</time>
      </trkpt>
      <trkpt lat="48.85167" lon="2.06526">
        <ele>186.9</ele>
        <time>2016-12-03T11:48:52Z</time>
      </trkpt>
      <trkpt lat="48.85161" lon="2.06538">
        <ele>187.3</ele>
        <time>2016-12-03T11:48:57Z</time>
      </trkpt>
      <trkpt lat="48.85156" lon="2.06551">
        <ele>187.6</ele>
        <time>2016-12-03T11:49:02Z</time>
      </trkpt>
      <trkpt lat="48.85151" lon="2.06562">
        <ele>187.9</ele>
        <time>2016-12-03T11:49:06Z</time>
      </trkpt>
      <trkpt lat="48.85144" lon="2.06576">
        <ele>188.2</ele>
        <time>2016-12-03T11:49:10Z</time>
      </trkpt>
      <trkpt lat="48.85137" lon="2.06589">
        <ele>188.4</ele>
        <time>2016-12-03T11:49:14Z</time>
      </trkpt>
      <trkpt lat="48.85131" lon="2.06602">
        <ele>188.4</ele>
        <time>2016-12-03T11:49:17Z</time>
      </trkpt>
      <trkpt lat="48.85125" lon="2.06614">
        <ele>188.4</ele>
        <time>2016-12-03T11:49:20Z</time>
      </trkpt>
      <trkpt lat="48.85119" lon="2.06626">
        <ele>188.4</ele>
        <time>2016-12-03T11:49:23Z</time>
      </trkpt>
      <trkpt lat="48.85112" lon="2.0664">
        <ele>188.4</ele>
        <time>2016-12-03T11:49:26Z</time>
      </trkpt>
      <trkpt lat="48.85105" lon="2.06654">
        <ele>188.4</ele>
        <time>2016-12-03T11:49:29Z</time>
      </trkpt>
      <trkpt lat="48.85098" lon="2.06669">
        <ele>188.3</ele>
        <time>2016-12-03T11:49:32Z</time>
      </trkpt>
      <trkpt lat="48.85091" lon="2.06684">
        <ele>188</ele>
        <time>2016-12-03T11:49:35Z</time>
      </trkpt>
      <trkpt lat="48.85083" lon="2.06699">
        <ele>187.6</ele>
        <time>2016-12-03T11:49:38Z</time>
      </trkpt>
      <trkpt lat="48.85078" lon="2.06714">
        <ele>187.3</ele>
        <time>2016-12-03T11:49:41Z</time>
      </trkpt>
      <trkpt lat="48.8507" lon="2.06729">
        <ele>187</ele>
        <time>2016-12-03T11:49:44Z</time>
      </trkpt>
      <trkpt lat="48.85064" lon="2.06743">
        <ele>186.8</ele>
        <time>2016-12-03T11:49:47Z</time>
      </trkpt>
      <trkpt lat="48.85054" lon="2.06747">
        <ele>186.7</ele>
        <time>2016-12-03T11:49:52Z</time>
      </trkpt>
      <trkpt lat="48.85047" lon="2.06748">
        <ele>186.6</ele>
        <time>2016-12-03T11:50:01Z</time>
      </trkpt>
      <trkpt lat="48.85037" lon="2.06746">
        <ele>186.4</ele>
        <time>2016-12-03T11:50:06Z</time>
      </trkpt>
      <trkpt lat="48.85027" lon="2.06745">
        <ele>186.3</ele>
        <time>2016-12-03T11:50:09Z</time>
      </trkpt>
      <trkpt lat="48.85016" lon="2.06739">
        <ele>186.1</ele>
        <time>2016-12-03T11:50:13Z</time>
      </trkpt>
      <trkpt lat="48.85007" lon="2.06737">
        <ele>185.9</ele>
        <time>2016-12-03T11:50:16Z</time>
      </trkpt>
      <trkpt lat="48.84998" lon="2.06737">
        <ele>185.9</ele>
        <time>2016-12-03T11:50:19Z</time>
      </trkpt>
      <trkpt lat="48.84987" lon="2.06739">
        <ele>186.1</ele>
        <time>2016-12-03T11:50:22Z</time>
      </trkpt>
      <trkpt lat="48.84977" lon="2.06741">
        <ele>186.4</ele>
        <time>2016-12-03T11:50:25Z</time>
      </trkpt>
      <trkpt lat="48.84967" lon="2.06741">
        <ele>186.6</ele>
        <time>2016-12-03T11:50:28Z</time>
      </trkpt>
      <trkpt lat="48.84956" lon="2.06741">
        <ele>186.8</ele>
        <time>2016-12-03T11:50:31Z</time>
      </trkpt>
      <trkpt lat="48.84946" lon="2.06742">
        <ele>187</ele>
        <time>2016-12-03T11:50:34Z</time>
      </trkpt>
      <trkpt lat="48.84934" lon="2.06745">
        <ele>187.4</ele>
        <time>2016-12-03T11:50:37Z</time>
      </trkpt>
      <trkpt lat="48.84925" lon="2.06747">
        <ele>187.7</ele>
        <time>2016-12-03T11:50:43Z</time>
      </trkpt>
      <trkpt lat="48.84921" lon="2.06751">
        <ele>187.9</ele>
        <time>2016-12-03T11:50:52Z</time>
      </trkpt>
      <trkpt lat="48.84914" lon="2.06755">
        <ele>188</ele>
        <time>2016-12-03T11:50:56Z</time>
      </trkpt>
      <trkpt lat="48.84907" lon="2.06757">
        <ele>188</ele>
        <time>2016-12-03T11:51:01Z</time>
      </trkpt>
      <trkpt lat="48.84899" lon="2.06759">
        <ele>188</ele>
        <time>2016-12-03T11:51:06Z</time>
      </trkpt>
      <trkpt lat="48.84888" lon="2.06763">
        <ele>188</ele>
        <time>2016-12-03T11:51:12Z</time>
      </trkpt>
      <trkpt lat="48.84878" lon="2.06763">
        <ele>188</ele>
        <time>2016-12-03T11:51:18Z</time>
      </trkpt>
      <trkpt lat="48.84867" lon="2.06759">
        <ele>187.7</ele>
        <time>2016-12-03T11:51:26Z</time>
      </trkpt>
      <trkpt lat="48.84857" lon="2.06752">
        <ele>187.4</ele>
        <time>2016-12-03T11:51:32Z</time>
      </trkpt>
      <trkpt lat="48.84849" lon="2.06748">
        <ele>186.9</ele>
        <time>2016-12-03T11:51:38Z</time>
      </trkpt>
      <trkpt lat="48.8484" lon="2.06742">
        <ele>186.1</ele>
        <time>2016-12-03T11:51:43Z</time>
      </trkpt>
      <trkpt lat="48.84832" lon="2.06735">
        <ele>185.2</ele>
        <time>2016-12-03T11:51:49Z</time>
      </trkpt>
      <trkpt lat="48.84824" lon="2.0673">
        <ele>184.8</ele>
        <time>2016-12-03T11:51:54Z</time>
      </trkpt>
      <trkpt lat="48.84816" lon="2.06727">
        <ele>184.6</ele>
        <time>2016-12-03T11:51:59Z</time>
      </trkpt>
      <trkpt lat="48.84807" lon="2.06724">
        <ele>184.6</ele>
        <time>2016-12-03T11:52:05Z</time>
      </trkpt>
      <trkpt lat="48.84797" lon="2.06722">
        <ele>184.6</ele>
        <time>2016-12-03T11:52:11Z</time>
      </trkpt>
      <trkpt lat="48.84789" lon="2.06722">
        <ele>184.8</ele>
        <time>2016-12-03T11:52:16Z</time>
      </trkpt>
      <trkpt lat="48.84785" lon="2.06722">
        <ele>184.9</ele>
        <time>2016-12-03T11:52:19Z</time>
      </trkpt>
      <trkpt lat="48.8478" lon="2.06717">
        <ele>184.6</ele>
        <time>2016-12-03T11:52:22Z</time>
      </trkpt>
      <trkpt lat="48.84777" lon="2.06712">
        <ele>184.3</ele>
        <time>2016-12-03T11:52:25Z</time>
      </trkpt>
      <trkpt lat="48.84768" lon="2.0671">
        <ele>184.5</ele>
        <time>2016-12-03T11:52:30Z</time>
      </trkpt>
      <trkpt lat="48.84767" lon="2.06724">
        <ele>185.6</ele>
        <time>2016-12-03T11:52:36Z</time>
      </trkpt>
      <trkpt lat="48.84765" lon="2.0674">
        <ele>187</ele>
        <time>2016-12-03T11:52:43Z</time>
      </trkpt>
      <trkpt lat="48.84762" lon="2.06756">
        <ele>188</ele>
        <time>2016-12-03T11:52:49Z</time>
      </trkpt>
      <trkpt lat="48.84755" lon="2.06767">
        <ele>188.4</ele>
        <time>2016-12-03T11:52:55Z</time>
      </trkpt>
      <trkpt lat="48.84748" lon="2.06765">
        <ele>188.3</ele>
        <time>2016-12-03T11:53:00Z</time>
      </trkpt>
      <trkpt lat="48.84739" lon="2.06762">
        <ele>188.1</ele>
        <time>2016-12-03T11:53:06Z</time>
      </trkpt>
      <trkpt lat="48.84731" lon="2.06758">
        <ele>187.9</ele>
        <time>2016-12-03T11:53:11Z</time>
      </trkpt>
      <trkpt lat="48.84722" lon="2.06753">
        <ele>187.7</ele>
        <time>2016-12-03T11:53:17Z</time>
      </trkpt>
      <trkpt lat="48.84712" lon="2.06749">
        <ele>187.5</ele>
        <time>2016-12-03T11:53:23Z</time>
      </trkpt>
      <trkpt lat="48.84702" lon="2.06746">
        <ele>187.2</ele>
        <time>2016-12-03T11:53:29Z</time>
      </trkpt>
      <trkpt lat="48.84692" lon="2.06743">
        <ele>186.8</ele>
        <time>2016-12-03T11:53:36Z</time>
      </trkpt>
      <trkpt lat="48.84682" lon="2.06741">
        <ele>186.6</ele>
        <time>2016-12-03T11:53:42Z</time>
      </trkpt>
      <trkpt lat="48.84673" lon="2.06742">
        <ele>186.5</ele>
        <time>2016-12-03T11:53:47Z</time>
      </trkpt>
      <trkpt lat="48.84664" lon="2.06739">
        <ele>186</ele>
        <time>2016-12-03T11:53:53Z</time>
      </trkpt>
      <trkpt lat="48.84656" lon="2.06737">
        <ele>185</ele>
        <time>2016-12-03T11:53:58Z</time>
      </trkpt>
      <trkpt lat="48.84647" lon="2.06735">
        <ele>183.9</ele>
        <time>2016-12-03T11:54:04Z</time>
      </trkpt>
      <trkpt lat="48.84639" lon="2.06733">
        <ele>183</ele>
        <time>2016-12-03T11:54:09Z</time>
      </trkpt>
      <trkpt lat="48.8463" lon="2.06732">
        <ele>182</ele>
        <time>2016-12-03T11:54:14Z</time>
      </trkpt>
      <trkpt lat="48.84621" lon="2.06729">
        <ele>181</ele>
        <time>2016-12-03T11:54:19Z</time>
      </trkpt>
      <trkpt lat="48.84613" lon="2.06726">
        <ele>179.9</ele>
        <time>2016-12-03T11:54:25Z</time>
      </trkpt>
      <trkpt lat="48.84604" lon="2.06722">
        <ele>178.8</ele>
        <time>2016-12-03T11:54:30Z</time>
      </trkpt>
      <trkpt lat="48.846" lon="2.06721">
        <ele>178.3</ele>
        <time>2016-12-03T11:54:33Z</time>
      </trkpt>
      <trkpt lat="48.84592" lon="2.0672">
        <ele>177.4</ele>
        <time>2016-12-03T11:54:38Z</time>
      </trkpt>
      <trkpt lat="48.84584" lon="2.06718">
        <ele>176.5</ele>
        <time>2016-12-03T11:54:43Z</time>
      </trkpt>
      <trkpt lat="48.84577" lon="2.06718">
        <ele>175.8</ele>
        <time>2016-12-03T11:54:47Z</time>
      </trkpt>
      <trkpt lat="48.8457" lon="2.06717">
        <ele>174.9</ele>
        <time>2016-12-03T11:54:52Z</time>
      </trkpt>
      <trkpt lat="48.84567" lon="2.06726">
        <ele>175</ele>
        <time>2016-12-03T11:54:56Z</time>
      </trkpt>
      <trkpt lat="48.84565" lon="2.06733">
        <ele>175.1</ele>
        <time>2016-12-03T11:55:27Z</time>
      </trkpt>
      <trkpt lat="48.84562" lon="2.06742">
        <ele>175.3</ele>
        <time>2016-12-03T11:55:32Z</time>
      </trkpt>
      <trkpt lat="48.84557" lon="2.06753">
        <ele>175.1</ele>
        <time>2016-12-03T11:55:36Z</time>
      </trkpt>
      <trkpt lat="48.84549" lon="2.06765">
        <ele>173.8</ele>
        <time>2016-12-03T11:55:39Z</time>
      </trkpt>
      <trkpt lat="48.84538" lon="2.06779">
        <ele>172.3</ele>
        <time>2016-12-03T11:55:41Z</time>
      </trkpt>
      <trkpt lat="48.84529" lon="2.06789">
        <ele>170.9</ele>
        <time>2016-12-03T11:55:43Z</time>
      </trkpt>
      <trkpt lat="48.84521" lon="2.06802">
        <ele>169.5</ele>
        <time>2016-12-03T11:55:45Z</time>
      </trkpt>
      <trkpt lat="48.84512" lon="2.06814">
        <ele>168.1</ele>
        <time>2016-12-03T11:55:47Z</time>
      </trkpt>
      <trkpt lat="48.84503" lon="2.06827">
        <ele>166.6</ele>
        <time>2016-12-03T11:55:49Z</time>
      </trkpt>
      <trkpt lat="48.84495" lon="2.06841">
        <ele>165.5</ele>
        <time>2016-12-03T11:55:51Z</time>
      </trkpt>
      <trkpt lat="48.84489" lon="2.06858">
        <ele>164.7</ele>
        <time>2016-12-03T11:55:53Z</time>
      </trkpt>
      <trkpt lat="48.84485" lon="2.06879">
        <ele>164.2</ele>
        <time>2016-12-03T11:55:55Z</time>
      </trkpt>
      <trkpt lat="48.84482" lon="2.06902">
        <ele>163.6</ele>
        <time>2016-12-03T11:55:57Z</time>
      </trkpt>
      <trkpt lat="48.8448" lon="2.06924">
        <ele>163.2</ele>
        <time>2016-12-03T11:55:59Z</time>
      </trkpt>
      <trkpt lat="48.84477" lon="2.06944">
        <ele>162.8</ele>
        <time>2016-12-03T11:56:01Z</time>
      </trkpt>
      <trkpt lat="48.84475" lon="2.06963">
        <ele>162.4</ele>
        <time>2016-12-03T11:56:03Z</time>
      </trkpt>
      <trkpt lat="48.84473" lon="2.06981">
        <ele>162</ele>
        <time>2016-12-03T11:56:05Z</time>
      </trkpt>
      <trkpt lat="48.84471" lon="2.06999">
        <ele>161.7</ele>
        <time>2016-12-03T11:56:07Z</time>
      </trkpt>
      <trkpt lat="48.84469" lon="2.07016">
        <ele>161.4</ele>
        <time>2016-12-03T11:56:09Z</time>
      </trkpt>
      <trkpt lat="48.84467" lon="2.07035">
        <ele>161.1</ele>
        <time>2016-12-03T11:56:11Z</time>
      </trkpt>
      <trkpt lat="48.84465" lon="2.07053">
        <ele>160.8</ele>
        <time>2016-12-03T11:56:13Z</time>
      </trkpt>
      <trkpt lat="48.84464" lon="2.07071">
        <ele>160.5</ele>
        <time>2016-12-03T11:56:15Z</time>
      </trkpt>
      <trkpt lat="48.84462" lon="2.07091">
        <ele>160.1</ele>
        <time>2016-12-03T11:56:17Z</time>
      </trkpt>
      <trkpt lat="48.8446" lon="2.07113">
        <ele>159.4</ele>
        <time>2016-12-03T11:56:19Z</time>
      </trkpt>
      <trkpt lat="48.84457" lon="2.07136">
        <ele>158.7</ele>
        <time>2016-12-03T11:56:21Z</time>
      </trkpt>
      <trkpt lat="48.84454" lon="2.0716">
        <ele>157.9</ele>
        <time>2016-12-03T11:56:23Z</time>
      </trkpt>
      <trkpt lat="48.84452" lon="2.07185">
        <ele>157.1</ele>
        <time>2016-12-03T11:56:25Z</time>
      </trkpt>
      <trkpt lat="48.8445" lon="2.07211">
        <ele>156.2</ele>
        <time>2016-12-03T11:56:27Z</time>
      </trkpt>
      <trkpt lat="48.84449" lon="2.07239">
        <ele>155.5</ele>
        <time>2016-12-03T11:56:29Z</time>
      </trkpt>
      <trkpt lat="48.84448" lon="2.07253">
        <ele>155.1</ele>
        <time>2016-12-03T11:56:30Z</time>
      </trkpt>
      <trkpt lat="48.84448" lon="2.07267">
        <ele>154.8</ele>
        <time>2016-12-03T11:56:31Z</time>
      </trkpt>
      <trkpt lat="48.84448" lon="2.07282">
        <ele>154.6</ele>
        <time>2016-12-03T11:56:32Z</time>
      </trkpt>
      <trkpt lat="48.84448" lon="2.07296">
        <ele>154.3</ele>
        <time>2016-12-03T11:56:33Z</time>
      </trkpt>
      <trkpt lat="48.84448" lon="2.07311">
        <ele>154</ele>
        <time>2016-12-03T11:56:34Z</time>
      </trkpt>
      <trkpt lat="48.84446" lon="2.07326">
        <ele>153.6</ele>
        <time>2016-12-03T11:56:35Z</time>
      </trkpt>
      <trkpt lat="48.84445" lon="2.0734">
        <ele>153.4</ele>
        <time>2016-12-03T11:56:36Z</time>
      </trkpt>
      <trkpt lat="48.84443" lon="2.07355">
        <ele>153.3</ele>
        <time>2016-12-03T11:56:37Z</time>
      </trkpt>
      <trkpt lat="48.84441" lon="2.0737">
        <ele>153.2</ele>
        <time>2016-12-03T11:56:38Z</time>
      </trkpt>
      <trkpt lat="48.84439" lon="2.07384">
        <ele>153</ele>
        <time>2016-12-03T11:56:39Z</time>
      </trkpt>
      <trkpt lat="48.84438" lon="2.07407">
        <ele>152.8</ele>
        <time>2016-12-03T11:56:41Z</time>
      </trkpt>
      <trkpt lat="48.84437" lon="2.07424">
        <ele>153.2</ele>
        <time>2016-12-03T11:56:43Z</time>
      </trkpt>
      <trkpt lat="48.84435" lon="2.07439">
        <ele>154</ele>
        <time>2016-12-03T11:56:46Z</time>
      </trkpt>
      <trkpt lat="48.84433" lon="2.07453">
        <ele>154.8</ele>
        <time>2016-12-03T11:56:49Z</time>
      </trkpt>
      <trkpt lat="48.84431" lon="2.07469">
        <ele>155.8</ele>
        <time>2016-12-03T11:56:52Z</time>
      </trkpt>
      <trkpt lat="48.84429" lon="2.07485">
        <ele>156.7</ele>
        <time>2016-12-03T11:56:55Z</time>
      </trkpt>
      <trkpt lat="48.84427" lon="2.07502">
        <ele>157.6</ele>
        <time>2016-12-03T11:56:58Z</time>
      </trkpt>
      <trkpt lat="48.84425" lon="2.0752">
        <ele>159</ele>
        <time>2016-12-03T11:57:01Z</time>
      </trkpt>
      <trkpt lat="48.84424" lon="2.07536">
        <ele>160.5</ele>
        <time>2016-12-03T11:57:04Z</time>
      </trkpt>
      <trkpt lat="48.84422" lon="2.07553">
        <ele>161.9</ele>
        <time>2016-12-03T11:57:08Z</time>
      </trkpt>
      <trkpt lat="48.84421" lon="2.07567">
        <ele>163</ele>
        <time>2016-12-03T11:57:13Z</time>
      </trkpt>
      <trkpt lat="48.84419" lon="2.07581">
        <ele>164.1</ele>
        <time>2016-12-03T11:57:18Z</time>
      </trkpt>
      <trkpt lat="48.84416" lon="2.07596">
        <ele>164.5</ele>
        <time>2016-12-03T11:57:23Z</time>
      </trkpt>
      <trkpt lat="48.84413" lon="2.07609">
        <ele>164.8</ele>
        <time>2016-12-03T11:57:27Z</time>
      </trkpt>
      <trkpt lat="48.84411" lon="2.07623">
        <ele>165.3</ele>
        <time>2016-12-03T11:57:32Z</time>
      </trkpt>
      <trkpt lat="48.84409" lon="2.07637">
        <ele>165.8</ele>
        <time>2016-12-03T11:57:38Z</time>
      </trkpt>
      <trkpt lat="48.84407" lon="2.07652">
        <ele>166.3</ele>
        <time>2016-12-03T11:57:43Z</time>
      </trkpt>
      <trkpt lat="48.84405" lon="2.07667">
        <ele>166.9</ele>
        <time>2016-12-03T11:57:48Z</time>
      </trkpt>
      <trkpt lat="48.84404" lon="2.07683">
        <ele>166.7</ele>
        <time>2016-12-03T11:57:53Z</time>
      </trkpt>
      <trkpt lat="48.84403" lon="2.07699">
        <ele>166.5</ele>
        <time>2016-12-03T11:57:57Z</time>
      </trkpt>
      <trkpt lat="48.84402" lon="2.07716">
        <ele>166.4</ele>
        <time>2016-12-03T11:58:01Z</time>
      </trkpt>
      <trkpt lat="48.84402" lon="2.07731">
        <ele>166.3</ele>
        <time>2016-12-03T11:58:04Z</time>
      </trkpt>
      <trkpt lat="48.84402" lon="2.07747">
        <ele>166.3</ele>
        <time>2016-12-03T11:58:07Z</time>
      </trkpt>
      <trkpt lat="48.84404" lon="2.07761">
        <ele>166.2</ele>
        <time>2016-12-03T11:58:09Z</time>
      </trkpt>
      <trkpt lat="48.84403" lon="2.07775">
        <ele>165.8</ele>
        <time>2016-12-03T11:58:10Z</time>
      </trkpt>
      <trkpt lat="48.84403" lon="2.07797">
        <ele>165.3</ele>
        <time>2016-12-03T11:58:12Z</time>
      </trkpt>
      <trkpt lat="48.84405" lon="2.07819">
        <ele>164.9</ele>
        <time>2016-12-03T11:58:14Z</time>
      </trkpt>
      <trkpt lat="48.84406" lon="2.07841">
        <ele>164.8</ele>
        <time>2016-12-03T11:58:16Z</time>
      </trkpt>
      <trkpt lat="48.84405" lon="2.07855">
        <ele>164.7</ele>
        <time>2016-12-03T11:58:17Z</time>
      </trkpt>
      <trkpt lat="48.84403" lon="2.07872">
        <ele>164.5</ele>
        <time>2016-12-03T11:58:18Z</time>
      </trkpt>
      <trkpt lat="48.844" lon="2.07886">
        <ele>164.3</ele>
        <time>2016-12-03T11:58:19Z</time>
      </trkpt>
      <trkpt lat="48.84398" lon="2.07911">
        <ele>164.1</ele>
        <time>2016-12-03T11:58:21Z</time>
      </trkpt>
      <trkpt lat="48.84397" lon="2.07933">
        <ele>163.8</ele>
        <time>2016-12-03T11:58:23Z</time>
      </trkpt>
      <trkpt lat="48.84395" lon="2.07953">
        <ele>163.3</ele>
        <time>2016-12-03T11:58:25Z</time>
      </trkpt>
      <trkpt lat="48.84394" lon="2.07975">
        <ele>163</ele>
        <time>2016-12-03T11:58:27Z</time>
      </trkpt>
      <trkpt lat="48.84394" lon="2.07996">
        <ele>162.8</ele>
        <time>2016-12-03T11:58:29Z</time>
      </trkpt>
      <trkpt lat="48.84393" lon="2.08018">
        <ele>162.4</ele>
        <time>2016-12-03T11:58:31Z</time>
      </trkpt>
      <trkpt lat="48.84392" lon="2.08039">
        <ele>162</ele>
        <time>2016-12-03T11:58:33Z</time>
      </trkpt>
      <trkpt lat="48.84391" lon="2.08058">
        <ele>161.6</ele>
        <time>2016-12-03T11:58:35Z</time>
      </trkpt>
      <trkpt lat="48.84391" lon="2.08072">
        <ele>161.4</ele>
        <time>2016-12-03T11:58:37Z</time>
      </trkpt>
      <trkpt lat="48.8439" lon="2.08088">
        <ele>161.3</ele>
        <time>2016-12-03T11:58:40Z</time>
      </trkpt>
      <trkpt lat="48.8439" lon="2.08105">
        <ele>162</ele>
        <time>2016-12-03T11:58:45Z</time>
      </trkpt>
      <trkpt lat="48.84388" lon="2.08118">
        <ele>162.5</ele>
        <time>2016-12-03T11:58:49Z</time>
      </trkpt>
      <trkpt lat="48.84387" lon="2.08132">
        <ele>163</ele>
        <time>2016-12-03T11:58:52Z</time>
      </trkpt>
      <trkpt lat="48.84387" lon="2.08148">
        <ele>163.6</ele>
        <time>2016-12-03T11:58:55Z</time>
      </trkpt>
      <trkpt lat="48.84388" lon="2.08165">
        <ele>164.5</ele>
        <time>2016-12-03T11:58:59Z</time>
      </trkpt>
      <trkpt lat="48.84384" lon="2.08182">
        <ele>164.5</ele>
        <time>2016-12-03T11:59:03Z</time>
      </trkpt>
      <trkpt lat="48.84379" lon="2.08199">
        <ele>164.2</ele>
        <time>2016-12-03T11:59:07Z</time>
      </trkpt>
      <trkpt lat="48.84373" lon="2.08219">
        <ele>163.9</ele>
        <time>2016-12-03T11:59:10Z</time>
      </trkpt>
      <trkpt lat="48.84369" lon="2.08235">
        <ele>163.7</ele>
        <time>2016-12-03T11:59:12Z</time>
      </trkpt>
      <trkpt lat="48.84364" lon="2.08251">
        <ele>163.4</ele>
        <time>2016-12-03T11:59:14Z</time>
      </trkpt>
      <trkpt lat="48.84359" lon="2.08272">
        <ele>163.3</ele>
        <time>2016-12-03T11:59:16Z</time>
      </trkpt>
      <trkpt lat="48.84353" lon="2.08298">
        <ele>163.3</ele>
        <time>2016-12-03T11:59:18Z</time>
      </trkpt>
      <trkpt lat="48.84348" lon="2.08324">
        <ele>163.3</ele>
        <time>2016-12-03T11:59:20Z</time>
      </trkpt>
      <trkpt lat="48.84341" lon="2.08349">
        <ele>163</ele>
        <time>2016-12-03T11:59:22Z</time>
      </trkpt>
      <trkpt lat="48.84335" lon="2.08375">
        <ele>162.7</ele>
        <time>2016-12-03T11:59:24Z</time>
      </trkpt>
      <trkpt lat="48.84328" lon="2.08397">
        <ele>162.1</ele>
        <time>2016-12-03T11:59:26Z</time>
      </trkpt>
      <trkpt lat="48.84321" lon="2.08417">
        <ele>161.7</ele>
        <time>2016-12-03T11:59:28Z</time>
      </trkpt>
      <trkpt lat="48.84314" lon="2.08428">
        <ele>162.2</ele>
        <time>2016-12-03T11:59:30Z</time>
      </trkpt>
      <trkpt lat="48.84309" lon="2.08443">
        <ele>163.2</ele>
        <time>2016-12-03T11:59:33Z</time>
      </trkpt>
      <trkpt lat="48.84306" lon="2.08456">
        <ele>164.3</ele>
        <time>2016-12-03T11:59:39Z</time>
      </trkpt>
      <trkpt lat="48.84305" lon="2.0846">
        <ele>164.5</ele>
        <time>2016-12-03T11:59:49Z</time>
      </trkpt>
      <trkpt lat="48.84296" lon="2.0848">
        <ele>165.8</ele>
        <time>2016-12-03T12:01:37Z</time>
      </trkpt>
      <trkpt lat="48.84291" lon="2.08492">
        <ele>166.5</ele>
        <time>2016-12-03T12:01:42Z</time>
      </trkpt>
      <trkpt lat="48.84286" lon="2.08504">
        <ele>167</ele>
        <time>2016-12-03T12:01:45Z</time>
      </trkpt>
      <trkpt lat="48.84279" lon="2.08518">
        <ele>167</ele>
        <time>2016-12-03T12:01:48Z</time>
      </trkpt>
      <trkpt lat="48.84272" lon="2.08531">
        <ele>167</ele>
        <time>2016-12-03T12:01:50Z</time>
      </trkpt>
      <trkpt lat="48.84264" lon="2.08547">
        <ele>166.9</ele>
        <time>2016-12-03T12:01:52Z</time>
      </trkpt>
      <trkpt lat="48.84255" lon="2.08562">
        <ele>166.6</ele>
        <time>2016-12-03T12:01:54Z</time>
      </trkpt>
      <trkpt lat="48.84245" lon="2.08579">
        <ele>166</ele>
        <time>2016-12-03T12:01:56Z</time>
      </trkpt>
      <trkpt lat="48.84235" lon="2.08593">
        <ele>164.9</ele>
        <time>2016-12-03T12:01:58Z</time>
      </trkpt>
      <trkpt lat="48.84227" lon="2.08604">
        <ele>163.8</ele>
        <time>2016-12-03T12:02:00Z</time>
      </trkpt>
      <trkpt lat="48.84219" lon="2.08614">
        <ele>162.7</ele>
        <time>2016-12-03T12:02:02Z</time>
      </trkpt>
      <trkpt lat="48.8421" lon="2.08621">
        <ele>161.5</ele>
        <time>2016-12-03T12:02:04Z</time>
      </trkpt>
      <trkpt lat="48.84201" lon="2.0863">
        <ele>160.2</ele>
        <time>2016-12-03T12:02:07Z</time>
      </trkpt>
      <trkpt lat="48.84192" lon="2.0864">
        <ele>158.8</ele>
        <time>2016-12-03T12:02:10Z</time>
      </trkpt>
      <trkpt lat="48.84183" lon="2.08652">
        <ele>157.6</ele>
        <time>2016-12-03T12:02:12Z</time>
      </trkpt>
      <trkpt lat="48.84176" lon="2.08662">
        <ele>156.5</ele>
        <time>2016-12-03T12:02:14Z</time>
      </trkpt>
      <trkpt lat="48.84169" lon="2.08673">
        <ele>155.8</ele>
        <time>2016-12-03T12:02:17Z</time>
      </trkpt>
      <trkpt lat="48.84162" lon="2.08684">
        <ele>156.1</ele>
        <time>2016-12-03T12:02:20Z</time>
      </trkpt>
      <trkpt lat="48.84157" lon="2.08695">
        <ele>156.7</ele>
        <time>2016-12-03T12:02:23Z</time>
      </trkpt>
      <trkpt lat="48.84149" lon="2.08705">
        <ele>157.2</ele>
        <time>2016-12-03T12:02:27Z</time>
      </trkpt>
      <trkpt lat="48.84141" lon="2.08712">
        <ele>157.4</ele>
        <time>2016-12-03T12:02:30Z</time>
      </trkpt>
      <trkpt lat="48.84133" lon="2.0872">
        <ele>157.7</ele>
        <time>2016-12-03T12:02:33Z</time>
      </trkpt>
      <trkpt lat="48.84124" lon="2.08728">
        <ele>158</ele>
        <time>2016-12-03T12:02:36Z</time>
      </trkpt>
      <trkpt lat="48.84113" lon="2.08737">
        <ele>158.2</ele>
        <time>2016-12-03T12:02:39Z</time>
      </trkpt>
      <trkpt lat="48.84104" lon="2.08747">
        <ele>158.5</ele>
        <time>2016-12-03T12:02:41Z</time>
      </trkpt>
      <trkpt lat="48.84095" lon="2.08756">
        <ele>158.7</ele>
        <time>2016-12-03T12:02:44Z</time>
      </trkpt>
      <trkpt lat="48.84087" lon="2.08763">
        <ele>158.8</ele>
        <time>2016-12-03T12:02:47Z</time>
      </trkpt>
      <trkpt lat="48.84077" lon="2.08767">
        <ele>158.5</ele>
        <time>2016-12-03T12:02:51Z</time>
      </trkpt>
      <trkpt lat="48.84067" lon="2.08767">
        <ele>158.2</ele>
        <time>2016-12-03T12:02:55Z</time>
      </trkpt>
      <trkpt lat="48.84062" lon="2.08783">
        <ele>158.7</ele>
        <time>2016-12-03T12:03:01Z</time>
      </trkpt>
      <trkpt lat="48.84054" lon="2.08792">
        <ele>158.8</ele>
        <time>2016-12-03T12:03:08Z</time>
      </trkpt>
      <trkpt lat="48.84046" lon="2.08801">
        <ele>158.8</ele>
        <time>2016-12-03T12:03:11Z</time>
      </trkpt>
      <trkpt lat="48.84038" lon="2.0881">
        <ele>158.8</ele>
        <time>2016-12-03T12:03:13Z</time>
      </trkpt>
      <trkpt lat="48.8403" lon="2.08823">
        <ele>159</ele>
        <time>2016-12-03T12:03:16Z</time>
      </trkpt>
      <trkpt lat="48.84022" lon="2.08836">
        <ele>159.1</ele>
        <time>2016-12-03T12:03:19Z</time>
      </trkpt>
      <trkpt lat="48.84014" lon="2.0885">
        <ele>158.9</ele>
        <time>2016-12-03T12:03:22Z</time>
      </trkpt>
      <trkpt lat="48.84006" lon="2.08863">
        <ele>158.7</ele>
        <time>2016-12-03T12:03:25Z</time>
      </trkpt>
      <trkpt lat="48.83999" lon="2.08877">
        <ele>158.4</ele>
        <time>2016-12-03T12:03:28Z</time>
      </trkpt>
      <trkpt lat="48.83991" lon="2.08893">
        <ele>158.1</ele>
        <time>2016-12-03T12:03:31Z</time>
      </trkpt>
      <trkpt lat="48.83985" lon="2.08905">
        <ele>157.8</ele>
        <time>2016-12-03T12:03:33Z</time>
      </trkpt>
      <trkpt lat="48.83979" lon="2.08917">
        <ele>157.5</ele>
        <time>2016-12-03T12:03:35Z</time>
      </trkpt>
      <trkpt lat="48.83973" lon="2.0893">
        <ele>157</ele>
        <time>2016-12-03T12:03:37Z</time>
      </trkpt>
      <trkpt lat="48.83966" lon="2.08944">
        <ele>156.5</ele>
        <time>2016-12-03T12:03:39Z</time>
      </trkpt>
      <trkpt lat="48.8396" lon="2.0896">
        <ele>156.1</ele>
        <time>2016-12-03T12:03:41Z</time>
      </trkpt>
      <trkpt lat="48.83956" lon="2.08976">
        <ele>155.9</ele>
        <time>2016-12-03T12:03:43Z</time>
      </trkpt>
      <trkpt lat="48.83954" lon="2.08993">
        <ele>155.8</ele>
        <time>2016-12-03T12:03:45Z</time>
      </trkpt>
      <trkpt lat="48.83952" lon="2.09009">
        <ele>155.8</ele>
        <time>2016-12-03T12:03:47Z</time>
      </trkpt>
      <trkpt lat="48.83949" lon="2.09024">
        <ele>155.9</ele>
        <time>2016-12-03T12:03:49Z</time>
      </trkpt>
      <trkpt lat="48.83947" lon="2.0904">
        <ele>156</ele>
        <time>2016-12-03T12:03:51Z</time>
      </trkpt>
      <trkpt lat="48.83946" lon="2.09056">
        <ele>156.1</ele>
        <time>2016-12-03T12:03:53Z</time>
      </trkpt>
      <trkpt lat="48.83946" lon="2.09074">
        <ele>156.3</ele>
        <time>2016-12-03T12:03:55Z</time>
      </trkpt>
      <trkpt lat="48.83945" lon="2.09091">
        <ele>156.4</ele>
        <time>2016-12-03T12:03:57Z</time>
      </trkpt>
      <trkpt lat="48.83944" lon="2.09108">
        <ele>156.4</ele>
        <time>2016-12-03T12:03:59Z</time>
      </trkpt>
      <trkpt lat="48.83943" lon="2.09124">
        <ele>156.3</ele>
        <time>2016-12-03T12:04:01Z</time>
      </trkpt>
      <trkpt lat="48.83943" lon="2.0914">
        <ele>156.4</ele>
        <time>2016-12-03T12:04:03Z</time>
      </trkpt>
      <trkpt lat="48.83944" lon="2.09155">
        <ele>156.5</ele>
        <time>2016-12-03T12:04:05Z</time>
      </trkpt>
      <trkpt lat="48.83944" lon="2.0917">
        <ele>156.8</ele>
        <time>2016-12-03T12:04:07Z</time>
      </trkpt>
      <trkpt lat="48.83945" lon="2.09184">
        <ele>157.7</ele>
        <time>2016-12-03T12:04:09Z</time>
      </trkpt>
      <trkpt lat="48.83946" lon="2.09199">
        <ele>158.7</ele>
        <time>2016-12-03T12:04:11Z</time>
      </trkpt>
      <trkpt lat="48.83946" lon="2.09215">
        <ele>159.6</ele>
        <time>2016-12-03T12:04:13Z</time>
      </trkpt>
      <trkpt lat="48.83946" lon="2.0923">
        <ele>160.5</ele>
        <time>2016-12-03T12:04:15Z</time>
      </trkpt>
      <trkpt lat="48.83946" lon="2.09246">
        <ele>161.5</ele>
        <time>2016-12-03T12:04:17Z</time>
      </trkpt>
      <trkpt lat="48.83946" lon="2.09261">
        <ele>161.7</ele>
        <time>2016-12-03T12:04:19Z</time>
      </trkpt>
      <trkpt lat="48.83939" lon="2.09279">
        <ele>161.2</ele>
        <time>2016-12-03T12:04:21Z</time>
      </trkpt>
      <trkpt lat="48.83931" lon="2.09295">
        <ele>160.5</ele>
        <time>2016-12-03T12:04:23Z</time>
      </trkpt>
      <trkpt lat="48.83925" lon="2.0931">
        <ele>159.9</ele>
        <time>2016-12-03T12:04:25Z</time>
      </trkpt>
      <trkpt lat="48.83918" lon="2.09328">
        <ele>159.2</ele>
        <time>2016-12-03T12:04:27Z</time>
      </trkpt>
      <trkpt lat="48.83909" lon="2.09335">
        <ele>158</ele>
        <time>2016-12-03T12:04:28Z</time>
      </trkpt>
      <trkpt lat="48.83858" lon="2.09349">
        <ele>151.6</ele>
        <time>2016-12-03T12:04:33Z</time>
      </trkpt>
      <trkpt lat="48.83837" lon="2.09394">
        <ele>146</ele>
        <time>2016-12-03T12:04:38Z</time>
      </trkpt>
      <trkpt lat="48.83833" lon="2.09412">
        <ele>144.3</ele>
        <time>2016-12-03T12:04:39Z</time>
      </trkpt>
      <trkpt lat="48.83833" lon="2.09436">
        <ele>144.6</ele>
        <time>2016-12-03T12:04:41Z</time>
      </trkpt>
      <trkpt lat="48.83832" lon="2.09459">
        <ele>145.4</ele>
        <time>2016-12-03T12:04:43Z</time>
      </trkpt>
      <trkpt lat="48.83833" lon="2.0948">
        <ele>146.3</ele>
        <time>2016-12-03T12:04:45Z</time>
      </trkpt>
      <trkpt lat="48.83836" lon="2.095">
        <ele>147.2</ele>
        <time>2016-12-03T12:04:47Z</time>
      </trkpt>
      <trkpt lat="48.83839" lon="2.09518">
        <ele>148.1</ele>
        <time>2016-12-03T12:04:49Z</time>
      </trkpt>
      <trkpt lat="48.83842" lon="2.09534">
        <ele>148.9</ele>
        <time>2016-12-03T12:04:51Z</time>
      </trkpt>
      <trkpt lat="48.83845" lon="2.09551">
        <ele>149.7</ele>
        <time>2016-12-03T12:04:53Z</time>
      </trkpt>
      <trkpt lat="48.83849" lon="2.09568">
        <ele>150.7</ele>
        <time>2016-12-03T12:04:55Z</time>
      </trkpt>
      <trkpt lat="48.83853" lon="2.09585">
        <ele>151.5</ele>
        <time>2016-12-03T12:04:57Z</time>
      </trkpt>
      <trkpt lat="48.83855" lon="2.09602">
        <ele>151.5</ele>
        <time>2016-12-03T12:04:59Z</time>
      </trkpt>
      <trkpt lat="48.83856" lon="2.09617">
        <ele>151.3</ele>
        <time>2016-12-03T12:05:01Z</time>
      </trkpt>
      <trkpt lat="48.83857" lon="2.09632">
        <ele>151.1</ele>
        <time>2016-12-03T12:05:03Z</time>
      </trkpt>
      <trkpt lat="48.83857" lon="2.09649">
        <ele>150.7</ele>
        <time>2016-12-03T12:05:05Z</time>
      </trkpt>
      <trkpt lat="48.83856" lon="2.09667">
        <ele>150.2</ele>
        <time>2016-12-03T12:05:07Z</time>
      </trkpt>
      <trkpt lat="48.83857" lon="2.09681">
        <ele>149.8</ele>
        <time>2016-12-03T12:05:09Z</time>
      </trkpt>
      <trkpt lat="48.83857" lon="2.09695">
        <ele>149.4</ele>
        <time>2016-12-03T12:05:11Z</time>
      </trkpt>
      <trkpt lat="48.83857" lon="2.09709">
        <ele>149.1</ele>
        <time>2016-12-03T12:05:13Z</time>
      </trkpt>
      <trkpt lat="48.83858" lon="2.09727">
        <ele>148.6</ele>
        <time>2016-12-03T12:05:16Z</time>
      </trkpt>
      <trkpt lat="48.83858" lon="2.09745">
        <ele>148.1</ele>
        <time>2016-12-03T12:05:19Z</time>
      </trkpt>
      <trkpt lat="48.83861" lon="2.09759">
        <ele>148.4</ele>
        <time>2016-12-03T12:05:22Z</time>
      </trkpt>
      <trkpt lat="48.8386" lon="2.09777">
        <ele>149.2</ele>
        <time>2016-12-03T12:05:25Z</time>
      </trkpt>
      <trkpt lat="48.8386" lon="2.09796">
        <ele>150.1</ele>
        <time>2016-12-03T12:05:28Z</time>
      </trkpt>
      <trkpt lat="48.8386" lon="2.09812">
        <ele>150.9</ele>
        <time>2016-12-03T12:05:31Z</time>
      </trkpt>
      <trkpt lat="48.8386" lon="2.09826">
        <ele>151.5</ele>
        <time>2016-12-03T12:05:34Z</time>
      </trkpt>
      <trkpt lat="48.8386" lon="2.09842">
        <ele>152.3</ele>
        <time>2016-12-03T12:05:38Z</time>
      </trkpt>
      <trkpt lat="48.83859" lon="2.09856">
        <ele>153</ele>
        <time>2016-12-03T12:05:42Z</time>
      </trkpt>
      <trkpt lat="48.83858" lon="2.09873">
        <ele>153.7</ele>
        <time>2016-12-03T12:05:47Z</time>
      </trkpt>
      <trkpt lat="48.83858" lon="2.0989">
        <ele>154.5</ele>
        <time>2016-12-03T12:05:52Z</time>
      </trkpt>
      <trkpt lat="48.83857" lon="2.09906">
        <ele>155.2</ele>
        <time>2016-12-03T12:05:57Z</time>
      </trkpt>
      <trkpt lat="48.83856" lon="2.09921">
        <ele>155.7</ele>
        <time>2016-12-03T12:06:01Z</time>
      </trkpt>
      <trkpt lat="48.83854" lon="2.09936">
        <ele>156.2</ele>
        <time>2016-12-03T12:06:05Z</time>
      </trkpt>
      <trkpt lat="48.83851" lon="2.09955">
        <ele>156.7</ele>
        <time>2016-12-03T12:06:09Z</time>
      </trkpt>
      <trkpt lat="48.83849" lon="2.09969">
        <ele>157</ele>
        <time>2016-12-03T12:06:12Z</time>
      </trkpt>
      <trkpt lat="48.83848" lon="2.09984">
        <ele>157.4</ele>
        <time>2016-12-03T12:06:15Z</time>
      </trkpt>
      <trkpt lat="48.83846" lon="2.09998">
        <ele>157.9</ele>
        <time>2016-12-03T12:06:18Z</time>
      </trkpt>
      <trkpt lat="48.83845" lon="2.10013">
        <ele>158.3</ele>
        <time>2016-12-03T12:06:21Z</time>
      </trkpt>
      <trkpt lat="48.83843" lon="2.10027">
        <ele>158.7</ele>
        <time>2016-12-03T12:06:24Z</time>
      </trkpt>
      <trkpt lat="48.83841" lon="2.10042">
        <ele>159</ele>
        <time>2016-12-03T12:06:27Z</time>
      </trkpt>
      <trkpt lat="48.8384" lon="2.10059">
        <ele>159.6</ele>
        <time>2016-12-03T12:06:31Z</time>
      </trkpt>
      <trkpt lat="48.83838" lon="2.10077">
        <ele>160.1</ele>
        <time>2016-12-03T12:06:35Z</time>
      </trkpt>
      <trkpt lat="48.83837" lon="2.10091">
        <ele>160.4</ele>
        <time>2016-12-03T12:06:38Z</time>
      </trkpt>
      <trkpt lat="48.83836" lon="2.10105">
        <ele>160.5</ele>
        <time>2016-12-03T12:06:41Z</time>
      </trkpt>
      <trkpt lat="48.83835" lon="2.1012">
        <ele>160.5</ele>
        <time>2016-12-03T12:06:44Z</time>
      </trkpt>
      <trkpt lat="48.83833" lon="2.10133">
        <ele>160.5</ele>
        <time>2016-12-03T12:06:47Z</time>
      </trkpt>
      <trkpt lat="48.8383" lon="2.10148">
        <ele>160.4</ele>
        <time>2016-12-03T12:06:50Z</time>
      </trkpt>
      <trkpt lat="48.83829" lon="2.10162">
        <ele>160.3</ele>
        <time>2016-12-03T12:06:53Z</time>
      </trkpt>
      <trkpt lat="48.83827" lon="2.10176">
        <ele>160</ele>
        <time>2016-12-03T12:06:56Z</time>
      </trkpt>
      <trkpt lat="48.83826" lon="2.10193">
        <ele>159.5</ele>
        <time>2016-12-03T12:07:00Z</time>
      </trkpt>
      <trkpt lat="48.83824" lon="2.10209">
        <ele>159</ele>
        <time>2016-12-03T12:07:04Z</time>
      </trkpt>
      <trkpt lat="48.83823" lon="2.10227">
        <ele>158.6</ele>
        <time>2016-12-03T12:07:08Z</time>
      </trkpt>
      <trkpt lat="48.83823" lon="2.10245">
        <ele>158.2</ele>
        <time>2016-12-03T12:07:11Z</time>
      </trkpt>
      <trkpt lat="48.83822" lon="2.10264">
        <ele>158.2</ele>
        <time>2016-12-03T12:07:14Z</time>
      </trkpt>
      <trkpt lat="48.83822" lon="2.10283">
        <ele>158.3</ele>
        <time>2016-12-03T12:07:17Z</time>
      </trkpt>
      <trkpt lat="48.83821" lon="2.10297">
        <ele>158.4</ele>
        <time>2016-12-03T12:07:19Z</time>
      </trkpt>
      <trkpt lat="48.83821" lon="2.10311">
        <ele>158.4</ele>
        <time>2016-12-03T12:07:21Z</time>
      </trkpt>
      <trkpt lat="48.83821" lon="2.10327">
        <ele>158.6</ele>
        <time>2016-12-03T12:07:23Z</time>
      </trkpt>
      <trkpt lat="48.83821" lon="2.10344">
        <ele>158.6</ele>
        <time>2016-12-03T12:07:25Z</time>
      </trkpt>
      <trkpt lat="48.8382" lon="2.10362">
        <ele>158.5</ele>
        <time>2016-12-03T12:07:27Z</time>
      </trkpt>
      <trkpt lat="48.8382" lon="2.1038">
        <ele>158.4</ele>
        <time>2016-12-03T12:07:29Z</time>
      </trkpt>
      <trkpt lat="48.8382" lon="2.10398">
        <ele>158.4</ele>
        <time>2016-12-03T12:07:31Z</time>
      </trkpt>
      <trkpt lat="48.83819" lon="2.10415">
        <ele>158.3</ele>
        <time>2016-12-03T12:07:33Z</time>
      </trkpt>
      <trkpt lat="48.8382" lon="2.10432">
        <ele>157.5</ele>
        <time>2016-12-03T12:07:35Z</time>
      </trkpt>
      <trkpt lat="48.8382" lon="2.10449">
        <ele>156.5</ele>
        <time>2016-12-03T12:07:37Z</time>
      </trkpt>
      <trkpt lat="48.8382" lon="2.10467">
        <ele>155.6</ele>
        <time>2016-12-03T12:07:39Z</time>
      </trkpt>
      <trkpt lat="48.83819" lon="2.10483">
        <ele>154.6</ele>
        <time>2016-12-03T12:07:41Z</time>
      </trkpt>
      <trkpt lat="48.83819" lon="2.10499">
        <ele>153.8</ele>
        <time>2016-12-03T12:07:43Z</time>
      </trkpt>
      <trkpt lat="48.83819" lon="2.10513">
        <ele>153.4</ele>
        <time>2016-12-03T12:07:45Z</time>
      </trkpt>
      <trkpt lat="48.83819" lon="2.10527">
        <ele>153.1</ele>
        <time>2016-12-03T12:07:47Z</time>
      </trkpt>
      <trkpt lat="48.8382" lon="2.10541">
        <ele>152.9</ele>
        <time>2016-12-03T12:07:49Z</time>
      </trkpt>
      <trkpt lat="48.83821" lon="2.10561">
        <ele>152.6</ele>
        <time>2016-12-03T12:07:52Z</time>
      </trkpt>
      <trkpt lat="48.83821" lon="2.10575">
        <ele>152.3</ele>
        <time>2016-12-03T12:07:54Z</time>
      </trkpt>
      <trkpt lat="48.83822" lon="2.10594">
        <ele>152.4</ele>
        <time>2016-12-03T12:07:57Z</time>
      </trkpt>
      <trkpt lat="48.83823" lon="2.10612">
        <ele>153</ele>
        <time>2016-12-03T12:08:00Z</time>
      </trkpt>
      <trkpt lat="48.83823" lon="2.10629">
        <ele>153.5</ele>
        <time>2016-12-03T12:08:03Z</time>
      </trkpt>
      <trkpt lat="48.83823" lon="2.10646">
        <ele>153.9</ele>
        <time>2016-12-03T12:08:06Z</time>
      </trkpt>
      <trkpt lat="48.83822" lon="2.10661">
        <ele>154.3</ele>
        <time>2016-12-03T12:08:09Z</time>
      </trkpt>
      <trkpt lat="48.83822" lon="2.10677">
        <ele>155.3</ele>
        <time>2016-12-03T12:08:12Z</time>
      </trkpt>
      <trkpt lat="48.8382" lon="2.10693">
        <ele>156.4</ele>
        <time>2016-12-03T12:08:15Z</time>
      </trkpt>
      <trkpt lat="48.83819" lon="2.1071">
        <ele>157.7</ele>
        <time>2016-12-03T12:08:19Z</time>
      </trkpt>
      <trkpt lat="48.83817" lon="2.10727">
        <ele>159</ele>
        <time>2016-12-03T12:08:23Z</time>
      </trkpt>
      <trkpt lat="48.83816" lon="2.10741">
        <ele>160</ele>
        <time>2016-12-03T12:08:27Z</time>
      </trkpt>
      <trkpt lat="48.83815" lon="2.10757">
        <ele>161</ele>
        <time>2016-12-03T12:08:33Z</time>
      </trkpt>
      <trkpt lat="48.83813" lon="2.1077">
        <ele>161.6</ele>
        <time>2016-12-03T12:08:38Z</time>
      </trkpt>
      <trkpt lat="48.83812" lon="2.10784">
        <ele>162.2</ele>
        <time>2016-12-03T12:08:43Z</time>
      </trkpt>
      <trkpt lat="48.8381" lon="2.108">
        <ele>162.9</ele>
        <time>2016-12-03T12:08:49Z</time>
      </trkpt>
      <trkpt lat="48.83808" lon="2.10816">
        <ele>163.5</ele>
        <time>2016-12-03T12:08:55Z</time>
      </trkpt>
      <trkpt lat="48.83807" lon="2.10832">
        <ele>164.3</ele>
        <time>2016-12-03T12:09:01Z</time>
      </trkpt>
      <trkpt lat="48.83805" lon="2.10848">
        <ele>164.8</ele>
        <time>2016-12-03T12:09:07Z</time>
      </trkpt>
      <trkpt lat="48.83804" lon="2.10862">
        <ele>165.2</ele>
        <time>2016-12-03T12:09:12Z</time>
      </trkpt>
      <trkpt lat="48.83803" lon="2.10876">
        <ele>165.7</ele>
        <time>2016-12-03T12:09:17Z</time>
      </trkpt>
      <trkpt lat="48.83802" lon="2.10891">
        <ele>166.2</ele>
        <time>2016-12-03T12:09:22Z</time>
      </trkpt>
      <trkpt lat="48.838" lon="2.10906">
        <ele>166.6</ele>
        <time>2016-12-03T12:09:26Z</time>
      </trkpt>
      <trkpt lat="48.83798" lon="2.10923">
        <ele>166.8</ele>
        <time>2016-12-03T12:09:30Z</time>
      </trkpt>
      <trkpt lat="48.83796" lon="2.10939">
        <ele>166.6</ele>
        <time>2016-12-03T12:09:34Z</time>
      </trkpt>
      <trkpt lat="48.83795" lon="2.10957">
        <ele>166.3</ele>
        <time>2016-12-03T12:09:38Z</time>
      </trkpt>
      <trkpt lat="48.83794" lon="2.10975">
        <ele>166</ele>
        <time>2016-12-03T12:09:42Z</time>
      </trkpt>
      <trkpt lat="48.83793" lon="2.10989">
        <ele>165.8</ele>
        <time>2016-12-03T12:09:45Z</time>
      </trkpt>
      <trkpt lat="48.83793" lon="2.11003">
        <ele>165.6</ele>
        <time>2016-12-03T12:09:48Z</time>
      </trkpt>
      <trkpt lat="48.83793" lon="2.11021">
        <ele>165.6</ele>
        <time>2016-12-03T12:09:52Z</time>
      </trkpt>
      <trkpt lat="48.83793" lon="2.11031">
        <ele>165.6</ele>
        <time>2016-12-03T12:10:00Z</time>
      </trkpt>
      <trkpt lat="48.83788" lon="2.11043">
        <ele>165.2</ele>
        <time>2016-12-03T12:11:05Z</time>
      </trkpt>
      <trkpt lat="48.83786" lon="2.11058">
        <ele>165</ele>
        <time>2016-12-03T12:11:09Z</time>
      </trkpt>
      <trkpt lat="48.83777" lon="2.1107">
        <ele>164.2</ele>
        <time>2016-12-03T12:11:13Z</time>
      </trkpt>
      <trkpt lat="48.8377" lon="2.11084">
        <ele>163.7</ele>
        <time>2016-12-03T12:11:16Z</time>
      </trkpt>
      <trkpt lat="48.83769" lon="2.11098">
        <ele>164.3</ele>
        <time>2016-12-03T12:11:19Z</time>
      </trkpt>
      <trkpt lat="48.83776" lon="2.11108">
        <ele>165.5</ele>
        <time>2016-12-03T12:11:23Z</time>
      </trkpt>
      <trkpt lat="48.8378" lon="2.1112">
        <ele>166.6</ele>
        <time>2016-12-03T12:11:27Z</time>
      </trkpt>
      <trkpt lat="48.83775" lon="2.11141">
        <ele>167.1</ele>
        <time>2016-12-03T12:11:34Z</time>
      </trkpt>
      <trkpt lat="48.83765" lon="2.1115">
        <ele>166.4</ele>
        <time>2016-12-03T12:11:40Z</time>
      </trkpt>
      <trkpt lat="48.8376" lon="2.11155">
        <ele>166</ele>
        <time>2016-12-03T12:11:48Z</time>
      </trkpt>
      <trkpt lat="48.83749" lon="2.11162">
        <ele>164.7</ele>
        <time>2016-12-03T12:12:11Z</time>
      </trkpt>
      <trkpt lat="48.83741" lon="2.1118">
        <ele>164.3</ele>
        <time>2016-12-03T12:12:14Z</time>
      </trkpt>
      <trkpt lat="48.83734" lon="2.11193">
        <ele>163.8</ele>
        <time>2016-12-03T12:12:16Z</time>
      </trkpt>
      <trkpt lat="48.83728" lon="2.11207">
        <ele>163.4</ele>
        <time>2016-12-03T12:12:18Z</time>
      </trkpt>
      <trkpt lat="48.83722" lon="2.11219">
        <ele>163</ele>
        <time>2016-12-03T12:12:20Z</time>
      </trkpt>
      <trkpt lat="48.83716" lon="2.11231">
        <ele>162.6</ele>
        <time>2016-12-03T12:12:22Z</time>
      </trkpt>
      <trkpt lat="48.8371" lon="2.11246">
        <ele>162.2</ele>
        <time>2016-12-03T12:12:24Z</time>
      </trkpt>
      <trkpt lat="48.83704" lon="2.1126">
        <ele>161.9</ele>
        <time>2016-12-03T12:12:26Z</time>
      </trkpt>
      <trkpt lat="48.83698" lon="2.11273">
        <ele>161.5</ele>
        <time>2016-12-03T12:12:28Z</time>
      </trkpt>
      <trkpt lat="48.83693" lon="2.11285">
        <ele>161.2</ele>
        <time>2016-12-03T12:12:30Z</time>
      </trkpt>
      <trkpt lat="48.83686" lon="2.11301">
        <ele>160.9</ele>
        <time>2016-12-03T12:12:33Z</time>
      </trkpt>
      <trkpt lat="48.83679" lon="2.11316">
        <ele>160.3</ele>
        <time>2016-12-03T12:12:36Z</time>
      </trkpt>
      <trkpt lat="48.83673" lon="2.11331">
        <ele>159.8</ele>
        <time>2016-12-03T12:12:39Z</time>
      </trkpt>
      <trkpt lat="48.83666" lon="2.11345">
        <ele>159.4</ele>
        <time>2016-12-03T12:12:42Z</time>
      </trkpt>
      <trkpt lat="48.83659" lon="2.1136">
        <ele>159.4</ele>
        <time>2016-12-03T12:12:45Z</time>
      </trkpt>
      <trkpt lat="48.83649" lon="2.11374">
        <ele>159.2</ele>
        <time>2016-12-03T12:12:48Z</time>
      </trkpt>
      <trkpt lat="48.83642" lon="2.11383">
        <ele>159.2</ele>
        <time>2016-12-03T12:12:50Z</time>
      </trkpt>
      <trkpt lat="48.83633" lon="2.11393">
        <ele>159.2</ele>
        <time>2016-12-03T12:12:52Z</time>
      </trkpt>
      <trkpt lat="48.83626" lon="2.11404">
        <ele>159.3</ele>
        <time>2016-12-03T12:12:54Z</time>
      </trkpt>
      <trkpt lat="48.83619" lon="2.11416">
        <ele>159.6</ele>
        <time>2016-12-03T12:12:56Z</time>
      </trkpt>
      <trkpt lat="48.83612" lon="2.1143">
        <ele>160.1</ele>
        <time>2016-12-03T12:12:58Z</time>
      </trkpt>
      <trkpt lat="48.83607" lon="2.11446">
        <ele>160.7</ele>
        <time>2016-12-03T12:13:00Z</time>
      </trkpt>
      <trkpt lat="48.83603" lon="2.11461">
        <ele>161.3</ele>
        <time>2016-12-03T12:13:02Z</time>
      </trkpt>
      <trkpt lat="48.836" lon="2.11475">
        <ele>162</ele>
        <time>2016-12-03T12:13:04Z</time>
      </trkpt>
      <trkpt lat="48.836" lon="2.11489">
        <ele>162.8</ele>
        <time>2016-12-03T12:13:06Z</time>
      </trkpt>
      <trkpt lat="48.83599" lon="2.11509">
        <ele>163.4</ele>
        <time>2016-12-03T12:13:09Z</time>
      </trkpt>
      <trkpt lat="48.83604" lon="2.11525">
        <ele>163.7</ele>
        <time>2016-12-03T12:13:12Z</time>
      </trkpt>
      <trkpt lat="48.83607" lon="2.11544">
        <ele>164</ele>
        <time>2016-12-03T12:13:15Z</time>
      </trkpt>
      <trkpt lat="48.8361" lon="2.11562">
        <ele>164.3</ele>
        <time>2016-12-03T12:13:18Z</time>
      </trkpt>
      <trkpt lat="48.83612" lon="2.11578">
        <ele>164.7</ele>
        <time>2016-12-03T12:13:21Z</time>
      </trkpt>
      <trkpt lat="48.83614" lon="2.11596">
        <ele>165.4</ele>
        <time>2016-12-03T12:13:24Z</time>
      </trkpt>
      <trkpt lat="48.83617" lon="2.11612">
        <ele>166.3</ele>
        <time>2016-12-03T12:13:27Z</time>
      </trkpt>
      <trkpt lat="48.83619" lon="2.11627">
        <ele>167.2</ele>
        <time>2016-12-03T12:13:30Z</time>
      </trkpt>
      <trkpt lat="48.83622" lon="2.11643">
        <ele>168.1</ele>
        <time>2016-12-03T12:13:33Z</time>
      </trkpt>
      <trkpt lat="48.83624" lon="2.11658">
        <ele>169</ele>
        <time>2016-12-03T12:13:36Z</time>
      </trkpt>
      <trkpt lat="48.83626" lon="2.11673">
        <ele>169.6</ele>
        <time>2016-12-03T12:13:39Z</time>
      </trkpt>
      <trkpt lat="48.83628" lon="2.11688">
        <ele>169.6</ele>
        <time>2016-12-03T12:13:42Z</time>
      </trkpt>
      <trkpt lat="48.83631" lon="2.11702">
        <ele>169.7</ele>
        <time>2016-12-03T12:13:45Z</time>
      </trkpt>
      <trkpt lat="48.83633" lon="2.11717">
        <ele>169.7</ele>
        <time>2016-12-03T12:13:48Z</time>
      </trkpt>
      <trkpt lat="48.83634" lon="2.11734">
        <ele>169.6</ele>
        <time>2016-12-03T12:13:51Z</time>
      </trkpt>
      <trkpt lat="48.83635" lon="2.11752">
        <ele>169.5</ele>
        <time>2016-12-03T12:13:54Z</time>
      </trkpt>
      <trkpt lat="48.83635" lon="2.11768">
        <ele>169.9</ele>
        <time>2016-12-03T12:13:57Z</time>
      </trkpt>
      <trkpt lat="48.83636" lon="2.11783">
        <ele>170.3</ele>
        <time>2016-12-03T12:14:00Z</time>
      </trkpt>
      <trkpt lat="48.83636" lon="2.11799">
        <ele>170.7</ele>
        <time>2016-12-03T12:14:03Z</time>
      </trkpt>
      <trkpt lat="48.83637" lon="2.11814">
        <ele>171</ele>
        <time>2016-12-03T12:14:06Z</time>
      </trkpt>
      <trkpt lat="48.83636" lon="2.1183">
        <ele>171.4</ele>
        <time>2016-12-03T12:14:09Z</time>
      </trkpt>
      <trkpt lat="48.83636" lon="2.11846">
        <ele>171.8</ele>
        <time>2016-12-03T12:14:12Z</time>
      </trkpt>
      <trkpt lat="48.83636" lon="2.11861">
        <ele>172.1</ele>
        <time>2016-12-03T12:14:15Z</time>
      </trkpt>
      <trkpt lat="48.83635" lon="2.11876">
        <ele>172.5</ele>
        <time>2016-12-03T12:14:18Z</time>
      </trkpt>
      <trkpt lat="48.83634" lon="2.11895">
        <ele>172.9</ele>
        <time>2016-12-03T12:14:22Z</time>
      </trkpt>
      <trkpt lat="48.83634" lon="2.11911">
        <ele>173.3</ele>
        <time>2016-12-03T12:14:25Z</time>
      </trkpt>
      <trkpt lat="48.83632" lon="2.11926">
        <ele>173.4</ele>
        <time>2016-12-03T12:14:28Z</time>
      </trkpt>
      <trkpt lat="48.83632" lon="2.11941">
        <ele>173.6</ele>
        <time>2016-12-03T12:14:31Z</time>
      </trkpt>
      <trkpt lat="48.83631" lon="2.11957">
        <ele>173.6</ele>
        <time>2016-12-03T12:14:34Z</time>
      </trkpt>
      <trkpt lat="48.83629" lon="2.11972">
        <ele>173.6</ele>
        <time>2016-12-03T12:14:37Z</time>
      </trkpt>
      <trkpt lat="48.83628" lon="2.1199">
        <ele>173.7</ele>
        <time>2016-12-03T12:14:41Z</time>
      </trkpt>
      <trkpt lat="48.83627" lon="2.12003">
        <ele>173.7</ele>
        <time>2016-12-03T12:14:45Z</time>
      </trkpt>
      <trkpt lat="48.83625" lon="2.12018">
        <ele>173.5</ele>
        <time>2016-12-03T12:14:49Z</time>
      </trkpt>
      <trkpt lat="48.83626" lon="2.12032">
        <ele>173.6</ele>
        <time>2016-12-03T12:14:53Z</time>
      </trkpt>
      <trkpt lat="48.83627" lon="2.12049">
        <ele>173.6</ele>
        <time>2016-12-03T12:14:57Z</time>
      </trkpt>
      <trkpt lat="48.83624" lon="2.12066">
        <ele>173.4</ele>
        <time>2016-12-03T12:15:01Z</time>
      </trkpt>
      <trkpt lat="48.83622" lon="2.12081">
        <ele>173.3</ele>
        <time>2016-12-03T12:15:05Z</time>
      </trkpt>
      <trkpt lat="48.83626" lon="2.12084">
        <ele>173.6</ele>
        <time>2016-12-03T12:15:13Z</time>
      </trkpt>
      <trkpt lat="48.83635" lon="2.12091">
        <ele>174.3</ele>
        <time>2016-12-03T12:15:32Z</time>
      </trkpt>
      <trkpt lat="48.83645" lon="2.12097">
        <ele>175</ele>
        <time>2016-12-03T12:15:37Z</time>
      </trkpt>
      <trkpt lat="48.83653" lon="2.12103">
        <ele>175.5</ele>
        <time>2016-12-03T12:15:42Z</time>
      </trkpt>
      <trkpt lat="48.83662" lon="2.12111">
        <ele>176.1</ele>
        <time>2016-12-03T12:15:46Z</time>
      </trkpt>
      <trkpt lat="48.83671" lon="2.1212">
        <ele>176.7</ele>
        <time>2016-12-03T12:15:50Z</time>
      </trkpt>
      <trkpt lat="48.83681" lon="2.12128">
        <ele>177.5</ele>
        <time>2016-12-03T12:15:54Z</time>
      </trkpt>
      <trkpt lat="48.8369" lon="2.12134">
        <ele>178.1</ele>
        <time>2016-12-03T12:15:58Z</time>
      </trkpt>
      <trkpt lat="48.83699" lon="2.12141">
        <ele>178.7</ele>
        <time>2016-12-03T12:16:02Z</time>
      </trkpt>
      <trkpt lat="48.83708" lon="2.12147">
        <ele>179.4</ele>
        <time>2016-12-03T12:16:05Z</time>
      </trkpt>
      <trkpt lat="48.83718" lon="2.12152">
        <ele>180</ele>
        <time>2016-12-03T12:16:08Z</time>
      </trkpt>
      <trkpt lat="48.83726" lon="2.1216">
        <ele>180.6</ele>
        <time>2016-12-03T12:16:12Z</time>
      </trkpt>
      <trkpt lat="48.83735" lon="2.12172">
        <ele>181.1</ele>
        <time>2016-12-03T12:16:16Z</time>
      </trkpt>
      <trkpt lat="48.83744" lon="2.12183">
        <ele>181.6</ele>
        <time>2016-12-03T12:16:19Z</time>
      </trkpt>
      <trkpt lat="48.83753" lon="2.12194">
        <ele>181.9</ele>
        <time>2016-12-03T12:16:22Z</time>
      </trkpt>
      <trkpt lat="48.8376" lon="2.12204">
        <ele>181.7</ele>
        <time>2016-12-03T12:16:25Z</time>
      </trkpt>
      <trkpt lat="48.83768" lon="2.12218">
        <ele>181.3</ele>
        <time>2016-12-03T12:16:28Z</time>
      </trkpt>
      <trkpt lat="48.83774" lon="2.12229">
        <ele>180.9</ele>
        <time>2016-12-03T12:16:31Z</time>
      </trkpt>
      <trkpt lat="48.8378" lon="2.12243">
        <ele>180.4</ele>
        <time>2016-12-03T12:16:34Z</time>
      </trkpt>
      <trkpt lat="48.83781" lon="2.12257">
        <ele>180.1</ele>
        <time>2016-12-03T12:16:37Z</time>
      </trkpt>
      <trkpt lat="48.8378" lon="2.12273">
        <ele>180.2</ele>
        <time>2016-12-03T12:16:40Z</time>
      </trkpt>
      <trkpt lat="48.83775" lon="2.1229">
        <ele>180.5</ele>
        <time>2016-12-03T12:16:43Z</time>
      </trkpt>
      <trkpt lat="48.83768" lon="2.12307">
        <ele>180.9</ele>
        <time>2016-12-03T12:16:46Z</time>
      </trkpt>
      <trkpt lat="48.83764" lon="2.12319">
        <ele>181.2</ele>
        <time>2016-12-03T12:16:48Z</time>
      </trkpt>
      <trkpt lat="48.83759" lon="2.1233">
        <ele>181.4</ele>
        <time>2016-12-03T12:16:50Z</time>
      </trkpt>
      <trkpt lat="48.83753" lon="2.12347">
        <ele>182.3</ele>
        <time>2016-12-03T12:16:53Z</time>
      </trkpt>
      <trkpt lat="48.83746" lon="2.12363">
        <ele>182.8</ele>
        <time>2016-12-03T12:16:56Z</time>
      </trkpt>
      <trkpt lat="48.8374" lon="2.1238">
        <ele>183</ele>
        <time>2016-12-03T12:16:59Z</time>
      </trkpt>
      <trkpt lat="48.83733" lon="2.12397">
        <ele>183.1</ele>
        <time>2016-12-03T12:17:02Z</time>
      </trkpt>
      <trkpt lat="48.83728" lon="2.1241">
        <ele>183.2</ele>
        <time>2016-12-03T12:17:04Z</time>
      </trkpt>
      <trkpt lat="48.83723" lon="2.12423">
        <ele>183</ele>
        <time>2016-12-03T12:17:06Z</time>
      </trkpt>
      <trkpt lat="48.83718" lon="2.12435">
        <ele>182.5</ele>
        <time>2016-12-03T12:17:08Z</time>
      </trkpt>
      <trkpt lat="48.83713" lon="2.12447">
        <ele>182.1</ele>
        <time>2016-12-03T12:17:10Z</time>
      </trkpt>
      <trkpt lat="48.83709" lon="2.1246">
        <ele>181.8</ele>
        <time>2016-12-03T12:17:12Z</time>
      </trkpt>
      <trkpt lat="48.83704" lon="2.12473">
        <ele>181.4</ele>
        <time>2016-12-03T12:17:14Z</time>
      </trkpt>
      <trkpt lat="48.83699" lon="2.12486">
        <ele>181.2</ele>
        <time>2016-12-03T12:17:16Z</time>
      </trkpt>
      <trkpt lat="48.83694" lon="2.12499">
        <ele>181</ele>
        <time>2016-12-03T12:17:18Z</time>
      </trkpt>
      <trkpt lat="48.83688" lon="2.12512">
        <ele>181</ele>
        <time>2016-12-03T12:17:20Z</time>
      </trkpt>
      <trkpt lat="48.83684" lon="2.12525">
        <ele>181.1</ele>
        <time>2016-12-03T12:17:22Z</time>
      </trkpt>
      <trkpt lat="48.83679" lon="2.12537">
        <ele>181.4</ele>
        <time>2016-12-03T12:17:24Z</time>
      </trkpt>
      <trkpt lat="48.83675" lon="2.1255">
        <ele>181.7</ele>
        <time>2016-12-03T12:17:26Z</time>
      </trkpt>
      <trkpt lat="48.8367" lon="2.12562">
        <ele>182.2</ele>
        <time>2016-12-03T12:17:28Z</time>
      </trkpt>
      <trkpt lat="48.83665" lon="2.12574">
        <ele>182.5</ele>
        <time>2016-12-03T12:17:30Z</time>
      </trkpt>
      <trkpt lat="48.83659" lon="2.12586">
        <ele>182.5</ele>
        <time>2016-12-03T12:17:32Z</time>
      </trkpt>
      <trkpt lat="48.83653" lon="2.12599">
        <ele>182.4</ele>
        <time>2016-12-03T12:17:34Z</time>
      </trkpt>
      <trkpt lat="48.83647" lon="2.12611">
        <ele>182.3</ele>
        <time>2016-12-03T12:17:36Z</time>
      </trkpt>
      <trkpt lat="48.83642" lon="2.12623">
        <ele>182.3</ele>
        <time>2016-12-03T12:17:38Z</time>
      </trkpt>
      <trkpt lat="48.83636" lon="2.12635">
        <ele>182.2</ele>
        <time>2016-12-03T12:17:40Z</time>
      </trkpt>
      <trkpt lat="48.8363" lon="2.12647">
        <ele>182.2</ele>
        <time>2016-12-03T12:17:42Z</time>
      </trkpt>
      <trkpt lat="48.83624" lon="2.12659">
        <ele>182.2</ele>
        <time>2016-12-03T12:17:44Z</time>
      </trkpt>
      <trkpt lat="48.83619" lon="2.12672">
        <ele>182.2</ele>
        <time>2016-12-03T12:17:46Z</time>
      </trkpt>
      <trkpt lat="48.83614" lon="2.12684">
        <ele>182.1</ele>
        <time>2016-12-03T12:17:48Z</time>
      </trkpt>
      <trkpt lat="48.83608" lon="2.12697">
        <ele>182.1</ele>
        <time>2016-12-03T12:17:50Z</time>
      </trkpt>
      <trkpt lat="48.83602" lon="2.1271">
        <ele>182.2</ele>
        <time>2016-12-03T12:17:52Z</time>
      </trkpt>
      <trkpt lat="48.83597" lon="2.12723">
        <ele>182.4</ele>
        <time>2016-12-03T12:17:54Z</time>
      </trkpt>
      <trkpt lat="48.83591" lon="2.12736">
        <ele>182.6</ele>
        <time>2016-12-03T12:17:56Z</time>
      </trkpt>
      <trkpt lat="48.83586" lon="2.12749">
        <ele>183</ele>
        <time>2016-12-03T12:17:58Z</time>
      </trkpt>
      <trkpt lat="48.83581" lon="2.12762">
        <ele>182.9</ele>
        <time>2016-12-03T12:18:00Z</time>
      </trkpt>
      <trkpt lat="48.83575" lon="2.12775">
        <ele>182.6</ele>
        <time>2016-12-03T12:18:02Z</time>
      </trkpt>
      <trkpt lat="48.8357" lon="2.12788">
        <ele>182.4</ele>
        <time>2016-12-03T12:18:04Z</time>
      </trkpt>
      <trkpt lat="48.83565" lon="2.12801">
        <ele>182.1</ele>
        <time>2016-12-03T12:18:06Z</time>
      </trkpt>
      <trkpt lat="48.83561" lon="2.12813">
        <ele>181.9</ele>
        <time>2016-12-03T12:18:08Z</time>
      </trkpt>
      <trkpt lat="48.83556" lon="2.12831">
        <ele>181.7</ele>
        <time>2016-12-03T12:18:11Z</time>
      </trkpt>
      <trkpt lat="48.83552" lon="2.12847">
        <ele>181</ele>
        <time>2016-12-03T12:18:14Z</time>
      </trkpt>
      <trkpt lat="48.83548" lon="2.12863">
        <ele>180.2</ele>
        <time>2016-12-03T12:18:17Z</time>
      </trkpt>
      <trkpt lat="48.83543" lon="2.12877">
        <ele>179.5</ele>
        <time>2016-12-03T12:18:20Z</time>
      </trkpt>
      <trkpt lat="48.83537" lon="2.12889">
        <ele>178.9</ele>
        <time>2016-12-03T12:18:23Z</time>
      </trkpt>
      <trkpt lat="48.83531" lon="2.12904">
        <ele>178.2</ele>
        <time>2016-12-03T12:18:27Z</time>
      </trkpt>
      <trkpt lat="48.83529" lon="2.12913">
        <ele>177.8</ele>
        <time>2016-12-03T12:18:35Z</time>
      </trkpt>
      <trkpt lat="48.83522" lon="2.12926">
        <ele>177.5</ele>
        <time>2016-12-03T12:19:06Z</time>
      </trkpt>
      <trkpt lat="48.83511" lon="2.12928">
        <ele>177.2</ele>
        <time>2016-12-03T12:19:11Z</time>
      </trkpt>
      <trkpt lat="48.83502" lon="2.12937">
        <ele>177</ele>
        <time>2016-12-03T12:19:15Z</time>
      </trkpt>
      <trkpt lat="48.83499" lon="2.1295">
        <ele>177</ele>
        <time>2016-12-03T12:19:18Z</time>
      </trkpt>
      <trkpt lat="48.83496" lon="2.12967">
        <ele>176.9</ele>
        <time>2016-12-03T12:19:22Z</time>
      </trkpt>
      <trkpt lat="48.83492" lon="2.12981">
        <ele>176.8</ele>
        <time>2016-12-03T12:19:26Z</time>
      </trkpt>
      <trkpt lat="48.83497" lon="2.12996">
        <ele>176.9</ele>
        <time>2016-12-03T12:19:31Z</time>
      </trkpt>
      <trkpt lat="48.83502" lon="2.13012">
        <ele>177</ele>
        <time>2016-12-03T12:19:34Z</time>
      </trkpt>
      <trkpt lat="48.83506" lon="2.13026">
        <ele>177</ele>
        <time>2016-12-03T12:19:37Z</time>
      </trkpt>
      <trkpt lat="48.83504" lon="2.1304">
        <ele>177</ele>
        <time>2016-12-03T12:19:40Z</time>
      </trkpt>
      <trkpt lat="48.83504" lon="2.13058">
        <ele>177</ele>
        <time>2016-12-03T12:19:45Z</time>
      </trkpt>
      <trkpt lat="48.83503" lon="2.13072">
        <ele>177</ele>
        <time>2016-12-03T12:19:48Z</time>
      </trkpt>
      <trkpt lat="48.83499" lon="2.13086">
        <ele>177</ele>
        <time>2016-12-03T12:19:51Z</time>
      </trkpt>
      <trkpt lat="48.83494" lon="2.13094">
        <ele>176.9</ele>
        <time>2016-12-03T12:19:59Z</time>
      </trkpt>
      <trkpt lat="48.83486" lon="2.13102">
        <ele>176.9</ele>
        <time>2016-12-03T12:20:08Z</time>
      </trkpt>
      <trkpt lat="48.83478" lon="2.13109">
        <ele>176.9</ele>
        <time>2016-12-03T12:20:14Z</time>
      </trkpt>
      <trkpt lat="48.83467" lon="2.13114">
        <ele>176.9</ele>
        <time>2016-12-03T12:20:18Z</time>
      </trkpt>
      <trkpt lat="48.83456" lon="2.13119">
        <ele>177</ele>
        <time>2016-12-03T12:20:22Z</time>
      </trkpt>
      <trkpt lat="48.83447" lon="2.13125">
        <ele>177.1</ele>
        <time>2016-12-03T12:20:25Z</time>
      </trkpt>
      <trkpt lat="48.83436" lon="2.13135">
        <ele>177.3</ele>
        <time>2016-12-03T12:20:28Z</time>
      </trkpt>
      <trkpt lat="48.8343" lon="2.1315">
        <ele>177.5</ele>
        <time>2016-12-03T12:20:31Z</time>
      </trkpt>
      <trkpt lat="48.83425" lon="2.13165">
        <ele>177.8</ele>
        <time>2016-12-03T12:20:34Z</time>
      </trkpt>
      <trkpt lat="48.83421" lon="2.13179">
        <ele>178.2</ele>
        <time>2016-12-03T12:20:37Z</time>
      </trkpt>
      <trkpt lat="48.83416" lon="2.13195">
        <ele>178.7</ele>
        <time>2016-12-03T12:20:40Z</time>
      </trkpt>
      <trkpt lat="48.8341" lon="2.13207">
        <ele>178.9</ele>
        <time>2016-12-03T12:20:42Z</time>
      </trkpt>
      <trkpt lat="48.83405" lon="2.13221">
        <ele>179.2</ele>
        <time>2016-12-03T12:20:45Z</time>
      </trkpt>
      <trkpt lat="48.83402" lon="2.13236">
        <ele>179.6</ele>
        <time>2016-12-03T12:20:48Z</time>
      </trkpt>
      <trkpt lat="48.83398" lon="2.13252">
        <ele>180</ele>
        <time>2016-12-03T12:20:52Z</time>
      </trkpt>
      <trkpt lat="48.83388" lon="2.13265">
        <ele>180.4</ele>
        <time>2016-12-03T12:20:55Z</time>
      </trkpt>
      <trkpt lat="48.8338" lon="2.13275">
        <ele>180.6</ele>
        <time>2016-12-03T12:20:58Z</time>
      </trkpt>
      <trkpt lat="48.83368" lon="2.13285">
        <ele>180.8</ele>
        <time>2016-12-03T12:21:01Z</time>
      </trkpt>
      <trkpt lat="48.83357" lon="2.13296">
        <ele>181.1</ele>
        <time>2016-12-03T12:21:03Z</time>
      </trkpt>
      <trkpt lat="48.83349" lon="2.13305">
        <ele>181.3</ele>
        <time>2016-12-03T12:21:05Z</time>
      </trkpt>
      <trkpt lat="48.83342" lon="2.13321">
        <ele>181.7</ele>
        <time>2016-12-03T12:21:08Z</time>
      </trkpt>
      <trkpt lat="48.83336" lon="2.13334">
        <ele>182</ele>
        <time>2016-12-03T12:21:10Z</time>
      </trkpt>
      <trkpt lat="48.83331" lon="2.13352">
        <ele>181.7</ele>
        <time>2016-12-03T12:21:13Z</time>
      </trkpt>
      <trkpt lat="48.83327" lon="2.13365">
        <ele>181.3</ele>
        <time>2016-12-03T12:21:15Z</time>
      </trkpt>
      <trkpt lat="48.83323" lon="2.13377">
        <ele>181.1</ele>
        <time>2016-12-03T12:21:17Z</time>
      </trkpt>
      <trkpt lat="48.83317" lon="2.13395">
        <ele>181</ele>
        <time>2016-12-03T12:21:20Z</time>
      </trkpt>
      <trkpt lat="48.83313" lon="2.13407">
        <ele>180.9</ele>
        <time>2016-12-03T12:21:22Z</time>
      </trkpt>
      <trkpt lat="48.83311" lon="2.13421">
        <ele>181</ele>
        <time>2016-12-03T12:21:24Z</time>
      </trkpt>
      <trkpt lat="48.83308" lon="2.13438">
        <ele>181.2</ele>
        <time>2016-12-03T12:21:27Z</time>
      </trkpt>
      <trkpt lat="48.83304" lon="2.13455">
        <ele>181.4</ele>
        <time>2016-12-03T12:21:30Z</time>
      </trkpt>
      <trkpt lat="48.83301" lon="2.13471">
        <ele>181.7</ele>
        <time>2016-12-03T12:21:33Z</time>
      </trkpt>
      <trkpt lat="48.83298" lon="2.13485">
        <ele>181.8</ele>
        <time>2016-12-03T12:21:35Z</time>
      </trkpt>
      <trkpt lat="48.83297" lon="2.13499">
        <ele>182</ele>
        <time>2016-12-03T12:21:37Z</time>
      </trkpt>
      <trkpt lat="48.83294" lon="2.13515">
        <ele>182.1</ele>
        <time>2016-12-03T12:21:39Z</time>
      </trkpt>
      <trkpt lat="48.83291" lon="2.13529">
        <ele>182.2</ele>
        <time>2016-12-03T12:21:41Z</time>
      </trkpt>
      <trkpt lat="48.83287" lon="2.13548">
        <ele>182.2</ele>
        <time>2016-12-03T12:21:44Z</time>
      </trkpt>
      <trkpt lat="48.83283" lon="2.13566">
        <ele>182.2</ele>
        <time>2016-12-03T12:21:47Z</time>
      </trkpt>
      <trkpt lat="48.8328" lon="2.13582">
        <ele>182.1</ele>
        <time>2016-12-03T12:21:49Z</time>
      </trkpt>
      <trkpt lat="48.83276" lon="2.13599">
        <ele>182.2</ele>
        <time>2016-12-03T12:21:51Z</time>
      </trkpt>
      <trkpt lat="48.83273" lon="2.13614">
        <ele>182.3</ele>
        <time>2016-12-03T12:21:53Z</time>
      </trkpt>
      <trkpt lat="48.83269" lon="2.13627">
        <ele>182.3</ele>
        <time>2016-12-03T12:21:55Z</time>
      </trkpt>
      <trkpt lat="48.83266" lon="2.13641">
        <ele>182.4</ele>
        <time>2016-12-03T12:21:57Z</time>
      </trkpt>
      <trkpt lat="48.83262" lon="2.13656">
        <ele>182.4</ele>
        <time>2016-12-03T12:21:59Z</time>
      </trkpt>
      <trkpt lat="48.83259" lon="2.13671">
        <ele>182.5</ele>
        <time>2016-12-03T12:22:01Z</time>
      </trkpt>
      <trkpt lat="48.83256" lon="2.13689">
        <ele>182.8</ele>
        <time>2016-12-03T12:22:03Z</time>
      </trkpt>
      <trkpt lat="48.83253" lon="2.13704">
        <ele>183</ele>
        <time>2016-12-03T12:22:05Z</time>
      </trkpt>
      <trkpt lat="48.8325" lon="2.13717">
        <ele>183.2</ele>
        <time>2016-12-03T12:22:07Z</time>
      </trkpt>
      <trkpt lat="48.83247" lon="2.13731">
        <ele>183.4</ele>
        <time>2016-12-03T12:22:09Z</time>
      </trkpt>
      <trkpt lat="48.83244" lon="2.1375">
        <ele>183.6</ele>
        <time>2016-12-03T12:22:12Z</time>
      </trkpt>
      <trkpt lat="48.8324" lon="2.13769">
        <ele>182.9</ele>
        <time>2016-12-03T12:22:15Z</time>
      </trkpt>
      <trkpt lat="48.83235" lon="2.13783">
        <ele>182.4</ele>
        <time>2016-12-03T12:22:17Z</time>
      </trkpt>
      <trkpt lat="48.83231" lon="2.13801">
        <ele>182</ele>
        <time>2016-12-03T12:22:20Z</time>
      </trkpt>
      <trkpt lat="48.83227" lon="2.1382">
        <ele>181.6</ele>
        <time>2016-12-03T12:22:23Z</time>
      </trkpt>
      <trkpt lat="48.83222" lon="2.1384">
        <ele>181.3</ele>
        <time>2016-12-03T12:22:26Z</time>
      </trkpt>
      <trkpt lat="48.83219" lon="2.13852">
        <ele>181.1</ele>
        <time>2016-12-03T12:22:28Z</time>
      </trkpt>
      <trkpt lat="48.83215" lon="2.13866">
        <ele>180.9</ele>
        <time>2016-12-03T12:22:30Z</time>
      </trkpt>
      <trkpt lat="48.83211" lon="2.13879">
        <ele>180.8</ele>
        <time>2016-12-03T12:22:32Z</time>
      </trkpt>
      <trkpt lat="48.83205" lon="2.13897">
        <ele>180.6</ele>
        <time>2016-12-03T12:22:35Z</time>
      </trkpt>
      <trkpt lat="48.83199" lon="2.13915">
        <ele>180.4</ele>
        <time>2016-12-03T12:22:38Z</time>
      </trkpt>
      <trkpt lat="48.83193" lon="2.13932">
        <ele>180.3</ele>
        <time>2016-12-03T12:22:41Z</time>
      </trkpt>
      <trkpt lat="48.83187" lon="2.13949">
        <ele>180.1</ele>
        <time>2016-12-03T12:22:44Z</time>
      </trkpt>
      <trkpt lat="48.83179" lon="2.13964">
        <ele>180.1</ele>
        <time>2016-12-03T12:22:46Z</time>
      </trkpt>
      <trkpt lat="48.83174" lon="2.13977">
        <ele>180</ele>
        <time>2016-12-03T12:22:48Z</time>
      </trkpt>
      <trkpt lat="48.83169" lon="2.1399">
        <ele>180</ele>
        <time>2016-12-03T12:22:50Z</time>
      </trkpt>
      <trkpt lat="48.83164" lon="2.14004">
        <ele>180</ele>
        <time>2016-12-03T12:22:52Z</time>
      </trkpt>
      <trkpt lat="48.8316" lon="2.14018">
        <ele>179.8</ele>
        <time>2016-12-03T12:22:54Z</time>
      </trkpt>
      <trkpt lat="48.83156" lon="2.14032">
        <ele>179.5</ele>
        <time>2016-12-03T12:22:56Z</time>
      </trkpt>
      <trkpt lat="48.83151" lon="2.14045">
        <ele>179.3</ele>
        <time>2016-12-03T12:22:58Z</time>
      </trkpt>
      <trkpt lat="48.83147" lon="2.14059">
        <ele>179</ele>
        <time>2016-12-03T12:23:00Z</time>
      </trkpt>
      <trkpt lat="48.83144" lon="2.14074">
        <ele>178.6</ele>
        <time>2016-12-03T12:23:02Z</time>
      </trkpt>
      <trkpt lat="48.83141" lon="2.14088">
        <ele>178.4</ele>
        <time>2016-12-03T12:23:04Z</time>
      </trkpt>
      <trkpt lat="48.83139" lon="2.14107">
        <ele>178.6</ele>
        <time>2016-12-03T12:23:07Z</time>
      </trkpt>
      <trkpt lat="48.83134" lon="2.14119">
        <ele>178.7</ele>
        <time>2016-12-03T12:23:09Z</time>
      </trkpt>
      <trkpt lat="48.8313" lon="2.14139">
        <ele>178.8</ele>
        <time>2016-12-03T12:23:12Z</time>
      </trkpt>
      <trkpt lat="48.83126" lon="2.14152">
        <ele>178.8</ele>
        <time>2016-12-03T12:23:14Z</time>
      </trkpt>
      <trkpt lat="48.83121" lon="2.14165">
        <ele>178.9</ele>
        <time>2016-12-03T12:23:16Z</time>
      </trkpt>
      <trkpt lat="48.83115" lon="2.14179">
        <ele>178.8</ele>
        <time>2016-12-03T12:23:19Z</time>
      </trkpt>
      <trkpt lat="48.83108" lon="2.14193">
        <ele>178.7</ele>
        <time>2016-12-03T12:23:22Z</time>
      </trkpt>
      <trkpt lat="48.831" lon="2.14202">
        <ele>178.5</ele>
        <time>2016-12-03T12:23:26Z</time>
      </trkpt>
      <trkpt lat="48.83098" lon="2.14218">
        <ele>178.5</ele>
        <time>2016-12-03T12:23:34Z</time>
      </trkpt>
      <trkpt lat="48.83087" lon="2.14222">
        <ele>178.1</ele>
        <time>2016-12-03T12:23:40Z</time>
      </trkpt>
      <trkpt lat="48.83074" lon="2.14218">
        <ele>177.9</ele>
        <time>2016-12-03T12:23:43Z</time>
      </trkpt>
      <trkpt lat="48.83063" lon="2.14216">
        <ele>177.7</ele>
        <time>2016-12-03T12:23:45Z</time>
      </trkpt>
      <trkpt lat="48.83053" lon="2.14215">
        <ele>177.5</ele>
        <time>2016-12-03T12:23:47Z</time>
      </trkpt>
      <trkpt lat="48.83044" lon="2.14217">
        <ele>177.4</ele>
        <time>2016-12-03T12:23:50Z</time>
      </trkpt>
      <trkpt lat="48.83041" lon="2.14231">
        <ele>177.6</ele>
        <time>2016-12-03T12:23:59Z</time>
      </trkpt>
      <trkpt lat="48.8305" lon="2.14238">
        <ele>177.8</ele>
        <time>2016-12-03T12:24:08Z</time>
      </trkpt>
      <trkpt lat="48.83059" lon="2.14243">
        <ele>177.9</ele>
        <time>2016-12-03T12:24:14Z</time>
      </trkpt>
      <trkpt lat="48.83068" lon="2.14247">
        <ele>178</ele>
        <time>2016-12-03T12:24:21Z</time>
      </trkpt>
      <trkpt lat="48.83073" lon="2.14253">
        <ele>178</ele>
        <time>2016-12-03T12:24:30Z</time>
      </trkpt>
      <trkpt lat="48.8307" lon="2.14267">
        <ele>178.3</ele>
        <time>2016-12-03T12:24:46Z</time>
      </trkpt>
      <trkpt lat="48.83065" lon="2.14279">
        <ele>178.5</ele>
        <time>2016-12-03T12:24:51Z</time>
      </trkpt>
      <trkpt lat="48.83059" lon="2.14293">
        <ele>178.8</ele>
        <time>2016-12-03T12:24:56Z</time>
      </trkpt>
      <trkpt lat="48.83053" lon="2.14305">
        <ele>179.1</ele>
        <time>2016-12-03T12:25:00Z</time>
      </trkpt>
      <trkpt lat="48.83047" lon="2.14316">
        <ele>179.5</ele>
        <time>2016-12-03T12:25:03Z</time>
      </trkpt>
      <trkpt lat="48.83041" lon="2.14329">
        <ele>179.9</ele>
        <time>2016-12-03T12:25:06Z</time>
      </trkpt>
      <trkpt lat="48.83036" lon="2.1434">
        <ele>180.1</ele>
        <time>2016-12-03T12:25:09Z</time>
      </trkpt>
      <trkpt lat="48.83029" lon="2.14351">
        <ele>180.2</ele>
        <time>2016-12-03T12:25:12Z</time>
      </trkpt>
      <trkpt lat="48.8302" lon="2.14364">
        <ele>180.2</ele>
        <time>2016-12-03T12:25:15Z</time>
      </trkpt>
      <trkpt lat="48.83012" lon="2.14376">
        <ele>180.3</ele>
        <time>2016-12-03T12:25:18Z</time>
      </trkpt>
      <trkpt lat="48.83006" lon="2.14386">
        <ele>180.3</ele>
        <time>2016-12-03T12:25:21Z</time>
      </trkpt>
      <trkpt lat="48.82997" lon="2.144">
        <ele>180.1</ele>
        <time>2016-12-03T12:25:24Z</time>
      </trkpt>
      <trkpt lat="48.8299" lon="2.14415">
        <ele>179.8</ele>
        <time>2016-12-03T12:25:27Z</time>
      </trkpt>
      <trkpt lat="48.82981" lon="2.14428">
        <ele>179.5</ele>
        <time>2016-12-03T12:25:30Z</time>
      </trkpt>
      <trkpt lat="48.82972" lon="2.14443">
        <ele>179.2</ele>
        <time>2016-12-03T12:25:33Z</time>
      </trkpt>
      <trkpt lat="48.82964" lon="2.14458">
        <ele>178.9</ele>
        <time>2016-12-03T12:25:36Z</time>
      </trkpt>
      <trkpt lat="48.82955" lon="2.14472">
        <ele>178.6</ele>
        <time>2016-12-03T12:25:39Z</time>
      </trkpt>
      <trkpt lat="48.82948" lon="2.14483">
        <ele>178.2</ele>
        <time>2016-12-03T12:25:41Z</time>
      </trkpt>
      <trkpt lat="48.8294" lon="2.14493">
        <ele>177.9</ele>
        <time>2016-12-03T12:25:43Z</time>
      </trkpt>
      <trkpt lat="48.82932" lon="2.14506">
        <ele>177.6</ele>
        <time>2016-12-03T12:25:45Z</time>
      </trkpt>
      <trkpt lat="48.82926" lon="2.14521">
        <ele>177.7</ele>
        <time>2016-12-03T12:25:47Z</time>
      </trkpt>
      <trkpt lat="48.82917" lon="2.14536">
        <ele>177.4</ele>
        <time>2016-12-03T12:25:49Z</time>
      </trkpt>
      <trkpt lat="48.82907" lon="2.14554">
        <ele>177.1</ele>
        <time>2016-12-03T12:25:51Z</time>
      </trkpt>
      <trkpt lat="48.82898" lon="2.14567">
        <ele>176.7</ele>
        <time>2016-12-03T12:25:53Z</time>
      </trkpt>
      <trkpt lat="48.8289" lon="2.14579">
        <ele>176.4</ele>
        <time>2016-12-03T12:25:56Z</time>
      </trkpt>
      <trkpt lat="48.82882" lon="2.1459">
        <ele>176.1</ele>
        <time>2016-12-03T12:25:59Z</time>
      </trkpt>
      <trkpt lat="48.82874" lon="2.14605">
        <ele>176.1</ele>
        <time>2016-12-03T12:26:02Z</time>
      </trkpt>
      <trkpt lat="48.82866" lon="2.14619">
        <ele>176.1</ele>
        <time>2016-12-03T12:26:05Z</time>
      </trkpt>
      <trkpt lat="48.8286" lon="2.14631">
        <ele>176.1</ele>
        <time>2016-12-03T12:26:08Z</time>
      </trkpt>
      <trkpt lat="48.82853" lon="2.14642">
        <ele>176.1</ele>
        <time>2016-12-03T12:26:11Z</time>
      </trkpt>
      <trkpt lat="48.82847" lon="2.14653">
        <ele>176.2</ele>
        <time>2016-12-03T12:26:14Z</time>
      </trkpt>
      <trkpt lat="48.82839" lon="2.14666">
        <ele>176.2</ele>
        <time>2016-12-03T12:26:17Z</time>
      </trkpt>
      <trkpt lat="48.82832" lon="2.14681">
        <ele>176.5</ele>
        <time>2016-12-03T12:26:21Z</time>
      </trkpt>
      <trkpt lat="48.82824" lon="2.14691">
        <ele>176.7</ele>
        <time>2016-12-03T12:26:23Z</time>
      </trkpt>
      <trkpt lat="48.82816" lon="2.14704">
        <ele>177</ele>
        <time>2016-12-03T12:26:26Z</time>
      </trkpt>
      <trkpt lat="48.8281" lon="2.14717">
        <ele>177.3</ele>
        <time>2016-12-03T12:26:29Z</time>
      </trkpt>
      <trkpt lat="48.82803" lon="2.14729">
        <ele>177.6</ele>
        <time>2016-12-03T12:26:32Z</time>
      </trkpt>
      <trkpt lat="48.82796" lon="2.14739">
        <ele>177.7</ele>
        <time>2016-12-03T12:26:35Z</time>
      </trkpt>
      <trkpt lat="48.82788" lon="2.14748">
        <ele>177.9</ele>
        <time>2016-12-03T12:26:37Z</time>
      </trkpt>
      <trkpt lat="48.82781" lon="2.14761">
        <ele>177.8</ele>
        <time>2016-12-03T12:26:40Z</time>
      </trkpt>
      <trkpt lat="48.82775" lon="2.14772">
        <ele>177.7</ele>
        <time>2016-12-03T12:26:43Z</time>
      </trkpt>
      <trkpt lat="48.82767" lon="2.14785">
        <ele>177.5</ele>
        <time>2016-12-03T12:26:47Z</time>
      </trkpt>
      <trkpt lat="48.8276" lon="2.14796">
        <ele>177.3</ele>
        <time>2016-12-03T12:26:51Z</time>
      </trkpt>
      <trkpt lat="48.82754" lon="2.1481">
        <ele>177.1</ele>
        <time>2016-12-03T12:26:55Z</time>
      </trkpt>
      <trkpt lat="48.82748" lon="2.14821">
        <ele>176.9</ele>
        <time>2016-12-03T12:26:58Z</time>
      </trkpt>
      <trkpt lat="48.82741" lon="2.14832">
        <ele>176.7</ele>
        <time>2016-12-03T12:27:02Z</time>
      </trkpt>
      <trkpt lat="48.82736" lon="2.14839">
        <ele>176.3</ele>
        <time>2016-12-03T12:27:17Z</time>
      </trkpt>
      <trkpt lat="48.82729" lon="2.14844">
        <ele>176</ele>
        <time>2016-12-03T12:27:27Z</time>
      </trkpt>
      <trkpt lat="48.82719" lon="2.14847">
        <ele>175.6</ele>
        <time>2016-12-03T12:27:32Z</time>
      </trkpt>
      <trkpt lat="48.82709" lon="2.14851">
        <ele>175.2</ele>
        <time>2016-12-03T12:27:36Z</time>
      </trkpt>
      <trkpt lat="48.82698" lon="2.14856">
        <ele>174.8</ele>
        <time>2016-12-03T12:27:39Z</time>
      </trkpt>
      <trkpt lat="48.82686" lon="2.14861">
        <ele>174.5</ele>
        <time>2016-12-03T12:27:42Z</time>
      </trkpt>
      <trkpt lat="48.82677" lon="2.14866">
        <ele>174.2</ele>
        <time>2016-12-03T12:27:45Z</time>
      </trkpt>
      <trkpt lat="48.82666" lon="2.14873">
        <ele>174</ele>
        <time>2016-12-03T12:27:49Z</time>
      </trkpt>
      <trkpt lat="48.82656" lon="2.14878">
        <ele>173.9</ele>
        <time>2016-12-03T12:27:52Z</time>
      </trkpt>
      <trkpt lat="48.82647" lon="2.14881">
        <ele>173.8</ele>
        <time>2016-12-03T12:27:55Z</time>
      </trkpt>
      <trkpt lat="48.82637" lon="2.14887">
        <ele>173.7</ele>
        <time>2016-12-03T12:27:58Z</time>
      </trkpt>
      <trkpt lat="48.82626" lon="2.14892">
        <ele>173.7</ele>
        <time>2016-12-03T12:28:01Z</time>
      </trkpt>
      <trkpt lat="48.82614" lon="2.14896">
        <ele>173.7</ele>
        <time>2016-12-03T12:28:04Z</time>
      </trkpt>
      <trkpt lat="48.82604" lon="2.14901">
        <ele>173.7</ele>
        <time>2016-12-03T12:28:08Z</time>
      </trkpt>
      <trkpt lat="48.82592" lon="2.14906">
        <ele>173.8</ele>
        <time>2016-12-03T12:28:12Z</time>
      </trkpt>
      <trkpt lat="48.82581" lon="2.14912">
        <ele>174</ele>
        <time>2016-12-03T12:28:16Z</time>
      </trkpt>
      <trkpt lat="48.8257" lon="2.14916">
        <ele>174.6</ele>
        <time>2016-12-03T12:28:19Z</time>
      </trkpt>
      <trkpt lat="48.82561" lon="2.1492">
        <ele>175</ele>
        <time>2016-12-03T12:28:22Z</time>
      </trkpt>
      <trkpt lat="48.82551" lon="2.14925">
        <ele>175.5</ele>
        <time>2016-12-03T12:28:26Z</time>
      </trkpt>
      <trkpt lat="48.8254" lon="2.14929">
        <ele>176</ele>
        <time>2016-12-03T12:28:30Z</time>
      </trkpt>
      <trkpt lat="48.82527" lon="2.14935">
        <ele>176.6</ele>
        <time>2016-12-03T12:28:33Z</time>
      </trkpt>
      <trkpt lat="48.82516" lon="2.1494">
        <ele>177</ele>
        <time>2016-12-03T12:28:36Z</time>
      </trkpt>
      <trkpt lat="48.82505" lon="2.14942">
        <ele>177.5</ele>
        <time>2016-12-03T12:28:39Z</time>
      </trkpt>
      <trkpt lat="48.82494" lon="2.14943">
        <ele>177.9</ele>
        <time>2016-12-03T12:28:42Z</time>
      </trkpt>
      <trkpt lat="48.82485" lon="2.14947">
        <ele>178.1</ele>
        <time>2016-12-03T12:28:45Z</time>
      </trkpt>
      <trkpt lat="48.82471" lon="2.14958">
        <ele>178.4</ele>
        <time>2016-12-03T12:28:48Z</time>
      </trkpt>
      <trkpt lat="48.82459" lon="2.14962">
        <ele>178.7</ele>
        <time>2016-12-03T12:28:51Z</time>
      </trkpt>
      <trkpt lat="48.82449" lon="2.14966">
        <ele>179</ele>
        <time>2016-12-03T12:28:54Z</time>
      </trkpt>
      <trkpt lat="48.82438" lon="2.14969">
        <ele>179.3</ele>
        <time>2016-12-03T12:28:57Z</time>
      </trkpt>
      <trkpt lat="48.82427" lon="2.14973">
        <ele>179.7</ele>
        <time>2016-12-03T12:29:00Z</time>
      </trkpt>
      <trkpt lat="48.82415" lon="2.14981">
        <ele>180</ele>
        <time>2016-12-03T12:29:03Z</time>
      </trkpt>
      <trkpt lat="48.82403" lon="2.14985">
        <ele>179.8</ele>
        <time>2016-12-03T12:29:06Z</time>
      </trkpt>
      <trkpt lat="48.82394" lon="2.14989">
        <ele>179.7</ele>
        <time>2016-12-03T12:29:09Z</time>
      </trkpt>
      <trkpt lat="48.82385" lon="2.14994">
        <ele>179.6</ele>
        <time>2016-12-03T12:29:12Z</time>
      </trkpt>
      <trkpt lat="48.82376" lon="2.14998">
        <ele>179.5</ele>
        <time>2016-12-03T12:29:15Z</time>
      </trkpt>
      <trkpt lat="48.82365" lon="2.15002">
        <ele>179.4</ele>
        <time>2016-12-03T12:29:19Z</time>
      </trkpt>
      <trkpt lat="48.82356" lon="2.15006">
        <ele>179.2</ele>
        <time>2016-12-03T12:29:24Z</time>
      </trkpt>
      <trkpt lat="48.82346" lon="2.15008">
        <ele>179.1</ele>
        <time>2016-12-03T12:29:29Z</time>
      </trkpt>
      <trkpt lat="48.82337" lon="2.15015">
        <ele>179</ele>
        <time>2016-12-03T12:29:35Z</time>
      </trkpt>
      <trkpt lat="48.82326" lon="2.15021">
        <ele>178.6</ele>
        <time>2016-12-03T12:29:39Z</time>
      </trkpt>
      <trkpt lat="48.82315" lon="2.15027">
        <ele>178.1</ele>
        <time>2016-12-03T12:29:43Z</time>
      </trkpt>
      <trkpt lat="48.82305" lon="2.15029">
        <ele>177.7</ele>
        <time>2016-12-03T12:29:46Z</time>
      </trkpt>
      <trkpt lat="48.82293" lon="2.15032">
        <ele>177.2</ele>
        <time>2016-12-03T12:29:49Z</time>
      </trkpt>
      <trkpt lat="48.82283" lon="2.15035">
        <ele>176.9</ele>
        <time>2016-12-03T12:29:52Z</time>
      </trkpt>
      <trkpt lat="48.82272" lon="2.15038">
        <ele>176.6</ele>
        <time>2016-12-03T12:29:55Z</time>
      </trkpt>
      <trkpt lat="48.82263" lon="2.15041">
        <ele>176.4</ele>
        <time>2016-12-03T12:29:57Z</time>
      </trkpt>
      <trkpt lat="48.8225" lon="2.15045">
        <ele>176.2</ele>
        <time>2016-12-03T12:30:00Z</time>
      </trkpt>
      <trkpt lat="48.82238" lon="2.1505">
        <ele>175.8</ele>
        <time>2016-12-03T12:30:02Z</time>
      </trkpt>
      <trkpt lat="48.82225" lon="2.15055">
        <ele>175.4</ele>
        <time>2016-12-03T12:30:04Z</time>
      </trkpt>
      <trkpt lat="48.82212" lon="2.15062">
        <ele>175.2</ele>
        <time>2016-12-03T12:30:06Z</time>
      </trkpt>
      <trkpt lat="48.82201" lon="2.15067">
        <ele>175.1</ele>
        <time>2016-12-03T12:30:08Z</time>
      </trkpt>
      <trkpt lat="48.82191" lon="2.15072">
        <ele>175</ele>
        <time>2016-12-03T12:30:10Z</time>
      </trkpt>
      <trkpt lat="48.82181" lon="2.15076">
        <ele>174.9</ele>
        <time>2016-12-03T12:30:12Z</time>
      </trkpt>
      <trkpt lat="48.8217" lon="2.15079">
        <ele>174.7</ele>
        <time>2016-12-03T12:30:15Z</time>
      </trkpt>
      <trkpt lat="48.82159" lon="2.15083">
        <ele>174.7</ele>
        <time>2016-12-03T12:30:18Z</time>
      </trkpt>
      <trkpt lat="48.82149" lon="2.15084">
        <ele>174.6</ele>
        <time>2016-12-03T12:30:21Z</time>
      </trkpt>
      <trkpt lat="48.8214" lon="2.15083">
        <ele>174.3</ele>
        <time>2016-12-03T12:30:24Z</time>
      </trkpt>
      <trkpt lat="48.82129" lon="2.15085">
        <ele>174.2</ele>
        <time>2016-12-03T12:30:27Z</time>
      </trkpt>
      <trkpt lat="48.8212" lon="2.15083">
        <ele>173.7</ele>
        <time>2016-12-03T12:30:31Z</time>
      </trkpt>
      <trkpt lat="48.82108" lon="2.15082">
        <ele>173.3</ele>
        <time>2016-12-03T12:30:35Z</time>
      </trkpt>
      <trkpt lat="48.82097" lon="2.15082">
        <ele>173.2</ele>
        <time>2016-12-03T12:30:39Z</time>
      </trkpt>
      <trkpt lat="48.82086" lon="2.15081">
        <ele>172.7</ele>
        <time>2016-12-03T12:30:43Z</time>
      </trkpt>
      <trkpt lat="48.82075" lon="2.15081">
        <ele>173.1</ele>
        <time>2016-12-03T12:30:48Z</time>
      </trkpt>
      <trkpt lat="48.82066" lon="2.15079">
        <ele>173.3</ele>
        <time>2016-12-03T12:30:53Z</time>
      </trkpt>
      <trkpt lat="48.82055" lon="2.15079">
        <ele>173.9</ele>
        <time>2016-12-03T12:30:58Z</time>
      </trkpt>
      <trkpt lat="48.82046" lon="2.15078">
        <ele>174.2</ele>
        <time>2016-12-03T12:31:04Z</time>
      </trkpt>
      <trkpt lat="48.82036" lon="2.15077">
        <ele>174.6</ele>
        <time>2016-12-03T12:31:11Z</time>
      </trkpt>
      <trkpt lat="48.82026" lon="2.15072">
        <ele>174.7</ele>
        <time>2016-12-03T12:31:16Z</time>
      </trkpt>
      <trkpt lat="48.82017" lon="2.15067">
        <ele>174.7</ele>
        <time>2016-12-03T12:31:20Z</time>
      </trkpt>
      <trkpt lat="48.82009" lon="2.15059">
        <ele>174.4</ele>
        <time>2016-12-03T12:31:24Z</time>
      </trkpt>
      <trkpt lat="48.81998" lon="2.15054">
        <ele>174.5</ele>
        <time>2016-12-03T12:31:29Z</time>
      </trkpt>
      <trkpt lat="48.81988" lon="2.1505">
        <ele>174.5</ele>
        <time>2016-12-03T12:31:33Z</time>
      </trkpt>
      <trkpt lat="48.81978" lon="2.15042">
        <ele>174.1</ele>
        <time>2016-12-03T12:31:37Z</time>
      </trkpt>
      <trkpt lat="48.81971" lon="2.15032">
        <ele>173.6</ele>
        <time>2016-12-03T12:31:40Z</time>
      </trkpt>
      <trkpt lat="48.81964" lon="2.1502">
        <ele>173.1</ele>
        <time>2016-12-03T12:31:43Z</time>
      </trkpt>
      <trkpt lat="48.81957" lon="2.15009">
        <ele>172.6</ele>
        <time>2016-12-03T12:31:46Z</time>
      </trkpt>
      <trkpt lat="48.81947" lon="2.15004">
        <ele>172.7</ele>
        <time>2016-12-03T12:31:49Z</time>
      </trkpt>
      <trkpt lat="48.81937" lon="2.15003">
        <ele>173.2</ele>
        <time>2016-12-03T12:31:53Z</time>
      </trkpt>
      <trkpt lat="48.81926" lon="2.15006">
        <ele>173.8</ele>
        <time>2016-12-03T12:31:58Z</time>
      </trkpt>
      <trkpt lat="48.81922" lon="2.15008">
        <ele>174.1</ele>
        <time>2016-12-03T12:32:07Z</time>
      </trkpt>
      <trkpt lat="48.8191" lon="2.15009">
        <ele>174.8</ele>
        <time>2016-12-03T12:33:54Z</time>
      </trkpt>
      <trkpt lat="48.819" lon="2.15017">
        <ele>175.6</ele>
        <time>2016-12-03T12:33:59Z</time>
      </trkpt>
      <trkpt lat="48.81893" lon="2.15029">
        <ele>176.2</ele>
        <time>2016-12-03T12:34:02Z</time>
      </trkpt>
      <trkpt lat="48.81889" lon="2.15042">
        <ele>176.6</ele>
        <time>2016-12-03T12:34:04Z</time>
      </trkpt>
      <trkpt lat="48.81883" lon="2.1506">
        <ele>177.1</ele>
        <time>2016-12-03T12:34:07Z</time>
      </trkpt>
      <trkpt lat="48.81873" lon="2.15071">
        <ele>177.3</ele>
        <time>2016-12-03T12:34:10Z</time>
      </trkpt>
      <trkpt lat="48.81864" lon="2.15076">
        <ele>177.3</ele>
        <time>2016-12-03T12:34:12Z</time>
      </trkpt>
      <trkpt lat="48.81854" lon="2.15076">
        <ele>177.3</ele>
        <time>2016-12-03T12:34:15Z</time>
      </trkpt>
      <trkpt lat="48.81844" lon="2.15075">
        <ele>177.3</ele>
        <time>2016-12-03T12:34:23Z</time>
      </trkpt>
      <trkpt lat="48.81837" lon="2.15076">
        <ele>177.2</ele>
        <time>2016-12-03T12:34:35Z</time>
      </trkpt>
      <trkpt lat="48.81827" lon="2.15078">
        <ele>177.2</ele>
        <time>2016-12-03T12:34:40Z</time>
      </trkpt>
      <trkpt lat="48.81818" lon="2.15079">
        <ele>177.3</ele>
        <time>2016-12-03T12:34:43Z</time>
      </trkpt>
      <trkpt lat="48.81806" lon="2.15083">
        <ele>177.3</ele>
        <time>2016-12-03T12:34:47Z</time>
      </trkpt>
      <trkpt lat="48.81797" lon="2.15089">
        <ele>177.3</ele>
        <time>2016-12-03T12:34:52Z</time>
      </trkpt>
      <trkpt lat="48.81787" lon="2.15099">
        <ele>177.2</ele>
        <time>2016-12-03T12:34:56Z</time>
      </trkpt>
      <trkpt lat="48.8178" lon="2.15109">
        <ele>177</ele>
        <time>2016-12-03T12:34:59Z</time>
      </trkpt>
      <trkpt lat="48.81772" lon="2.15119">
        <ele>176.9</ele>
        <time>2016-12-03T12:35:02Z</time>
      </trkpt>
      <trkpt lat="48.81763" lon="2.15126">
        <ele>176.8</ele>
        <time>2016-12-03T12:35:05Z</time>
      </trkpt>
      <trkpt lat="48.81751" lon="2.15129">
        <ele>176.9</ele>
        <time>2016-12-03T12:35:08Z</time>
      </trkpt>
      <trkpt lat="48.81741" lon="2.15133">
        <ele>177</ele>
        <time>2016-12-03T12:35:11Z</time>
      </trkpt>
      <trkpt lat="48.8173" lon="2.15139">
        <ele>177.1</ele>
        <time>2016-12-03T12:35:14Z</time>
      </trkpt>
      <trkpt lat="48.81721" lon="2.15151">
        <ele>177</ele>
        <time>2016-12-03T12:35:17Z</time>
      </trkpt>
      <trkpt lat="48.81712" lon="2.15166">
        <ele>176.9</ele>
        <time>2016-12-03T12:35:20Z</time>
      </trkpt>
      <trkpt lat="48.81702" lon="2.1518">
        <ele>176.3</ele>
        <time>2016-12-03T12:35:22Z</time>
      </trkpt>
      <trkpt lat="48.81694" lon="2.15193">
        <ele>175.7</ele>
        <time>2016-12-03T12:35:24Z</time>
      </trkpt>
      <trkpt lat="48.81687" lon="2.15207">
        <ele>175</ele>
        <time>2016-12-03T12:35:26Z</time>
      </trkpt>
      <trkpt lat="48.81679" lon="2.15219">
        <ele>174.5</ele>
        <time>2016-12-03T12:35:28Z</time>
      </trkpt>
      <trkpt lat="48.81673" lon="2.15233">
        <ele>173.9</ele>
        <time>2016-12-03T12:35:31Z</time>
      </trkpt>
      <trkpt lat="48.81666" lon="2.15245">
        <ele>173.4</ele>
        <time>2016-12-03T12:35:33Z</time>
      </trkpt>
      <trkpt lat="48.81657" lon="2.15261">
        <ele>172.8</ele>
        <time>2016-12-03T12:35:36Z</time>
      </trkpt>
      <trkpt lat="48.81649" lon="2.15274">
        <ele>172.4</ele>
        <time>2016-12-03T12:35:38Z</time>
      </trkpt>
      <trkpt lat="48.8164" lon="2.15291">
        <ele>172.1</ele>
        <time>2016-12-03T12:35:40Z</time>
      </trkpt>
      <trkpt lat="48.81639" lon="2.15307">
        <ele>171.1</ele>
        <time>2016-12-03T12:35:42Z</time>
      </trkpt>
      <trkpt lat="48.81635" lon="2.15327">
        <ele>170.4</ele>
        <time>2016-12-03T12:35:44Z</time>
      </trkpt>
      <trkpt lat="48.81633" lon="2.15345">
        <ele>169.5</ele>
        <time>2016-12-03T12:35:46Z</time>
      </trkpt>
      <trkpt lat="48.81632" lon="2.15363">
        <ele>168.4</ele>
        <time>2016-12-03T12:35:48Z</time>
      </trkpt>
      <trkpt lat="48.8163" lon="2.15381">
        <ele>167.4</ele>
        <time>2016-12-03T12:35:50Z</time>
      </trkpt>
      <trkpt lat="48.81627" lon="2.15397">
        <ele>166.7</ele>
        <time>2016-12-03T12:35:52Z</time>
      </trkpt>
      <trkpt lat="48.81623" lon="2.15411">
        <ele>166.3</ele>
        <time>2016-12-03T12:35:54Z</time>
      </trkpt>
      <trkpt lat="48.81616" lon="2.15427">
        <ele>166.3</ele>
        <time>2016-12-03T12:35:56Z</time>
      </trkpt>
      <trkpt lat="48.81611" lon="2.1544">
        <ele>166</ele>
        <time>2016-12-03T12:35:58Z</time>
      </trkpt>
      <trkpt lat="48.81604" lon="2.15457">
        <ele>165.9</ele>
        <time>2016-12-03T12:36:01Z</time>
      </trkpt>
      <trkpt lat="48.81599" lon="2.15471">
        <ele>165.6</ele>
        <time>2016-12-03T12:36:03Z</time>
      </trkpt>
      <trkpt lat="48.81593" lon="2.15483">
        <ele>165.7</ele>
        <time>2016-12-03T12:36:05Z</time>
      </trkpt>
      <trkpt lat="48.81588" lon="2.15493">
        <ele>165.8</ele>
        <time>2016-12-03T12:36:07Z</time>
      </trkpt>
      <trkpt lat="48.8158" lon="2.1551">
        <ele>166.5</ele>
        <time>2016-12-03T12:36:10Z</time>
      </trkpt>
      <trkpt lat="48.81572" lon="2.15526">
        <ele>167.5</ele>
        <time>2016-12-03T12:36:13Z</time>
      </trkpt>
      <trkpt lat="48.81566" lon="2.15537">
        <ele>168.4</ele>
        <time>2016-12-03T12:36:15Z</time>
      </trkpt>
      <trkpt lat="48.81561" lon="2.1555">
        <ele>168.8</ele>
        <time>2016-12-03T12:36:17Z</time>
      </trkpt>
      <trkpt lat="48.81556" lon="2.15564">
        <ele>169.2</ele>
        <time>2016-12-03T12:36:19Z</time>
      </trkpt>
      <trkpt lat="48.8155" lon="2.15576">
        <ele>169.7</ele>
        <time>2016-12-03T12:36:21Z</time>
      </trkpt>
      <trkpt lat="48.8154" lon="2.15591">
        <ele>170.2</ele>
        <time>2016-12-03T12:36:23Z</time>
      </trkpt>
      <trkpt lat="48.81534" lon="2.15602">
        <ele>170.3</ele>
        <time>2016-12-03T12:36:25Z</time>
      </trkpt>
      <trkpt lat="48.81527" lon="2.15615">
        <ele>170.3</ele>
        <time>2016-12-03T12:36:27Z</time>
      </trkpt>
      <trkpt lat="48.8152" lon="2.15628">
        <ele>170.2</ele>
        <time>2016-12-03T12:36:29Z</time>
      </trkpt>
      <trkpt lat="48.81514" lon="2.1564">
        <ele>169.9</ele>
        <time>2016-12-03T12:36:31Z</time>
      </trkpt>
      <trkpt lat="48.8151" lon="2.15654">
        <ele>169.2</ele>
        <time>2016-12-03T12:36:33Z</time>
      </trkpt>
      <trkpt lat="48.81501" lon="2.15668">
        <ele>168.9</ele>
        <time>2016-12-03T12:36:35Z</time>
      </trkpt>
      <trkpt lat="48.81494" lon="2.15679">
        <ele>168.8</ele>
        <time>2016-12-03T12:36:37Z</time>
      </trkpt>
      <trkpt lat="48.81487" lon="2.15692">
        <ele>168.6</ele>
        <time>2016-12-03T12:36:40Z</time>
      </trkpt>
      <trkpt lat="48.81476" lon="2.15702">
        <ele>168.9</ele>
        <time>2016-12-03T12:36:43Z</time>
      </trkpt>
      <trkpt lat="48.81466" lon="2.15708">
        <ele>169.4</ele>
        <time>2016-12-03T12:36:46Z</time>
      </trkpt>
      <trkpt lat="48.81456" lon="2.15711">
        <ele>170.1</ele>
        <time>2016-12-03T12:36:49Z</time>
      </trkpt>
      <trkpt lat="48.81451" lon="2.15724">
        <ele>169.7</ele>
        <time>2016-12-03T12:36:52Z</time>
      </trkpt>
      <trkpt lat="48.8145" lon="2.15739">
        <ele>168.9</ele>
        <time>2016-12-03T12:36:55Z</time>
      </trkpt>
      <trkpt lat="48.81442" lon="2.15749">
        <ele>169</ele>
        <time>2016-12-03T12:36:59Z</time>
      </trkpt>
      <trkpt lat="48.81433" lon="2.15754">
        <ele>169.6</ele>
        <time>2016-12-03T12:37:04Z</time>
      </trkpt>
      <trkpt lat="48.81423" lon="2.15761">
        <ele>170.3</ele>
        <time>2016-12-03T12:37:09Z</time>
      </trkpt>
      <trkpt lat="48.81411" lon="2.15765">
        <ele>171.3</ele>
        <time>2016-12-03T12:37:14Z</time>
      </trkpt>
      <trkpt lat="48.81402" lon="2.15769">
        <ele>172</ele>
        <time>2016-12-03T12:37:17Z</time>
      </trkpt>
      <trkpt lat="48.81393" lon="2.15773">
        <ele>172.8</ele>
        <time>2016-12-03T12:37:20Z</time>
      </trkpt>
      <trkpt lat="48.81384" lon="2.15777">
        <ele>173.6</ele>
        <time>2016-12-03T12:37:23Z</time>
      </trkpt>
      <trkpt lat="48.81374" lon="2.15784">
        <ele>174.4</ele>
        <time>2016-12-03T12:37:26Z</time>
      </trkpt>
      <trkpt lat="48.81365" lon="2.15789">
        <ele>175.2</ele>
        <time>2016-12-03T12:37:29Z</time>
      </trkpt>
      <trkpt lat="48.81354" lon="2.15794">
        <ele>176.1</ele>
        <time>2016-12-03T12:37:33Z</time>
      </trkpt>
      <trkpt lat="48.81344" lon="2.15798">
        <ele>177</ele>
        <time>2016-12-03T12:37:37Z</time>
      </trkpt>
      <trkpt lat="48.81334" lon="2.15803">
        <ele>178</ele>
        <time>2016-12-03T12:37:40Z</time>
      </trkpt>
      <trkpt lat="48.81323" lon="2.15808">
        <ele>178.2</ele>
        <time>2016-12-03T12:37:43Z</time>
      </trkpt>
      <trkpt lat="48.81311" lon="2.15813">
        <ele>178.5</ele>
        <time>2016-12-03T12:37:46Z</time>
      </trkpt>
      <trkpt lat="48.81301" lon="2.15819">
        <ele>178.7</ele>
        <time>2016-12-03T12:37:48Z</time>
      </trkpt>
      <trkpt lat="48.81293" lon="2.15827">
        <ele>178.9</ele>
        <time>2016-12-03T12:37:50Z</time>
      </trkpt>
      <trkpt lat="48.81284" lon="2.15839">
        <ele>179</ele>
        <time>2016-12-03T12:37:53Z</time>
      </trkpt>
      <trkpt lat="48.81279" lon="2.15843">
        <ele>179</ele>
        <time>2016-12-03T12:38:04Z</time>
      </trkpt>
      <trkpt lat="48.81273" lon="2.15855">
        <ele>178.9</ele>
        <time>2016-12-03T12:38:13Z</time>
      </trkpt>
      <trkpt lat="48.81268" lon="2.15869">
        <ele>178.8</ele>
        <time>2016-12-03T12:38:17Z</time>
      </trkpt>
      <trkpt lat="48.81263" lon="2.15882">
        <ele>178.7</ele>
        <time>2016-12-03T12:38:20Z</time>
      </trkpt>
      <trkpt lat="48.81262" lon="2.159">
        <ele>178.4</ele>
        <time>2016-12-03T12:38:24Z</time>
      </trkpt>
      <trkpt lat="48.81267" lon="2.15914">
        <ele>177.9</ele>
        <time>2016-12-03T12:38:27Z</time>
      </trkpt>
      <trkpt lat="48.81267" lon="2.1593">
        <ele>177.6</ele>
        <time>2016-12-03T12:38:30Z</time>
      </trkpt>
      <trkpt lat="48.81269" lon="2.15946">
        <ele>177.1</ele>
        <time>2016-12-03T12:38:33Z</time>
      </trkpt>
      <trkpt lat="48.81272" lon="2.15964">
        <ele>176.5</ele>
        <time>2016-12-03T12:38:36Z</time>
      </trkpt>
      <trkpt lat="48.81275" lon="2.15981">
        <ele>175.9</ele>
        <time>2016-12-03T12:38:39Z</time>
      </trkpt>
      <trkpt lat="48.81275" lon="2.15995">
        <ele>175.5</ele>
        <time>2016-12-03T12:38:41Z</time>
      </trkpt>
      <trkpt lat="48.81275" lon="2.16011">
        <ele>174.9</ele>
        <time>2016-12-03T12:38:44Z</time>
      </trkpt>
      <trkpt lat="48.81272" lon="2.16025">
        <ele>174.4</ele>
        <time>2016-12-03T12:38:47Z</time>
      </trkpt>
      <trkpt lat="48.81268" lon="2.16042">
        <ele>174.2</ele>
        <time>2016-12-03T12:38:50Z</time>
      </trkpt>
      <trkpt lat="48.81263" lon="2.16055">
        <ele>174.1</ele>
        <time>2016-12-03T12:38:52Z</time>
      </trkpt>
      <trkpt lat="48.81258" lon="2.16073">
        <ele>173.6</ele>
        <time>2016-12-03T12:38:55Z</time>
      </trkpt>
      <trkpt lat="48.81259" lon="2.16087">
        <ele>172.7</ele>
        <time>2016-12-03T12:38:57Z</time>
      </trkpt>
      <trkpt lat="48.81257" lon="2.16102">
        <ele>172</ele>
        <time>2016-12-03T12:38:59Z</time>
      </trkpt>
      <trkpt lat="48.81254" lon="2.16116">
        <ele>171.2</ele>
        <time>2016-12-03T12:39:02Z</time>
      </trkpt>
      <trkpt lat="48.81251" lon="2.16132">
        <ele>170.4</ele>
        <time>2016-12-03T12:39:05Z</time>
      </trkpt>
      <trkpt lat="48.81246" lon="2.16145">
        <ele>169.8</ele>
        <time>2016-12-03T12:39:08Z</time>
      </trkpt>
      <trkpt lat="48.81241" lon="2.16157">
        <ele>169.4</ele>
        <time>2016-12-03T12:39:12Z</time>
      </trkpt>
      <trkpt lat="48.81236" lon="2.16169">
        <ele>169.1</ele>
        <time>2016-12-03T12:39:16Z</time>
      </trkpt>
      <trkpt lat="48.81229" lon="2.16182">
        <ele>169.1</ele>
        <time>2016-12-03T12:39:20Z</time>
      </trkpt>
      <trkpt lat="48.81223" lon="2.16193">
        <ele>169.1</ele>
        <time>2016-12-03T12:39:28Z</time>
      </trkpt>
      <trkpt lat="48.8122" lon="2.16209">
        <ele>168.7</ele>
        <time>2016-12-03T12:39:48Z</time>
      </trkpt>
      <trkpt lat="48.81216" lon="2.16224">
        <ele>168.4</ele>
        <time>2016-12-03T12:39:53Z</time>
      </trkpt>
      <trkpt lat="48.8121" lon="2.16239">
        <ele>168.4</ele>
        <time>2016-12-03T12:39:59Z</time>
      </trkpt>
      <trkpt lat="48.81207" lon="2.16252">
        <ele>168.2</ele>
        <time>2016-12-03T12:40:03Z</time>
      </trkpt>
      <trkpt lat="48.81206" lon="2.16268">
        <ele>168.5</ele>
        <time>2016-12-03T12:40:07Z</time>
      </trkpt>
      <trkpt lat="48.81203" lon="2.16285">
        <ele>169.2</ele>
        <time>2016-12-03T12:40:11Z</time>
      </trkpt>
      <trkpt lat="48.812" lon="2.163">
        <ele>169.9</ele>
        <time>2016-12-03T12:40:14Z</time>
      </trkpt>
      <trkpt lat="48.81198" lon="2.16314">
        <ele>170.4</ele>
        <time>2016-12-03T12:40:17Z</time>
      </trkpt>
      <trkpt lat="48.81198" lon="2.16329">
        <ele>170.7</ele>
        <time>2016-12-03T12:40:20Z</time>
      </trkpt>
      <trkpt lat="48.81196" lon="2.16344">
        <ele>171.2</ele>
        <time>2016-12-03T12:40:23Z</time>
      </trkpt>
      <trkpt lat="48.81196" lon="2.1636">
        <ele>171.5</ele>
        <time>2016-12-03T12:40:26Z</time>
      </trkpt>
      <trkpt lat="48.81196" lon="2.16374">
        <ele>171.7</ele>
        <time>2016-12-03T12:40:29Z</time>
      </trkpt>
      <trkpt lat="48.81196" lon="2.16391">
        <ele>171.8</ele>
        <time>2016-12-03T12:40:32Z</time>
      </trkpt>
      <trkpt lat="48.81196" lon="2.16409">
        <ele>172.1</ele>
        <time>2016-12-03T12:40:35Z</time>
      </trkpt>
      <trkpt lat="48.81195" lon="2.16427">
        <ele>172.1</ele>
        <time>2016-12-03T12:40:38Z</time>
      </trkpt>
      <trkpt lat="48.81193" lon="2.16445">
        <ele>172.1</ele>
        <time>2016-12-03T12:40:41Z</time>
      </trkpt>
      <trkpt lat="48.8119" lon="2.16463">
        <ele>172.1</ele>
        <time>2016-12-03T12:40:45Z</time>
      </trkpt>
      <trkpt lat="48.81191" lon="2.16477">
        <ele>171.8</ele>
        <time>2016-12-03T12:40:48Z</time>
      </trkpt>
      <trkpt lat="48.81191" lon="2.16491">
        <ele>171.5</ele>
        <time>2016-12-03T12:40:50Z</time>
      </trkpt>
      <trkpt lat="48.8119" lon="2.16512">
        <ele>170.8</ele>
        <time>2016-12-03T12:40:53Z</time>
      </trkpt>
      <trkpt lat="48.81195" lon="2.16527">
        <ele>169.5</ele>
        <time>2016-12-03T12:40:55Z</time>
      </trkpt>
      <trkpt lat="48.81198" lon="2.16545">
        <ele>168.1</ele>
        <time>2016-12-03T12:40:57Z</time>
      </trkpt>
      <trkpt lat="48.812" lon="2.16563">
        <ele>166.9</ele>
        <time>2016-12-03T12:40:59Z</time>
      </trkpt>
      <trkpt lat="48.81202" lon="2.16579">
        <ele>165.9</ele>
        <time>2016-12-03T12:41:01Z</time>
      </trkpt>
      <trkpt lat="48.81204" lon="2.16596">
        <ele>165.4</ele>
        <time>2016-12-03T12:41:03Z</time>
      </trkpt>
      <trkpt lat="48.81209" lon="2.16615">
        <ele>164.7</ele>
        <time>2016-12-03T12:41:05Z</time>
      </trkpt>
      <trkpt lat="48.81211" lon="2.16633">
        <ele>164.3</ele>
        <time>2016-12-03T12:41:07Z</time>
      </trkpt>
      <trkpt lat="48.81213" lon="2.16652">
        <ele>163.9</ele>
        <time>2016-12-03T12:41:09Z</time>
      </trkpt>
      <trkpt lat="48.81213" lon="2.1667">
        <ele>163.8</ele>
        <time>2016-12-03T12:41:12Z</time>
      </trkpt>
      <trkpt lat="48.8121" lon="2.16686">
        <ele>164.4</ele>
        <time>2016-12-03T12:41:15Z</time>
      </trkpt>
      <trkpt lat="48.81208" lon="2.167">
        <ele>164.8</ele>
        <time>2016-12-03T12:41:18Z</time>
      </trkpt>
      <trkpt lat="48.81205" lon="2.16713">
        <ele>165.4</ele>
        <time>2016-12-03T12:41:20Z</time>
      </trkpt>
      <trkpt lat="48.812" lon="2.16728">
        <ele>166.4</ele>
        <time>2016-12-03T12:41:23Z</time>
      </trkpt>
      <trkpt lat="48.81194" lon="2.16743">
        <ele>167.6</ele>
        <time>2016-12-03T12:41:26Z</time>
      </trkpt>
      <trkpt lat="48.81189" lon="2.16757">
        <ele>168.6</ele>
        <time>2016-12-03T12:41:28Z</time>
      </trkpt>
      <trkpt lat="48.81184" lon="2.16773">
        <ele>169.2</ele>
        <time>2016-12-03T12:41:30Z</time>
      </trkpt>
      <trkpt lat="48.81181" lon="2.16788">
        <ele>169.5</ele>
        <time>2016-12-03T12:41:33Z</time>
      </trkpt>
      <trkpt lat="48.81175" lon="2.168">
        <ele>170.3</ele>
        <time>2016-12-03T12:41:35Z</time>
      </trkpt>
      <trkpt lat="48.81171" lon="2.16813">
        <ele>170.8</ele>
        <time>2016-12-03T12:41:37Z</time>
      </trkpt>
      <trkpt lat="48.81165" lon="2.16828">
        <ele>171.2</ele>
        <time>2016-12-03T12:41:39Z</time>
      </trkpt>
      <trkpt lat="48.81161" lon="2.16843">
        <ele>171.1</ele>
        <time>2016-12-03T12:41:41Z</time>
      </trkpt>
      <trkpt lat="48.81157" lon="2.16858">
        <ele>171.1</ele>
        <time>2016-12-03T12:41:43Z</time>
      </trkpt>
      <trkpt lat="48.81152" lon="2.16871">
        <ele>171.1</ele>
        <time>2016-12-03T12:41:45Z</time>
      </trkpt>
      <trkpt lat="48.81147" lon="2.16884">
        <ele>171.1</ele>
        <time>2016-12-03T12:41:47Z</time>
      </trkpt>
      <trkpt lat="48.81141" lon="2.16895">
        <ele>171.2</ele>
        <time>2016-12-03T12:41:49Z</time>
      </trkpt>
      <trkpt lat="48.81135" lon="2.16908">
        <ele>171.3</ele>
        <time>2016-12-03T12:41:52Z</time>
      </trkpt>
      <trkpt lat="48.81128" lon="2.16919">
        <ele>171.3</ele>
        <time>2016-12-03T12:41:54Z</time>
      </trkpt>
      <trkpt lat="48.81121" lon="2.16933">
        <ele>171.1</ele>
        <time>2016-12-03T12:41:56Z</time>
      </trkpt>
      <trkpt lat="48.81116" lon="2.16951">
        <ele>170.6</ele>
        <time>2016-12-03T12:41:58Z</time>
      </trkpt>
      <trkpt lat="48.81112" lon="2.16968">
        <ele>170.2</ele>
        <time>2016-12-03T12:42:00Z</time>
      </trkpt>
      <trkpt lat="48.81107" lon="2.16985">
        <ele>169.7</ele>
        <time>2016-12-03T12:42:03Z</time>
      </trkpt>
      <trkpt lat="48.81107" lon="2.16999">
        <ele>169.2</ele>
        <time>2016-12-03T12:42:05Z</time>
      </trkpt>
      <trkpt lat="48.81106" lon="2.17014">
        <ele>169.1</ele>
        <time>2016-12-03T12:42:07Z</time>
      </trkpt>
      <trkpt lat="48.81105" lon="2.17028">
        <ele>169</ele>
        <time>2016-12-03T12:42:09Z</time>
      </trkpt>
      <trkpt lat="48.81102" lon="2.17041">
        <ele>169</ele>
        <time>2016-12-03T12:42:11Z</time>
      </trkpt>
      <trkpt lat="48.81099" lon="2.17056">
        <ele>169.1</ele>
        <time>2016-12-03T12:42:13Z</time>
      </trkpt>
      <trkpt lat="48.81096" lon="2.17072">
        <ele>169.1</ele>
        <time>2016-12-03T12:42:15Z</time>
      </trkpt>
      <trkpt lat="48.81093" lon="2.1709">
        <ele>169.6</ele>
        <time>2016-12-03T12:42:18Z</time>
      </trkpt>
      <trkpt lat="48.8109" lon="2.1711">
        <ele>170.5</ele>
        <time>2016-12-03T12:42:21Z</time>
      </trkpt>
      <trkpt lat="48.81091" lon="2.1713">
        <ele>171.1</ele>
        <time>2016-12-03T12:42:24Z</time>
      </trkpt>
      <trkpt lat="48.81094" lon="2.17148">
        <ele>171.6</ele>
        <time>2016-12-03T12:42:27Z</time>
      </trkpt>
      <trkpt lat="48.81097" lon="2.17163">
        <ele>172</ele>
        <time>2016-12-03T12:42:30Z</time>
      </trkpt>
      <trkpt lat="48.81095" lon="2.17182">
        <ele>172.5</ele>
        <time>2016-12-03T12:42:33Z</time>
      </trkpt>
      <trkpt lat="48.81099" lon="2.17197">
        <ele>172.5</ele>
        <time>2016-12-03T12:42:35Z</time>
      </trkpt>
      <trkpt lat="48.81102" lon="2.17216">
        <ele>172.7</ele>
        <time>2016-12-03T12:42:38Z</time>
      </trkpt>
      <trkpt lat="48.81105" lon="2.17229">
        <ele>172.8</ele>
        <time>2016-12-03T12:42:40Z</time>
      </trkpt>
      <trkpt lat="48.81107" lon="2.17244">
        <ele>173</ele>
        <time>2016-12-03T12:42:42Z</time>
      </trkpt>
      <trkpt lat="48.81111" lon="2.17261">
        <ele>173.3</ele>
        <time>2016-12-03T12:42:44Z</time>
      </trkpt>
      <trkpt lat="48.81114" lon="2.17278">
        <ele>173.5</ele>
        <time>2016-12-03T12:42:46Z</time>
      </trkpt>
      <trkpt lat="48.81118" lon="2.17292">
        <ele>173.8</ele>
        <time>2016-12-03T12:42:48Z</time>
      </trkpt>
      <trkpt lat="48.81122" lon="2.17306">
        <ele>173.9</ele>
        <time>2016-12-03T12:42:50Z</time>
      </trkpt>
      <trkpt lat="48.81126" lon="2.17319">
        <ele>174.1</ele>
        <time>2016-12-03T12:42:52Z</time>
      </trkpt>
      <trkpt lat="48.81128" lon="2.17336">
        <ele>174.4</ele>
        <time>2016-12-03T12:42:55Z</time>
      </trkpt>
      <trkpt lat="48.8113" lon="2.1735">
        <ele>174.2</ele>
        <time>2016-12-03T12:42:57Z</time>
      </trkpt>
      <trkpt lat="48.8113" lon="2.17363">
        <ele>174.2</ele>
        <time>2016-12-03T12:43:06Z</time>
      </trkpt>
      <trkpt lat="48.81128" lon="2.17384">
        <ele>174.1</ele>
        <time>2016-12-03T12:43:24Z</time>
      </trkpt>
      <trkpt lat="48.81127" lon="2.17398">
        <ele>174.1</ele>
        <time>2016-12-03T12:43:27Z</time>
      </trkpt>
      <trkpt lat="48.81128" lon="2.17413">
        <ele>173.9</ele>
        <time>2016-12-03T12:43:30Z</time>
      </trkpt>
      <trkpt lat="48.81123" lon="2.17429">
        <ele>174</ele>
        <time>2016-12-03T12:43:33Z</time>
      </trkpt>
      <trkpt lat="48.81118" lon="2.17443">
        <ele>174</ele>
        <time>2016-12-03T12:43:36Z</time>
      </trkpt>
      <trkpt lat="48.8111" lon="2.17456">
        <ele>174.1</ele>
        <time>2016-12-03T12:43:39Z</time>
      </trkpt>
      <trkpt lat="48.81101" lon="2.17465">
        <ele>174.1</ele>
        <time>2016-12-03T12:43:41Z</time>
      </trkpt>
      <trkpt lat="48.81092" lon="2.17473">
        <ele>174.2</ele>
        <time>2016-12-03T12:43:43Z</time>
      </trkpt>
      <trkpt lat="48.81083" lon="2.17488">
        <ele>174.1</ele>
        <time>2016-12-03T12:43:46Z</time>
      </trkpt>
      <trkpt lat="48.8108" lon="2.17501">
        <ele>173.8</ele>
        <time>2016-12-03T12:43:48Z</time>
      </trkpt>
      <trkpt lat="48.81081" lon="2.17518">
        <ele>173.7</ele>
        <time>2016-12-03T12:43:51Z</time>
      </trkpt>
      <trkpt lat="48.81083" lon="2.17538">
        <ele>173.5</ele>
        <time>2016-12-03T12:43:54Z</time>
      </trkpt>
      <trkpt lat="48.81084" lon="2.17558">
        <ele>173.3</ele>
        <time>2016-12-03T12:43:57Z</time>
      </trkpt>
      <trkpt lat="48.81086" lon="2.17577">
        <ele>173</ele>
        <time>2016-12-03T12:44:00Z</time>
      </trkpt>
      <trkpt lat="48.81094" lon="2.17589">
        <ele>172.7</ele>
        <time>2016-12-03T12:44:03Z</time>
      </trkpt>
      <trkpt lat="48.81101" lon="2.17603">
        <ele>172</ele>
        <time>2016-12-03T12:44:06Z</time>
      </trkpt>
      <trkpt lat="48.81108" lon="2.17617">
        <ele>171.1</ele>
        <time>2016-12-03T12:44:11Z</time>
      </trkpt>
      <trkpt lat="48.81114" lon="2.17628">
        <ele>170.1</ele>
        <time>2016-12-03T12:44:14Z</time>
      </trkpt>
      <trkpt lat="48.81123" lon="2.17636">
        <ele>168.8</ele>
        <time>2016-12-03T12:44:18Z</time>
      </trkpt>
      <trkpt lat="48.8113" lon="2.17643">
        <ele>167.5</ele>
        <time>2016-12-03T12:44:23Z</time>
      </trkpt>
      <trkpt lat="48.8114" lon="2.17649">
        <ele>165.8</ele>
        <time>2016-12-03T12:44:27Z</time>
      </trkpt>
      <trkpt lat="48.81151" lon="2.17649">
        <ele>164.4</ele>
        <time>2016-12-03T12:44:30Z</time>
      </trkpt>
      <trkpt lat="48.81161" lon="2.17639">
        <ele>164.4</ele>
        <time>2016-12-03T12:44:33Z</time>
      </trkpt>
      <trkpt lat="48.8117" lon="2.17625">
        <ele>165.7</ele>
        <time>2016-12-03T12:44:36Z</time>
      </trkpt>
      <trkpt lat="48.81173" lon="2.17612">
        <ele>167.4</ele>
        <time>2016-12-03T12:44:39Z</time>
      </trkpt>
      <trkpt lat="48.81181" lon="2.17599">
        <ele>169.1</ele>
        <time>2016-12-03T12:44:43Z</time>
      </trkpt>
      <trkpt lat="48.8119" lon="2.17593">
        <ele>169.9</ele>
        <time>2016-12-03T12:44:47Z</time>
      </trkpt>
      <trkpt lat="48.812" lon="2.17591">
        <ele>170.2</ele>
        <time>2016-12-03T12:44:50Z</time>
      </trkpt>
      <trkpt lat="48.81209" lon="2.17591">
        <ele>170.3</ele>
        <time>2016-12-03T12:44:54Z</time>
      </trkpt>
      <trkpt lat="48.81218" lon="2.17589">
        <ele>170.5</ele>
        <time>2016-12-03T12:44:57Z</time>
      </trkpt>
      <trkpt lat="48.81231" lon="2.1759">
        <ele>170.4</ele>
        <time>2016-12-03T12:45:00Z</time>
      </trkpt>
      <trkpt lat="48.8124" lon="2.17594">
        <ele>170.1</ele>
        <time>2016-12-03T12:45:02Z</time>
      </trkpt>
      <trkpt lat="48.81249" lon="2.17599">
        <ele>169.8</ele>
        <time>2016-12-03T12:45:04Z</time>
      </trkpt>
      <trkpt lat="48.81259" lon="2.17608">
        <ele>168.5</ele>
        <time>2016-12-03T12:45:07Z</time>
      </trkpt>
      <trkpt lat="48.81269" lon="2.17612">
        <ele>167.6</ele>
        <time>2016-12-03T12:45:09Z</time>
      </trkpt>
      <trkpt lat="48.8128" lon="2.17618">
        <ele>166.7</ele>
        <time>2016-12-03T12:45:11Z</time>
      </trkpt>
      <trkpt lat="48.81293" lon="2.17625">
        <ele>165.7</ele>
        <time>2016-12-03T12:45:13Z</time>
      </trkpt>
      <trkpt lat="48.81305" lon="2.1763">
        <ele>165</ele>
        <time>2016-12-03T12:45:15Z</time>
      </trkpt>
      <trkpt lat="48.81316" lon="2.17637">
        <ele>164.3</ele>
        <time>2016-12-03T12:45:18Z</time>
      </trkpt>
      <trkpt lat="48.81325" lon="2.17643">
        <ele>163.8</ele>
        <time>2016-12-03T12:45:20Z</time>
      </trkpt>
      <trkpt lat="48.81335" lon="2.17649">
        <ele>163.4</ele>
        <time>2016-12-03T12:45:23Z</time>
      </trkpt>
      <trkpt lat="48.81347" lon="2.17655">
        <ele>163.4</ele>
        <time>2016-12-03T12:45:25Z</time>
      </trkpt>
      <trkpt lat="48.81359" lon="2.1766">
        <ele>163.4</ele>
        <time>2016-12-03T12:45:28Z</time>
      </trkpt>
      <trkpt lat="48.8137" lon="2.17667">
        <ele>163.4</ele>
        <time>2016-12-03T12:45:30Z</time>
      </trkpt>
      <trkpt lat="48.81379" lon="2.17681">
        <ele>163.3</ele>
        <time>2016-12-03T12:45:32Z</time>
      </trkpt>
      <trkpt lat="48.81383" lon="2.17699">
        <ele>163.1</ele>
        <time>2016-12-03T12:45:34Z</time>
      </trkpt>
      <trkpt lat="48.81387" lon="2.17717">
        <ele>162.8</ele>
        <time>2016-12-03T12:45:36Z</time>
      </trkpt>
      <trkpt lat="48.81388" lon="2.17733">
        <ele>162.6</ele>
        <time>2016-12-03T12:45:38Z</time>
      </trkpt>
      <trkpt lat="48.81385" lon="2.17747">
        <ele>162.3</ele>
        <time>2016-12-03T12:45:40Z</time>
      </trkpt>
      <trkpt lat="48.81391" lon="2.17762">
        <ele>162.1</ele>
        <time>2016-12-03T12:45:42Z</time>
      </trkpt>
      <trkpt lat="48.81396" lon="2.17774">
        <ele>161.9</ele>
        <time>2016-12-03T12:45:44Z</time>
      </trkpt>
      <trkpt lat="48.81409" lon="2.17786">
        <ele>161.7</ele>
        <time>2016-12-03T12:45:46Z</time>
      </trkpt>
      <trkpt lat="48.8142" lon="2.17799">
        <ele>161.2</ele>
        <time>2016-12-03T12:45:48Z</time>
      </trkpt>
      <trkpt lat="48.81427" lon="2.1781">
        <ele>160.7</ele>
        <time>2016-12-03T12:45:50Z</time>
      </trkpt>
      <trkpt lat="48.81435" lon="2.1782">
        <ele>160.1</ele>
        <time>2016-12-03T12:45:52Z</time>
      </trkpt>
      <trkpt lat="48.81443" lon="2.17828">
        <ele>159.6</ele>
        <time>2016-12-03T12:45:55Z</time>
      </trkpt>
      <trkpt lat="48.8145" lon="2.17839">
        <ele>159.3</ele>
        <time>2016-12-03T12:46:08Z</time>
      </trkpt>
      <trkpt lat="48.81459" lon="2.17847">
        <ele>159.4</ele>
        <time>2016-12-03T12:46:12Z</time>
      </trkpt>
      <trkpt lat="48.81467" lon="2.17855">
        <ele>159.5</ele>
        <time>2016-12-03T12:46:15Z</time>
      </trkpt>
      <trkpt lat="48.81474" lon="2.17864">
        <ele>159.6</ele>
        <time>2016-12-03T12:46:19Z</time>
      </trkpt>
      <trkpt lat="48.81478" lon="2.17866">
        <ele>159.6</ele>
        <time>2016-12-03T12:46:26Z</time>
      </trkpt>
      <trkpt lat="48.81478" lon="2.1788">
        <ele>160.1</ele>
        <time>2016-12-03T12:46:34Z</time>
      </trkpt>
      <trkpt lat="48.81478" lon="2.17897">
        <ele>160.6</ele>
        <time>2016-12-03T12:46:39Z</time>
      </trkpt>
      <trkpt lat="48.81478" lon="2.17911">
        <ele>161.1</ele>
        <time>2016-12-03T12:46:43Z</time>
      </trkpt>
      <trkpt lat="48.81477" lon="2.17927">
        <ele>161.9</ele>
        <time>2016-12-03T12:46:48Z</time>
      </trkpt>
      <trkpt lat="48.81477" lon="2.17941">
        <ele>162.9</ele>
        <time>2016-12-03T12:46:54Z</time>
      </trkpt>
      <trkpt lat="48.81478" lon="2.17956">
        <ele>163.9</ele>
        <time>2016-12-03T12:47:00Z</time>
      </trkpt>
      <trkpt lat="48.8148" lon="2.1797">
        <ele>164.9</ele>
        <time>2016-12-03T12:47:05Z</time>
      </trkpt>
      <trkpt lat="48.81479" lon="2.17987">
        <ele>166.1</ele>
        <time>2016-12-03T12:47:11Z</time>
      </trkpt>
      <trkpt lat="48.8148" lon="2.18003">
        <ele>167.2</ele>
        <time>2016-12-03T12:47:16Z</time>
      </trkpt>
      <trkpt lat="48.8148" lon="2.18017">
        <ele>168.1</ele>
        <time>2016-12-03T12:47:22Z</time>
      </trkpt>
      <trkpt lat="48.8148" lon="2.18031">
        <ele>169</ele>
        <time>2016-12-03T12:47:27Z</time>
      </trkpt>
      <trkpt lat="48.81479" lon="2.18047">
        <ele>170</ele>
        <time>2016-12-03T12:47:32Z</time>
      </trkpt>
      <trkpt lat="48.81479" lon="2.18062">
        <ele>170.9</ele>
        <time>2016-12-03T12:47:36Z</time>
      </trkpt>
      <trkpt lat="48.81476" lon="2.18078">
        <ele>171.8</ele>
        <time>2016-12-03T12:47:40Z</time>
      </trkpt>
      <trkpt lat="48.81473" lon="2.18091">
        <ele>172</ele>
        <time>2016-12-03T12:47:43Z</time>
      </trkpt>
      <trkpt lat="48.81474" lon="2.18106">
        <ele>171.9</ele>
        <time>2016-12-03T12:47:47Z</time>
      </trkpt>
      <trkpt lat="48.81476" lon="2.18122">
        <ele>171.9</ele>
        <time>2016-12-03T12:47:51Z</time>
      </trkpt>
      <trkpt lat="48.81476" lon="2.18137">
        <ele>171.8</ele>
        <time>2016-12-03T12:47:54Z</time>
      </trkpt>
      <trkpt lat="48.81475" lon="2.18155">
        <ele>171.6</ele>
        <time>2016-12-03T12:47:57Z</time>
      </trkpt>
      <trkpt lat="48.81479" lon="2.1817">
        <ele>171.6</ele>
        <time>2016-12-03T12:48:00Z</time>
      </trkpt>
      <trkpt lat="48.81483" lon="2.18187">
        <ele>171.1</ele>
        <time>2016-12-03T12:48:03Z</time>
      </trkpt>
      <trkpt lat="48.81489" lon="2.18199">
        <ele>171</ele>
        <time>2016-12-03T12:48:05Z</time>
      </trkpt>
      <trkpt lat="48.81496" lon="2.18209">
        <ele>171.2</ele>
        <time>2016-12-03T12:48:07Z</time>
      </trkpt>
      <trkpt lat="48.81505" lon="2.1822">
        <ele>171</ele>
        <time>2016-12-03T12:48:09Z</time>
      </trkpt>
      <trkpt lat="48.8151" lon="2.18232">
        <ele>170.6</ele>
        <time>2016-12-03T12:48:11Z</time>
      </trkpt>
      <trkpt lat="48.81518" lon="2.18243">
        <ele>170.2</ele>
        <time>2016-12-03T12:48:13Z</time>
      </trkpt>
      <trkpt lat="48.81522" lon="2.18257">
        <ele>169.7</ele>
        <time>2016-12-03T12:48:15Z</time>
      </trkpt>
      <trkpt lat="48.81527" lon="2.18273">
        <ele>169</ele>
        <time>2016-12-03T12:48:17Z</time>
      </trkpt>
      <trkpt lat="48.81532" lon="2.18289">
        <ele>168.3</ele>
        <time>2016-12-03T12:48:19Z</time>
      </trkpt>
      <trkpt lat="48.8153" lon="2.18307">
        <ele>167.5</ele>
        <time>2016-12-03T12:48:21Z</time>
      </trkpt>
      <trkpt lat="48.81535" lon="2.18324">
        <ele>166.9</ele>
        <time>2016-12-03T12:48:23Z</time>
      </trkpt>
      <trkpt lat="48.81536" lon="2.18345">
        <ele>165.8</ele>
        <time>2016-12-03T12:48:25Z</time>
      </trkpt>
      <trkpt lat="48.81538" lon="2.1837">
        <ele>164.3</ele>
        <time>2016-12-03T12:48:27Z</time>
      </trkpt>
      <trkpt lat="48.81541" lon="2.18389">
        <ele>163.2</ele>
        <time>2016-12-03T12:48:29Z</time>
      </trkpt>
      <trkpt lat="48.81546" lon="2.18407">
        <ele>162.2</ele>
        <time>2016-12-03T12:48:31Z</time>
      </trkpt>
      <trkpt lat="48.8155" lon="2.18423">
        <ele>161.7</ele>
        <time>2016-12-03T12:48:34Z</time>
      </trkpt>
      <trkpt lat="48.81546" lon="2.18437">
        <ele>161.3</ele>
        <time>2016-12-03T12:48:39Z</time>
      </trkpt>
      <trkpt lat="48.81552" lon="2.18449">
        <ele>161.2</ele>
        <time>2016-12-03T12:48:47Z</time>
      </trkpt>
      <trkpt lat="48.81558" lon="2.18459">
        <ele>161.2</ele>
        <time>2016-12-03T12:48:54Z</time>
      </trkpt>
      <trkpt lat="48.81565" lon="2.18471">
        <ele>161.2</ele>
        <time>2016-12-03T12:48:59Z</time>
      </trkpt>
      <trkpt lat="48.81572" lon="2.18486">
        <ele>161</ele>
        <time>2016-12-03T12:49:03Z</time>
      </trkpt>
      <trkpt lat="48.81578" lon="2.18499">
        <ele>160.9</ele>
        <time>2016-12-03T12:49:06Z</time>
      </trkpt>
      <trkpt lat="48.81586" lon="2.18507">
        <ele>160.7</ele>
        <time>2016-12-03T12:49:09Z</time>
      </trkpt>
      <trkpt lat="48.81595" lon="2.18514">
        <ele>160.4</ele>
        <time>2016-12-03T12:49:12Z</time>
      </trkpt>
      <trkpt lat="48.81608" lon="2.1852">
        <ele>160.2</ele>
        <time>2016-12-03T12:49:15Z</time>
      </trkpt>
      <trkpt lat="48.81617" lon="2.18526">
        <ele>160.1</ele>
        <time>2016-12-03T12:49:18Z</time>
      </trkpt>
      <trkpt lat="48.81626" lon="2.18531">
        <ele>160</ele>
        <time>2016-12-03T12:49:21Z</time>
      </trkpt>
      <trkpt lat="48.81637" lon="2.18541">
        <ele>159.9</ele>
        <time>2016-12-03T12:49:25Z</time>
      </trkpt>
      <trkpt lat="48.81647" lon="2.18544">
        <ele>159.9</ele>
        <time>2016-12-03T12:49:26Z</time>
      </trkpt>
      <trkpt lat="48.81657" lon="2.18551">
        <ele>159.9</ele>
        <time>2016-12-03T12:49:28Z</time>
      </trkpt>
      <trkpt lat="48.81664" lon="2.18561">
        <ele>159.7</ele>
        <time>2016-12-03T12:49:30Z</time>
      </trkpt>
      <trkpt lat="48.81671" lon="2.1857">
        <ele>159.2</ele>
        <time>2016-12-03T12:49:32Z</time>
      </trkpt>
      <trkpt lat="48.81679" lon="2.18583">
        <ele>158.3</ele>
        <time>2016-12-03T12:49:35Z</time>
      </trkpt>
      <trkpt lat="48.81685" lon="2.18596">
        <ele>157.6</ele>
        <time>2016-12-03T12:49:38Z</time>
      </trkpt>
      <trkpt lat="48.8169" lon="2.18614">
        <ele>157</ele>
        <time>2016-12-03T12:49:41Z</time>
      </trkpt>
      <trkpt lat="48.81689" lon="2.18633">
        <ele>156.7</ele>
        <time>2016-12-03T12:49:44Z</time>
      </trkpt>
      <trkpt lat="48.81693" lon="2.18652">
        <ele>156.2</ele>
        <time>2016-12-03T12:49:47Z</time>
      </trkpt>
      <trkpt lat="48.81699" lon="2.18667">
        <ele>156</ele>
        <time>2016-12-03T12:49:49Z</time>
      </trkpt>
      <trkpt lat="48.81699" lon="2.18689">
        <ele>154.8</ele>
        <time>2016-12-03T12:49:51Z</time>
      </trkpt>
      <trkpt lat="48.81704" lon="2.18706">
        <ele>154</ele>
        <time>2016-12-03T12:49:53Z</time>
      </trkpt>
      <trkpt lat="48.8171" lon="2.18724">
        <ele>153.3</ele>
        <time>2016-12-03T12:49:55Z</time>
      </trkpt>
      <trkpt lat="48.81717" lon="2.1874">
        <ele>153.1</ele>
        <time>2016-12-03T12:49:57Z</time>
      </trkpt>
      <trkpt lat="48.81719" lon="2.18754">
        <ele>152.5</ele>
        <time>2016-12-03T12:49:59Z</time>
      </trkpt>
      <trkpt lat="48.81721" lon="2.18769">
        <ele>151.2</ele>
        <time>2016-12-03T12:50:01Z</time>
      </trkpt>
      <trkpt lat="48.81723" lon="2.18788">
        <ele>149.8</ele>
        <time>2016-12-03T12:50:03Z</time>
      </trkpt>
      <trkpt lat="48.81729" lon="2.18814">
        <ele>148.3</ele>
        <time>2016-12-03T12:50:05Z</time>
      </trkpt>
      <trkpt lat="48.81732" lon="2.18827">
        <ele>147.8</ele>
        <time>2016-12-03T12:50:06Z</time>
      </trkpt>
      <trkpt lat="48.81734" lon="2.18842">
        <ele>147</ele>
        <time>2016-12-03T12:50:07Z</time>
      </trkpt>
      <trkpt lat="48.81738" lon="2.18855">
        <ele>146.6</ele>
        <time>2016-12-03T12:50:08Z</time>
      </trkpt>
      <trkpt lat="48.81741" lon="2.18869">
        <ele>146.2</ele>
        <time>2016-12-03T12:50:09Z</time>
      </trkpt>
      <trkpt lat="48.81742" lon="2.18883">
        <ele>145.6</ele>
        <time>2016-12-03T12:50:10Z</time>
      </trkpt>
      <trkpt lat="48.81744" lon="2.18896">
        <ele>145</ele>
        <time>2016-12-03T12:50:11Z</time>
      </trkpt>
      <trkpt lat="48.81745" lon="2.18912">
        <ele>144.3</ele>
        <time>2016-12-03T12:50:12Z</time>
      </trkpt>
      <trkpt lat="48.81749" lon="2.18941">
        <ele>142.8</ele>
        <time>2016-12-03T12:50:14Z</time>
      </trkpt>
      <trkpt lat="48.81753" lon="2.18963">
        <ele>141.4</ele>
        <time>2016-12-03T12:50:16Z</time>
      </trkpt>
      <trkpt lat="48.81756" lon="2.18977">
        <ele>140.6</ele>
        <time>2016-12-03T12:50:18Z</time>
      </trkpt>
      <trkpt lat="48.8176" lon="2.1899">
        <ele>139.9</ele>
        <time>2016-12-03T12:50:24Z</time>
      </trkpt>
      <trkpt lat="48.8176" lon="2.18993">
        <ele>139.7</ele>
        <time>2016-12-03T12:50:30Z</time>
      </trkpt>
      <trkpt lat="48.81755" lon="2.19004">
        <ele>138</ele>
        <time>2016-12-03T12:50:45Z</time>
      </trkpt>
      <trkpt lat="48.81742" lon="2.1902">
        <ele>133.7</ele>
        <time>2016-12-03T12:50:49Z</time>
      </trkpt>
      <trkpt lat="48.81733" lon="2.19031">
        <ele>130.5</ele>
        <time>2016-12-03T12:50:52Z</time>
      </trkpt>
      <trkpt lat="48.81718" lon="2.19043">
        <ele>126.6</ele>
        <time>2016-12-03T12:50:55Z</time>
      </trkpt>
      <trkpt lat="48.81709" lon="2.19052">
        <ele>124.1</ele>
        <time>2016-12-03T12:50:57Z</time>
      </trkpt>
      <trkpt lat="48.81701" lon="2.19061">
        <ele>121.8</ele>
        <time>2016-12-03T12:51:01Z</time>
      </trkpt>
      <trkpt lat="48.81696" lon="2.19074">
        <ele>119.8</ele>
        <time>2016-12-03T12:51:06Z</time>
      </trkpt>
      <trkpt lat="48.81691" lon="2.19089">
        <ele>117.8</ele>
        <time>2016-12-03T12:51:08Z</time>
      </trkpt>
      <trkpt lat="48.81683" lon="2.19103">
        <ele>115.7</ele>
        <time>2016-12-03T12:51:10Z</time>
      </trkpt>
      <trkpt lat="48.81679" lon="2.19117">
        <ele>114</ele>
        <time>2016-12-03T12:51:12Z</time>
      </trkpt>
      <trkpt lat="48.81674" lon="2.19134">
        <ele>112.1</ele>
        <time>2016-12-03T12:51:15Z</time>
      </trkpt>
      <trkpt lat="48.81664" lon="2.1914">
        <ele>110.7</ele>
        <time>2016-12-03T12:51:21Z</time>
      </trkpt>
      <trkpt lat="48.81654" lon="2.19132">
        <ele>109.8</ele>
        <time>2016-12-03T12:51:24Z</time>
      </trkpt>
      <trkpt lat="48.81645" lon="2.19121">
        <ele>109.3</ele>
        <time>2016-12-03T12:51:27Z</time>
      </trkpt>
      <trkpt lat="48.81635" lon="2.19108">
        <ele>108.6</ele>
        <time>2016-12-03T12:51:30Z</time>
      </trkpt>
      <trkpt lat="48.81624" lon="2.19097">
        <ele>107.7</ele>
        <time>2016-12-03T12:51:33Z</time>
      </trkpt>
      <trkpt lat="48.81617" lon="2.19087">
        <ele>107.1</ele>
        <time>2016-12-03T12:51:37Z</time>
      </trkpt>
      <trkpt lat="48.81618" lon="2.19086">
        <ele>107.3</ele>
        <time>2016-12-03T12:51:42Z</time>
      </trkpt>
      <trkpt lat="48.81608" lon="2.19088">
        <ele>105.7</ele>
        <time>2016-12-03T12:51:50Z</time>
      </trkpt>
      <trkpt lat="48.81605" lon="2.19103">
        <ele>104.5</ele>
        <time>2016-12-03T12:51:57Z</time>
      </trkpt>
      <trkpt lat="48.81606" lon="2.1912">
        <ele>103.8</ele>
        <time>2016-12-03T12:52:00Z</time>
      </trkpt>
      <trkpt lat="48.81606" lon="2.19136">
        <ele>103.2</ele>
        <time>2016-12-03T12:52:02Z</time>
      </trkpt>
      <trkpt lat="48.81602" lon="2.19158">
        <ele>101.7</ele>
        <time>2016-12-03T12:52:04Z</time>
      </trkpt>
      <trkpt lat="48.81597" lon="2.1918">
        <ele>100</ele>
        <time>2016-12-03T12:52:06Z</time>
      </trkpt>
      <trkpt lat="48.81592" lon="2.19193">
        <ele>98.8</ele>
        <time>2016-12-03T12:52:07Z</time>
      </trkpt>
      <trkpt lat="48.81587" lon="2.19205">
        <ele>97.7</ele>
        <time>2016-12-03T12:52:08Z</time>
      </trkpt>
      <trkpt lat="48.81582" lon="2.19229">
        <ele>95.9</ele>
        <time>2016-12-03T12:52:10Z</time>
      </trkpt>
      <trkpt lat="48.81574" lon="2.19251">
        <ele>94</ele>
        <time>2016-12-03T12:52:12Z</time>
      </trkpt>
      <trkpt lat="48.81568" lon="2.1927">
        <ele>92</ele>
        <time>2016-12-03T12:52:14Z</time>
      </trkpt>
      <trkpt lat="48.81563" lon="2.19283">
        <ele>90.5</ele>
        <time>2016-12-03T12:52:16Z</time>
      </trkpt>
      <trkpt lat="48.81566" lon="2.19299">
        <ele>89.6</ele>
        <time>2016-12-03T12:52:19Z</time>
      </trkpt>
      <trkpt lat="48.8157" lon="2.19315">
        <ele>88.9</ele>
        <time>2016-12-03T12:52:22Z</time>
      </trkpt>
      <trkpt lat="48.81575" lon="2.19329">
        <ele>88.5</ele>
        <time>2016-12-03T12:52:24Z</time>
      </trkpt>
      <trkpt lat="48.81581" lon="2.19345">
        <ele>87.3</ele>
        <time>2016-12-03T12:52:26Z</time>
      </trkpt>
      <trkpt lat="48.81589" lon="2.19361">
        <ele>86.1</ele>
        <time>2016-12-03T12:52:28Z</time>
      </trkpt>
      <trkpt lat="48.81596" lon="2.19375">
        <ele>85.2</ele>
        <time>2016-12-03T12:52:30Z</time>
      </trkpt>
      <trkpt lat="48.81597" lon="2.19389">
        <ele>83.6</ele>
        <time>2016-12-03T12:52:32Z</time>
      </trkpt>
      <trkpt lat="48.816" lon="2.19409">
        <ele>81.4</ele>
        <time>2016-12-03T12:52:35Z</time>
      </trkpt>
      <trkpt lat="48.81607" lon="2.1942">
        <ele>81.2</ele>
        <time>2016-12-03T12:52:37Z</time>
      </trkpt>
      <trkpt lat="48.81613" lon="2.19431">
        <ele>81.4</ele>
        <time>2016-12-03T12:52:39Z</time>
      </trkpt>
      <trkpt lat="48.8162" lon="2.19442">
        <ele>81.6</ele>
        <time>2016-12-03T12:52:41Z</time>
      </trkpt>
      <trkpt lat="48.81627" lon="2.19453">
        <ele>81.7</ele>
        <time>2016-12-03T12:52:43Z</time>
      </trkpt>
      <trkpt lat="48.81634" lon="2.19462">
        <ele>81.9</ele>
        <time>2016-12-03T12:52:45Z</time>
      </trkpt>
      <trkpt lat="48.81639" lon="2.19475">
        <ele>81.7</ele>
        <time>2016-12-03T12:52:48Z</time>
      </trkpt>
      <trkpt lat="48.81648" lon="2.19488">
        <ele>81.7</ele>
        <time>2016-12-03T12:52:52Z</time>
      </trkpt>
      <trkpt lat="48.81655" lon="2.195">
        <ele>81.6</ele>
        <time>2016-12-03T12:52:55Z</time>
      </trkpt>
      <trkpt lat="48.81659" lon="2.19513">
        <ele>81.2</ele>
        <time>2016-12-03T12:52:58Z</time>
      </trkpt>
      <trkpt lat="48.81659" lon="2.19528">
        <ele>80.1</ele>
        <time>2016-12-03T12:53:03Z</time>
      </trkpt>
      <trkpt lat="48.8166" lon="2.19542">
        <ele>79.2</ele>
        <time>2016-12-03T12:53:08Z</time>
      </trkpt>
      <trkpt lat="48.81659" lon="2.19557">
        <ele>78</ele>
        <time>2016-12-03T12:53:14Z</time>
      </trkpt>
      <trkpt lat="48.8166" lon="2.19572">
        <ele>76.9</ele>
        <time>2016-12-03T12:53:20Z</time>
      </trkpt>
      <trkpt lat="48.81659" lon="2.19587">
        <ele>76</ele>
        <time>2016-12-03T12:53:26Z</time>
      </trkpt>
      <trkpt lat="48.81658" lon="2.19601">
        <ele>75.7</ele>
        <time>2016-12-03T12:53:33Z</time>
      </trkpt>
      <trkpt lat="48.81658" lon="2.19617">
        <ele>75.4</ele>
        <time>2016-12-03T12:53:40Z</time>
      </trkpt>
      <trkpt lat="48.81658" lon="2.19631">
        <ele>75.2</ele>
        <time>2016-12-03T12:53:46Z</time>
      </trkpt>
      <trkpt lat="48.81657" lon="2.19646">
        <ele>74.9</ele>
        <time>2016-12-03T12:53:53Z</time>
      </trkpt>
      <trkpt lat="48.81656" lon="2.19662">
        <ele>74.7</ele>
        <time>2016-12-03T12:54:00Z</time>
      </trkpt>
      <trkpt lat="48.81655" lon="2.19677">
        <ele>75.1</ele>
        <time>2016-12-03T12:54:07Z</time>
      </trkpt>
      <trkpt lat="48.81654" lon="2.19692">
        <ele>76</ele>
        <time>2016-12-03T12:54:14Z</time>
      </trkpt>
      <trkpt lat="48.81655" lon="2.19707">
        <ele>76.4</ele>
        <time>2016-12-03T12:54:21Z</time>
      </trkpt>
      <trkpt lat="48.81656" lon="2.19721">
        <ele>76.7</ele>
        <time>2016-12-03T12:54:28Z</time>
      </trkpt>
      <trkpt lat="48.81657" lon="2.19735">
        <ele>77.1</ele>
        <time>2016-12-03T12:54:36Z</time>
      </trkpt>
      <trkpt lat="48.81657" lon="2.19751">
        <ele>77.8</ele>
        <time>2016-12-03T12:54:43Z</time>
      </trkpt>
      <trkpt lat="48.81658" lon="2.19765">
        <ele>79.2</ele>
        <time>2016-12-03T12:54:50Z</time>
      </trkpt>
      <trkpt lat="48.81657" lon="2.19779">
        <ele>81</ele>
        <time>2016-12-03T12:54:57Z</time>
      </trkpt>
      <trkpt lat="48.81658" lon="2.19795">
        <ele>82.7</ele>
        <time>2016-12-03T12:55:04Z</time>
      </trkpt>
      <trkpt lat="48.81657" lon="2.1981">
        <ele>84.6</ele>
        <time>2016-12-03T12:55:11Z</time>
      </trkpt>
      <trkpt lat="48.81658" lon="2.19824">
        <ele>86.1</ele>
        <time>2016-12-03T12:55:18Z</time>
      </trkpt>
      <trkpt lat="48.81657" lon="2.19841">
        <ele>88.1</ele>
        <time>2016-12-03T12:55:26Z</time>
      </trkpt>
      <trkpt lat="48.81652" lon="2.19853">
        <ele>90.2</ele>
        <time>2016-12-03T12:55:36Z</time>
      </trkpt>
      <trkpt lat="48.81641" lon="2.19848">
        <ele>90.9</ele>
        <time>2016-12-03T12:55:42Z</time>
      </trkpt>
      <trkpt lat="48.81634" lon="2.1984">
        <ele>91</ele>
        <time>2016-12-03T12:55:47Z</time>
      </trkpt>
      <trkpt lat="48.81625" lon="2.1983">
        <ele>91.1</ele>
        <time>2016-12-03T12:55:53Z</time>
      </trkpt>
      <trkpt lat="48.81618" lon="2.19821">
        <ele>91.2</ele>
        <time>2016-12-03T12:55:58Z</time>
      </trkpt>
      <trkpt lat="48.81611" lon="2.1981">
        <ele>91.3</ele>
        <time>2016-12-03T12:56:03Z</time>
      </trkpt>
      <trkpt lat="48.81604" lon="2.198">
        <ele>91.4</ele>
        <time>2016-12-03T12:56:08Z</time>
      </trkpt>
      <trkpt lat="48.81597" lon="2.1979">
        <ele>91.7</ele>
        <time>2016-12-03T12:56:13Z</time>
      </trkpt>
      <trkpt lat="48.8159" lon="2.1978">
        <ele>92</ele>
        <time>2016-12-03T12:56:18Z</time>
      </trkpt>
      <trkpt lat="48.81581" lon="2.19785">
        <ele>93.8</ele>
        <time>2016-12-03T12:56:25Z</time>
      </trkpt>
      <trkpt lat="48.81576" lon="2.19798">
        <ele>95.3</ele>
        <time>2016-12-03T12:56:31Z</time>
      </trkpt>
      <trkpt lat="48.81571" lon="2.1981">
        <ele>97.1</ele>
        <time>2016-12-03T12:56:37Z</time>
      </trkpt>
      <trkpt lat="48.81565" lon="2.19823">
        <ele>98.8</ele>
        <time>2016-12-03T12:56:43Z</time>
      </trkpt>
      <trkpt lat="48.81567" lon="2.19824">
        <ele>98.5</ele>
        <time>2016-12-03T12:56:52Z</time>
      </trkpt>
      <trkpt lat="48.81564" lon="2.19821">
        <ele>98.8</ele>
        <time>2016-12-03T12:58:49Z</time>
      </trkpt>
      <trkpt lat="48.81573" lon="2.19828">
        <ele>98.1</ele>
        <time>2016-12-03T12:59:18Z</time>
      </trkpt>
      <trkpt lat="48.8158" lon="2.19839">
        <ele>98</ele>
        <time>2016-12-03T12:59:25Z</time>
      </trkpt>
      <trkpt lat="48.81587" lon="2.19849">
        <ele>97.8</ele>
        <time>2016-12-03T12:59:31Z</time>
      </trkpt>
      <trkpt lat="48.81594" lon="2.19858">
        <ele>97.8</ele>
        <time>2016-12-03T12:59:36Z</time>
      </trkpt>
      <trkpt lat="48.81601" lon="2.19868">
        <ele>97.8</ele>
        <time>2016-12-03T12:59:40Z</time>
      </trkpt>
      <trkpt lat="48.81607" lon="2.19879">
        <ele>98.1</ele>
        <time>2016-12-03T12:59:44Z</time>
      </trkpt>
      <trkpt lat="48.81615" lon="2.1989">
        <ele>98.3</ele>
        <time>2016-12-03T12:59:48Z</time>
      </trkpt>
      <trkpt lat="48.81623" lon="2.19902">
        <ele>98.7</ele>
        <time>2016-12-03T12:59:52Z</time>
      </trkpt>
      <trkpt lat="48.81631" lon="2.19914">
        <ele>99.1</ele>
        <time>2016-12-03T12:59:56Z</time>
      </trkpt>
      <trkpt lat="48.81637" lon="2.19926">
        <ele>99.6</ele>
        <time>2016-12-03T13:00:00Z</time>
      </trkpt>
      <trkpt lat="48.81643" lon="2.19937">
        <ele>99.7</ele>
        <time>2016-12-03T13:00:04Z</time>
      </trkpt>
      <trkpt lat="48.81649" lon="2.19948">
        <ele>99.7</ele>
        <time>2016-12-03T13:00:09Z</time>
      </trkpt>
      <trkpt lat="48.81655" lon="2.19961">
        <ele>99.7</ele>
        <time>2016-12-03T13:00:15Z</time>
      </trkpt>
      <trkpt lat="48.8166" lon="2.19972">
        <ele>99.7</ele>
        <time>2016-12-03T13:00:20Z</time>
      </trkpt>
      <trkpt lat="48.81664" lon="2.19985">
        <ele>99.7</ele>
        <time>2016-12-03T13:00:25Z</time>
      </trkpt>
      <trkpt lat="48.81664" lon="2.2">
        <ele>100.5</ele>
        <time>2016-12-03T13:00:31Z</time>
      </trkpt>
      <trkpt lat="48.81665" lon="2.20014">
        <ele>100.9</ele>
        <time>2016-12-03T13:00:38Z</time>
      </trkpt>
      <trkpt lat="48.81667" lon="2.20029">
        <ele>101</ele>
        <time>2016-12-03T13:00:46Z</time>
      </trkpt>
      <trkpt lat="48.81667" lon="2.20045">
        <ele>101.5</ele>
        <time>2016-12-03T13:00:53Z</time>
      </trkpt>
      <trkpt lat="48.81669" lon="2.20061">
        <ele>101.9</ele>
        <time>2016-12-03T13:01:00Z</time>
      </trkpt>
      <trkpt lat="48.81667" lon="2.20077">
        <ele>102.7</ele>
        <time>2016-12-03T13:01:05Z</time>
      </trkpt>
      <trkpt lat="48.81666" lon="2.20092">
        <ele>103.6</ele>
        <time>2016-12-03T13:01:10Z</time>
      </trkpt>
      <trkpt lat="48.81666" lon="2.20108">
        <ele>104.6</ele>
        <time>2016-12-03T13:01:15Z</time>
      </trkpt>
      <trkpt lat="48.81666" lon="2.20122">
        <ele>105.4</ele>
        <time>2016-12-03T13:01:20Z</time>
      </trkpt>
      <trkpt lat="48.81665" lon="2.20139">
        <ele>106.7</ele>
        <time>2016-12-03T13:01:25Z</time>
      </trkpt>
      <trkpt lat="48.81662" lon="2.20155">
        <ele>108.4</ele>
        <time>2016-12-03T13:01:29Z</time>
      </trkpt>
      <trkpt lat="48.81661" lon="2.2017">
        <ele>109.3</ele>
        <time>2016-12-03T13:01:34Z</time>
      </trkpt>
      <trkpt lat="48.81664" lon="2.20184">
        <ele>109.6</ele>
        <time>2016-12-03T13:01:39Z</time>
      </trkpt>
      <trkpt lat="48.81666" lon="2.20199">
        <ele>110.1</ele>
        <time>2016-12-03T13:01:44Z</time>
      </trkpt>
      <trkpt lat="48.81663" lon="2.20212">
        <ele>111.4</ele>
        <time>2016-12-03T13:01:48Z</time>
      </trkpt>
      <trkpt lat="48.81662" lon="2.20228">
        <ele>112.6</ele>
        <time>2016-12-03T13:01:54Z</time>
      </trkpt>
      <trkpt lat="48.8166" lon="2.20242">
        <ele>114</ele>
        <time>2016-12-03T13:01:59Z</time>
      </trkpt>
      <trkpt lat="48.8166" lon="2.20255">
        <ele>114.8</ele>
        <time>2016-12-03T13:02:06Z</time>
      </trkpt>
      <trkpt lat="48.8165" lon="2.2026">
        <ele>117.2</ele>
        <time>2016-12-03T13:02:16Z</time>
      </trkpt>
      <trkpt lat="48.81641" lon="2.20257">
        <ele>119</ele>
        <time>2016-12-03T13:02:24Z</time>
      </trkpt>
      <trkpt lat="48.81632" lon="2.20254">
        <ele>120.8</ele>
        <time>2016-12-03T13:02:31Z</time>
      </trkpt>
      <trkpt lat="48.81622" lon="2.20249">
        <ele>122.5</ele>
        <time>2016-12-03T13:02:40Z</time>
      </trkpt>
      <trkpt lat="48.81614" lon="2.20247">
        <ele>124.2</ele>
        <time>2016-12-03T13:02:46Z</time>
      </trkpt>
      <trkpt lat="48.81605" lon="2.20245">
        <ele>126</ele>
        <time>2016-12-03T13:02:52Z</time>
      </trkpt>
      <trkpt lat="48.81598" lon="2.20235">
        <ele>127</ele>
        <time>2016-12-03T13:03:01Z</time>
      </trkpt>
      <trkpt lat="48.81588" lon="2.20235">
        <ele>129</ele>
        <time>2016-12-03T13:03:10Z</time>
      </trkpt>
      <trkpt lat="48.81579" lon="2.2023">
        <ele>130.5</ele>
        <time>2016-12-03T13:03:18Z</time>
      </trkpt>
      <trkpt lat="48.8157" lon="2.20226">
        <ele>131.8</ele>
        <time>2016-12-03T13:03:26Z</time>
      </trkpt>
      <trkpt lat="48.8156" lon="2.20223">
        <ele>133.1</ele>
        <time>2016-12-03T13:03:34Z</time>
      </trkpt>
      <trkpt lat="48.8155" lon="2.2022">
        <ele>134.6</ele>
        <time>2016-12-03T13:03:40Z</time>
      </trkpt>
      <trkpt lat="48.81541" lon="2.20218">
        <ele>136.1</ele>
        <time>2016-12-03T13:03:47Z</time>
      </trkpt>
      <trkpt lat="48.81531" lon="2.20214">
        <ele>137.3</ele>
        <time>2016-12-03T13:03:53Z</time>
      </trkpt>
      <trkpt lat="48.81523" lon="2.20211">
        <ele>138.5</ele>
        <time>2016-12-03T13:04:01Z</time>
      </trkpt>
      <trkpt lat="48.81513" lon="2.20206">
        <ele>139.7</ele>
        <time>2016-12-03T13:04:08Z</time>
      </trkpt>
      <trkpt lat="48.81504" lon="2.20203">
        <ele>141</ele>
        <time>2016-12-03T13:04:14Z</time>
      </trkpt>
      <trkpt lat="48.81494" lon="2.20202">
        <ele>142.2</ele>
        <time>2016-12-03T13:04:19Z</time>
      </trkpt>
      <trkpt lat="48.81485" lon="2.20198">
        <ele>143.2</ele>
        <time>2016-12-03T13:04:24Z</time>
      </trkpt>
      <trkpt lat="48.81474" lon="2.20195">
        <ele>144.4</ele>
        <time>2016-12-03T13:04:30Z</time>
      </trkpt>
      <trkpt lat="48.81464" lon="2.20192">
        <ele>145.4</ele>
        <time>2016-12-03T13:04:36Z</time>
      </trkpt>
      <trkpt lat="48.81454" lon="2.20187">
        <ele>146.4</ele>
        <time>2016-12-03T13:04:42Z</time>
      </trkpt>
      <trkpt lat="48.81442" lon="2.20184">
        <ele>147.7</ele>
        <time>2016-12-03T13:04:48Z</time>
      </trkpt>
      <trkpt lat="48.81433" lon="2.20181">
        <ele>148.7</ele>
        <time>2016-12-03T13:04:55Z</time>
      </trkpt>
      <trkpt lat="48.81424" lon="2.2018">
        <ele>149.9</ele>
        <time>2016-12-03T13:05:00Z</time>
      </trkpt>
      <trkpt lat="48.81415" lon="2.20177">
        <ele>150.7</ele>
        <time>2016-12-03T13:05:05Z</time>
      </trkpt>
      <trkpt lat="48.81404" lon="2.20172">
        <ele>150.9</ele>
        <time>2016-12-03T13:05:11Z</time>
      </trkpt>
      <trkpt lat="48.81393" lon="2.20172">
        <ele>151.5</ele>
        <time>2016-12-03T13:05:17Z</time>
      </trkpt>
      <trkpt lat="48.81389" lon="2.20173">
        <ele>151.7</ele>
        <time>2016-12-03T13:05:23Z</time>
      </trkpt>
      <trkpt lat="48.81391" lon="2.20162">
        <ele>150.8</ele>
        <time>2016-12-03T13:06:02Z</time>
      </trkpt>
      <trkpt lat="48.81391" lon="2.20163">
        <ele>150.9</ele>
        <time>2016-12-03T13:06:43Z</time>
      </trkpt>
      <trkpt lat="48.8138" lon="2.20157">
        <ele>151</ele>
        <time>2016-12-03T13:07:58Z</time>
      </trkpt>
      <trkpt lat="48.81368" lon="2.20151">
        <ele>151.1</ele>
        <time>2016-12-03T13:08:04Z</time>
      </trkpt>
      <trkpt lat="48.81358" lon="2.20148">
        <ele>151.4</ele>
        <time>2016-12-03T13:08:08Z</time>
      </trkpt>
      <trkpt lat="48.81347" lon="2.20147">
        <ele>151.9</ele>
        <time>2016-12-03T13:08:11Z</time>
      </trkpt>
      <trkpt lat="48.81337" lon="2.20146">
        <ele>152.3</ele>
        <time>2016-12-03T13:08:14Z</time>
      </trkpt>
      <trkpt lat="48.81326" lon="2.20145">
        <ele>152.7</ele>
        <time>2016-12-03T13:08:18Z</time>
      </trkpt>
      <trkpt lat="48.81314" lon="2.20142">
        <ele>153.1</ele>
        <time>2016-12-03T13:08:22Z</time>
      </trkpt>
      <trkpt lat="48.81304" lon="2.2014">
        <ele>153.5</ele>
        <time>2016-12-03T13:08:25Z</time>
      </trkpt>
      <trkpt lat="48.81293" lon="2.20136">
        <ele>153.7</ele>
        <time>2016-12-03T13:08:29Z</time>
      </trkpt>
      <trkpt lat="48.81284" lon="2.2013">
        <ele>153.7</ele>
        <time>2016-12-03T13:08:36Z</time>
      </trkpt>
      <trkpt lat="48.81275" lon="2.20126">
        <ele>153.8</ele>
        <time>2016-12-03T13:08:40Z</time>
      </trkpt>
      <trkpt lat="48.81266" lon="2.20122">
        <ele>154</ele>
        <time>2016-12-03T13:08:45Z</time>
      </trkpt>
      <trkpt lat="48.81256" lon="2.20119">
        <ele>154.3</ele>
        <time>2016-12-03T13:08:50Z</time>
      </trkpt>
      <trkpt lat="48.81246" lon="2.20117">
        <ele>154.7</ele>
        <time>2016-12-03T13:08:54Z</time>
      </trkpt>
      <trkpt lat="48.81236" lon="2.20118">
        <ele>155.5</ele>
        <time>2016-12-03T13:09:00Z</time>
      </trkpt>
      <trkpt lat="48.81227" lon="2.20122">
        <ele>156.5</ele>
        <time>2016-12-03T13:09:05Z</time>
      </trkpt>
      <trkpt lat="48.81217" lon="2.20127">
        <ele>157.5</ele>
        <time>2016-12-03T13:09:12Z</time>
      </trkpt>
      <trkpt lat="48.8121" lon="2.20137">
        <ele>158.6</ele>
        <time>2016-12-03T13:09:19Z</time>
      </trkpt>
      <trkpt lat="48.81204" lon="2.2015">
        <ele>159.7</ele>
        <time>2016-12-03T13:09:28Z</time>
      </trkpt>
      <trkpt lat="48.81198" lon="2.2016">
        <ele>160.7</ele>
        <time>2016-12-03T13:09:34Z</time>
      </trkpt>
      <trkpt lat="48.81191" lon="2.20173">
        <ele>161.9</ele>
        <time>2016-12-03T13:09:41Z</time>
      </trkpt>
      <trkpt lat="48.81184" lon="2.20186">
        <ele>163.3</ele>
        <time>2016-12-03T13:09:49Z</time>
      </trkpt>
      <trkpt lat="48.81177" lon="2.20198">
        <ele>164.4</ele>
        <time>2016-12-03T13:09:54Z</time>
      </trkpt>
      <trkpt lat="48.81169" lon="2.2021">
        <ele>165.5</ele>
        <time>2016-12-03T13:09:59Z</time>
      </trkpt>
      <trkpt lat="48.81161" lon="2.20219">
        <ele>166.4</ele>
        <time>2016-12-03T13:10:04Z</time>
      </trkpt>
      <trkpt lat="48.81151" lon="2.20231">
        <ele>167.5</ele>
        <time>2016-12-03T13:10:10Z</time>
      </trkpt>
      <trkpt lat="48.81142" lon="2.20239">
        <ele>168.3</ele>
        <time>2016-12-03T13:10:13Z</time>
      </trkpt>
      <trkpt lat="48.81137" lon="2.20251">
        <ele>169.1</ele>
        <time>2016-12-03T13:10:18Z</time>
      </trkpt>
      <trkpt lat="48.81129" lon="2.20263">
        <ele>169.4</ele>
        <time>2016-12-03T13:10:22Z</time>
      </trkpt>
      <trkpt lat="48.81122" lon="2.20274">
        <ele>169.8</ele>
        <time>2016-12-03T13:10:27Z</time>
      </trkpt>
      <trkpt lat="48.81116" lon="2.20286">
        <ele>170.1</ele>
        <time>2016-12-03T13:10:32Z</time>
      </trkpt>
      <trkpt lat="48.81109" lon="2.20296">
        <ele>170.4</ele>
        <time>2016-12-03T13:10:36Z</time>
      </trkpt>
      <trkpt lat="48.81103" lon="2.20305">
        <ele>170.8</ele>
        <time>2016-12-03T13:10:40Z</time>
      </trkpt>
      <trkpt lat="48.81095" lon="2.20317">
        <ele>171.3</ele>
        <time>2016-12-03T13:10:44Z</time>
      </trkpt>
      <trkpt lat="48.81088" lon="2.20326">
        <ele>171.7</ele>
        <time>2016-12-03T13:10:48Z</time>
      </trkpt>
      <trkpt lat="48.81081" lon="2.20338">
        <ele>172</ele>
        <time>2016-12-03T13:10:52Z</time>
      </trkpt>
      <trkpt lat="48.81074" lon="2.20352">
        <ele>172.2</ele>
        <time>2016-12-03T13:10:57Z</time>
      </trkpt>
      <trkpt lat="48.81067" lon="2.20362">
        <ele>172.3</ele>
        <time>2016-12-03T13:11:00Z</time>
      </trkpt>
      <trkpt lat="48.81059" lon="2.20371">
        <ele>172.3</ele>
        <time>2016-12-03T13:11:04Z</time>
      </trkpt>
      <trkpt lat="48.81054" lon="2.20383">
        <ele>172.5</ele>
        <time>2016-12-03T13:11:08Z</time>
      </trkpt>
      <trkpt lat="48.81047" lon="2.20394">
        <ele>172.6</ele>
        <time>2016-12-03T13:11:12Z</time>
      </trkpt>
      <trkpt lat="48.81039" lon="2.20404">
        <ele>172.6</ele>
        <time>2016-12-03T13:11:16Z</time>
      </trkpt>
      <trkpt lat="48.81031" lon="2.20414">
        <ele>172.7</ele>
        <time>2016-12-03T13:11:21Z</time>
      </trkpt>
      <trkpt lat="48.81024" lon="2.20425">
        <ele>172.7</ele>
        <time>2016-12-03T13:11:25Z</time>
      </trkpt>
      <trkpt lat="48.81018" lon="2.20435">
        <ele>172.8</ele>
        <time>2016-12-03T13:11:29Z</time>
      </trkpt>
      <trkpt lat="48.81008" lon="2.20444">
        <ele>172.8</ele>
        <time>2016-12-03T13:11:33Z</time>
      </trkpt>
      <trkpt lat="48.81002" lon="2.20456">
        <ele>173</ele>
        <time>2016-12-03T13:11:38Z</time>
      </trkpt>
      <trkpt lat="48.80996" lon="2.20469">
        <ele>173.3</ele>
        <time>2016-12-03T13:11:43Z</time>
      </trkpt>
      <trkpt lat="48.80988" lon="2.20477">
        <ele>173.7</ele>
        <time>2016-12-03T13:11:54Z</time>
      </trkpt>
      <trkpt lat="48.80979" lon="2.20479">
        <ele>174</ele>
        <time>2016-12-03T13:12:07Z</time>
      </trkpt>
      <trkpt lat="48.80979" lon="2.20479">
        <ele>174</ele>
        <time>2016-12-03T13:12:09Z</time>
      </trkpt>
      <trkpt lat="48.80972" lon="2.2049">
        <ele>174.4</ele>
        <time>2016-12-03T13:12:59Z</time>
      </trkpt>
      <trkpt lat="48.80968" lon="2.20502">
        <ele>174.7</ele>
        <time>2016-12-03T13:13:08Z</time>
      </trkpt>
      <trkpt lat="48.8096" lon="2.20512">
        <ele>174.7</ele>
        <time>2016-12-03T13:13:13Z</time>
      </trkpt>
      <trkpt lat="48.80953" lon="2.20524">
        <ele>174.6</ele>
        <time>2016-12-03T13:13:17Z</time>
      </trkpt>
      <trkpt lat="48.80943" lon="2.20534">
        <ele>174.7</ele>
        <time>2016-12-03T13:13:21Z</time>
      </trkpt>
      <trkpt lat="48.80935" lon="2.20547">
        <ele>174.8</ele>
        <time>2016-12-03T13:13:25Z</time>
      </trkpt>
      <trkpt lat="48.80926" lon="2.20553">
        <ele>175</ele>
        <time>2016-12-03T13:13:30Z</time>
      </trkpt>
      <trkpt lat="48.80918" lon="2.20558">
        <ele>175.3</ele>
        <time>2016-12-03T13:13:33Z</time>
      </trkpt>
      <trkpt lat="48.8091" lon="2.2057">
        <ele>175.1</ele>
        <time>2016-12-03T13:13:36Z</time>
      </trkpt>
      <trkpt lat="48.80903" lon="2.20581">
        <ele>174.9</ele>
        <time>2016-12-03T13:13:39Z</time>
      </trkpt>
      <trkpt lat="48.80895" lon="2.2059">
        <ele>174.6</ele>
        <time>2016-12-03T13:13:42Z</time>
      </trkpt>
      <trkpt lat="48.80889" lon="2.20606">
        <ele>174.2</ele>
        <time>2016-12-03T13:13:46Z</time>
      </trkpt>
      <trkpt lat="48.80886" lon="2.2062">
        <ele>173.9</ele>
        <time>2016-12-03T13:13:49Z</time>
      </trkpt>
      <trkpt lat="48.80883" lon="2.20633">
        <ele>173.6</ele>
        <time>2016-12-03T13:13:52Z</time>
      </trkpt>
      <trkpt lat="48.80879" lon="2.20648">
        <ele>173.4</ele>
        <time>2016-12-03T13:13:55Z</time>
      </trkpt>
      <trkpt lat="48.80877" lon="2.20661">
        <ele>173.1</ele>
        <time>2016-12-03T13:13:58Z</time>
      </trkpt>
      <trkpt lat="48.80879" lon="2.20675">
        <ele>172.8</ele>
        <time>2016-12-03T13:14:01Z</time>
      </trkpt>
      <trkpt lat="48.80881" lon="2.20689">
        <ele>172.5</ele>
        <time>2016-12-03T13:14:04Z</time>
      </trkpt>
      <trkpt lat="48.80877" lon="2.20704">
        <ele>172.1</ele>
        <time>2016-12-03T13:14:09Z</time>
      </trkpt>
      <trkpt lat="48.80866" lon="2.2071">
        <ele>172.1</ele>
        <time>2016-12-03T13:14:13Z</time>
      </trkpt>
      <trkpt lat="48.80856" lon="2.20716">
        <ele>172.1</ele>
        <time>2016-12-03T13:14:16Z</time>
      </trkpt>
      <trkpt lat="48.80846" lon="2.20721">
        <ele>172.2</ele>
        <time>2016-12-03T13:14:19Z</time>
      </trkpt>
      <trkpt lat="48.80837" lon="2.20725">
        <ele>172.2</ele>
        <time>2016-12-03T13:14:22Z</time>
      </trkpt>
      <trkpt lat="48.80824" lon="2.20732">
        <ele>172.8</ele>
        <time>2016-12-03T13:14:26Z</time>
      </trkpt>
      <trkpt lat="48.80814" lon="2.20736">
        <ele>173.4</ele>
        <time>2016-12-03T13:14:29Z</time>
      </trkpt>
      <trkpt lat="48.808" lon="2.20743">
        <ele>174.1</ele>
        <time>2016-12-03T13:14:32Z</time>
      </trkpt>
      <trkpt lat="48.8079" lon="2.20748">
        <ele>174.6</ele>
        <time>2016-12-03T13:14:34Z</time>
      </trkpt>
      <trkpt lat="48.80782" lon="2.20753">
        <ele>175.1</ele>
        <time>2016-12-03T13:14:36Z</time>
      </trkpt>
      <trkpt lat="48.80772" lon="2.20758">
        <ele>175.7</ele>
        <time>2016-12-03T13:14:38Z</time>
      </trkpt>
      <trkpt lat="48.80763" lon="2.20764">
        <ele>176.1</ele>
        <time>2016-12-03T13:14:40Z</time>
      </trkpt>
      <trkpt lat="48.80754" lon="2.20769">
        <ele>176.6</ele>
        <time>2016-12-03T13:14:42Z</time>
      </trkpt>
      <trkpt lat="48.80746" lon="2.20774">
        <ele>176.9</ele>
        <time>2016-12-03T13:14:44Z</time>
      </trkpt>
      <trkpt lat="48.80736" lon="2.2078">
        <ele>177.3</ele>
        <time>2016-12-03T13:14:46Z</time>
      </trkpt>
      <trkpt lat="48.80727" lon="2.20785">
        <ele>177.7</ele>
        <time>2016-12-03T13:14:48Z</time>
      </trkpt>
      <trkpt lat="48.80718" lon="2.2079">
        <ele>178.1</ele>
        <time>2016-12-03T13:14:50Z</time>
      </trkpt>
      <trkpt lat="48.80707" lon="2.20796">
        <ele>178.5</ele>
        <time>2016-12-03T13:14:52Z</time>
      </trkpt>
      <trkpt lat="48.80696" lon="2.20803">
        <ele>179</ele>
        <time>2016-12-03T13:14:54Z</time>
      </trkpt>
      <trkpt lat="48.80683" lon="2.20812">
        <ele>179.5</ele>
        <time>2016-12-03T13:14:57Z</time>
      </trkpt>
      <trkpt lat="48.80673" lon="2.20817">
        <ele>179.9</ele>
        <time>2016-12-03T13:14:59Z</time>
      </trkpt>
      <trkpt lat="48.80664" lon="2.20822">
        <ele>180.2</ele>
        <time>2016-12-03T13:15:01Z</time>
      </trkpt>
      <trkpt lat="48.80654" lon="2.20828">
        <ele>180.2</ele>
        <time>2016-12-03T13:15:03Z</time>
      </trkpt>
      <trkpt lat="48.80643" lon="2.20832">
        <ele>180.3</ele>
        <time>2016-12-03T13:15:05Z</time>
      </trkpt>
      <trkpt lat="48.80632" lon="2.20836">
        <ele>180.4</ele>
        <time>2016-12-03T13:15:07Z</time>
      </trkpt>
      <trkpt lat="48.80622" lon="2.20842">
        <ele>180.4</ele>
        <time>2016-12-03T13:15:09Z</time>
      </trkpt>
      <trkpt lat="48.80612" lon="2.20845">
        <ele>180.4</ele>
        <time>2016-12-03T13:15:11Z</time>
      </trkpt>
      <trkpt lat="48.80603" lon="2.20848">
        <ele>180.5</ele>
        <time>2016-12-03T13:15:13Z</time>
      </trkpt>
      <trkpt lat="48.80592" lon="2.20857">
        <ele>180.4</ele>
        <time>2016-12-03T13:15:16Z</time>
      </trkpt>
      <trkpt lat="48.80584" lon="2.20862">
        <ele>180.3</ele>
        <time>2016-12-03T13:15:18Z</time>
      </trkpt>
      <trkpt lat="48.80572" lon="2.20868">
        <ele>180.6</ele>
        <time>2016-12-03T13:15:21Z</time>
      </trkpt>
      <trkpt lat="48.8056" lon="2.20876">
        <ele>181</ele>
        <time>2016-12-03T13:15:24Z</time>
      </trkpt>
      <trkpt lat="48.80551" lon="2.20881">
        <ele>181.3</ele>
        <time>2016-12-03T13:15:26Z</time>
      </trkpt>
      <trkpt lat="48.80539" lon="2.20887">
        <ele>182</ele>
        <time>2016-12-03T13:15:29Z</time>
      </trkpt>
      <trkpt lat="48.80527" lon="2.20894">
        <ele>182.7</ele>
        <time>2016-12-03T13:15:32Z</time>
      </trkpt>
      <trkpt lat="48.80515" lon="2.20899">
        <ele>183.5</ele>
        <time>2016-12-03T13:15:35Z</time>
      </trkpt>
      <trkpt lat="48.80503" lon="2.20905">
        <ele>184.4</ele>
        <time>2016-12-03T13:15:38Z</time>
      </trkpt>
      <trkpt lat="48.8049" lon="2.20911">
        <ele>184.7</ele>
        <time>2016-12-03T13:15:41Z</time>
      </trkpt>
      <trkpt lat="48.80477" lon="2.20918">
        <ele>184.7</ele>
        <time>2016-12-03T13:15:44Z</time>
      </trkpt>
      <trkpt lat="48.80465" lon="2.20925">
        <ele>184.7</ele>
        <time>2016-12-03T13:15:47Z</time>
      </trkpt>
      <trkpt lat="48.80456" lon="2.2093">
        <ele>184.6</ele>
        <time>2016-12-03T13:15:49Z</time>
      </trkpt>
      <trkpt lat="48.80444" lon="2.20936">
        <ele>184.6</ele>
        <time>2016-12-03T13:15:52Z</time>
      </trkpt>
      <trkpt lat="48.80433" lon="2.20943">
        <ele>184.7</ele>
        <time>2016-12-03T13:15:55Z</time>
      </trkpt>
      <trkpt lat="48.80422" lon="2.20948">
        <ele>184.8</ele>
        <time>2016-12-03T13:15:58Z</time>
      </trkpt>
      <trkpt lat="48.80412" lon="2.20952">
        <ele>184.7</ele>
        <time>2016-12-03T13:16:01Z</time>
      </trkpt>
      <trkpt lat="48.80402" lon="2.20958">
        <ele>184.6</ele>
        <time>2016-12-03T13:16:04Z</time>
      </trkpt>
      <trkpt lat="48.80392" lon="2.20962">
        <ele>184.5</ele>
        <time>2016-12-03T13:16:07Z</time>
      </trkpt>
      <trkpt lat="48.80383" lon="2.20968">
        <ele>184.4</ele>
        <time>2016-12-03T13:16:10Z</time>
      </trkpt>
      <trkpt lat="48.80374" lon="2.20974">
        <ele>184.4</ele>
        <time>2016-12-03T13:16:13Z</time>
      </trkpt>
      <trkpt lat="48.80365" lon="2.20976">
        <ele>184.2</ele>
        <time>2016-12-03T13:16:22Z</time>
      </trkpt>
      <trkpt lat="48.80354" lon="2.20976">
        <ele>183.9</ele>
        <time>2016-12-03T13:16:26Z</time>
      </trkpt>
      <trkpt lat="48.80345" lon="2.20973">
        <ele>183.6</ele>
        <time>2016-12-03T13:16:29Z</time>
      </trkpt>
      <trkpt lat="48.80332" lon="2.20971">
        <ele>183.3</ele>
        <time>2016-12-03T13:16:32Z</time>
      </trkpt>
      <trkpt lat="48.80323" lon="2.20967">
        <ele>182.9</ele>
        <time>2016-12-03T13:16:34Z</time>
      </trkpt>
      <trkpt lat="48.80309" lon="2.20964">
        <ele>182.5</ele>
        <time>2016-12-03T13:16:37Z</time>
      </trkpt>
      <trkpt lat="48.80301" lon="2.20958">
        <ele>182.2</ele>
        <time>2016-12-03T13:16:39Z</time>
      </trkpt>
      <trkpt lat="48.80289" lon="2.20953">
        <ele>181.9</ele>
        <time>2016-12-03T13:16:42Z</time>
      </trkpt>
      <trkpt lat="48.80278" lon="2.20953">
        <ele>181.6</ele>
        <time>2016-12-03T13:16:44Z</time>
      </trkpt>
      <trkpt lat="48.80267" lon="2.20947">
        <ele>181.3</ele>
        <time>2016-12-03T13:16:47Z</time>
      </trkpt>
      <trkpt lat="48.80253" lon="2.2094">
        <ele>181.1</ele>
        <time>2016-12-03T13:16:50Z</time>
      </trkpt>
      <trkpt lat="48.80243" lon="2.20938">
        <ele>181.2</ele>
        <time>2016-12-03T13:16:52Z</time>
      </trkpt>
      <trkpt lat="48.80233" lon="2.20935">
        <ele>181.4</ele>
        <time>2016-12-03T13:16:54Z</time>
      </trkpt>
      <trkpt lat="48.80221" lon="2.2093">
        <ele>181.7</ele>
        <time>2016-12-03T13:16:57Z</time>
      </trkpt>
      <trkpt lat="48.80209" lon="2.20927">
        <ele>182</ele>
        <time>2016-12-03T13:17:00Z</time>
      </trkpt>
      <trkpt lat="48.802" lon="2.20923">
        <ele>182.2</ele>
        <time>2016-12-03T13:17:02Z</time>
      </trkpt>
      <trkpt lat="48.80187" lon="2.20919">
        <ele>182.5</ele>
        <time>2016-12-03T13:17:05Z</time>
      </trkpt>
      <trkpt lat="48.80177" lon="2.20916">
        <ele>182.8</ele>
        <time>2016-12-03T13:17:07Z</time>
      </trkpt>
      <trkpt lat="48.80165" lon="2.20912">
        <ele>183.1</ele>
        <time>2016-12-03T13:17:10Z</time>
      </trkpt>
      <trkpt lat="48.80152" lon="2.20906">
        <ele>183.5</ele>
        <time>2016-12-03T13:17:13Z</time>
      </trkpt>
      <trkpt lat="48.80142" lon="2.20902">
        <ele>183.8</ele>
        <time>2016-12-03T13:17:15Z</time>
      </trkpt>
      <trkpt lat="48.80129" lon="2.20902">
        <ele>184.2</ele>
        <time>2016-12-03T13:17:18Z</time>
      </trkpt>
      <trkpt lat="48.80118" lon="2.20902">
        <ele>184.5</ele>
        <time>2016-12-03T13:17:20Z</time>
      </trkpt>
      <trkpt lat="48.80109" lon="2.20903">
        <ele>184.8</ele>
        <time>2016-12-03T13:17:22Z</time>
      </trkpt>
      <trkpt lat="48.80097" lon="2.20901">
        <ele>185.2</ele>
        <time>2016-12-03T13:17:24Z</time>
      </trkpt>
      <trkpt lat="48.80084" lon="2.20905">
        <ele>185.7</ele>
        <time>2016-12-03T13:17:27Z</time>
      </trkpt>
      <trkpt lat="48.80074" lon="2.20907">
        <ele>185.7</ele>
        <time>2016-12-03T13:17:30Z</time>
      </trkpt>
      <trkpt lat="48.80062" lon="2.20907">
        <ele>185.6</ele>
        <time>2016-12-03T13:17:34Z</time>
      </trkpt>
      <trkpt lat="48.80052" lon="2.20912">
        <ele>185.6</ele>
        <time>2016-12-03T13:17:39Z</time>
      </trkpt>
      <trkpt lat="48.80042" lon="2.20916">
        <ele>185.5</ele>
        <time>2016-12-03T13:17:43Z</time>
      </trkpt>
      <trkpt lat="48.80031" lon="2.20923">
        <ele>185.4</ele>
        <time>2016-12-03T13:17:47Z</time>
      </trkpt>
      <trkpt lat="48.80023" lon="2.20932">
        <ele>185.4</ele>
        <time>2016-12-03T13:17:50Z</time>
      </trkpt>
      <trkpt lat="48.80013" lon="2.20938">
        <ele>185.4</ele>
        <time>2016-12-03T13:17:53Z</time>
      </trkpt>
      <trkpt lat="48.80002" lon="2.20946">
        <ele>185.4</ele>
        <time>2016-12-03T13:17:56Z</time>
      </trkpt>
      <trkpt lat="48.79991" lon="2.20957">
        <ele>185</ele>
        <time>2016-12-03T13:17:59Z</time>
      </trkpt>
      <trkpt lat="48.79978" lon="2.20968">
        <ele>184.6</ele>
        <time>2016-12-03T13:18:02Z</time>
      </trkpt>
      <trkpt lat="48.7997" lon="2.20975">
        <ele>184.3</ele>
        <time>2016-12-03T13:18:04Z</time>
      </trkpt>
      <trkpt lat="48.79962" lon="2.20982">
        <ele>184</ele>
        <time>2016-12-03T13:18:06Z</time>
      </trkpt>
      <trkpt lat="48.79953" lon="2.20987">
        <ele>183.6</ele>
        <time>2016-12-03T13:18:08Z</time>
      </trkpt>
      <trkpt lat="48.79945" lon="2.20994">
        <ele>183.3</ele>
        <time>2016-12-03T13:18:10Z</time>
      </trkpt>
      <trkpt lat="48.79937" lon="2.21001">
        <ele>183</ele>
        <time>2016-12-03T13:18:12Z</time>
      </trkpt>
      <trkpt lat="48.79928" lon="2.21009">
        <ele>182.7</ele>
        <time>2016-12-03T13:18:14Z</time>
      </trkpt>
      <trkpt lat="48.79919" lon="2.21017">
        <ele>182.5</ele>
        <time>2016-12-03T13:18:16Z</time>
      </trkpt>
      <trkpt lat="48.79909" lon="2.21025">
        <ele>182.3</ele>
        <time>2016-12-03T13:18:18Z</time>
      </trkpt>
      <trkpt lat="48.799" lon="2.21032">
        <ele>182</ele>
        <time>2016-12-03T13:18:20Z</time>
      </trkpt>
      <trkpt lat="48.79891" lon="2.2104">
        <ele>181.8</ele>
        <time>2016-12-03T13:18:22Z</time>
      </trkpt>
      <trkpt lat="48.79882" lon="2.21047">
        <ele>181.7</ele>
        <time>2016-12-03T13:18:24Z</time>
      </trkpt>
      <trkpt lat="48.79871" lon="2.21056">
        <ele>181.5</ele>
        <time>2016-12-03T13:18:26Z</time>
      </trkpt>
      <trkpt lat="48.79862" lon="2.21064">
        <ele>181.4</ele>
        <time>2016-12-03T13:18:28Z</time>
      </trkpt>
      <trkpt lat="48.79853" lon="2.21072">
        <ele>181.3</ele>
        <time>2016-12-03T13:18:30Z</time>
      </trkpt>
      <trkpt lat="48.79844" lon="2.21079">
        <ele>181.2</ele>
        <time>2016-12-03T13:18:32Z</time>
      </trkpt>
      <trkpt lat="48.79835" lon="2.21087">
        <ele>181.1</ele>
        <time>2016-12-03T13:18:34Z</time>
      </trkpt>
      <trkpt lat="48.79827" lon="2.21095">
        <ele>181</ele>
        <time>2016-12-03T13:18:36Z</time>
      </trkpt>
      <trkpt lat="48.79818" lon="2.21105">
        <ele>180.8</ele>
        <time>2016-12-03T13:18:38Z</time>
      </trkpt>
      <trkpt lat="48.79809" lon="2.21113">
        <ele>180.7</ele>
        <time>2016-12-03T13:18:40Z</time>
      </trkpt>
      <trkpt lat="48.79799" lon="2.21123">
        <ele>180.7</ele>
        <time>2016-12-03T13:18:42Z</time>
      </trkpt>
      <trkpt lat="48.7979" lon="2.21133">
        <ele>180.8</ele>
        <time>2016-12-03T13:18:44Z</time>
      </trkpt>
      <trkpt lat="48.79779" lon="2.21141">
        <ele>180.9</ele>
        <time>2016-12-03T13:18:46Z</time>
      </trkpt>
      <trkpt lat="48.79769" lon="2.21147">
        <ele>181</ele>
        <time>2016-12-03T13:18:48Z</time>
      </trkpt>
      <trkpt lat="48.7976" lon="2.21152">
        <ele>181.1</ele>
        <time>2016-12-03T13:18:50Z</time>
      </trkpt>
      <trkpt lat="48.79751" lon="2.21158">
        <ele>181.4</ele>
        <time>2016-12-03T13:18:52Z</time>
      </trkpt>
      <trkpt lat="48.79742" lon="2.21165">
        <ele>181.6</ele>
        <time>2016-12-03T13:18:54Z</time>
      </trkpt>
      <trkpt lat="48.79731" lon="2.21175">
        <ele>181.7</ele>
        <time>2016-12-03T13:18:57Z</time>
      </trkpt>
      <trkpt lat="48.79719" lon="2.21183">
        <ele>181.7</ele>
        <time>2016-12-03T13:19:00Z</time>
      </trkpt>
      <trkpt lat="48.79707" lon="2.2119">
        <ele>181.7</ele>
        <time>2016-12-03T13:19:03Z</time>
      </trkpt>
      <trkpt lat="48.79699" lon="2.21195">
        <ele>181.7</ele>
        <time>2016-12-03T13:19:05Z</time>
      </trkpt>
      <trkpt lat="48.79686" lon="2.21206">
        <ele>181.9</ele>
        <time>2016-12-03T13:19:08Z</time>
      </trkpt>
      <trkpt lat="48.79679" lon="2.21214">
        <ele>182.2</ele>
        <time>2016-12-03T13:19:10Z</time>
      </trkpt>
      <trkpt lat="48.79671" lon="2.21222">
        <ele>182.4</ele>
        <time>2016-12-03T13:19:12Z</time>
      </trkpt>
      <trkpt lat="48.79659" lon="2.21231">
        <ele>182.3</ele>
        <time>2016-12-03T13:19:15Z</time>
      </trkpt>
      <trkpt lat="48.79649" lon="2.21235">
        <ele>182.1</ele>
        <time>2016-12-03T13:19:17Z</time>
      </trkpt>
      <trkpt lat="48.7964" lon="2.21242">
        <ele>181.9</ele>
        <time>2016-12-03T13:19:20Z</time>
      </trkpt>
      <trkpt lat="48.79631" lon="2.21256">
        <ele>181.8</ele>
        <time>2016-12-03T13:19:23Z</time>
      </trkpt>
      <trkpt lat="48.79622" lon="2.21267">
        <ele>181.1</ele>
        <time>2016-12-03T13:19:26Z</time>
      </trkpt>
      <trkpt lat="48.79612" lon="2.21276">
        <ele>180.4</ele>
        <time>2016-12-03T13:19:29Z</time>
      </trkpt>
      <trkpt lat="48.79602" lon="2.21284">
        <ele>179.7</ele>
        <time>2016-12-03T13:19:32Z</time>
      </trkpt>
      <trkpt lat="48.79594" lon="2.21291">
        <ele>179.1</ele>
        <time>2016-12-03T13:19:35Z</time>
      </trkpt>
      <trkpt lat="48.79584" lon="2.21298">
        <ele>178.4</ele>
        <time>2016-12-03T13:19:39Z</time>
      </trkpt>
      <trkpt lat="48.79575" lon="2.21306">
        <ele>178.3</ele>
        <time>2016-12-03T13:19:44Z</time>
      </trkpt>
      <trkpt lat="48.79572" lon="2.21307">
        <ele>178.3</ele>
        <time>2016-12-03T13:19:51Z</time>
      </trkpt>
      <trkpt lat="48.79568" lon="2.21319">
        <ele>178.1</ele>
        <time>2016-12-03T13:21:34Z</time>
      </trkpt>
      <trkpt lat="48.79568" lon="2.2132">
        <ele>178</ele>
        <time>2016-12-03T13:21:35Z</time>
      </trkpt>
      <trkpt lat="48.79568" lon="2.2132">
        <ele>178</ele>
        <time>2016-12-03T13:21:35Z</time>
      </trkpt>
      <trkpt lat="48.79569" lon="2.21328">
        <ele>177.9</ele>
        <time>2016-12-03T13:21:47Z</time>
      </trkpt>
      <trkpt lat="48.79573" lon="2.2133">
        <ele>177.9</ele>
        <time>2016-12-03T13:22:46Z</time>
      </trkpt>
    </trkseg>
  </trk>
</gpx>